<?xml version="1.0" encoding="UTF-8" standalone="no" ?>
<gpx xmlns="http://www.topografix.com/GPX/1/1" xmlns:xsi="http://www.w3.org/2001/XMLSchema-instance" xsi:schemaLocation="http://www.topografix.com/GPX/1/1 http://www.topografix.com/GPX/1/1/gpx.xsd" version="1.1" creator="VisuGPX - https://www.visugpx.com">
  <metadata>
    <name>VTT, 50 km Bgs marmagne morthomiers</name>
  </metadata>
  <trk>
    <name><![CDATA[VTT, 49.70 km le 30_08_2021 on AllTrails]]></name>
    <extensions>
      <line xmlns="http://www.topografix.com/GPX/gpx_style/0/2">
        <color>0000FF</color>
        <width>4</width>
      </line>
    </extensions>
    <trkseg>
      <trkpt lat="47.06741" lon="2.40708">
        <ele>149</ele>
        <time>2021-08-30T14:47:23Z</time>
      </trkpt>
      <trkpt lat="47.06741" lon="2.40708">
        <ele>149</ele>
        <time>2021-08-30T14:47:23Z</time>
      </trkpt>
      <trkpt lat="47.06741" lon="2.40708">
        <ele>149</ele>
        <time>2021-08-30T14:47:23Z</time>
      </trkpt>
      <trkpt lat="47.06741" lon="2.40708">
        <ele>149</ele>
        <time>2021-08-30T14:47:23Z</time>
      </trkpt>
      <trkpt lat="47.06741" lon="2.40709">
        <ele>149</ele>
        <time>2021-08-30T14:47:23Z</time>
      </trkpt>
      <trkpt lat="47.06741" lon="2.40709">
        <ele>149</ele>
        <time>2021-08-30T14:47:23Z</time>
      </trkpt>
      <trkpt lat="47.06741" lon="2.40709">
        <ele>149</ele>
        <time>2021-08-30T14:47:23Z</time>
      </trkpt>
      <trkpt lat="47.0674" lon="2.4071">
        <ele>149</ele>
        <time>2021-08-30T14:47:23Z</time>
      </trkpt>
      <trkpt lat="47.06741" lon="2.4071">
        <ele>149</ele>
        <time>2021-08-30T14:47:23Z</time>
      </trkpt>
      <trkpt lat="47.06739" lon="2.40708">
        <ele>149</ele>
        <time>2021-08-30T14:47:23Z</time>
      </trkpt>
      <trkpt lat="47.06734" lon="2.40693">
        <ele>149</ele>
        <time>2021-08-30T14:47:23Z</time>
      </trkpt>
      <trkpt lat="47.06734" lon="2.4069">
        <ele>149</ele>
        <time>2021-08-30T14:47:23Z</time>
      </trkpt>
      <trkpt lat="47.06732" lon="2.40691">
        <ele>149</ele>
        <time>2021-08-30T14:47:23Z</time>
      </trkpt>
      <trkpt lat="47.06732" lon="2.40691">
        <ele>149</ele>
        <time>2021-08-30T14:47:23Z</time>
      </trkpt>
      <trkpt lat="47.06732" lon="2.40691">
        <ele>149</ele>
        <time>2021-08-30T14:47:23Z</time>
      </trkpt>
      <trkpt lat="47.06732" lon="2.4069">
        <ele>149</ele>
        <time>2021-08-30T14:47:23Z</time>
      </trkpt>
      <trkpt lat="47.06732" lon="2.40688">
        <ele>149</ele>
        <time>2021-08-30T14:47:23Z</time>
      </trkpt>
      <trkpt lat="47.06733" lon="2.40685">
        <ele>149</ele>
        <time>2021-08-30T14:47:23Z</time>
      </trkpt>
      <trkpt lat="47.06736" lon="2.40682">
        <ele>149</ele>
        <time>2021-08-30T14:47:23Z</time>
      </trkpt>
      <trkpt lat="47.0674" lon="2.4068">
        <ele>149</ele>
        <time>2021-08-30T14:47:23Z</time>
      </trkpt>
      <trkpt lat="47.06744" lon="2.40678">
        <ele>149</ele>
        <time>2021-08-30T14:47:23Z</time>
      </trkpt>
      <trkpt lat="47.06749" lon="2.40677">
        <ele>149</ele>
        <time>2021-08-30T14:47:23Z</time>
      </trkpt>
      <trkpt lat="47.06774" lon="2.40663">
        <ele>149</ele>
        <time>2021-08-30T14:47:23Z</time>
      </trkpt>
      <trkpt lat="47.06804" lon="2.40648">
        <ele>149</ele>
        <time>2021-08-30T14:47:23Z</time>
      </trkpt>
      <trkpt lat="47.06834" lon="2.4063">
        <ele>146</ele>
        <time>2021-08-30T14:47:23Z</time>
      </trkpt>
      <trkpt lat="47.06862" lon="2.40616">
        <ele>146</ele>
        <time>2021-08-30T14:47:23Z</time>
      </trkpt>
      <trkpt lat="47.06868" lon="2.40589">
        <ele>146</ele>
        <time>2021-08-30T14:47:23Z</time>
      </trkpt>
      <trkpt lat="47.06864" lon="2.40557">
        <ele>146</ele>
        <time>2021-08-30T14:47:23Z</time>
      </trkpt>
      <trkpt lat="47.06863" lon="2.40548">
        <ele>145</ele>
        <time>2021-08-30T14:47:23Z</time>
      </trkpt>
      <trkpt lat="47.06857" lon="2.40502">
        <ele>143</ele>
        <time>2021-08-30T14:47:23Z</time>
      </trkpt>
      <trkpt lat="47.06849" lon="2.40455">
        <ele>141</ele>
        <time>2021-08-30T14:47:23Z</time>
      </trkpt>
      <trkpt lat="47.06843" lon="2.4041">
        <ele>140</ele>
        <time>2021-08-30T14:47:23Z</time>
      </trkpt>
      <trkpt lat="47.06837" lon="2.40367">
        <ele>140</ele>
        <time>2021-08-30T14:47:23Z</time>
      </trkpt>
      <trkpt lat="47.06828" lon="2.40317">
        <ele>140</ele>
        <time>2021-08-30T14:47:23Z</time>
      </trkpt>
      <trkpt lat="47.06823" lon="2.40277">
        <ele>137</ele>
        <time>2021-08-30T14:47:23Z</time>
      </trkpt>
      <trkpt lat="47.06823" lon="2.40267">
        <ele>137</ele>
        <time>2021-08-30T14:47:23Z</time>
      </trkpt>
      <trkpt lat="47.06853" lon="2.40238">
        <ele>136</ele>
        <time>2021-08-30T14:47:23Z</time>
      </trkpt>
      <trkpt lat="47.06884" lon="2.40217">
        <ele>137</ele>
        <time>2021-08-30T14:47:23Z</time>
      </trkpt>
      <trkpt lat="47.06911" lon="2.402">
        <ele>139</ele>
        <time>2021-08-30T14:47:23Z</time>
      </trkpt>
      <trkpt lat="47.06936" lon="2.40182">
        <ele>141</ele>
        <time>2021-08-30T14:47:23Z</time>
      </trkpt>
      <trkpt lat="47.06961" lon="2.40166">
        <ele>143</ele>
        <time>2021-08-30T14:47:23Z</time>
      </trkpt>
      <trkpt lat="47.06982" lon="2.40156">
        <ele>144</ele>
        <time>2021-08-30T14:47:23Z</time>
      </trkpt>
      <trkpt lat="47.06987" lon="2.40154">
        <ele>144</ele>
        <time>2021-08-30T14:47:23Z</time>
      </trkpt>
      <trkpt lat="47.07012" lon="2.40141">
        <ele>145</ele>
        <time>2021-08-30T14:47:23Z</time>
      </trkpt>
      <trkpt lat="47.07037" lon="2.40124">
        <ele>144</ele>
        <time>2021-08-30T14:47:23Z</time>
      </trkpt>
      <trkpt lat="47.07055" lon="2.40113">
        <ele>144</ele>
        <time>2021-08-30T14:47:23Z</time>
      </trkpt>
      <trkpt lat="47.07055" lon="2.40093">
        <ele>142</ele>
        <time>2021-08-30T14:47:23Z</time>
      </trkpt>
      <trkpt lat="47.0705" lon="2.4005">
        <ele>139</ele>
        <time>2021-08-30T14:47:23Z</time>
      </trkpt>
      <trkpt lat="47.07046" lon="2.40006">
        <ele>137</ele>
        <time>2021-08-30T14:47:23Z</time>
      </trkpt>
      <trkpt lat="47.07047" lon="2.39995">
        <ele>136</ele>
        <time>2021-08-30T14:47:23Z</time>
      </trkpt>
      <trkpt lat="47.07059" lon="2.39938">
        <ele>135</ele>
        <time>2021-08-30T14:47:23Z</time>
      </trkpt>
      <trkpt lat="47.07071" lon="2.39901">
        <ele>135</ele>
        <time>2021-08-30T14:47:23Z</time>
      </trkpt>
      <trkpt lat="47.07098" lon="2.3989">
        <ele>135</ele>
        <time>2021-08-30T14:47:23Z</time>
      </trkpt>
      <trkpt lat="47.07141" lon="2.39879">
        <ele>135</ele>
        <time>2021-08-30T14:47:23Z</time>
      </trkpt>
      <trkpt lat="47.07175" lon="2.39869">
        <ele>136</ele>
        <time>2021-08-30T14:47:23Z</time>
      </trkpt>
      <trkpt lat="47.07201" lon="2.39864">
        <ele>136</ele>
        <time>2021-08-30T14:47:23Z</time>
      </trkpt>
      <trkpt lat="47.07213" lon="2.39862">
        <ele>136</ele>
        <time>2021-08-30T14:47:23Z</time>
      </trkpt>
      <trkpt lat="47.07219" lon="2.39861">
        <ele>135</ele>
        <time>2021-08-30T14:47:23Z</time>
      </trkpt>
      <trkpt lat="47.07233" lon="2.3986">
        <ele>135</ele>
        <time>2021-08-30T14:47:23Z</time>
      </trkpt>
      <trkpt lat="47.07239" lon="2.39858">
        <ele>135</ele>
        <time>2021-08-30T14:47:23Z</time>
      </trkpt>
      <trkpt lat="47.07245" lon="2.39857">
        <ele>135</ele>
        <time>2021-08-30T14:47:23Z</time>
      </trkpt>
      <trkpt lat="47.07251" lon="2.39857">
        <ele>135</ele>
        <time>2021-08-30T14:47:23Z</time>
      </trkpt>
      <trkpt lat="47.07262" lon="2.39856">
        <ele>135</ele>
        <time>2021-08-30T14:47:23Z</time>
      </trkpt>
      <trkpt lat="47.07267" lon="2.39853">
        <ele>135</ele>
        <time>2021-08-30T14:47:23Z</time>
      </trkpt>
      <trkpt lat="47.07271" lon="2.39846">
        <ele>135</ele>
        <time>2021-08-30T14:47:23Z</time>
      </trkpt>
      <trkpt lat="47.07273" lon="2.39837">
        <ele>135</ele>
        <time>2021-08-30T14:47:23Z</time>
      </trkpt>
      <trkpt lat="47.07274" lon="2.39828">
        <ele>135</ele>
        <time>2021-08-30T14:47:23Z</time>
      </trkpt>
      <trkpt lat="47.07272" lon="2.39807">
        <ele>134</ele>
        <time>2021-08-30T14:47:23Z</time>
      </trkpt>
      <trkpt lat="47.0727" lon="2.39797">
        <ele>134</ele>
        <time>2021-08-30T14:47:23Z</time>
      </trkpt>
      <trkpt lat="47.07269" lon="2.39786">
        <ele>133</ele>
        <time>2021-08-30T14:47:23Z</time>
      </trkpt>
      <trkpt lat="47.07267" lon="2.39775">
        <ele>133</ele>
        <time>2021-08-30T14:47:23Z</time>
      </trkpt>
      <trkpt lat="47.07266" lon="2.39764">
        <ele>133</ele>
        <time>2021-08-30T14:47:23Z</time>
      </trkpt>
      <trkpt lat="47.07263" lon="2.39742">
        <ele>132</ele>
        <time>2021-08-30T14:47:23Z</time>
      </trkpt>
      <trkpt lat="47.07262" lon="2.39731">
        <ele>131</ele>
        <time>2021-08-30T14:47:23Z</time>
      </trkpt>
      <trkpt lat="47.07261" lon="2.39721">
        <ele>131</ele>
        <time>2021-08-30T14:47:23Z</time>
      </trkpt>
      <trkpt lat="47.07259" lon="2.3971">
        <ele>130</ele>
        <time>2021-08-30T14:47:23Z</time>
      </trkpt>
      <trkpt lat="47.07257" lon="2.39698">
        <ele>130</ele>
        <time>2021-08-30T14:47:23Z</time>
      </trkpt>
      <trkpt lat="47.07253" lon="2.39677">
        <ele>129</ele>
        <time>2021-08-30T14:47:23Z</time>
      </trkpt>
      <trkpt lat="47.07251" lon="2.39667">
        <ele>129</ele>
        <time>2021-08-30T14:47:23Z</time>
      </trkpt>
      <trkpt lat="47.07249" lon="2.39657">
        <ele>128</ele>
        <time>2021-08-30T14:47:23Z</time>
      </trkpt>
      <trkpt lat="47.07247" lon="2.39646">
        <ele>128</ele>
        <time>2021-08-30T14:47:23Z</time>
      </trkpt>
      <trkpt lat="47.07246" lon="2.39635">
        <ele>127</ele>
        <time>2021-08-30T14:47:23Z</time>
      </trkpt>
      <trkpt lat="47.07244" lon="2.39623">
        <ele>127</ele>
        <time>2021-08-30T14:47:23Z</time>
      </trkpt>
      <trkpt lat="47.07242" lon="2.39612">
        <ele>127</ele>
        <time>2021-08-30T14:47:23Z</time>
      </trkpt>
      <trkpt lat="47.0724" lon="2.39602">
        <ele>127</ele>
        <time>2021-08-30T14:47:23Z</time>
      </trkpt>
      <trkpt lat="47.07239" lon="2.39592">
        <ele>127</ele>
        <time>2021-08-30T14:47:23Z</time>
      </trkpt>
      <trkpt lat="47.07238" lon="2.39582">
        <ele>127</ele>
        <time>2021-08-30T14:47:23Z</time>
      </trkpt>
      <trkpt lat="47.07237" lon="2.39572">
        <ele>127</ele>
        <time>2021-08-30T14:47:23Z</time>
      </trkpt>
      <trkpt lat="47.07237" lon="2.39561">
        <ele>127</ele>
        <time>2021-08-30T14:47:23Z</time>
      </trkpt>
      <trkpt lat="47.07236" lon="2.3955">
        <ele>128</ele>
        <time>2021-08-30T14:47:23Z</time>
      </trkpt>
      <trkpt lat="47.07235" lon="2.3954">
        <ele>128</ele>
        <time>2021-08-30T14:47:23Z</time>
      </trkpt>
      <trkpt lat="47.07233" lon="2.3953">
        <ele>128</ele>
        <time>2021-08-30T14:47:23Z</time>
      </trkpt>
      <trkpt lat="47.07231" lon="2.39519">
        <ele>128</ele>
        <time>2021-08-30T14:47:23Z</time>
      </trkpt>
      <trkpt lat="47.0723" lon="2.39511">
        <ele>129</ele>
        <time>2021-08-30T14:47:23Z</time>
      </trkpt>
      <trkpt lat="47.07229" lon="2.39501">
        <ele>129</ele>
        <time>2021-08-30T14:47:23Z</time>
      </trkpt>
      <trkpt lat="47.07228" lon="2.39491">
        <ele>129</ele>
        <time>2021-08-30T14:47:23Z</time>
      </trkpt>
      <trkpt lat="47.07225" lon="2.39481">
        <ele>129</ele>
        <time>2021-08-30T14:47:23Z</time>
      </trkpt>
      <trkpt lat="47.07224" lon="2.39472">
        <ele>130</ele>
        <time>2021-08-30T14:47:23Z</time>
      </trkpt>
      <trkpt lat="47.07223" lon="2.39462">
        <ele>130</ele>
        <time>2021-08-30T14:47:23Z</time>
      </trkpt>
      <trkpt lat="47.07222" lon="2.39452">
        <ele>129</ele>
        <time>2021-08-30T14:47:23Z</time>
      </trkpt>
      <trkpt lat="47.07221" lon="2.39444">
        <ele>129</ele>
        <time>2021-08-30T14:47:23Z</time>
      </trkpt>
      <trkpt lat="47.07219" lon="2.39434">
        <ele>130</ele>
        <time>2021-08-30T14:47:23Z</time>
      </trkpt>
      <trkpt lat="47.07218" lon="2.39425">
        <ele>130</ele>
        <time>2021-08-30T14:47:23Z</time>
      </trkpt>
      <trkpt lat="47.07217" lon="2.39415">
        <ele>130</ele>
        <time>2021-08-30T14:47:23Z</time>
      </trkpt>
      <trkpt lat="47.07215" lon="2.39406">
        <ele>130</ele>
        <time>2021-08-30T14:47:23Z</time>
      </trkpt>
      <trkpt lat="47.07215" lon="2.39399">
        <ele>131</ele>
        <time>2021-08-30T14:47:23Z</time>
      </trkpt>
      <trkpt lat="47.07214" lon="2.3939">
        <ele>131</ele>
        <time>2021-08-30T14:47:23Z</time>
      </trkpt>
      <trkpt lat="47.07214" lon="2.39382">
        <ele>131</ele>
        <time>2021-08-30T14:47:23Z</time>
      </trkpt>
      <trkpt lat="47.07215" lon="2.39373">
        <ele>132</ele>
        <time>2021-08-30T14:47:23Z</time>
      </trkpt>
      <trkpt lat="47.07213" lon="2.39367">
        <ele>132</ele>
        <time>2021-08-30T14:47:23Z</time>
      </trkpt>
      <trkpt lat="47.07212" lon="2.39362">
        <ele>132</ele>
        <time>2021-08-30T14:47:23Z</time>
      </trkpt>
      <trkpt lat="47.07211" lon="2.39356">
        <ele>132</ele>
        <time>2021-08-30T14:47:23Z</time>
      </trkpt>
      <trkpt lat="47.07208" lon="2.39331">
        <ele>131</ele>
        <time>2021-08-30T14:47:23Z</time>
      </trkpt>
      <trkpt lat="47.07202" lon="2.39302">
        <ele>131</ele>
        <time>2021-08-30T14:47:23Z</time>
      </trkpt>
      <trkpt lat="47.07195" lon="2.39268">
        <ele>130</ele>
        <time>2021-08-30T14:47:23Z</time>
      </trkpt>
      <trkpt lat="47.07191" lon="2.39238">
        <ele>129</ele>
        <time>2021-08-30T14:47:23Z</time>
      </trkpt>
      <trkpt lat="47.07186" lon="2.39211">
        <ele>128</ele>
        <time>2021-08-30T14:47:23Z</time>
      </trkpt>
      <trkpt lat="47.07186" lon="2.39197">
        <ele>128</ele>
        <time>2021-08-30T14:47:23Z</time>
      </trkpt>
      <trkpt lat="47.07188" lon="2.39195">
        <ele>128</ele>
        <time>2021-08-30T14:47:23Z</time>
      </trkpt>
      <trkpt lat="47.07192" lon="2.39213">
        <ele>128</ele>
        <time>2021-08-30T14:47:23Z</time>
      </trkpt>
      <trkpt lat="47.07198" lon="2.39247">
        <ele>130</ele>
        <time>2021-08-30T14:47:23Z</time>
      </trkpt>
      <trkpt lat="47.07224" lon="2.3927">
        <ele>131</ele>
        <time>2021-08-30T14:47:23Z</time>
      </trkpt>
      <trkpt lat="47.07255" lon="2.39274">
        <ele>131</ele>
        <time>2021-08-30T14:47:23Z</time>
      </trkpt>
      <trkpt lat="47.07286" lon="2.39268">
        <ele>131</ele>
        <time>2021-08-30T14:47:23Z</time>
      </trkpt>
      <trkpt lat="47.07312" lon="2.39261">
        <ele>131</ele>
        <time>2021-08-30T14:47:23Z</time>
      </trkpt>
      <trkpt lat="47.07318" lon="2.3926">
        <ele>131</ele>
        <time>2021-08-30T14:47:23Z</time>
      </trkpt>
      <trkpt lat="47.07348" lon="2.39249">
        <ele>131</ele>
        <time>2021-08-30T14:47:23Z</time>
      </trkpt>
      <trkpt lat="47.07377" lon="2.39239">
        <ele>133</ele>
        <time>2021-08-30T14:47:23Z</time>
      </trkpt>
      <trkpt lat="47.07383" lon="2.39237">
        <ele>133</ele>
        <time>2021-08-30T14:47:23Z</time>
      </trkpt>
      <trkpt lat="47.07388" lon="2.39234">
        <ele>133</ele>
        <time>2021-08-30T14:47:23Z</time>
      </trkpt>
      <trkpt lat="47.07393" lon="2.39231">
        <ele>134</ele>
        <time>2021-08-30T14:47:23Z</time>
      </trkpt>
      <trkpt lat="47.07399" lon="2.39229">
        <ele>134</ele>
        <time>2021-08-30T14:47:23Z</time>
      </trkpt>
      <trkpt lat="47.07405" lon="2.39227">
        <ele>135</ele>
        <time>2021-08-30T14:47:23Z</time>
      </trkpt>
      <trkpt lat="47.0741" lon="2.39225">
        <ele>135</ele>
        <time>2021-08-30T14:47:23Z</time>
      </trkpt>
      <trkpt lat="47.07415" lon="2.39224">
        <ele>135</ele>
        <time>2021-08-30T14:47:23Z</time>
      </trkpt>
      <trkpt lat="47.0745" lon="2.39219">
        <ele>136</ele>
        <time>2021-08-30T14:47:23Z</time>
      </trkpt>
      <trkpt lat="47.07481" lon="2.39209">
        <ele>135</ele>
        <time>2021-08-30T14:47:23Z</time>
      </trkpt>
      <trkpt lat="47.07508" lon="2.39197">
        <ele>135</ele>
        <time>2021-08-30T14:47:23Z</time>
      </trkpt>
      <trkpt lat="47.0754" lon="2.39186">
        <ele>132</ele>
        <time>2021-08-30T14:47:23Z</time>
      </trkpt>
      <trkpt lat="47.0756" lon="2.39169">
        <ele>130</ele>
        <time>2021-08-30T14:47:23Z</time>
      </trkpt>
      <trkpt lat="47.07578" lon="2.39165">
        <ele>129</ele>
        <time>2021-08-30T14:47:23Z</time>
      </trkpt>
      <trkpt lat="47.07583" lon="2.39167">
        <ele>129</ele>
        <time>2021-08-30T14:47:23Z</time>
      </trkpt>
      <trkpt lat="47.07589" lon="2.39169">
        <ele>130</ele>
        <time>2021-08-30T14:47:23Z</time>
      </trkpt>
      <trkpt lat="47.07594" lon="2.39167">
        <ele>130</ele>
        <time>2021-08-30T14:47:23Z</time>
      </trkpt>
      <trkpt lat="47.07601" lon="2.39166">
        <ele>130</ele>
        <time>2021-08-30T14:47:23Z</time>
      </trkpt>
      <trkpt lat="47.07607" lon="2.39164">
        <ele>130</ele>
        <time>2021-08-30T14:47:23Z</time>
      </trkpt>
      <trkpt lat="47.07613" lon="2.39162">
        <ele>131</ele>
        <time>2021-08-30T14:47:23Z</time>
      </trkpt>
      <trkpt lat="47.0762" lon="2.39161">
        <ele>131</ele>
        <time>2021-08-30T14:47:23Z</time>
      </trkpt>
      <trkpt lat="47.07628" lon="2.3916">
        <ele>131</ele>
        <time>2021-08-30T14:47:23Z</time>
      </trkpt>
      <trkpt lat="47.07634" lon="2.39158">
        <ele>131</ele>
        <time>2021-08-30T14:47:23Z</time>
      </trkpt>
      <trkpt lat="47.07641" lon="2.39156">
        <ele>131</ele>
        <time>2021-08-30T14:47:23Z</time>
      </trkpt>
      <trkpt lat="47.07647" lon="2.39155">
        <ele>131</ele>
        <time>2021-08-30T14:47:23Z</time>
      </trkpt>
      <trkpt lat="47.07654" lon="2.39152">
        <ele>130</ele>
        <time>2021-08-30T14:47:23Z</time>
      </trkpt>
      <trkpt lat="47.0766" lon="2.3915">
        <ele>130</ele>
        <time>2021-08-30T14:47:23Z</time>
      </trkpt>
      <trkpt lat="47.07667" lon="2.39148">
        <ele>130</ele>
        <time>2021-08-30T14:47:23Z</time>
      </trkpt>
      <trkpt lat="47.07673" lon="2.39146">
        <ele>129</ele>
        <time>2021-08-30T14:47:23Z</time>
      </trkpt>
      <trkpt lat="47.07679" lon="2.39144">
        <ele>129</ele>
        <time>2021-08-30T14:47:23Z</time>
      </trkpt>
      <trkpt lat="47.07684" lon="2.39142">
        <ele>128</ele>
        <time>2021-08-30T14:47:23Z</time>
      </trkpt>
      <trkpt lat="47.0769" lon="2.3914">
        <ele>128</ele>
        <time>2021-08-30T14:47:23Z</time>
      </trkpt>
      <trkpt lat="47.07696" lon="2.39136">
        <ele>127</ele>
        <time>2021-08-30T14:47:23Z</time>
      </trkpt>
      <trkpt lat="47.07701" lon="2.39133">
        <ele>127</ele>
        <time>2021-08-30T14:47:23Z</time>
      </trkpt>
      <trkpt lat="47.07707" lon="2.39129">
        <ele>127</ele>
        <time>2021-08-30T14:47:23Z</time>
      </trkpt>
      <trkpt lat="47.07712" lon="2.39126">
        <ele>127</ele>
        <time>2021-08-30T14:47:23Z</time>
      </trkpt>
      <trkpt lat="47.07717" lon="2.39124">
        <ele>127</ele>
        <time>2021-08-30T14:47:23Z</time>
      </trkpt>
      <trkpt lat="47.07721" lon="2.39122">
        <ele>127</ele>
        <time>2021-08-30T14:47:23Z</time>
      </trkpt>
      <trkpt lat="47.07724" lon="2.3912">
        <ele>128</ele>
        <time>2021-08-30T14:47:23Z</time>
      </trkpt>
      <trkpt lat="47.07728" lon="2.39119">
        <ele>128</ele>
        <time>2021-08-30T14:47:23Z</time>
      </trkpt>
      <trkpt lat="47.0773" lon="2.39119">
        <ele>128</ele>
        <time>2021-08-30T14:47:23Z</time>
      </trkpt>
      <trkpt lat="47.07732" lon="2.39118">
        <ele>128</ele>
        <time>2021-08-30T14:47:23Z</time>
      </trkpt>
      <trkpt lat="47.07734" lon="2.39117">
        <ele>128</ele>
        <time>2021-08-30T14:47:23Z</time>
      </trkpt>
      <trkpt lat="47.07737" lon="2.39117">
        <ele>128</ele>
        <time>2021-08-30T14:47:23Z</time>
      </trkpt>
      <trkpt lat="47.07739" lon="2.39116">
        <ele>128</ele>
        <time>2021-08-30T14:47:23Z</time>
      </trkpt>
      <trkpt lat="47.07742" lon="2.39113">
        <ele>128</ele>
        <time>2021-08-30T14:47:23Z</time>
      </trkpt>
      <trkpt lat="47.07742" lon="2.39109">
        <ele>128</ele>
        <time>2021-08-30T14:47:23Z</time>
      </trkpt>
      <trkpt lat="47.07742" lon="2.39105">
        <ele>128</ele>
        <time>2021-08-30T14:47:23Z</time>
      </trkpt>
      <trkpt lat="47.07742" lon="2.39102">
        <ele>128</ele>
        <time>2021-08-30T14:47:23Z</time>
      </trkpt>
      <trkpt lat="47.07742" lon="2.39097">
        <ele>128</ele>
        <time>2021-08-30T14:47:23Z</time>
      </trkpt>
      <trkpt lat="47.0774" lon="2.39093">
        <ele>128</ele>
        <time>2021-08-30T14:47:23Z</time>
      </trkpt>
      <trkpt lat="47.07739" lon="2.39089">
        <ele>128</ele>
        <time>2021-08-30T14:47:23Z</time>
      </trkpt>
      <trkpt lat="47.07738" lon="2.39085">
        <ele>128</ele>
        <time>2021-08-30T14:47:23Z</time>
      </trkpt>
      <trkpt lat="47.07739" lon="2.39081">
        <ele>128</ele>
        <time>2021-08-30T14:47:23Z</time>
      </trkpt>
      <trkpt lat="47.07742" lon="2.39077">
        <ele>128</ele>
        <time>2021-08-30T14:47:23Z</time>
      </trkpt>
      <trkpt lat="47.07746" lon="2.39075">
        <ele>128</ele>
        <time>2021-08-30T14:47:23Z</time>
      </trkpt>
      <trkpt lat="47.07753" lon="2.39077">
        <ele>128</ele>
        <time>2021-08-30T14:47:23Z</time>
      </trkpt>
      <trkpt lat="47.07758" lon="2.39077">
        <ele>128</ele>
        <time>2021-08-30T14:47:23Z</time>
      </trkpt>
      <trkpt lat="47.07764" lon="2.39077">
        <ele>128</ele>
        <time>2021-08-30T14:47:23Z</time>
      </trkpt>
      <trkpt lat="47.07771" lon="2.3908">
        <ele>128</ele>
        <time>2021-08-30T14:47:23Z</time>
      </trkpt>
      <trkpt lat="47.07776" lon="2.39081">
        <ele>128</ele>
        <time>2021-08-30T14:47:23Z</time>
      </trkpt>
      <trkpt lat="47.07781" lon="2.39079">
        <ele>128</ele>
        <time>2021-08-30T14:47:23Z</time>
      </trkpt>
      <trkpt lat="47.07788" lon="2.39078">
        <ele>128</ele>
        <time>2021-08-30T14:47:23Z</time>
      </trkpt>
      <trkpt lat="47.07795" lon="2.39075">
        <ele>127</ele>
        <time>2021-08-30T14:47:23Z</time>
      </trkpt>
      <trkpt lat="47.078" lon="2.39072">
        <ele>127</ele>
        <time>2021-08-30T14:47:23Z</time>
      </trkpt>
      <trkpt lat="47.07806" lon="2.3907">
        <ele>127</ele>
        <time>2021-08-30T14:47:23Z</time>
      </trkpt>
      <trkpt lat="47.07812" lon="2.39069">
        <ele>127</ele>
        <time>2021-08-30T14:47:23Z</time>
      </trkpt>
      <trkpt lat="47.07819" lon="2.39067">
        <ele>127</ele>
        <time>2021-08-30T14:47:23Z</time>
      </trkpt>
      <trkpt lat="47.07824" lon="2.39065">
        <ele>127</ele>
        <time>2021-08-30T14:47:23Z</time>
      </trkpt>
      <trkpt lat="47.07829" lon="2.39062">
        <ele>127</ele>
        <time>2021-08-30T14:47:23Z</time>
      </trkpt>
      <trkpt lat="47.07836" lon="2.3906">
        <ele>127</ele>
        <time>2021-08-30T14:47:23Z</time>
      </trkpt>
      <trkpt lat="47.07842" lon="2.39056">
        <ele>127</ele>
        <time>2021-08-30T14:47:23Z</time>
      </trkpt>
      <trkpt lat="47.07849" lon="2.39054">
        <ele>128</ele>
        <time>2021-08-30T14:47:23Z</time>
      </trkpt>
      <trkpt lat="47.07855" lon="2.39051">
        <ele>128</ele>
        <time>2021-08-30T14:47:23Z</time>
      </trkpt>
      <trkpt lat="47.07861" lon="2.39049">
        <ele>129</ele>
        <time>2021-08-30T14:47:23Z</time>
      </trkpt>
      <trkpt lat="47.07867" lon="2.39046">
        <ele>129</ele>
        <time>2021-08-30T14:47:23Z</time>
      </trkpt>
      <trkpt lat="47.07871" lon="2.39041">
        <ele>130</ele>
        <time>2021-08-30T14:47:23Z</time>
      </trkpt>
      <trkpt lat="47.07894" lon="2.39013">
        <ele>130</ele>
        <time>2021-08-30T14:47:23Z</time>
      </trkpt>
      <trkpt lat="47.07916" lon="2.38988">
        <ele>129</ele>
        <time>2021-08-30T14:47:23Z</time>
      </trkpt>
      <trkpt lat="47.07928" lon="2.38973">
        <ele>128</ele>
        <time>2021-08-30T14:47:23Z</time>
      </trkpt>
      <trkpt lat="47.07941" lon="2.38956">
        <ele>128</ele>
        <time>2021-08-30T14:47:23Z</time>
      </trkpt>
      <trkpt lat="47.07959" lon="2.38934">
        <ele>129</ele>
        <time>2021-08-30T14:47:23Z</time>
      </trkpt>
      <trkpt lat="47.07978" lon="2.38913">
        <ele>129</ele>
        <time>2021-08-30T14:47:23Z</time>
      </trkpt>
      <trkpt lat="47.07982" lon="2.38907">
        <ele>129</ele>
        <time>2021-08-30T14:47:23Z</time>
      </trkpt>
      <trkpt lat="47.08001" lon="2.38872">
        <ele>129</ele>
        <time>2021-08-30T14:47:23Z</time>
      </trkpt>
      <trkpt lat="47.08018" lon="2.38835">
        <ele>129</ele>
        <time>2021-08-30T14:47:23Z</time>
      </trkpt>
      <trkpt lat="47.08039" lon="2.38801">
        <ele>130</ele>
        <time>2021-08-30T14:47:23Z</time>
      </trkpt>
      <trkpt lat="47.08063" lon="2.38775">
        <ele>131</ele>
        <time>2021-08-30T14:47:23Z</time>
      </trkpt>
      <trkpt lat="47.08081" lon="2.38739">
        <ele>131</ele>
        <time>2021-08-30T14:47:23Z</time>
      </trkpt>
      <trkpt lat="47.08092" lon="2.38711">
        <ele>130</ele>
        <time>2021-08-30T14:47:23Z</time>
      </trkpt>
      <trkpt lat="47.08096" lon="2.38708">
        <ele>130</ele>
        <time>2021-08-30T14:47:23Z</time>
      </trkpt>
      <trkpt lat="47.0811" lon="2.38716">
        <ele>131</ele>
        <time>2021-08-30T14:47:23Z</time>
      </trkpt>
      <trkpt lat="47.08125" lon="2.38682">
        <ele>131</ele>
        <time>2021-08-30T14:47:23Z</time>
      </trkpt>
      <trkpt lat="47.08139" lon="2.3865">
        <ele>131</ele>
        <time>2021-08-30T14:47:23Z</time>
      </trkpt>
      <trkpt lat="47.08142" lon="2.38642">
        <ele>131</ele>
        <time>2021-08-30T14:47:23Z</time>
      </trkpt>
      <trkpt lat="47.08146" lon="2.38635">
        <ele>131</ele>
        <time>2021-08-30T14:47:23Z</time>
      </trkpt>
      <trkpt lat="47.08149" lon="2.38628">
        <ele>131</ele>
        <time>2021-08-30T14:47:23Z</time>
      </trkpt>
      <trkpt lat="47.08152" lon="2.3862">
        <ele>131</ele>
        <time>2021-08-30T14:47:23Z</time>
      </trkpt>
      <trkpt lat="47.08154" lon="2.38613">
        <ele>131</ele>
        <time>2021-08-30T14:47:23Z</time>
      </trkpt>
      <trkpt lat="47.08158" lon="2.38608">
        <ele>131</ele>
        <time>2021-08-30T14:47:23Z</time>
      </trkpt>
      <trkpt lat="47.08162" lon="2.386">
        <ele>131</ele>
        <time>2021-08-30T14:47:23Z</time>
      </trkpt>
      <trkpt lat="47.08166" lon="2.38593">
        <ele>131</ele>
        <time>2021-08-30T14:47:23Z</time>
      </trkpt>
      <trkpt lat="47.0818" lon="2.38549">
        <ele>130</ele>
        <time>2021-08-30T14:47:23Z</time>
      </trkpt>
      <trkpt lat="47.08198" lon="2.38509">
        <ele>130</ele>
        <time>2021-08-30T14:47:23Z</time>
      </trkpt>
      <trkpt lat="47.08212" lon="2.38473">
        <ele>128</ele>
        <time>2021-08-30T14:47:23Z</time>
      </trkpt>
      <trkpt lat="47.08223" lon="2.38449">
        <ele>127</ele>
        <time>2021-08-30T14:47:23Z</time>
      </trkpt>
      <trkpt lat="47.08226" lon="2.38442">
        <ele>126</ele>
        <time>2021-08-30T14:47:23Z</time>
      </trkpt>
      <trkpt lat="47.08227" lon="2.38441">
        <ele>126</ele>
        <time>2021-08-30T14:47:23Z</time>
      </trkpt>
      <trkpt lat="47.08227" lon="2.38442">
        <ele>126</ele>
        <time>2021-08-30T14:47:23Z</time>
      </trkpt>
      <trkpt lat="47.08227" lon="2.38442">
        <ele>126</ele>
        <time>2021-08-30T14:47:23Z</time>
      </trkpt>
      <trkpt lat="47.08228" lon="2.38443">
        <ele>126</ele>
        <time>2021-08-30T14:47:23Z</time>
      </trkpt>
      <trkpt lat="47.08228" lon="2.38443">
        <ele>126</ele>
        <time>2021-08-30T14:47:23Z</time>
      </trkpt>
      <trkpt lat="47.08228" lon="2.38444">
        <ele>126</ele>
        <time>2021-08-30T14:47:23Z</time>
      </trkpt>
      <trkpt lat="47.08228" lon="2.38444">
        <ele>126</ele>
        <time>2021-08-30T14:47:23Z</time>
      </trkpt>
      <trkpt lat="47.08228" lon="2.38444">
        <ele>126</ele>
        <time>2021-08-30T14:47:23Z</time>
      </trkpt>
      <trkpt lat="47.08228" lon="2.38444">
        <ele>126</ele>
        <time>2021-08-30T14:47:23Z</time>
      </trkpt>
      <trkpt lat="47.0823" lon="2.38439">
        <ele>126</ele>
        <time>2021-08-30T14:47:23Z</time>
      </trkpt>
      <trkpt lat="47.08238" lon="2.38416">
        <ele>125</ele>
        <time>2021-08-30T14:47:23Z</time>
      </trkpt>
      <trkpt lat="47.08248" lon="2.38386">
        <ele>126</ele>
        <time>2021-08-30T14:47:23Z</time>
      </trkpt>
      <trkpt lat="47.08261" lon="2.38348">
        <ele>128</ele>
        <time>2021-08-30T14:47:23Z</time>
      </trkpt>
      <trkpt lat="47.08274" lon="2.38318">
        <ele>130</ele>
        <time>2021-08-30T14:47:23Z</time>
      </trkpt>
      <trkpt lat="47.08277" lon="2.3831">
        <ele>130</ele>
        <time>2021-08-30T14:47:23Z</time>
      </trkpt>
      <trkpt lat="47.08294" lon="2.3827">
        <ele>129</ele>
        <time>2021-08-30T14:47:23Z</time>
      </trkpt>
      <trkpt lat="47.08309" lon="2.38229">
        <ele>126</ele>
        <time>2021-08-30T14:47:23Z</time>
      </trkpt>
      <trkpt lat="47.08323" lon="2.38189">
        <ele>127</ele>
        <time>2021-08-30T14:47:23Z</time>
      </trkpt>
      <trkpt lat="47.0834" lon="2.38148">
        <ele>128</ele>
        <time>2021-08-30T14:47:23Z</time>
      </trkpt>
      <trkpt lat="47.08353" lon="2.38109">
        <ele>126</ele>
        <time>2021-08-30T14:47:23Z</time>
      </trkpt>
      <trkpt lat="47.08367" lon="2.38081">
        <ele>123</ele>
        <time>2021-08-30T14:47:23Z</time>
      </trkpt>
      <trkpt lat="47.0837" lon="2.38074">
        <ele>124</ele>
        <time>2021-08-30T14:47:23Z</time>
      </trkpt>
      <trkpt lat="47.08389" lon="2.38037">
        <ele>126</ele>
        <time>2021-08-30T14:47:23Z</time>
      </trkpt>
      <trkpt lat="47.08404" lon="2.37996">
        <ele>128</ele>
        <time>2021-08-30T14:47:23Z</time>
      </trkpt>
      <trkpt lat="47.08422" lon="2.37958">
        <ele>129</ele>
        <time>2021-08-30T14:47:23Z</time>
      </trkpt>
      <trkpt lat="47.08435" lon="2.37917">
        <ele>129</ele>
        <time>2021-08-30T14:47:23Z</time>
      </trkpt>
      <trkpt lat="47.0845" lon="2.37876">
        <ele>127</ele>
        <time>2021-08-30T14:47:23Z</time>
      </trkpt>
      <trkpt lat="47.08463" lon="2.37844">
        <ele>127</ele>
        <time>2021-08-30T14:47:23Z</time>
      </trkpt>
      <trkpt lat="47.08468" lon="2.37836">
        <ele>127</ele>
        <time>2021-08-30T14:47:23Z</time>
      </trkpt>
      <trkpt lat="47.08485" lon="2.37798">
        <ele>128</ele>
        <time>2021-08-30T14:47:23Z</time>
      </trkpt>
      <trkpt lat="47.08509" lon="2.37769">
        <ele>127</ele>
        <time>2021-08-30T14:47:23Z</time>
      </trkpt>
      <trkpt lat="47.08523" lon="2.37732">
        <ele>127</ele>
        <time>2021-08-30T14:47:23Z</time>
      </trkpt>
      <trkpt lat="47.08538" lon="2.37702">
        <ele>128</ele>
        <time>2021-08-30T14:47:23Z</time>
      </trkpt>
      <trkpt lat="47.0853" lon="2.37682">
        <ele>130</ele>
        <time>2021-08-30T14:47:23Z</time>
      </trkpt>
      <trkpt lat="47.08512" lon="2.3767">
        <ele>130</ele>
        <time>2021-08-30T14:47:23Z</time>
      </trkpt>
      <trkpt lat="47.08507" lon="2.37666">
        <ele>131</ele>
        <time>2021-08-30T14:47:23Z</time>
      </trkpt>
      <trkpt lat="47.08483" lon="2.37645">
        <ele>129</ele>
        <time>2021-08-30T14:47:23Z</time>
      </trkpt>
      <trkpt lat="47.08463" lon="2.37614">
        <ele>127</ele>
        <time>2021-08-30T14:47:23Z</time>
      </trkpt>
      <trkpt lat="47.08449" lon="2.37583">
        <ele>127</ele>
        <time>2021-08-30T14:47:23Z</time>
      </trkpt>
      <trkpt lat="47.0844" lon="2.3756">
        <ele>130</ele>
        <time>2021-08-30T14:47:23Z</time>
      </trkpt>
      <trkpt lat="47.08435" lon="2.37545">
        <ele>131</ele>
        <time>2021-08-30T14:47:23Z</time>
      </trkpt>
      <trkpt lat="47.08428" lon="2.37532">
        <ele>132</ele>
        <time>2021-08-30T14:47:23Z</time>
      </trkpt>
      <trkpt lat="47.08427" lon="2.37528">
        <ele>133</ele>
        <time>2021-08-30T14:47:23Z</time>
      </trkpt>
      <trkpt lat="47.08421" lon="2.3749">
        <ele>136</ele>
        <time>2021-08-30T14:47:23Z</time>
      </trkpt>
      <trkpt lat="47.08414" lon="2.37453">
        <ele>134</ele>
        <time>2021-08-30T14:47:23Z</time>
      </trkpt>
      <trkpt lat="47.08409" lon="2.37413">
        <ele>134</ele>
        <time>2021-08-30T14:47:23Z</time>
      </trkpt>
      <trkpt lat="47.08402" lon="2.37373">
        <ele>134</ele>
        <time>2021-08-30T14:47:23Z</time>
      </trkpt>
      <trkpt lat="47.08397" lon="2.3733">
        <ele>133</ele>
        <time>2021-08-30T14:47:23Z</time>
      </trkpt>
      <trkpt lat="47.08393" lon="2.37299">
        <ele>133</ele>
        <time>2021-08-30T14:47:23Z</time>
      </trkpt>
      <trkpt lat="47.0839" lon="2.3729">
        <ele>133</ele>
        <time>2021-08-30T14:47:23Z</time>
      </trkpt>
      <trkpt lat="47.0839" lon="2.37281">
        <ele>133</ele>
        <time>2021-08-30T14:47:23Z</time>
      </trkpt>
      <trkpt lat="47.08389" lon="2.37273">
        <ele>133</ele>
        <time>2021-08-30T14:47:23Z</time>
      </trkpt>
      <trkpt lat="47.08387" lon="2.37264">
        <ele>133</ele>
        <time>2021-08-30T14:47:23Z</time>
      </trkpt>
      <trkpt lat="47.08386" lon="2.37256">
        <ele>133</ele>
        <time>2021-08-30T14:47:23Z</time>
      </trkpt>
      <trkpt lat="47.08384" lon="2.37248">
        <ele>133</ele>
        <time>2021-08-30T14:47:23Z</time>
      </trkpt>
      <trkpt lat="47.08383" lon="2.37239">
        <ele>132</ele>
        <time>2021-08-30T14:47:23Z</time>
      </trkpt>
      <trkpt lat="47.08382" lon="2.3723">
        <ele>132</ele>
        <time>2021-08-30T14:47:23Z</time>
      </trkpt>
      <trkpt lat="47.08381" lon="2.37221">
        <ele>132</ele>
        <time>2021-08-30T14:47:23Z</time>
      </trkpt>
      <trkpt lat="47.0838" lon="2.37213">
        <ele>132</ele>
        <time>2021-08-30T14:47:23Z</time>
      </trkpt>
      <trkpt lat="47.08378" lon="2.37204">
        <ele>132</ele>
        <time>2021-08-30T14:47:24Z</time>
      </trkpt>
      <trkpt lat="47.08377" lon="2.37195">
        <ele>132</ele>
        <time>2021-08-30T14:47:24Z</time>
      </trkpt>
      <trkpt lat="47.08375" lon="2.37187">
        <ele>133</ele>
        <time>2021-08-30T14:47:24Z</time>
      </trkpt>
      <trkpt lat="47.08375" lon="2.37178">
        <ele>133</ele>
        <time>2021-08-30T14:47:24Z</time>
      </trkpt>
      <trkpt lat="47.08375" lon="2.3717">
        <ele>133</ele>
        <time>2021-08-30T14:47:24Z</time>
      </trkpt>
      <trkpt lat="47.08374" lon="2.37162">
        <ele>133</ele>
        <time>2021-08-30T14:47:24Z</time>
      </trkpt>
      <trkpt lat="47.08372" lon="2.37154">
        <ele>133</ele>
        <time>2021-08-30T14:47:24Z</time>
      </trkpt>
      <trkpt lat="47.08371" lon="2.37145">
        <ele>133</ele>
        <time>2021-08-30T14:47:24Z</time>
      </trkpt>
      <trkpt lat="47.08369" lon="2.37137">
        <ele>133</ele>
        <time>2021-08-30T14:47:24Z</time>
      </trkpt>
      <trkpt lat="47.08367" lon="2.37128">
        <ele>133</ele>
        <time>2021-08-30T14:47:24Z</time>
      </trkpt>
      <trkpt lat="47.08366" lon="2.37118">
        <ele>133</ele>
        <time>2021-08-30T14:47:24Z</time>
      </trkpt>
      <trkpt lat="47.08365" lon="2.37111">
        <ele>133</ele>
        <time>2021-08-30T14:47:24Z</time>
      </trkpt>
      <trkpt lat="47.08363" lon="2.37102">
        <ele>134</ele>
        <time>2021-08-30T14:47:24Z</time>
      </trkpt>
      <trkpt lat="47.08362" lon="2.37093">
        <ele>134</ele>
        <time>2021-08-30T14:47:24Z</time>
      </trkpt>
      <trkpt lat="47.0836" lon="2.37084">
        <ele>135</ele>
        <time>2021-08-30T14:47:24Z</time>
      </trkpt>
      <trkpt lat="47.0836" lon="2.37075">
        <ele>135</ele>
        <time>2021-08-30T14:47:24Z</time>
      </trkpt>
      <trkpt lat="47.08359" lon="2.37067">
        <ele>135</ele>
        <time>2021-08-30T14:47:24Z</time>
      </trkpt>
      <trkpt lat="47.08358" lon="2.37057">
        <ele>135</ele>
        <time>2021-08-30T14:47:24Z</time>
      </trkpt>
      <trkpt lat="47.08357" lon="2.37048">
        <ele>136</ele>
        <time>2021-08-30T14:47:24Z</time>
      </trkpt>
      <trkpt lat="47.08356" lon="2.37041">
        <ele>136</ele>
        <time>2021-08-30T14:47:24Z</time>
      </trkpt>
      <trkpt lat="47.08356" lon="2.37031">
        <ele>136</ele>
        <time>2021-08-30T14:47:24Z</time>
      </trkpt>
      <trkpt lat="47.08354" lon="2.37023">
        <ele>136</ele>
        <time>2021-08-30T14:47:24Z</time>
      </trkpt>
      <trkpt lat="47.08352" lon="2.37014">
        <ele>136</ele>
        <time>2021-08-30T14:47:24Z</time>
      </trkpt>
      <trkpt lat="47.0835" lon="2.37006">
        <ele>136</ele>
        <time>2021-08-30T14:47:24Z</time>
      </trkpt>
      <trkpt lat="47.08349" lon="2.36998">
        <ele>136</ele>
        <time>2021-08-30T14:47:24Z</time>
      </trkpt>
      <trkpt lat="47.08346" lon="2.36989">
        <ele>137</ele>
        <time>2021-08-30T14:47:24Z</time>
      </trkpt>
      <trkpt lat="47.08344" lon="2.3698">
        <ele>137</ele>
        <time>2021-08-30T14:47:24Z</time>
      </trkpt>
      <trkpt lat="47.08341" lon="2.36972">
        <ele>138</ele>
        <time>2021-08-30T14:47:24Z</time>
      </trkpt>
      <trkpt lat="47.08338" lon="2.36963">
        <ele>138</ele>
        <time>2021-08-30T14:47:24Z</time>
      </trkpt>
      <trkpt lat="47.08335" lon="2.36955">
        <ele>138</ele>
        <time>2021-08-30T14:47:24Z</time>
      </trkpt>
      <trkpt lat="47.08333" lon="2.36949">
        <ele>138</ele>
        <time>2021-08-30T14:47:24Z</time>
      </trkpt>
      <trkpt lat="47.0833" lon="2.36942">
        <ele>138</ele>
        <time>2021-08-30T14:47:24Z</time>
      </trkpt>
      <trkpt lat="47.08327" lon="2.36936">
        <ele>137</ele>
        <time>2021-08-30T14:47:24Z</time>
      </trkpt>
      <trkpt lat="47.08325" lon="2.3693">
        <ele>137</ele>
        <time>2021-08-30T14:47:24Z</time>
      </trkpt>
      <trkpt lat="47.08324" lon="2.36925">
        <ele>137</ele>
        <time>2021-08-30T14:47:24Z</time>
      </trkpt>
      <trkpt lat="47.08322" lon="2.36922">
        <ele>137</ele>
        <time>2021-08-30T14:47:24Z</time>
      </trkpt>
      <trkpt lat="47.08319" lon="2.36921">
        <ele>137</ele>
        <time>2021-08-30T14:47:24Z</time>
      </trkpt>
      <trkpt lat="47.08318" lon="2.36918">
        <ele>137</ele>
        <time>2021-08-30T14:47:24Z</time>
      </trkpt>
      <trkpt lat="47.08317" lon="2.36915">
        <ele>137</ele>
        <time>2021-08-30T14:47:24Z</time>
      </trkpt>
      <trkpt lat="47.08315" lon="2.36911">
        <ele>137</ele>
        <time>2021-08-30T14:47:24Z</time>
      </trkpt>
      <trkpt lat="47.08313" lon="2.36907">
        <ele>137</ele>
        <time>2021-08-30T14:47:24Z</time>
      </trkpt>
      <trkpt lat="47.08311" lon="2.36902">
        <ele>137</ele>
        <time>2021-08-30T14:47:24Z</time>
      </trkpt>
      <trkpt lat="47.0831" lon="2.369">
        <ele>137</ele>
        <time>2021-08-30T14:47:24Z</time>
      </trkpt>
      <trkpt lat="47.08308" lon="2.36899">
        <ele>137</ele>
        <time>2021-08-30T14:47:24Z</time>
      </trkpt>
      <trkpt lat="47.08306" lon="2.36897">
        <ele>137</ele>
        <time>2021-08-30T14:47:24Z</time>
      </trkpt>
      <trkpt lat="47.08304" lon="2.36894">
        <ele>137</ele>
        <time>2021-08-30T14:47:24Z</time>
      </trkpt>
      <trkpt lat="47.08303" lon="2.36891">
        <ele>137</ele>
        <time>2021-08-30T14:47:24Z</time>
      </trkpt>
      <trkpt lat="47.083" lon="2.36886">
        <ele>137</ele>
        <time>2021-08-30T14:47:24Z</time>
      </trkpt>
      <trkpt lat="47.08297" lon="2.36881">
        <ele>137</ele>
        <time>2021-08-30T14:47:24Z</time>
      </trkpt>
      <trkpt lat="47.08294" lon="2.36874">
        <ele>137</ele>
        <time>2021-08-30T14:47:24Z</time>
      </trkpt>
      <trkpt lat="47.0829" lon="2.36868">
        <ele>138</ele>
        <time>2021-08-30T14:47:24Z</time>
      </trkpt>
      <trkpt lat="47.08286" lon="2.36863">
        <ele>138</ele>
        <time>2021-08-30T14:47:24Z</time>
      </trkpt>
      <trkpt lat="47.08264" lon="2.36834">
        <ele>139</ele>
        <time>2021-08-30T14:47:24Z</time>
      </trkpt>
      <trkpt lat="47.08238" lon="2.36812">
        <ele>141</ele>
        <time>2021-08-30T14:47:24Z</time>
      </trkpt>
      <trkpt lat="47.08211" lon="2.36794">
        <ele>142</ele>
        <time>2021-08-30T14:47:24Z</time>
      </trkpt>
      <trkpt lat="47.08185" lon="2.36781">
        <ele>143</ele>
        <time>2021-08-30T14:47:24Z</time>
      </trkpt>
      <trkpt lat="47.08174" lon="2.36773">
        <ele>142</ele>
        <time>2021-08-30T14:47:24Z</time>
      </trkpt>
      <trkpt lat="47.08175" lon="2.36753">
        <ele>142</ele>
        <time>2021-08-30T14:47:24Z</time>
      </trkpt>
      <trkpt lat="47.08174" lon="2.36745">
        <ele>141</ele>
        <time>2021-08-30T14:47:24Z</time>
      </trkpt>
      <trkpt lat="47.08178" lon="2.36705">
        <ele>139</ele>
        <time>2021-08-30T14:47:24Z</time>
      </trkpt>
      <trkpt lat="47.08182" lon="2.36658">
        <ele>138</ele>
        <time>2021-08-30T14:47:24Z</time>
      </trkpt>
      <trkpt lat="47.08185" lon="2.36607">
        <ele>137</ele>
        <time>2021-08-30T14:47:24Z</time>
      </trkpt>
      <trkpt lat="47.08188" lon="2.36555">
        <ele>138</ele>
        <time>2021-08-30T14:47:24Z</time>
      </trkpt>
      <trkpt lat="47.08194" lon="2.36504">
        <ele>137</ele>
        <time>2021-08-30T14:47:24Z</time>
      </trkpt>
      <trkpt lat="47.08197" lon="2.36463">
        <ele>136</ele>
        <time>2021-08-30T14:47:24Z</time>
      </trkpt>
      <trkpt lat="47.08198" lon="2.36453">
        <ele>136</ele>
        <time>2021-08-30T14:47:24Z</time>
      </trkpt>
      <trkpt lat="47.08202" lon="2.36402">
        <ele>136</ele>
        <time>2021-08-30T14:47:24Z</time>
      </trkpt>
      <trkpt lat="47.08205" lon="2.3635">
        <ele>137</ele>
        <time>2021-08-30T14:47:24Z</time>
      </trkpt>
      <trkpt lat="47.08207" lon="2.36299">
        <ele>138</ele>
        <time>2021-08-30T14:47:24Z</time>
      </trkpt>
      <trkpt lat="47.08208" lon="2.36248">
        <ele>138</ele>
        <time>2021-08-30T14:47:24Z</time>
      </trkpt>
      <trkpt lat="47.08208" lon="2.36195">
        <ele>136</ele>
        <time>2021-08-30T14:47:24Z</time>
      </trkpt>
      <trkpt lat="47.08207" lon="2.36151">
        <ele>136</ele>
        <time>2021-08-30T14:47:24Z</time>
      </trkpt>
      <trkpt lat="47.08209" lon="2.3614">
        <ele>136</ele>
        <time>2021-08-30T14:47:24Z</time>
      </trkpt>
      <trkpt lat="47.08213" lon="2.36117">
        <ele>136</ele>
        <time>2021-08-30T14:47:24Z</time>
      </trkpt>
      <trkpt lat="47.0821" lon="2.36106">
        <ele>136</ele>
        <time>2021-08-30T14:47:24Z</time>
      </trkpt>
      <trkpt lat="47.08207" lon="2.36096">
        <ele>136</ele>
        <time>2021-08-30T14:47:24Z</time>
      </trkpt>
      <trkpt lat="47.08207" lon="2.36084">
        <ele>136</ele>
        <time>2021-08-30T14:47:24Z</time>
      </trkpt>
      <trkpt lat="47.08206" lon="2.36072">
        <ele>135</ele>
        <time>2021-08-30T14:47:24Z</time>
      </trkpt>
      <trkpt lat="47.08206" lon="2.3606">
        <ele>135</ele>
        <time>2021-08-30T14:47:24Z</time>
      </trkpt>
      <trkpt lat="47.08205" lon="2.36048">
        <ele>134</ele>
        <time>2021-08-30T14:47:24Z</time>
      </trkpt>
      <trkpt lat="47.08205" lon="2.36037">
        <ele>134</ele>
        <time>2021-08-30T14:47:24Z</time>
      </trkpt>
      <trkpt lat="47.08204" lon="2.36024">
        <ele>134</ele>
        <time>2021-08-30T14:47:24Z</time>
      </trkpt>
      <trkpt lat="47.08204" lon="2.36012">
        <ele>134</ele>
        <time>2021-08-30T14:47:24Z</time>
      </trkpt>
      <trkpt lat="47.08204" lon="2.36001">
        <ele>134</ele>
        <time>2021-08-30T14:47:24Z</time>
      </trkpt>
      <trkpt lat="47.08204" lon="2.35988">
        <ele>133</ele>
        <time>2021-08-30T14:47:24Z</time>
      </trkpt>
      <trkpt lat="47.08204" lon="2.35977">
        <ele>133</ele>
        <time>2021-08-30T14:47:24Z</time>
      </trkpt>
      <trkpt lat="47.08203" lon="2.35966">
        <ele>133</ele>
        <time>2021-08-30T14:47:24Z</time>
      </trkpt>
      <trkpt lat="47.08203" lon="2.35954">
        <ele>133</ele>
        <time>2021-08-30T14:47:24Z</time>
      </trkpt>
      <trkpt lat="47.08203" lon="2.35942">
        <ele>133</ele>
        <time>2021-08-30T14:47:24Z</time>
      </trkpt>
      <trkpt lat="47.08203" lon="2.35931">
        <ele>133</ele>
        <time>2021-08-30T14:47:24Z</time>
      </trkpt>
      <trkpt lat="47.08203" lon="2.3592">
        <ele>133</ele>
        <time>2021-08-30T14:47:24Z</time>
      </trkpt>
      <trkpt lat="47.08203" lon="2.35908">
        <ele>134</ele>
        <time>2021-08-30T14:47:24Z</time>
      </trkpt>
      <trkpt lat="47.08203" lon="2.35897">
        <ele>134</ele>
        <time>2021-08-30T14:47:24Z</time>
      </trkpt>
      <trkpt lat="47.08202" lon="2.35886">
        <ele>134</ele>
        <time>2021-08-30T14:47:24Z</time>
      </trkpt>
      <trkpt lat="47.08202" lon="2.35876">
        <ele>134</ele>
        <time>2021-08-30T14:47:24Z</time>
      </trkpt>
      <trkpt lat="47.08201" lon="2.35865">
        <ele>134</ele>
        <time>2021-08-30T14:47:24Z</time>
      </trkpt>
      <trkpt lat="47.08201" lon="2.35855">
        <ele>134</ele>
        <time>2021-08-30T14:47:24Z</time>
      </trkpt>
      <trkpt lat="47.08201" lon="2.35845">
        <ele>134</ele>
        <time>2021-08-30T14:47:24Z</time>
      </trkpt>
      <trkpt lat="47.08201" lon="2.35835">
        <ele>134</ele>
        <time>2021-08-30T14:47:24Z</time>
      </trkpt>
      <trkpt lat="47.082" lon="2.35826">
        <ele>134</ele>
        <time>2021-08-30T14:47:24Z</time>
      </trkpt>
      <trkpt lat="47.08199" lon="2.35816">
        <ele>134</ele>
        <time>2021-08-30T14:47:24Z</time>
      </trkpt>
      <trkpt lat="47.08199" lon="2.35806">
        <ele>134</ele>
        <time>2021-08-30T14:47:24Z</time>
      </trkpt>
      <trkpt lat="47.08199" lon="2.35797">
        <ele>134</ele>
        <time>2021-08-30T14:47:24Z</time>
      </trkpt>
      <trkpt lat="47.08199" lon="2.35788">
        <ele>134</ele>
        <time>2021-08-30T14:47:24Z</time>
      </trkpt>
      <trkpt lat="47.08199" lon="2.35779">
        <ele>134</ele>
        <time>2021-08-30T14:47:24Z</time>
      </trkpt>
      <trkpt lat="47.08198" lon="2.3577">
        <ele>133</ele>
        <time>2021-08-30T14:47:24Z</time>
      </trkpt>
      <trkpt lat="47.08198" lon="2.35761">
        <ele>133</ele>
        <time>2021-08-30T14:47:24Z</time>
      </trkpt>
      <trkpt lat="47.08198" lon="2.35752">
        <ele>133</ele>
        <time>2021-08-30T14:47:24Z</time>
      </trkpt>
      <trkpt lat="47.08198" lon="2.35744">
        <ele>132</ele>
        <time>2021-08-30T14:47:24Z</time>
      </trkpt>
      <trkpt lat="47.08197" lon="2.35735">
        <ele>131</ele>
        <time>2021-08-30T14:47:24Z</time>
      </trkpt>
      <trkpt lat="47.08197" lon="2.35728">
        <ele>131</ele>
        <time>2021-08-30T14:47:24Z</time>
      </trkpt>
      <trkpt lat="47.08198" lon="2.35719">
        <ele>130</ele>
        <time>2021-08-30T14:47:24Z</time>
      </trkpt>
      <trkpt lat="47.08199" lon="2.35713">
        <ele>130</ele>
        <time>2021-08-30T14:47:24Z</time>
      </trkpt>
      <trkpt lat="47.08201" lon="2.35708">
        <ele>130</ele>
        <time>2021-08-30T14:47:24Z</time>
      </trkpt>
      <trkpt lat="47.08203" lon="2.35703">
        <ele>130</ele>
        <time>2021-08-30T14:47:24Z</time>
      </trkpt>
      <trkpt lat="47.08204" lon="2.35699">
        <ele>130</ele>
        <time>2021-08-30T14:47:24Z</time>
      </trkpt>
      <trkpt lat="47.08204" lon="2.35695">
        <ele>130</ele>
        <time>2021-08-30T14:47:24Z</time>
      </trkpt>
      <trkpt lat="47.08201" lon="2.35693">
        <ele>129</ele>
        <time>2021-08-30T14:47:24Z</time>
      </trkpt>
      <trkpt lat="47.08199" lon="2.35694">
        <ele>129</ele>
        <time>2021-08-30T14:47:24Z</time>
      </trkpt>
      <trkpt lat="47.08199" lon="2.35699">
        <ele>130</ele>
        <time>2021-08-30T14:47:24Z</time>
      </trkpt>
      <trkpt lat="47.08199" lon="2.35703">
        <ele>130</ele>
        <time>2021-08-30T14:47:24Z</time>
      </trkpt>
      <trkpt lat="47.08199" lon="2.35708">
        <ele>130</ele>
        <time>2021-08-30T14:47:24Z</time>
      </trkpt>
      <trkpt lat="47.082" lon="2.35713">
        <ele>130</ele>
        <time>2021-08-30T14:47:24Z</time>
      </trkpt>
      <trkpt lat="47.08201" lon="2.35718">
        <ele>130</ele>
        <time>2021-08-30T14:47:24Z</time>
      </trkpt>
      <trkpt lat="47.08201" lon="2.35723">
        <ele>131</ele>
        <time>2021-08-30T14:47:24Z</time>
      </trkpt>
      <trkpt lat="47.08201" lon="2.35728">
        <ele>131</ele>
        <time>2021-08-30T14:47:24Z</time>
      </trkpt>
      <trkpt lat="47.08201" lon="2.35732">
        <ele>131</ele>
        <time>2021-08-30T14:47:24Z</time>
      </trkpt>
      <trkpt lat="47.08201" lon="2.35738">
        <ele>132</ele>
        <time>2021-08-30T14:47:24Z</time>
      </trkpt>
      <trkpt lat="47.08201" lon="2.35744">
        <ele>132</ele>
        <time>2021-08-30T14:47:24Z</time>
      </trkpt>
      <trkpt lat="47.082" lon="2.35752">
        <ele>133</ele>
        <time>2021-08-30T14:47:24Z</time>
      </trkpt>
      <trkpt lat="47.082" lon="2.3576">
        <ele>133</ele>
        <time>2021-08-30T14:47:24Z</time>
      </trkpt>
      <trkpt lat="47.08201" lon="2.35768">
        <ele>133</ele>
        <time>2021-08-30T14:47:24Z</time>
      </trkpt>
      <trkpt lat="47.082" lon="2.35777">
        <ele>133</ele>
        <time>2021-08-30T14:47:24Z</time>
      </trkpt>
      <trkpt lat="47.082" lon="2.35785">
        <ele>134</ele>
        <time>2021-08-30T14:47:24Z</time>
      </trkpt>
      <trkpt lat="47.08201" lon="2.35826">
        <ele>134</ele>
        <time>2021-08-30T14:47:24Z</time>
      </trkpt>
      <trkpt lat="47.08205" lon="2.35849">
        <ele>134</ele>
        <time>2021-08-30T14:47:24Z</time>
      </trkpt>
      <trkpt lat="47.08228" lon="2.35854">
        <ele>133</ele>
        <time>2021-08-30T14:47:24Z</time>
      </trkpt>
      <trkpt lat="47.08261" lon="2.35848">
        <ele>131</ele>
        <time>2021-08-30T14:47:24Z</time>
      </trkpt>
      <trkpt lat="47.08296" lon="2.35845">
        <ele>129</ele>
        <time>2021-08-30T14:47:24Z</time>
      </trkpt>
      <trkpt lat="47.08323" lon="2.3584">
        <ele>128</ele>
        <time>2021-08-30T14:47:24Z</time>
      </trkpt>
      <trkpt lat="47.0833" lon="2.35839">
        <ele>128</ele>
        <time>2021-08-30T14:47:24Z</time>
      </trkpt>
      <trkpt lat="47.0835" lon="2.35818">
        <ele>129</ele>
        <time>2021-08-30T14:47:24Z</time>
      </trkpt>
      <trkpt lat="47.08351" lon="2.35773">
        <ele>129</ele>
        <time>2021-08-30T14:47:24Z</time>
      </trkpt>
      <trkpt lat="47.08352" lon="2.35725">
        <ele>129</ele>
        <time>2021-08-30T14:47:24Z</time>
      </trkpt>
      <trkpt lat="47.08351" lon="2.35678">
        <ele>129</ele>
        <time>2021-08-30T14:47:24Z</time>
      </trkpt>
      <trkpt lat="47.08349" lon="2.35632">
        <ele>128</ele>
        <time>2021-08-30T14:47:24Z</time>
      </trkpt>
      <trkpt lat="47.08365" lon="2.35611">
        <ele>127</ele>
        <time>2021-08-30T14:47:24Z</time>
      </trkpt>
      <trkpt lat="47.08371" lon="2.35611">
        <ele>127</ele>
        <time>2021-08-30T14:47:24Z</time>
      </trkpt>
      <trkpt lat="47.08406" lon="2.35608">
        <ele>125</ele>
        <time>2021-08-30T14:47:24Z</time>
      </trkpt>
      <trkpt lat="47.08442" lon="2.35604">
        <ele>125</ele>
        <time>2021-08-30T14:47:24Z</time>
      </trkpt>
      <trkpt lat="47.08479" lon="2.35596">
        <ele>125</ele>
        <time>2021-08-30T14:47:24Z</time>
      </trkpt>
      <trkpt lat="47.08505" lon="2.35582">
        <ele>126</ele>
        <time>2021-08-30T14:47:24Z</time>
      </trkpt>
      <trkpt lat="47.08521" lon="2.35564">
        <ele>125</ele>
        <time>2021-08-30T14:47:24Z</time>
      </trkpt>
      <trkpt lat="47.08519" lon="2.35539">
        <ele>124</ele>
        <time>2021-08-30T14:47:24Z</time>
      </trkpt>
      <trkpt lat="47.08517" lon="2.35535">
        <ele>123</ele>
        <time>2021-08-30T14:47:24Z</time>
      </trkpt>
      <trkpt lat="47.08515" lon="2.3553">
        <ele>123</ele>
        <time>2021-08-30T14:47:24Z</time>
      </trkpt>
      <trkpt lat="47.08514" lon="2.35526">
        <ele>123</ele>
        <time>2021-08-30T14:47:24Z</time>
      </trkpt>
      <trkpt lat="47.08514" lon="2.35523">
        <ele>123</ele>
        <time>2021-08-30T14:47:24Z</time>
      </trkpt>
      <trkpt lat="47.08514" lon="2.35519">
        <ele>123</ele>
        <time>2021-08-30T14:47:24Z</time>
      </trkpt>
      <trkpt lat="47.08513" lon="2.35514">
        <ele>123</ele>
        <time>2021-08-30T14:47:24Z</time>
      </trkpt>
      <trkpt lat="47.08514" lon="2.35509">
        <ele>122</ele>
        <time>2021-08-30T14:47:24Z</time>
      </trkpt>
      <trkpt lat="47.08514" lon="2.35504">
        <ele>122</ele>
        <time>2021-08-30T14:47:24Z</time>
      </trkpt>
      <trkpt lat="47.08513" lon="2.355">
        <ele>122</ele>
        <time>2021-08-30T14:47:24Z</time>
      </trkpt>
      <trkpt lat="47.08513" lon="2.35498">
        <ele>122</ele>
        <time>2021-08-30T14:47:24Z</time>
      </trkpt>
      <trkpt lat="47.08512" lon="2.35496">
        <ele>122</ele>
        <time>2021-08-30T14:47:24Z</time>
      </trkpt>
      <trkpt lat="47.08512" lon="2.35496">
        <ele>122</ele>
        <time>2021-08-30T14:47:24Z</time>
      </trkpt>
      <trkpt lat="47.08512" lon="2.35496">
        <ele>122</ele>
        <time>2021-08-30T14:47:24Z</time>
      </trkpt>
      <trkpt lat="47.08512" lon="2.35496">
        <ele>122</ele>
        <time>2021-08-30T14:47:24Z</time>
      </trkpt>
      <trkpt lat="47.08512" lon="2.35496">
        <ele>122</ele>
        <time>2021-08-30T14:47:24Z</time>
      </trkpt>
      <trkpt lat="47.08512" lon="2.35496">
        <ele>122</ele>
        <time>2021-08-30T14:47:24Z</time>
      </trkpt>
      <trkpt lat="47.08512" lon="2.35496">
        <ele>122</ele>
        <time>2021-08-30T14:47:24Z</time>
      </trkpt>
      <trkpt lat="47.08512" lon="2.35495">
        <ele>122</ele>
        <time>2021-08-30T14:47:24Z</time>
      </trkpt>
      <trkpt lat="47.08512" lon="2.35495">
        <ele>122</ele>
        <time>2021-08-30T14:47:24Z</time>
      </trkpt>
      <trkpt lat="47.08512" lon="2.35495">
        <ele>122</ele>
        <time>2021-08-30T14:47:24Z</time>
      </trkpt>
      <trkpt lat="47.08512" lon="2.35496">
        <ele>122</ele>
        <time>2021-08-30T14:47:24Z</time>
      </trkpt>
      <trkpt lat="47.08512" lon="2.35495">
        <ele>122</ele>
        <time>2021-08-30T14:47:24Z</time>
      </trkpt>
      <trkpt lat="47.08512" lon="2.35495">
        <ele>122</ele>
        <time>2021-08-30T14:47:24Z</time>
      </trkpt>
      <trkpt lat="47.08512" lon="2.35494">
        <ele>122</ele>
        <time>2021-08-30T14:47:24Z</time>
      </trkpt>
      <trkpt lat="47.08512" lon="2.35494">
        <ele>122</ele>
        <time>2021-08-30T14:47:24Z</time>
      </trkpt>
      <trkpt lat="47.08513" lon="2.35494">
        <ele>122</ele>
        <time>2021-08-30T14:47:24Z</time>
      </trkpt>
      <trkpt lat="47.08512" lon="2.35493">
        <ele>122</ele>
        <time>2021-08-30T14:47:24Z</time>
      </trkpt>
      <trkpt lat="47.08511" lon="2.35492">
        <ele>122</ele>
        <time>2021-08-30T14:47:24Z</time>
      </trkpt>
      <trkpt lat="47.08511" lon="2.35491">
        <ele>122</ele>
        <time>2021-08-30T14:47:24Z</time>
      </trkpt>
      <trkpt lat="47.08511" lon="2.35488">
        <ele>122</ele>
        <time>2021-08-30T14:47:24Z</time>
      </trkpt>
      <trkpt lat="47.0851" lon="2.35485">
        <ele>122</ele>
        <time>2021-08-30T14:47:24Z</time>
      </trkpt>
      <trkpt lat="47.0851" lon="2.35481">
        <ele>122</ele>
        <time>2021-08-30T14:47:24Z</time>
      </trkpt>
      <trkpt lat="47.08509" lon="2.35476">
        <ele>122</ele>
        <time>2021-08-30T14:47:24Z</time>
      </trkpt>
      <trkpt lat="47.08509" lon="2.3547">
        <ele>122</ele>
        <time>2021-08-30T14:47:24Z</time>
      </trkpt>
      <trkpt lat="47.08509" lon="2.35464">
        <ele>122</ele>
        <time>2021-08-30T14:47:24Z</time>
      </trkpt>
      <trkpt lat="47.08508" lon="2.35457">
        <ele>122</ele>
        <time>2021-08-30T14:47:24Z</time>
      </trkpt>
      <trkpt lat="47.08508" lon="2.35451">
        <ele>122</ele>
        <time>2021-08-30T14:47:24Z</time>
      </trkpt>
      <trkpt lat="47.08507" lon="2.35446">
        <ele>122</ele>
        <time>2021-08-30T14:47:24Z</time>
      </trkpt>
      <trkpt lat="47.08508" lon="2.35435">
        <ele>122</ele>
        <time>2021-08-30T14:47:24Z</time>
      </trkpt>
      <trkpt lat="47.08506" lon="2.35427">
        <ele>122</ele>
        <time>2021-08-30T14:47:24Z</time>
      </trkpt>
      <trkpt lat="47.08501" lon="2.35386">
        <ele>121</ele>
        <time>2021-08-30T14:47:24Z</time>
      </trkpt>
      <trkpt lat="47.08496" lon="2.35338">
        <ele>122</ele>
        <time>2021-08-30T14:47:24Z</time>
      </trkpt>
      <trkpt lat="47.08494" lon="2.35293">
        <ele>123</ele>
        <time>2021-08-30T14:47:24Z</time>
      </trkpt>
      <trkpt lat="47.08491" lon="2.35246">
        <ele>125</ele>
        <time>2021-08-30T14:47:24Z</time>
      </trkpt>
      <trkpt lat="47.08485" lon="2.352">
        <ele>124</ele>
        <time>2021-08-30T14:47:24Z</time>
      </trkpt>
      <trkpt lat="47.08483" lon="2.35163">
        <ele>123</ele>
        <time>2021-08-30T14:47:24Z</time>
      </trkpt>
      <trkpt lat="47.08482" lon="2.35154">
        <ele>123</ele>
        <time>2021-08-30T14:47:24Z</time>
      </trkpt>
      <trkpt lat="47.08478" lon="2.35108">
        <ele>124</ele>
        <time>2021-08-30T14:47:24Z</time>
      </trkpt>
      <trkpt lat="47.08475" lon="2.35063">
        <ele>125</ele>
        <time>2021-08-30T14:47:24Z</time>
      </trkpt>
      <trkpt lat="47.08471" lon="2.35013">
        <ele>125</ele>
        <time>2021-08-30T14:47:24Z</time>
      </trkpt>
      <trkpt lat="47.08465" lon="2.34967">
        <ele>124</ele>
        <time>2021-08-30T14:47:24Z</time>
      </trkpt>
      <trkpt lat="47.08459" lon="2.34919">
        <ele>124</ele>
        <time>2021-08-30T14:47:24Z</time>
      </trkpt>
      <trkpt lat="47.08455" lon="2.3488">
        <ele>125</ele>
        <time>2021-08-30T14:47:24Z</time>
      </trkpt>
      <trkpt lat="47.08454" lon="2.3487">
        <ele>126</ele>
        <time>2021-08-30T14:47:24Z</time>
      </trkpt>
      <trkpt lat="47.08451" lon="2.34821">
        <ele>128</ele>
        <time>2021-08-30T14:47:24Z</time>
      </trkpt>
      <trkpt lat="47.08451" lon="2.34776">
        <ele>127</ele>
        <time>2021-08-30T14:47:24Z</time>
      </trkpt>
      <trkpt lat="47.08451" lon="2.34721">
        <ele>126</ele>
        <time>2021-08-30T14:47:24Z</time>
      </trkpt>
      <trkpt lat="47.08451" lon="2.34672">
        <ele>127</ele>
        <time>2021-08-30T14:47:24Z</time>
      </trkpt>
      <trkpt lat="47.08451" lon="2.34652">
        <ele>127</ele>
        <time>2021-08-30T14:47:24Z</time>
      </trkpt>
      <trkpt lat="47.08451" lon="2.34644">
        <ele>127</ele>
        <time>2021-08-30T14:47:24Z</time>
      </trkpt>
      <trkpt lat="47.08452" lon="2.34634">
        <ele>127</ele>
        <time>2021-08-30T14:47:24Z</time>
      </trkpt>
      <trkpt lat="47.08452" lon="2.34625">
        <ele>127</ele>
        <time>2021-08-30T14:47:24Z</time>
      </trkpt>
      <trkpt lat="47.08453" lon="2.34616">
        <ele>126</ele>
        <time>2021-08-30T14:47:24Z</time>
      </trkpt>
      <trkpt lat="47.08452" lon="2.34607">
        <ele>126</ele>
        <time>2021-08-30T14:47:24Z</time>
      </trkpt>
      <trkpt lat="47.08452" lon="2.34599">
        <ele>125</ele>
        <time>2021-08-30T14:47:24Z</time>
      </trkpt>
      <trkpt lat="47.08453" lon="2.34547">
        <ele>124</ele>
        <time>2021-08-30T14:47:24Z</time>
      </trkpt>
      <trkpt lat="47.08456" lon="2.34494">
        <ele>124</ele>
        <time>2021-08-30T14:47:24Z</time>
      </trkpt>
      <trkpt lat="47.08458" lon="2.34448">
        <ele>124</ele>
        <time>2021-08-30T14:47:24Z</time>
      </trkpt>
      <trkpt lat="47.08458" lon="2.34402">
        <ele>122</ele>
        <time>2021-08-30T14:47:24Z</time>
      </trkpt>
      <trkpt lat="47.08457" lon="2.34357">
        <ele>120</ele>
        <time>2021-08-30T14:47:24Z</time>
      </trkpt>
      <trkpt lat="47.08456" lon="2.34326">
        <ele>120</ele>
        <time>2021-08-30T14:47:24Z</time>
      </trkpt>
      <trkpt lat="47.08456" lon="2.34318">
        <ele>120</ele>
        <time>2021-08-30T14:47:24Z</time>
      </trkpt>
      <trkpt lat="47.08455" lon="2.3431">
        <ele>120</ele>
        <time>2021-08-30T14:47:24Z</time>
      </trkpt>
      <trkpt lat="47.08454" lon="2.34303">
        <ele>120</ele>
        <time>2021-08-30T14:47:24Z</time>
      </trkpt>
      <trkpt lat="47.08455" lon="2.34297">
        <ele>121</ele>
        <time>2021-08-30T14:47:24Z</time>
      </trkpt>
      <trkpt lat="47.08454" lon="2.34291">
        <ele>121</ele>
        <time>2021-08-30T14:47:24Z</time>
      </trkpt>
      <trkpt lat="47.08454" lon="2.34285">
        <ele>121</ele>
        <time>2021-08-30T14:47:24Z</time>
      </trkpt>
      <trkpt lat="47.08454" lon="2.34281">
        <ele>122</ele>
        <time>2021-08-30T14:47:24Z</time>
      </trkpt>
      <trkpt lat="47.08453" lon="2.34278">
        <ele>122</ele>
        <time>2021-08-30T14:47:24Z</time>
      </trkpt>
      <trkpt lat="47.08452" lon="2.34276">
        <ele>122</ele>
        <time>2021-08-30T14:47:24Z</time>
      </trkpt>
      <trkpt lat="47.0845" lon="2.34274">
        <ele>122</ele>
        <time>2021-08-30T14:47:24Z</time>
      </trkpt>
      <trkpt lat="47.08449" lon="2.34273">
        <ele>122</ele>
        <time>2021-08-30T14:47:24Z</time>
      </trkpt>
      <trkpt lat="47.08447" lon="2.34273">
        <ele>122</ele>
        <time>2021-08-30T14:47:24Z</time>
      </trkpt>
      <trkpt lat="47.08446" lon="2.34273">
        <ele>122</ele>
        <time>2021-08-30T14:47:24Z</time>
      </trkpt>
      <trkpt lat="47.08444" lon="2.34273">
        <ele>122</ele>
        <time>2021-08-30T14:47:24Z</time>
      </trkpt>
      <trkpt lat="47.08442" lon="2.34271">
        <ele>122</ele>
        <time>2021-08-30T14:47:24Z</time>
      </trkpt>
      <trkpt lat="47.08442" lon="2.34266">
        <ele>122</ele>
        <time>2021-08-30T14:47:24Z</time>
      </trkpt>
      <trkpt lat="47.08441" lon="2.3426">
        <ele>122</ele>
        <time>2021-08-30T14:47:24Z</time>
      </trkpt>
      <trkpt lat="47.08443" lon="2.34252">
        <ele>122</ele>
        <time>2021-08-30T14:47:24Z</time>
      </trkpt>
      <trkpt lat="47.08442" lon="2.34243">
        <ele>123</ele>
        <time>2021-08-30T14:47:24Z</time>
      </trkpt>
      <trkpt lat="47.08442" lon="2.34233">
        <ele>123</ele>
        <time>2021-08-30T14:47:24Z</time>
      </trkpt>
      <trkpt lat="47.08442" lon="2.34224">
        <ele>123</ele>
        <time>2021-08-30T14:47:24Z</time>
      </trkpt>
      <trkpt lat="47.08442" lon="2.34215">
        <ele>123</ele>
        <time>2021-08-30T14:47:24Z</time>
      </trkpt>
      <trkpt lat="47.08441" lon="2.34205">
        <ele>122</ele>
        <time>2021-08-30T14:47:24Z</time>
      </trkpt>
      <trkpt lat="47.08441" lon="2.34195">
        <ele>122</ele>
        <time>2021-08-30T14:47:24Z</time>
      </trkpt>
      <trkpt lat="47.0844" lon="2.34186">
        <ele>121</ele>
        <time>2021-08-30T14:47:24Z</time>
      </trkpt>
      <trkpt lat="47.0844" lon="2.34176">
        <ele>121</ele>
        <time>2021-08-30T14:47:24Z</time>
      </trkpt>
      <trkpt lat="47.08439" lon="2.34167">
        <ele>121</ele>
        <time>2021-08-30T14:47:24Z</time>
      </trkpt>
      <trkpt lat="47.08439" lon="2.34158">
        <ele>121</ele>
        <time>2021-08-30T14:47:24Z</time>
      </trkpt>
      <trkpt lat="47.0844" lon="2.34148">
        <ele>121</ele>
        <time>2021-08-30T14:47:24Z</time>
      </trkpt>
      <trkpt lat="47.0844" lon="2.34139">
        <ele>121</ele>
        <time>2021-08-30T14:47:24Z</time>
      </trkpt>
      <trkpt lat="47.0844" lon="2.34129">
        <ele>121</ele>
        <time>2021-08-30T14:47:24Z</time>
      </trkpt>
      <trkpt lat="47.0844" lon="2.34121">
        <ele>121</ele>
        <time>2021-08-30T14:47:24Z</time>
      </trkpt>
      <trkpt lat="47.0844" lon="2.34111">
        <ele>121</ele>
        <time>2021-08-30T14:47:24Z</time>
      </trkpt>
      <trkpt lat="47.0844" lon="2.34101">
        <ele>120</ele>
        <time>2021-08-30T14:47:24Z</time>
      </trkpt>
      <trkpt lat="47.0844" lon="2.34092">
        <ele>120</ele>
        <time>2021-08-30T14:47:24Z</time>
      </trkpt>
      <trkpt lat="47.0844" lon="2.34083">
        <ele>120</ele>
        <time>2021-08-30T14:47:24Z</time>
      </trkpt>
      <trkpt lat="47.08439" lon="2.34073">
        <ele>120</ele>
        <time>2021-08-30T14:47:24Z</time>
      </trkpt>
      <trkpt lat="47.08439" lon="2.34063">
        <ele>119</ele>
        <time>2021-08-30T14:47:24Z</time>
      </trkpt>
      <trkpt lat="47.08438" lon="2.34053">
        <ele>119</ele>
        <time>2021-08-30T14:47:24Z</time>
      </trkpt>
      <trkpt lat="47.08439" lon="2.34043">
        <ele>119</ele>
        <time>2021-08-30T14:47:24Z</time>
      </trkpt>
      <trkpt lat="47.08439" lon="2.34034">
        <ele>119</ele>
        <time>2021-08-30T14:47:24Z</time>
      </trkpt>
      <trkpt lat="47.08439" lon="2.34025">
        <ele>119</ele>
        <time>2021-08-30T14:47:24Z</time>
      </trkpt>
      <trkpt lat="47.0844" lon="2.34016">
        <ele>119</ele>
        <time>2021-08-30T14:47:24Z</time>
      </trkpt>
      <trkpt lat="47.08439" lon="2.34006">
        <ele>119</ele>
        <time>2021-08-30T14:47:24Z</time>
      </trkpt>
      <trkpt lat="47.08439" lon="2.33996">
        <ele>120</ele>
        <time>2021-08-30T14:47:24Z</time>
      </trkpt>
      <trkpt lat="47.08438" lon="2.33988">
        <ele>120</ele>
        <time>2021-08-30T14:47:24Z</time>
      </trkpt>
      <trkpt lat="47.08437" lon="2.33979">
        <ele>120</ele>
        <time>2021-08-30T14:47:24Z</time>
      </trkpt>
      <trkpt lat="47.08437" lon="2.33969">
        <ele>120</ele>
        <time>2021-08-30T14:47:24Z</time>
      </trkpt>
      <trkpt lat="47.08437" lon="2.3396">
        <ele>120</ele>
        <time>2021-08-30T14:47:24Z</time>
      </trkpt>
      <trkpt lat="47.08437" lon="2.3395">
        <ele>120</ele>
        <time>2021-08-30T14:47:24Z</time>
      </trkpt>
      <trkpt lat="47.08437" lon="2.3394">
        <ele>120</ele>
        <time>2021-08-30T14:47:24Z</time>
      </trkpt>
      <trkpt lat="47.08437" lon="2.3393">
        <ele>120</ele>
        <time>2021-08-30T14:47:24Z</time>
      </trkpt>
      <trkpt lat="47.08436" lon="2.33921">
        <ele>120</ele>
        <time>2021-08-30T14:47:24Z</time>
      </trkpt>
      <trkpt lat="47.08437" lon="2.33911">
        <ele>120</ele>
        <time>2021-08-30T14:47:24Z</time>
      </trkpt>
      <trkpt lat="47.08436" lon="2.339">
        <ele>120</ele>
        <time>2021-08-30T14:47:24Z</time>
      </trkpt>
      <trkpt lat="47.08438" lon="2.33891">
        <ele>120</ele>
        <time>2021-08-30T14:47:24Z</time>
      </trkpt>
      <trkpt lat="47.08439" lon="2.33882">
        <ele>120</ele>
        <time>2021-08-30T14:47:24Z</time>
      </trkpt>
      <trkpt lat="47.08438" lon="2.33874">
        <ele>120</ele>
        <time>2021-08-30T14:47:24Z</time>
      </trkpt>
      <trkpt lat="47.08438" lon="2.33866">
        <ele>121</ele>
        <time>2021-08-30T14:47:24Z</time>
      </trkpt>
      <trkpt lat="47.08438" lon="2.33856">
        <ele>121</ele>
        <time>2021-08-30T14:47:24Z</time>
      </trkpt>
      <trkpt lat="47.08437" lon="2.33846">
        <ele>122</ele>
        <time>2021-08-30T14:47:24Z</time>
      </trkpt>
      <trkpt lat="47.08436" lon="2.33836">
        <ele>123</ele>
        <time>2021-08-30T14:47:24Z</time>
      </trkpt>
      <trkpt lat="47.08436" lon="2.33787">
        <ele>124</ele>
        <time>2021-08-30T14:47:24Z</time>
      </trkpt>
      <trkpt lat="47.08431" lon="2.33743">
        <ele>122</ele>
        <time>2021-08-30T14:47:24Z</time>
      </trkpt>
      <trkpt lat="47.0843" lon="2.33696">
        <ele>120</ele>
        <time>2021-08-30T14:47:24Z</time>
      </trkpt>
      <trkpt lat="47.08431" lon="2.33648">
        <ele>120</ele>
        <time>2021-08-30T14:47:24Z</time>
      </trkpt>
      <trkpt lat="47.08434" lon="2.336">
        <ele>121</ele>
        <time>2021-08-30T14:47:24Z</time>
      </trkpt>
      <trkpt lat="47.08438" lon="2.33562">
        <ele>122</ele>
        <time>2021-08-30T14:47:24Z</time>
      </trkpt>
      <trkpt lat="47.0844" lon="2.33552">
        <ele>123</ele>
        <time>2021-08-30T14:47:24Z</time>
      </trkpt>
      <trkpt lat="47.08449" lon="2.33505">
        <ele>123</ele>
        <time>2021-08-30T14:47:24Z</time>
      </trkpt>
      <trkpt lat="47.0846" lon="2.33458">
        <ele>122</ele>
        <time>2021-08-30T14:47:24Z</time>
      </trkpt>
      <trkpt lat="47.08471" lon="2.33412">
        <ele>121</ele>
        <time>2021-08-30T14:47:24Z</time>
      </trkpt>
      <trkpt lat="47.08481" lon="2.33366">
        <ele>121</ele>
        <time>2021-08-30T14:47:24Z</time>
      </trkpt>
      <trkpt lat="47.08493" lon="2.3332">
        <ele>122</ele>
        <time>2021-08-30T14:47:24Z</time>
      </trkpt>
      <trkpt lat="47.085" lon="2.33282">
        <ele>122</ele>
        <time>2021-08-30T14:47:24Z</time>
      </trkpt>
      <trkpt lat="47.08503" lon="2.33273">
        <ele>121</ele>
        <time>2021-08-30T14:47:24Z</time>
      </trkpt>
      <trkpt lat="47.08514" lon="2.33226">
        <ele>121</ele>
        <time>2021-08-30T14:47:24Z</time>
      </trkpt>
      <trkpt lat="47.08526" lon="2.3318">
        <ele>121</ele>
        <time>2021-08-30T14:47:24Z</time>
      </trkpt>
      <trkpt lat="47.08537" lon="2.33133">
        <ele>121</ele>
        <time>2021-08-30T14:47:24Z</time>
      </trkpt>
      <trkpt lat="47.08548" lon="2.33086">
        <ele>122</ele>
        <time>2021-08-30T14:47:24Z</time>
      </trkpt>
      <trkpt lat="47.08559" lon="2.33039">
        <ele>122</ele>
        <time>2021-08-30T14:47:24Z</time>
      </trkpt>
      <trkpt lat="47.08569" lon="2.33002">
        <ele>122</ele>
        <time>2021-08-30T14:47:24Z</time>
      </trkpt>
      <trkpt lat="47.08571" lon="2.32993">
        <ele>122</ele>
        <time>2021-08-30T14:47:24Z</time>
      </trkpt>
      <trkpt lat="47.08573" lon="2.32983">
        <ele>122</ele>
        <time>2021-08-30T14:47:24Z</time>
      </trkpt>
      <trkpt lat="47.08575" lon="2.32974">
        <ele>121</ele>
        <time>2021-08-30T14:47:24Z</time>
      </trkpt>
      <trkpt lat="47.08577" lon="2.32965">
        <ele>121</ele>
        <time>2021-08-30T14:47:24Z</time>
      </trkpt>
      <trkpt lat="47.08579" lon="2.32956">
        <ele>121</ele>
        <time>2021-08-30T14:47:24Z</time>
      </trkpt>
      <trkpt lat="47.08582" lon="2.32946">
        <ele>121</ele>
        <time>2021-08-30T14:47:24Z</time>
      </trkpt>
      <trkpt lat="47.08584" lon="2.32936">
        <ele>122</ele>
        <time>2021-08-30T14:47:24Z</time>
      </trkpt>
      <trkpt lat="47.08586" lon="2.32927">
        <ele>122</ele>
        <time>2021-08-30T14:47:24Z</time>
      </trkpt>
      <trkpt lat="47.08589" lon="2.32919">
        <ele>122</ele>
        <time>2021-08-30T14:47:24Z</time>
      </trkpt>
      <trkpt lat="47.08591" lon="2.32909">
        <ele>122</ele>
        <time>2021-08-30T14:47:24Z</time>
      </trkpt>
      <trkpt lat="47.08593" lon="2.329">
        <ele>123</ele>
        <time>2021-08-30T14:47:24Z</time>
      </trkpt>
      <trkpt lat="47.08595" lon="2.32891">
        <ele>123</ele>
        <time>2021-08-30T14:47:24Z</time>
      </trkpt>
      <trkpt lat="47.08597" lon="2.32883">
        <ele>123</ele>
        <time>2021-08-30T14:47:24Z</time>
      </trkpt>
      <trkpt lat="47.086" lon="2.32875">
        <ele>123</ele>
        <time>2021-08-30T14:47:24Z</time>
      </trkpt>
      <trkpt lat="47.08602" lon="2.32866">
        <ele>123</ele>
        <time>2021-08-30T14:47:24Z</time>
      </trkpt>
      <trkpt lat="47.08604" lon="2.32858">
        <ele>123</ele>
        <time>2021-08-30T14:47:24Z</time>
      </trkpt>
      <trkpt lat="47.08605" lon="2.32851">
        <ele>123</ele>
        <time>2021-08-30T14:47:24Z</time>
      </trkpt>
      <trkpt lat="47.08607" lon="2.32843">
        <ele>123</ele>
        <time>2021-08-30T14:47:24Z</time>
      </trkpt>
      <trkpt lat="47.08609" lon="2.32836">
        <ele>123</ele>
        <time>2021-08-30T14:47:24Z</time>
      </trkpt>
      <trkpt lat="47.08611" lon="2.32829">
        <ele>123</ele>
        <time>2021-08-30T14:47:24Z</time>
      </trkpt>
      <trkpt lat="47.08613" lon="2.32822">
        <ele>123</ele>
        <time>2021-08-30T14:47:24Z</time>
      </trkpt>
      <trkpt lat="47.08614" lon="2.32816">
        <ele>123</ele>
        <time>2021-08-30T14:47:24Z</time>
      </trkpt>
      <trkpt lat="47.08616" lon="2.32809">
        <ele>123</ele>
        <time>2021-08-30T14:47:24Z</time>
      </trkpt>
      <trkpt lat="47.08618" lon="2.32803">
        <ele>123</ele>
        <time>2021-08-30T14:47:24Z</time>
      </trkpt>
      <trkpt lat="47.08619" lon="2.32798">
        <ele>122</ele>
        <time>2021-08-30T14:47:24Z</time>
      </trkpt>
      <trkpt lat="47.0862" lon="2.32792">
        <ele>122</ele>
        <time>2021-08-30T14:47:24Z</time>
      </trkpt>
      <trkpt lat="47.08622" lon="2.32785">
        <ele>122</ele>
        <time>2021-08-30T14:47:24Z</time>
      </trkpt>
      <trkpt lat="47.08623" lon="2.32778">
        <ele>121</ele>
        <time>2021-08-30T14:47:24Z</time>
      </trkpt>
      <trkpt lat="47.08625" lon="2.3277">
        <ele>121</ele>
        <time>2021-08-30T14:47:24Z</time>
      </trkpt>
      <trkpt lat="47.08627" lon="2.32762">
        <ele>121</ele>
        <time>2021-08-30T14:47:24Z</time>
      </trkpt>
      <trkpt lat="47.08629" lon="2.32755">
        <ele>121</ele>
        <time>2021-08-30T14:47:24Z</time>
      </trkpt>
      <trkpt lat="47.08631" lon="2.32746">
        <ele>120</ele>
        <time>2021-08-30T14:47:24Z</time>
      </trkpt>
      <trkpt lat="47.08632" lon="2.32738">
        <ele>120</ele>
        <time>2021-08-30T14:47:24Z</time>
      </trkpt>
      <trkpt lat="47.08634" lon="2.32729">
        <ele>120</ele>
        <time>2021-08-30T14:47:24Z</time>
      </trkpt>
      <trkpt lat="47.08636" lon="2.32721">
        <ele>120</ele>
        <time>2021-08-30T14:47:24Z</time>
      </trkpt>
      <trkpt lat="47.08638" lon="2.32712">
        <ele>120</ele>
        <time>2021-08-30T14:47:24Z</time>
      </trkpt>
      <trkpt lat="47.08639" lon="2.32703">
        <ele>119</ele>
        <time>2021-08-30T14:47:24Z</time>
      </trkpt>
      <trkpt lat="47.08642" lon="2.32694">
        <ele>119</ele>
        <time>2021-08-30T14:47:24Z</time>
      </trkpt>
      <trkpt lat="47.08644" lon="2.32685">
        <ele>119</ele>
        <time>2021-08-30T14:47:24Z</time>
      </trkpt>
      <trkpt lat="47.08646" lon="2.32676">
        <ele>119</ele>
        <time>2021-08-30T14:47:24Z</time>
      </trkpt>
      <trkpt lat="47.08648" lon="2.32668">
        <ele>118</ele>
        <time>2021-08-30T14:47:24Z</time>
      </trkpt>
      <trkpt lat="47.0865" lon="2.32659">
        <ele>118</ele>
        <time>2021-08-30T14:47:24Z</time>
      </trkpt>
      <trkpt lat="47.08653" lon="2.3265">
        <ele>118</ele>
        <time>2021-08-30T14:47:24Z</time>
      </trkpt>
      <trkpt lat="47.08655" lon="2.32642">
        <ele>118</ele>
        <time>2021-08-30T14:47:24Z</time>
      </trkpt>
      <trkpt lat="47.08657" lon="2.32633">
        <ele>118</ele>
        <time>2021-08-30T14:47:24Z</time>
      </trkpt>
      <trkpt lat="47.08659" lon="2.32624">
        <ele>118</ele>
        <time>2021-08-30T14:47:24Z</time>
      </trkpt>
      <trkpt lat="47.08661" lon="2.32615">
        <ele>118</ele>
        <time>2021-08-30T14:47:24Z</time>
      </trkpt>
      <trkpt lat="47.08664" lon="2.32606">
        <ele>119</ele>
        <time>2021-08-30T14:47:24Z</time>
      </trkpt>
      <trkpt lat="47.08665" lon="2.32597">
        <ele>119</ele>
        <time>2021-08-30T14:47:24Z</time>
      </trkpt>
      <trkpt lat="47.08668" lon="2.32588">
        <ele>119</ele>
        <time>2021-08-30T14:47:24Z</time>
      </trkpt>
      <trkpt lat="47.0867" lon="2.32579">
        <ele>120</ele>
        <time>2021-08-30T14:47:24Z</time>
      </trkpt>
      <trkpt lat="47.08673" lon="2.3257">
        <ele>120</ele>
        <time>2021-08-30T14:47:24Z</time>
      </trkpt>
      <trkpt lat="47.08674" lon="2.32561">
        <ele>120</ele>
        <time>2021-08-30T14:47:24Z</time>
      </trkpt>
      <trkpt lat="47.08676" lon="2.32551">
        <ele>120</ele>
        <time>2021-08-30T14:47:24Z</time>
      </trkpt>
      <trkpt lat="47.08678" lon="2.32542">
        <ele>120</ele>
        <time>2021-08-30T14:47:24Z</time>
      </trkpt>
      <trkpt lat="47.0868" lon="2.32532">
        <ele>120</ele>
        <time>2021-08-30T14:47:24Z</time>
      </trkpt>
      <trkpt lat="47.08683" lon="2.32523">
        <ele>119</ele>
        <time>2021-08-30T14:47:24Z</time>
      </trkpt>
      <trkpt lat="47.08685" lon="2.32514">
        <ele>119</ele>
        <time>2021-08-30T14:47:24Z</time>
      </trkpt>
      <trkpt lat="47.08687" lon="2.32505">
        <ele>119</ele>
        <time>2021-08-30T14:47:24Z</time>
      </trkpt>
      <trkpt lat="47.08689" lon="2.32496">
        <ele>119</ele>
        <time>2021-08-30T14:47:24Z</time>
      </trkpt>
      <trkpt lat="47.08691" lon="2.32487">
        <ele>119</ele>
        <time>2021-08-30T14:47:24Z</time>
      </trkpt>
      <trkpt lat="47.08693" lon="2.32477">
        <ele>119</ele>
        <time>2021-08-30T14:47:24Z</time>
      </trkpt>
      <trkpt lat="47.08704" lon="2.32432">
        <ele>120</ele>
        <time>2021-08-30T14:47:24Z</time>
      </trkpt>
      <trkpt lat="47.08716" lon="2.32384">
        <ele>121</ele>
        <time>2021-08-30T14:47:24Z</time>
      </trkpt>
      <trkpt lat="47.08727" lon="2.32339">
        <ele>120</ele>
        <time>2021-08-30T14:47:24Z</time>
      </trkpt>
      <trkpt lat="47.08738" lon="2.32294">
        <ele>121</ele>
        <time>2021-08-30T14:47:24Z</time>
      </trkpt>
      <trkpt lat="47.08748" lon="2.32247">
        <ele>120</ele>
        <time>2021-08-30T14:47:24Z</time>
      </trkpt>
      <trkpt lat="47.08757" lon="2.3221">
        <ele>120</ele>
        <time>2021-08-30T14:47:24Z</time>
      </trkpt>
      <trkpt lat="47.08759" lon="2.32201">
        <ele>120</ele>
        <time>2021-08-30T14:47:24Z</time>
      </trkpt>
      <trkpt lat="47.08769" lon="2.32155">
        <ele>121</ele>
        <time>2021-08-30T14:47:24Z</time>
      </trkpt>
      <trkpt lat="47.0878" lon="2.32109">
        <ele>120</ele>
        <time>2021-08-30T14:47:24Z</time>
      </trkpt>
      <trkpt lat="47.08792" lon="2.32061">
        <ele>121</ele>
        <time>2021-08-30T14:47:24Z</time>
      </trkpt>
      <trkpt lat="47.08802" lon="2.32017">
        <ele>122</ele>
        <time>2021-08-30T14:47:24Z</time>
      </trkpt>
      <trkpt lat="47.08814" lon="2.31971">
        <ele>122</ele>
        <time>2021-08-30T14:47:24Z</time>
      </trkpt>
      <trkpt lat="47.08823" lon="2.31934">
        <ele>121</ele>
        <time>2021-08-30T14:47:24Z</time>
      </trkpt>
      <trkpt lat="47.08826" lon="2.31924">
        <ele>121</ele>
        <time>2021-08-30T14:47:24Z</time>
      </trkpt>
      <trkpt lat="47.0884" lon="2.3188">
        <ele>122</ele>
        <time>2021-08-30T14:47:24Z</time>
      </trkpt>
      <trkpt lat="47.08857" lon="2.31839">
        <ele>123</ele>
        <time>2021-08-30T14:47:24Z</time>
      </trkpt>
      <trkpt lat="47.08877" lon="2.31799">
        <ele>122</ele>
        <time>2021-08-30T14:47:24Z</time>
      </trkpt>
      <trkpt lat="47.08902" lon="2.31763">
        <ele>123</ele>
        <time>2021-08-30T14:47:24Z</time>
      </trkpt>
      <trkpt lat="47.08925" lon="2.3173">
        <ele>123</ele>
        <time>2021-08-30T14:47:24Z</time>
      </trkpt>
      <trkpt lat="47.08943" lon="2.31701">
        <ele>124</ele>
        <time>2021-08-30T14:47:24Z</time>
      </trkpt>
      <trkpt lat="47.08949" lon="2.31695">
        <ele>124</ele>
        <time>2021-08-30T14:47:24Z</time>
      </trkpt>
      <trkpt lat="47.08958" lon="2.31682">
        <ele>124</ele>
        <time>2021-08-30T14:47:24Z</time>
      </trkpt>
      <trkpt lat="47.08963" lon="2.31675">
        <ele>124</ele>
        <time>2021-08-30T14:47:24Z</time>
      </trkpt>
      <trkpt lat="47.08967" lon="2.31668">
        <ele>124</ele>
        <time>2021-08-30T14:47:24Z</time>
      </trkpt>
      <trkpt lat="47.08972" lon="2.31661">
        <ele>124</ele>
        <time>2021-08-30T14:47:24Z</time>
      </trkpt>
      <trkpt lat="47.08977" lon="2.31654">
        <ele>124</ele>
        <time>2021-08-30T14:47:24Z</time>
      </trkpt>
      <trkpt lat="47.08982" lon="2.31647">
        <ele>124</ele>
        <time>2021-08-30T14:47:24Z</time>
      </trkpt>
      <trkpt lat="47.08987" lon="2.3164">
        <ele>123</ele>
        <time>2021-08-30T14:47:24Z</time>
      </trkpt>
      <trkpt lat="47.08991" lon="2.31633">
        <ele>123</ele>
        <time>2021-08-30T14:47:24Z</time>
      </trkpt>
      <trkpt lat="47.08996" lon="2.31627">
        <ele>123</ele>
        <time>2021-08-30T14:47:24Z</time>
      </trkpt>
      <trkpt lat="47.09" lon="2.31621">
        <ele>122</ele>
        <time>2021-08-30T14:47:24Z</time>
      </trkpt>
      <trkpt lat="47.09005" lon="2.31614">
        <ele>122</ele>
        <time>2021-08-30T14:47:24Z</time>
      </trkpt>
      <trkpt lat="47.09011" lon="2.31608">
        <ele>123</ele>
        <time>2021-08-30T14:47:24Z</time>
      </trkpt>
      <trkpt lat="47.09015" lon="2.31601">
        <ele>123</ele>
        <time>2021-08-30T14:47:24Z</time>
      </trkpt>
      <trkpt lat="47.0902" lon="2.31594">
        <ele>123</ele>
        <time>2021-08-30T14:47:24Z</time>
      </trkpt>
      <trkpt lat="47.09025" lon="2.31587">
        <ele>123</ele>
        <time>2021-08-30T14:47:24Z</time>
      </trkpt>
      <trkpt lat="47.0903" lon="2.31581">
        <ele>122</ele>
        <time>2021-08-30T14:47:24Z</time>
      </trkpt>
      <trkpt lat="47.09034" lon="2.31575">
        <ele>122</ele>
        <time>2021-08-30T14:47:24Z</time>
      </trkpt>
      <trkpt lat="47.09038" lon="2.31568">
        <ele>122</ele>
        <time>2021-08-30T14:47:24Z</time>
      </trkpt>
      <trkpt lat="47.09043" lon="2.31562">
        <ele>122</ele>
        <time>2021-08-30T14:47:24Z</time>
      </trkpt>
      <trkpt lat="47.09047" lon="2.31556">
        <ele>122</ele>
        <time>2021-08-30T14:47:24Z</time>
      </trkpt>
      <trkpt lat="47.09051" lon="2.3155">
        <ele>123</ele>
        <time>2021-08-30T14:47:24Z</time>
      </trkpt>
      <trkpt lat="47.09055" lon="2.31544">
        <ele>123</ele>
        <time>2021-08-30T14:47:24Z</time>
      </trkpt>
      <trkpt lat="47.09059" lon="2.31539">
        <ele>123</ele>
        <time>2021-08-30T14:47:24Z</time>
      </trkpt>
      <trkpt lat="47.09063" lon="2.31535">
        <ele>123</ele>
        <time>2021-08-30T14:47:24Z</time>
      </trkpt>
      <trkpt lat="47.09068" lon="2.31531">
        <ele>123</ele>
        <time>2021-08-30T14:47:24Z</time>
      </trkpt>
      <trkpt lat="47.09071" lon="2.31528">
        <ele>123</ele>
        <time>2021-08-30T14:47:24Z</time>
      </trkpt>
      <trkpt lat="47.09075" lon="2.31525">
        <ele>123</ele>
        <time>2021-08-30T14:47:24Z</time>
      </trkpt>
      <trkpt lat="47.09078" lon="2.31523">
        <ele>123</ele>
        <time>2021-08-30T14:47:24Z</time>
      </trkpt>
      <trkpt lat="47.09091" lon="2.31507">
        <ele>123</ele>
        <time>2021-08-30T14:47:24Z</time>
      </trkpt>
      <trkpt lat="47.09092" lon="2.31479">
        <ele>123</ele>
        <time>2021-08-30T14:47:24Z</time>
      </trkpt>
      <trkpt lat="47.09103" lon="2.31453">
        <ele>122</ele>
        <time>2021-08-30T14:47:24Z</time>
      </trkpt>
      <trkpt lat="47.09119" lon="2.31427">
        <ele>122</ele>
        <time>2021-08-30T14:47:24Z</time>
      </trkpt>
      <trkpt lat="47.09138" lon="2.31399">
        <ele>122</ele>
        <time>2021-08-30T14:47:24Z</time>
      </trkpt>
      <trkpt lat="47.09155" lon="2.31375">
        <ele>123</ele>
        <time>2021-08-30T14:47:24Z</time>
      </trkpt>
      <trkpt lat="47.09159" lon="2.3137">
        <ele>123</ele>
        <time>2021-08-30T14:47:24Z</time>
      </trkpt>
      <trkpt lat="47.09181" lon="2.31342">
        <ele>122</ele>
        <time>2021-08-30T14:47:24Z</time>
      </trkpt>
      <trkpt lat="47.09203" lon="2.31311">
        <ele>122</ele>
        <time>2021-08-30T14:47:24Z</time>
      </trkpt>
      <trkpt lat="47.09223" lon="2.31278">
        <ele>121</ele>
        <time>2021-08-30T14:47:24Z</time>
      </trkpt>
      <trkpt lat="47.09249" lon="2.31258">
        <ele>120</ele>
        <time>2021-08-30T14:47:24Z</time>
      </trkpt>
      <trkpt lat="47.09273" lon="2.3123">
        <ele>120</ele>
        <time>2021-08-30T14:47:24Z</time>
      </trkpt>
      <trkpt lat="47.09293" lon="2.31205">
        <ele>120</ele>
        <time>2021-08-30T14:47:24Z</time>
      </trkpt>
      <trkpt lat="47.09299" lon="2.31199">
        <ele>120</ele>
        <time>2021-08-30T14:47:24Z</time>
      </trkpt>
      <trkpt lat="47.09323" lon="2.31168">
        <ele>121</ele>
        <time>2021-08-30T14:47:24Z</time>
      </trkpt>
      <trkpt lat="47.09346" lon="2.31136">
        <ele>120</ele>
        <time>2021-08-30T14:47:24Z</time>
      </trkpt>
      <trkpt lat="47.0935" lon="2.3113">
        <ele>120</ele>
        <time>2021-08-30T14:47:24Z</time>
      </trkpt>
      <trkpt lat="47.09354" lon="2.31125">
        <ele>120</ele>
        <time>2021-08-30T14:47:24Z</time>
      </trkpt>
      <trkpt lat="47.09359" lon="2.3112">
        <ele>120</ele>
        <time>2021-08-30T14:47:24Z</time>
      </trkpt>
      <trkpt lat="47.09363" lon="2.31114">
        <ele>120</ele>
        <time>2021-08-30T14:47:24Z</time>
      </trkpt>
      <trkpt lat="47.09368" lon="2.31109">
        <ele>120</ele>
        <time>2021-08-30T14:47:24Z</time>
      </trkpt>
      <trkpt lat="47.09372" lon="2.31103">
        <ele>120</ele>
        <time>2021-08-30T14:47:24Z</time>
      </trkpt>
      <trkpt lat="47.09376" lon="2.31097">
        <ele>120</ele>
        <time>2021-08-30T14:47:24Z</time>
      </trkpt>
      <trkpt lat="47.09381" lon="2.31092">
        <ele>120</ele>
        <time>2021-08-30T14:47:24Z</time>
      </trkpt>
      <trkpt lat="47.09404" lon="2.3106">
        <ele>120</ele>
        <time>2021-08-30T14:47:24Z</time>
      </trkpt>
      <trkpt lat="47.09426" lon="2.31026">
        <ele>121</ele>
        <time>2021-08-30T14:47:24Z</time>
      </trkpt>
      <trkpt lat="47.09447" lon="2.3099">
        <ele>122</ele>
        <time>2021-08-30T14:47:24Z</time>
      </trkpt>
      <trkpt lat="47.09464" lon="2.30958">
        <ele>122</ele>
        <time>2021-08-30T14:47:24Z</time>
      </trkpt>
      <trkpt lat="47.09477" lon="2.30931">
        <ele>121</ele>
        <time>2021-08-30T14:47:24Z</time>
      </trkpt>
      <trkpt lat="47.09487" lon="2.30934">
        <ele>121</ele>
        <time>2021-08-30T14:47:24Z</time>
      </trkpt>
      <trkpt lat="47.0949" lon="2.30935">
        <ele>121</ele>
        <time>2021-08-30T14:47:24Z</time>
      </trkpt>
      <trkpt lat="47.09492" lon="2.30933">
        <ele>121</ele>
        <time>2021-08-30T14:47:24Z</time>
      </trkpt>
      <trkpt lat="47.09494" lon="2.3093">
        <ele>121</ele>
        <time>2021-08-30T14:47:24Z</time>
      </trkpt>
      <trkpt lat="47.09494" lon="2.30925">
        <ele>121</ele>
        <time>2021-08-30T14:47:24Z</time>
      </trkpt>
      <trkpt lat="47.09496" lon="2.30921">
        <ele>121</ele>
        <time>2021-08-30T14:47:24Z</time>
      </trkpt>
      <trkpt lat="47.09498" lon="2.30916">
        <ele>121</ele>
        <time>2021-08-30T14:47:24Z</time>
      </trkpt>
      <trkpt lat="47.09503" lon="2.30911">
        <ele>120</ele>
        <time>2021-08-30T14:47:24Z</time>
      </trkpt>
      <trkpt lat="47.09505" lon="2.30905">
        <ele>120</ele>
        <time>2021-08-30T14:47:24Z</time>
      </trkpt>
      <trkpt lat="47.09508" lon="2.30898">
        <ele>120</ele>
        <time>2021-08-30T14:47:24Z</time>
      </trkpt>
      <trkpt lat="47.09511" lon="2.30891">
        <ele>120</ele>
        <time>2021-08-30T14:47:24Z</time>
      </trkpt>
      <trkpt lat="47.09513" lon="2.30884">
        <ele>120</ele>
        <time>2021-08-30T14:47:24Z</time>
      </trkpt>
      <trkpt lat="47.09516" lon="2.30877">
        <ele>120</ele>
        <time>2021-08-30T14:47:24Z</time>
      </trkpt>
      <trkpt lat="47.09518" lon="2.3087">
        <ele>121</ele>
        <time>2021-08-30T14:47:24Z</time>
      </trkpt>
      <trkpt lat="47.09521" lon="2.30862">
        <ele>121</ele>
        <time>2021-08-30T14:47:24Z</time>
      </trkpt>
      <trkpt lat="47.09524" lon="2.30855">
        <ele>121</ele>
        <time>2021-08-30T14:47:24Z</time>
      </trkpt>
      <trkpt lat="47.09527" lon="2.30848">
        <ele>121</ele>
        <time>2021-08-30T14:47:24Z</time>
      </trkpt>
      <trkpt lat="47.0953" lon="2.30841">
        <ele>120</ele>
        <time>2021-08-30T14:47:24Z</time>
      </trkpt>
      <trkpt lat="47.09533" lon="2.30833">
        <ele>120</ele>
        <time>2021-08-30T14:47:24Z</time>
      </trkpt>
      <trkpt lat="47.09536" lon="2.30826">
        <ele>120</ele>
        <time>2021-08-30T14:47:24Z</time>
      </trkpt>
      <trkpt lat="47.0954" lon="2.30818">
        <ele>120</ele>
        <time>2021-08-30T14:47:24Z</time>
      </trkpt>
      <trkpt lat="47.09543" lon="2.3081">
        <ele>119</ele>
        <time>2021-08-30T14:47:24Z</time>
      </trkpt>
      <trkpt lat="47.09546" lon="2.30802">
        <ele>119</ele>
        <time>2021-08-30T14:47:24Z</time>
      </trkpt>
      <trkpt lat="47.0955" lon="2.30795">
        <ele>119</ele>
        <time>2021-08-30T14:47:24Z</time>
      </trkpt>
      <trkpt lat="47.09553" lon="2.30787">
        <ele>119</ele>
        <time>2021-08-30T14:47:24Z</time>
      </trkpt>
      <trkpt lat="47.09556" lon="2.30778">
        <ele>118</ele>
        <time>2021-08-30T14:47:24Z</time>
      </trkpt>
      <trkpt lat="47.0956" lon="2.3077">
        <ele>119</ele>
        <time>2021-08-30T14:47:24Z</time>
      </trkpt>
      <trkpt lat="47.09563" lon="2.30762">
        <ele>119</ele>
        <time>2021-08-30T14:47:24Z</time>
      </trkpt>
      <trkpt lat="47.09565" lon="2.30754">
        <ele>120</ele>
        <time>2021-08-30T14:47:24Z</time>
      </trkpt>
      <trkpt lat="47.09569" lon="2.30746">
        <ele>120</ele>
        <time>2021-08-30T14:47:24Z</time>
      </trkpt>
      <trkpt lat="47.09572" lon="2.30737">
        <ele>120</ele>
        <time>2021-08-30T14:47:24Z</time>
      </trkpt>
      <trkpt lat="47.09576" lon="2.30729">
        <ele>120</ele>
        <time>2021-08-30T14:47:24Z</time>
      </trkpt>
      <trkpt lat="47.09579" lon="2.30721">
        <ele>121</ele>
        <time>2021-08-30T14:47:24Z</time>
      </trkpt>
      <trkpt lat="47.09583" lon="2.30713">
        <ele>121</ele>
        <time>2021-08-30T14:47:24Z</time>
      </trkpt>
      <trkpt lat="47.09586" lon="2.30704">
        <ele>121</ele>
        <time>2021-08-30T14:47:24Z</time>
      </trkpt>
      <trkpt lat="47.09589" lon="2.30696">
        <ele>121</ele>
        <time>2021-08-30T14:47:24Z</time>
      </trkpt>
      <trkpt lat="47.09593" lon="2.30687">
        <ele>121</ele>
        <time>2021-08-30T14:47:24Z</time>
      </trkpt>
      <trkpt lat="47.09596" lon="2.30679">
        <ele>121</ele>
        <time>2021-08-30T14:47:24Z</time>
      </trkpt>
      <trkpt lat="47.096" lon="2.30671">
        <ele>121</ele>
        <time>2021-08-30T14:47:24Z</time>
      </trkpt>
      <trkpt lat="47.09603" lon="2.30663">
        <ele>121</ele>
        <time>2021-08-30T14:47:24Z</time>
      </trkpt>
      <trkpt lat="47.09606" lon="2.30655">
        <ele>120</ele>
        <time>2021-08-30T14:47:24Z</time>
      </trkpt>
      <trkpt lat="47.09609" lon="2.30646">
        <ele>120</ele>
        <time>2021-08-30T14:47:24Z</time>
      </trkpt>
      <trkpt lat="47.09613" lon="2.30637">
        <ele>119</ele>
        <time>2021-08-30T14:47:24Z</time>
      </trkpt>
      <trkpt lat="47.09616" lon="2.30629">
        <ele>119</ele>
        <time>2021-08-30T14:47:24Z</time>
      </trkpt>
      <trkpt lat="47.09619" lon="2.30621">
        <ele>119</ele>
        <time>2021-08-30T14:47:24Z</time>
      </trkpt>
      <trkpt lat="47.09623" lon="2.30613">
        <ele>119</ele>
        <time>2021-08-30T14:47:24Z</time>
      </trkpt>
      <trkpt lat="47.09626" lon="2.30604">
        <ele>119</ele>
        <time>2021-08-30T14:47:24Z</time>
      </trkpt>
      <trkpt lat="47.09629" lon="2.30596">
        <ele>119</ele>
        <time>2021-08-30T14:47:24Z</time>
      </trkpt>
      <trkpt lat="47.09632" lon="2.30588">
        <ele>119</ele>
        <time>2021-08-30T14:47:24Z</time>
      </trkpt>
      <trkpt lat="47.09635" lon="2.30579">
        <ele>119</ele>
        <time>2021-08-30T14:47:24Z</time>
      </trkpt>
      <trkpt lat="47.09639" lon="2.30571">
        <ele>119</ele>
        <time>2021-08-30T14:47:24Z</time>
      </trkpt>
      <trkpt lat="47.09642" lon="2.30563">
        <ele>118</ele>
        <time>2021-08-30T14:47:24Z</time>
      </trkpt>
      <trkpt lat="47.09645" lon="2.30555">
        <ele>118</ele>
        <time>2021-08-30T14:47:24Z</time>
      </trkpt>
      <trkpt lat="47.09648" lon="2.30546">
        <ele>119</ele>
        <time>2021-08-30T14:47:24Z</time>
      </trkpt>
      <trkpt lat="47.09651" lon="2.30538">
        <ele>119</ele>
        <time>2021-08-30T14:47:24Z</time>
      </trkpt>
      <trkpt lat="47.09654" lon="2.3053">
        <ele>119</ele>
        <time>2021-08-30T14:47:24Z</time>
      </trkpt>
      <trkpt lat="47.09657" lon="2.30521">
        <ele>119</ele>
        <time>2021-08-30T14:47:24Z</time>
      </trkpt>
      <trkpt lat="47.09661" lon="2.30513">
        <ele>119</ele>
        <time>2021-08-30T14:47:24Z</time>
      </trkpt>
      <trkpt lat="47.09665" lon="2.30505">
        <ele>119</ele>
        <time>2021-08-30T14:47:24Z</time>
      </trkpt>
      <trkpt lat="47.09668" lon="2.30497">
        <ele>118</ele>
        <time>2021-08-30T14:47:24Z</time>
      </trkpt>
      <trkpt lat="47.09672" lon="2.30489">
        <ele>118</ele>
        <time>2021-08-30T14:47:24Z</time>
      </trkpt>
      <trkpt lat="47.09676" lon="2.3048">
        <ele>118</ele>
        <time>2021-08-30T14:47:24Z</time>
      </trkpt>
      <trkpt lat="47.09679" lon="2.30472">
        <ele>118</ele>
        <time>2021-08-30T14:47:24Z</time>
      </trkpt>
      <trkpt lat="47.09696" lon="2.3043">
        <ele>119</ele>
        <time>2021-08-30T14:47:24Z</time>
      </trkpt>
      <trkpt lat="47.09712" lon="2.30388">
        <ele>119</ele>
        <time>2021-08-30T14:47:24Z</time>
      </trkpt>
      <trkpt lat="47.09728" lon="2.30347">
        <ele>120</ele>
        <time>2021-08-30T14:47:24Z</time>
      </trkpt>
      <trkpt lat="47.09745" lon="2.30305">
        <ele>120</ele>
        <time>2021-08-30T14:47:24Z</time>
      </trkpt>
      <trkpt lat="47.09761" lon="2.30263">
        <ele>121</ele>
        <time>2021-08-30T14:47:24Z</time>
      </trkpt>
      <trkpt lat="47.09774" lon="2.30229">
        <ele>121</ele>
        <time>2021-08-30T14:47:24Z</time>
      </trkpt>
      <trkpt lat="47.09777" lon="2.30221">
        <ele>121</ele>
        <time>2021-08-30T14:47:24Z</time>
      </trkpt>
      <trkpt lat="47.09793" lon="2.3018">
        <ele>121</ele>
        <time>2021-08-30T14:47:24Z</time>
      </trkpt>
      <trkpt lat="47.09809" lon="2.30139">
        <ele>121</ele>
        <time>2021-08-30T14:47:24Z</time>
      </trkpt>
      <trkpt lat="47.09825" lon="2.30098">
        <ele>120</ele>
        <time>2021-08-30T14:47:24Z</time>
      </trkpt>
      <trkpt lat="47.09841" lon="2.30056">
        <ele>120</ele>
        <time>2021-08-30T14:47:24Z</time>
      </trkpt>
      <trkpt lat="47.0986" lon="2.30015">
        <ele>120</ele>
        <time>2021-08-30T14:47:24Z</time>
      </trkpt>
      <trkpt lat="47.09873" lon="2.29981">
        <ele>120</ele>
        <time>2021-08-30T14:47:24Z</time>
      </trkpt>
      <trkpt lat="47.09877" lon="2.29973">
        <ele>120</ele>
        <time>2021-08-30T14:47:24Z</time>
      </trkpt>
      <trkpt lat="47.09894" lon="2.29932">
        <ele>119</ele>
        <time>2021-08-30T14:47:24Z</time>
      </trkpt>
      <trkpt lat="47.09908" lon="2.29892">
        <ele>119</ele>
        <time>2021-08-30T14:47:24Z</time>
      </trkpt>
      <trkpt lat="47.09922" lon="2.29856">
        <ele>118</ele>
        <time>2021-08-30T14:47:24Z</time>
      </trkpt>
      <trkpt lat="47.09936" lon="2.29824">
        <ele>118</ele>
        <time>2021-08-30T14:47:24Z</time>
      </trkpt>
      <trkpt lat="47.09953" lon="2.29787">
        <ele>118</ele>
        <time>2021-08-30T14:47:24Z</time>
      </trkpt>
      <trkpt lat="47.09968" lon="2.29752">
        <ele>119</ele>
        <time>2021-08-30T14:47:24Z</time>
      </trkpt>
      <trkpt lat="47.09972" lon="2.29744">
        <ele>119</ele>
        <time>2021-08-30T14:47:24Z</time>
      </trkpt>
      <trkpt lat="47.09976" lon="2.29735">
        <ele>119</ele>
        <time>2021-08-30T14:47:24Z</time>
      </trkpt>
      <trkpt lat="47.09979" lon="2.29727">
        <ele>119</ele>
        <time>2021-08-30T14:47:24Z</time>
      </trkpt>
      <trkpt lat="47.09983" lon="2.29719">
        <ele>119</ele>
        <time>2021-08-30T14:47:24Z</time>
      </trkpt>
      <trkpt lat="47.09986" lon="2.2971">
        <ele>119</ele>
        <time>2021-08-30T14:47:24Z</time>
      </trkpt>
      <trkpt lat="47.0999" lon="2.29701">
        <ele>119</ele>
        <time>2021-08-30T14:47:24Z</time>
      </trkpt>
      <trkpt lat="47.09993" lon="2.29693">
        <ele>120</ele>
        <time>2021-08-30T14:47:24Z</time>
      </trkpt>
      <trkpt lat="47.09996" lon="2.29685">
        <ele>120</ele>
        <time>2021-08-30T14:47:24Z</time>
      </trkpt>
      <trkpt lat="47.1" lon="2.29676">
        <ele>120</ele>
        <time>2021-08-30T14:47:24Z</time>
      </trkpt>
      <trkpt lat="47.10003" lon="2.29668">
        <ele>120</ele>
        <time>2021-08-30T14:47:24Z</time>
      </trkpt>
      <trkpt lat="47.10007" lon="2.2966">
        <ele>120</ele>
        <time>2021-08-30T14:47:24Z</time>
      </trkpt>
      <trkpt lat="47.1001" lon="2.29652">
        <ele>120</ele>
        <time>2021-08-30T14:47:24Z</time>
      </trkpt>
      <trkpt lat="47.10014" lon="2.29643">
        <ele>120</ele>
        <time>2021-08-30T14:47:24Z</time>
      </trkpt>
      <trkpt lat="47.10017" lon="2.29635">
        <ele>120</ele>
        <time>2021-08-30T14:47:24Z</time>
      </trkpt>
      <trkpt lat="47.1002" lon="2.29627">
        <ele>119</ele>
        <time>2021-08-30T14:47:24Z</time>
      </trkpt>
      <trkpt lat="47.10024" lon="2.29619">
        <ele>119</ele>
        <time>2021-08-30T14:47:24Z</time>
      </trkpt>
      <trkpt lat="47.10027" lon="2.2961">
        <ele>119</ele>
        <time>2021-08-30T14:47:24Z</time>
      </trkpt>
      <trkpt lat="47.1003" lon="2.29602">
        <ele>119</ele>
        <time>2021-08-30T14:47:24Z</time>
      </trkpt>
      <trkpt lat="47.10034" lon="2.29594">
        <ele>119</ele>
        <time>2021-08-30T14:47:24Z</time>
      </trkpt>
      <trkpt lat="47.10037" lon="2.29586">
        <ele>119</ele>
        <time>2021-08-30T14:47:24Z</time>
      </trkpt>
      <trkpt lat="47.10041" lon="2.29578">
        <ele>119</ele>
        <time>2021-08-30T14:47:24Z</time>
      </trkpt>
      <trkpt lat="47.10044" lon="2.2957">
        <ele>119</ele>
        <time>2021-08-30T14:47:24Z</time>
      </trkpt>
      <trkpt lat="47.10047" lon="2.29561">
        <ele>119</ele>
        <time>2021-08-30T14:47:24Z</time>
      </trkpt>
      <trkpt lat="47.10051" lon="2.29553">
        <ele>120</ele>
        <time>2021-08-30T14:47:24Z</time>
      </trkpt>
      <trkpt lat="47.10054" lon="2.29545">
        <ele>120</ele>
        <time>2021-08-30T14:47:24Z</time>
      </trkpt>
      <trkpt lat="47.10058" lon="2.29536">
        <ele>120</ele>
        <time>2021-08-30T14:47:24Z</time>
      </trkpt>
      <trkpt lat="47.10061" lon="2.29528">
        <ele>121</ele>
        <time>2021-08-30T14:47:24Z</time>
      </trkpt>
      <trkpt lat="47.10064" lon="2.29519">
        <ele>121</ele>
        <time>2021-08-30T14:47:24Z</time>
      </trkpt>
      <trkpt lat="47.10067" lon="2.29511">
        <ele>121</ele>
        <time>2021-08-30T14:47:24Z</time>
      </trkpt>
      <trkpt lat="47.1007" lon="2.29502">
        <ele>121</ele>
        <time>2021-08-30T14:47:24Z</time>
      </trkpt>
      <trkpt lat="47.10074" lon="2.29494">
        <ele>121</ele>
        <time>2021-08-30T14:47:24Z</time>
      </trkpt>
      <trkpt lat="47.10077" lon="2.29486">
        <ele>120</ele>
        <time>2021-08-30T14:47:24Z</time>
      </trkpt>
      <trkpt lat="47.10081" lon="2.29477">
        <ele>120</ele>
        <time>2021-08-30T14:47:24Z</time>
      </trkpt>
      <trkpt lat="47.10084" lon="2.29469">
        <ele>119</ele>
        <time>2021-08-30T14:47:24Z</time>
      </trkpt>
      <trkpt lat="47.10087" lon="2.2946">
        <ele>119</ele>
        <time>2021-08-30T14:47:24Z</time>
      </trkpt>
      <trkpt lat="47.1009" lon="2.29452">
        <ele>119</ele>
        <time>2021-08-30T14:47:24Z</time>
      </trkpt>
      <trkpt lat="47.10094" lon="2.29443">
        <ele>118</ele>
        <time>2021-08-30T14:47:24Z</time>
      </trkpt>
      <trkpt lat="47.10097" lon="2.29434">
        <ele>118</ele>
        <time>2021-08-30T14:47:24Z</time>
      </trkpt>
      <trkpt lat="47.101" lon="2.29426">
        <ele>118</ele>
        <time>2021-08-30T14:47:24Z</time>
      </trkpt>
      <trkpt lat="47.10104" lon="2.29418">
        <ele>118</ele>
        <time>2021-08-30T14:47:24Z</time>
      </trkpt>
      <trkpt lat="47.10107" lon="2.29409">
        <ele>118</ele>
        <time>2021-08-30T14:47:24Z</time>
      </trkpt>
      <trkpt lat="47.1011" lon="2.29401">
        <ele>118</ele>
        <time>2021-08-30T14:47:24Z</time>
      </trkpt>
      <trkpt lat="47.10114" lon="2.29392">
        <ele>118</ele>
        <time>2021-08-30T14:47:24Z</time>
      </trkpt>
      <trkpt lat="47.10118" lon="2.29384">
        <ele>118</ele>
        <time>2021-08-30T14:47:24Z</time>
      </trkpt>
      <trkpt lat="47.10121" lon="2.29375">
        <ele>119</ele>
        <time>2021-08-30T14:47:24Z</time>
      </trkpt>
      <trkpt lat="47.10125" lon="2.29367">
        <ele>119</ele>
        <time>2021-08-30T14:47:24Z</time>
      </trkpt>
      <trkpt lat="47.10128" lon="2.29359">
        <ele>119</ele>
        <time>2021-08-30T14:47:24Z</time>
      </trkpt>
      <trkpt lat="47.10131" lon="2.2935">
        <ele>119</ele>
        <time>2021-08-30T14:47:24Z</time>
      </trkpt>
      <trkpt lat="47.10135" lon="2.29341">
        <ele>119</ele>
        <time>2021-08-30T14:47:24Z</time>
      </trkpt>
      <trkpt lat="47.10138" lon="2.29333">
        <ele>119</ele>
        <time>2021-08-30T14:47:24Z</time>
      </trkpt>
      <trkpt lat="47.10142" lon="2.29325">
        <ele>118</ele>
        <time>2021-08-30T14:47:24Z</time>
      </trkpt>
      <trkpt lat="47.10145" lon="2.29316">
        <ele>118</ele>
        <time>2021-08-30T14:47:24Z</time>
      </trkpt>
      <trkpt lat="47.10148" lon="2.29308">
        <ele>118</ele>
        <time>2021-08-30T14:47:24Z</time>
      </trkpt>
      <trkpt lat="47.10151" lon="2.293">
        <ele>119</ele>
        <time>2021-08-30T14:47:24Z</time>
      </trkpt>
      <trkpt lat="47.10155" lon="2.29292">
        <ele>119</ele>
        <time>2021-08-30T14:47:24Z</time>
      </trkpt>
      <trkpt lat="47.10158" lon="2.29283">
        <ele>119</ele>
        <time>2021-08-30T14:47:24Z</time>
      </trkpt>
      <trkpt lat="47.10162" lon="2.29275">
        <ele>119</ele>
        <time>2021-08-30T14:47:24Z</time>
      </trkpt>
      <trkpt lat="47.10166" lon="2.29268">
        <ele>119</ele>
        <time>2021-08-30T14:47:24Z</time>
      </trkpt>
      <trkpt lat="47.10169" lon="2.2926">
        <ele>119</ele>
        <time>2021-08-30T14:47:24Z</time>
      </trkpt>
      <trkpt lat="47.10172" lon="2.29251">
        <ele>119</ele>
        <time>2021-08-30T14:47:24Z</time>
      </trkpt>
      <trkpt lat="47.10175" lon="2.29243">
        <ele>120</ele>
        <time>2021-08-30T14:47:24Z</time>
      </trkpt>
      <trkpt lat="47.10178" lon="2.29234">
        <ele>120</ele>
        <time>2021-08-30T14:47:24Z</time>
      </trkpt>
      <trkpt lat="47.10195" lon="2.29192">
        <ele>121</ele>
        <time>2021-08-30T14:47:24Z</time>
      </trkpt>
      <trkpt lat="47.10212" lon="2.29149">
        <ele>120</ele>
        <time>2021-08-30T14:47:24Z</time>
      </trkpt>
      <trkpt lat="47.10228" lon="2.29105">
        <ele>120</ele>
        <time>2021-08-30T14:47:24Z</time>
      </trkpt>
      <trkpt lat="47.10241" lon="2.29059">
        <ele>120</ele>
        <time>2021-08-30T14:47:24Z</time>
      </trkpt>
      <trkpt lat="47.10249" lon="2.29013">
        <ele>121</ele>
        <time>2021-08-30T14:47:24Z</time>
      </trkpt>
      <trkpt lat="47.10256" lon="2.28975">
        <ele>120</ele>
        <time>2021-08-30T14:47:24Z</time>
      </trkpt>
      <trkpt lat="47.10258" lon="2.28967">
        <ele>121</ele>
        <time>2021-08-30T14:47:24Z</time>
      </trkpt>
      <trkpt lat="47.10268" lon="2.28921">
        <ele>122</ele>
        <time>2021-08-30T14:47:24Z</time>
      </trkpt>
      <trkpt lat="47.10277" lon="2.28875">
        <ele>120</ele>
        <time>2021-08-30T14:47:24Z</time>
      </trkpt>
      <trkpt lat="47.10286" lon="2.28829">
        <ele>119</ele>
        <time>2021-08-30T14:47:24Z</time>
      </trkpt>
      <trkpt lat="47.10294" lon="2.28784">
        <ele>121</ele>
        <time>2021-08-30T14:47:24Z</time>
      </trkpt>
      <trkpt lat="47.10303" lon="2.28745">
        <ele>122</ele>
        <time>2021-08-30T14:47:24Z</time>
      </trkpt>
      <trkpt lat="47.10311" lon="2.28711">
        <ele>122</ele>
        <time>2021-08-30T14:47:24Z</time>
      </trkpt>
      <trkpt lat="47.10313" lon="2.28702">
        <ele>121</ele>
        <time>2021-08-30T14:47:24Z</time>
      </trkpt>
      <trkpt lat="47.10319" lon="2.2866">
        <ele>121</ele>
        <time>2021-08-30T14:47:24Z</time>
      </trkpt>
      <trkpt lat="47.10325" lon="2.28622">
        <ele>121</ele>
        <time>2021-08-30T14:47:24Z</time>
      </trkpt>
      <trkpt lat="47.10332" lon="2.28589">
        <ele>122</ele>
        <time>2021-08-30T14:47:24Z</time>
      </trkpt>
      <trkpt lat="47.10339" lon="2.28555">
        <ele>121</ele>
        <time>2021-08-30T14:47:24Z</time>
      </trkpt>
      <trkpt lat="47.10346" lon="2.2852">
        <ele>119</ele>
        <time>2021-08-30T14:47:24Z</time>
      </trkpt>
      <trkpt lat="47.10353" lon="2.2849">
        <ele>119</ele>
        <time>2021-08-30T14:47:24Z</time>
      </trkpt>
      <trkpt lat="47.10354" lon="2.28483">
        <ele>119</ele>
        <time>2021-08-30T14:47:24Z</time>
      </trkpt>
      <trkpt lat="47.10357" lon="2.28467">
        <ele>119</ele>
        <time>2021-08-30T14:47:24Z</time>
      </trkpt>
      <trkpt lat="47.10358" lon="2.2846">
        <ele>119</ele>
        <time>2021-08-30T14:47:24Z</time>
      </trkpt>
      <trkpt lat="47.10361" lon="2.28454">
        <ele>119</ele>
        <time>2021-08-30T14:47:24Z</time>
      </trkpt>
      <trkpt lat="47.10362" lon="2.28448">
        <ele>119</ele>
        <time>2021-08-30T14:47:24Z</time>
      </trkpt>
      <trkpt lat="47.10362" lon="2.28444">
        <ele>119</ele>
        <time>2021-08-30T14:47:24Z</time>
      </trkpt>
      <trkpt lat="47.10362" lon="2.2844">
        <ele>119</ele>
        <time>2021-08-30T14:47:24Z</time>
      </trkpt>
      <trkpt lat="47.10362" lon="2.28439">
        <ele>119</ele>
        <time>2021-08-30T14:47:24Z</time>
      </trkpt>
      <trkpt lat="47.10361" lon="2.28438">
        <ele>119</ele>
        <time>2021-08-30T14:47:24Z</time>
      </trkpt>
      <trkpt lat="47.10361" lon="2.28438">
        <ele>119</ele>
        <time>2021-08-30T14:47:24Z</time>
      </trkpt>
      <trkpt lat="47.10361" lon="2.28438">
        <ele>119</ele>
        <time>2021-08-30T14:47:24Z</time>
      </trkpt>
      <trkpt lat="47.10361" lon="2.28438">
        <ele>119</ele>
        <time>2021-08-30T14:47:24Z</time>
      </trkpt>
      <trkpt lat="47.10361" lon="2.28438">
        <ele>119</ele>
        <time>2021-08-30T14:47:24Z</time>
      </trkpt>
      <trkpt lat="47.10361" lon="2.28438">
        <ele>119</ele>
        <time>2021-08-30T14:47:24Z</time>
      </trkpt>
      <trkpt lat="47.10361" lon="2.28438">
        <ele>119</ele>
        <time>2021-08-30T14:47:24Z</time>
      </trkpt>
      <trkpt lat="47.10361" lon="2.28438">
        <ele>119</ele>
        <time>2021-08-30T14:47:24Z</time>
      </trkpt>
      <trkpt lat="47.10361" lon="2.28438">
        <ele>119</ele>
        <time>2021-08-30T14:47:24Z</time>
      </trkpt>
      <trkpt lat="47.10361" lon="2.28438">
        <ele>119</ele>
        <time>2021-08-30T14:47:24Z</time>
      </trkpt>
      <trkpt lat="47.10361" lon="2.28438">
        <ele>119</ele>
        <time>2021-08-30T14:47:24Z</time>
      </trkpt>
      <trkpt lat="47.10361" lon="2.28438">
        <ele>119</ele>
        <time>2021-08-30T14:47:24Z</time>
      </trkpt>
      <trkpt lat="47.10361" lon="2.28438">
        <ele>119</ele>
        <time>2021-08-30T14:47:24Z</time>
      </trkpt>
      <trkpt lat="47.10361" lon="2.28438">
        <ele>119</ele>
        <time>2021-08-30T14:47:24Z</time>
      </trkpt>
      <trkpt lat="47.10361" lon="2.28436">
        <ele>119</ele>
        <time>2021-08-30T14:47:24Z</time>
      </trkpt>
      <trkpt lat="47.10362" lon="2.28434">
        <ele>119</ele>
        <time>2021-08-30T14:47:24Z</time>
      </trkpt>
      <trkpt lat="47.10362" lon="2.28433">
        <ele>119</ele>
        <time>2021-08-30T14:47:24Z</time>
      </trkpt>
      <trkpt lat="47.10362" lon="2.28432">
        <ele>119</ele>
        <time>2021-08-30T14:47:24Z</time>
      </trkpt>
      <trkpt lat="47.10362" lon="2.28432">
        <ele>119</ele>
        <time>2021-08-30T14:47:24Z</time>
      </trkpt>
      <trkpt lat="47.10362" lon="2.28432">
        <ele>119</ele>
        <time>2021-08-30T14:47:24Z</time>
      </trkpt>
      <trkpt lat="47.10362" lon="2.28432">
        <ele>119</ele>
        <time>2021-08-30T14:47:24Z</time>
      </trkpt>
      <trkpt lat="47.10362" lon="2.28432">
        <ele>119</ele>
        <time>2021-08-30T14:47:24Z</time>
      </trkpt>
      <trkpt lat="47.10362" lon="2.28432">
        <ele>119</ele>
        <time>2021-08-30T14:47:24Z</time>
      </trkpt>
      <trkpt lat="47.10363" lon="2.28433">
        <ele>119</ele>
        <time>2021-08-30T14:47:24Z</time>
      </trkpt>
      <trkpt lat="47.10362" lon="2.28428">
        <ele>119</ele>
        <time>2021-08-30T14:47:24Z</time>
      </trkpt>
      <trkpt lat="47.10347" lon="2.28421">
        <ele>119</ele>
        <time>2021-08-30T14:47:24Z</time>
      </trkpt>
      <trkpt lat="47.10319" lon="2.28418">
        <ele>119</ele>
        <time>2021-08-30T14:47:24Z</time>
      </trkpt>
      <trkpt lat="47.10294" lon="2.28421">
        <ele>119</ele>
        <time>2021-08-30T14:47:24Z</time>
      </trkpt>
      <trkpt lat="47.10289" lon="2.28423">
        <ele>119</ele>
        <time>2021-08-30T14:47:24Z</time>
      </trkpt>
      <trkpt lat="47.10263" lon="2.28427">
        <ele>121</ele>
        <time>2021-08-30T14:47:24Z</time>
      </trkpt>
      <trkpt lat="47.10237" lon="2.2842">
        <ele>122</ele>
        <time>2021-08-30T14:47:24Z</time>
      </trkpt>
      <trkpt lat="47.10205" lon="2.28404">
        <ele>122</ele>
        <time>2021-08-30T14:47:24Z</time>
      </trkpt>
      <trkpt lat="47.1017" lon="2.28382">
        <ele>121</ele>
        <time>2021-08-30T14:47:24Z</time>
      </trkpt>
      <trkpt lat="47.1014" lon="2.28363">
        <ele>121</ele>
        <time>2021-08-30T14:47:24Z</time>
      </trkpt>
      <trkpt lat="47.10116" lon="2.28347">
        <ele>121</ele>
        <time>2021-08-30T14:47:24Z</time>
      </trkpt>
      <trkpt lat="47.1011" lon="2.28344">
        <ele>121</ele>
        <time>2021-08-30T14:47:24Z</time>
      </trkpt>
      <trkpt lat="47.10073" lon="2.2832">
        <ele>121</ele>
        <time>2021-08-30T14:47:24Z</time>
      </trkpt>
      <trkpt lat="47.10046" lon="2.28305">
        <ele>120</ele>
        <time>2021-08-30T14:47:24Z</time>
      </trkpt>
      <trkpt lat="47.1004" lon="2.2827">
        <ele>120</ele>
        <time>2021-08-30T14:47:24Z</time>
      </trkpt>
      <trkpt lat="47.10055" lon="2.2823">
        <ele>120</ele>
        <time>2021-08-30T14:47:24Z</time>
      </trkpt>
      <trkpt lat="47.10067" lon="2.28186">
        <ele>121</ele>
        <time>2021-08-30T14:47:24Z</time>
      </trkpt>
      <trkpt lat="47.10057" lon="2.28152">
        <ele>122</ele>
        <time>2021-08-30T14:47:24Z</time>
      </trkpt>
      <trkpt lat="47.10052" lon="2.28145">
        <ele>122</ele>
        <time>2021-08-30T14:47:24Z</time>
      </trkpt>
      <trkpt lat="47.10029" lon="2.28116">
        <ele>123</ele>
        <time>2021-08-30T14:47:24Z</time>
      </trkpt>
      <trkpt lat="47.10005" lon="2.28084">
        <ele>122</ele>
        <time>2021-08-30T14:47:24Z</time>
      </trkpt>
      <trkpt lat="47.09979" lon="2.28055">
        <ele>121</ele>
        <time>2021-08-30T14:47:24Z</time>
      </trkpt>
      <trkpt lat="47.09953" lon="2.28023">
        <ele>121</ele>
        <time>2021-08-30T14:47:24Z</time>
      </trkpt>
      <trkpt lat="47.09927" lon="2.27987">
        <ele>121</ele>
        <time>2021-08-30T14:47:24Z</time>
      </trkpt>
      <trkpt lat="47.09906" lon="2.27961">
        <ele>122</ele>
        <time>2021-08-30T14:47:24Z</time>
      </trkpt>
      <trkpt lat="47.09901" lon="2.27954">
        <ele>122</ele>
        <time>2021-08-30T14:47:24Z</time>
      </trkpt>
      <trkpt lat="47.09876" lon="2.27921">
        <ele>121</ele>
        <time>2021-08-30T14:47:24Z</time>
      </trkpt>
      <trkpt lat="47.0985" lon="2.27889">
        <ele>119</ele>
        <time>2021-08-30T14:47:24Z</time>
      </trkpt>
      <trkpt lat="47.09827" lon="2.27858">
        <ele>119</ele>
        <time>2021-08-30T14:47:24Z</time>
      </trkpt>
      <trkpt lat="47.09817" lon="2.27846">
        <ele>119</ele>
        <time>2021-08-30T14:47:24Z</time>
      </trkpt>
      <trkpt lat="47.09801" lon="2.27825">
        <ele>120</ele>
        <time>2021-08-30T14:47:24Z</time>
      </trkpt>
      <trkpt lat="47.09784" lon="2.27801">
        <ele>120</ele>
        <time>2021-08-30T14:47:24Z</time>
      </trkpt>
      <trkpt lat="47.09779" lon="2.27795">
        <ele>120</ele>
        <time>2021-08-30T14:47:24Z</time>
      </trkpt>
      <trkpt lat="47.09775" lon="2.27788">
        <ele>120</ele>
        <time>2021-08-30T14:47:24Z</time>
      </trkpt>
      <trkpt lat="47.09771" lon="2.27781">
        <ele>120</ele>
        <time>2021-08-30T14:47:24Z</time>
      </trkpt>
      <trkpt lat="47.09766" lon="2.27775">
        <ele>120</ele>
        <time>2021-08-30T14:47:24Z</time>
      </trkpt>
      <trkpt lat="47.09761" lon="2.27768">
        <ele>120</ele>
        <time>2021-08-30T14:47:24Z</time>
      </trkpt>
      <trkpt lat="47.09756" lon="2.27761">
        <ele>120</ele>
        <time>2021-08-30T14:47:24Z</time>
      </trkpt>
      <trkpt lat="47.09752" lon="2.27755">
        <ele>120</ele>
        <time>2021-08-30T14:47:24Z</time>
      </trkpt>
      <trkpt lat="47.09729" lon="2.27722">
        <ele>120</ele>
        <time>2021-08-30T14:47:24Z</time>
      </trkpt>
      <trkpt lat="47.09711" lon="2.27684">
        <ele>120</ele>
        <time>2021-08-30T14:47:24Z</time>
      </trkpt>
      <trkpt lat="47.09696" lon="2.27645">
        <ele>120</ele>
        <time>2021-08-30T14:47:24Z</time>
      </trkpt>
      <trkpt lat="47.09681" lon="2.27603">
        <ele>121</ele>
        <time>2021-08-30T14:47:24Z</time>
      </trkpt>
      <trkpt lat="47.09667" lon="2.27563">
        <ele>121</ele>
        <time>2021-08-30T14:47:24Z</time>
      </trkpt>
      <trkpt lat="47.09656" lon="2.27532">
        <ele>122</ele>
        <time>2021-08-30T14:47:24Z</time>
      </trkpt>
      <trkpt lat="47.09653" lon="2.27525">
        <ele>123</ele>
        <time>2021-08-30T14:47:24Z</time>
      </trkpt>
      <trkpt lat="47.09639" lon="2.27485">
        <ele>123</ele>
        <time>2021-08-30T14:47:24Z</time>
      </trkpt>
      <trkpt lat="47.09624" lon="2.27445">
        <ele>122</ele>
        <time>2021-08-30T14:47:24Z</time>
      </trkpt>
      <trkpt lat="47.09609" lon="2.27407">
        <ele>122</ele>
        <time>2021-08-30T14:47:24Z</time>
      </trkpt>
      <trkpt lat="47.09596" lon="2.27366">
        <ele>123</ele>
        <time>2021-08-30T14:47:24Z</time>
      </trkpt>
      <trkpt lat="47.09581" lon="2.27327">
        <ele>123</ele>
        <time>2021-08-30T14:47:24Z</time>
      </trkpt>
      <trkpt lat="47.09569" lon="2.27297">
        <ele>125</ele>
        <time>2021-08-30T14:47:24Z</time>
      </trkpt>
      <trkpt lat="47.09566" lon="2.27289">
        <ele>125</ele>
        <time>2021-08-30T14:47:24Z</time>
      </trkpt>
      <trkpt lat="47.09551" lon="2.27248">
        <ele>128</ele>
        <time>2021-08-30T14:47:24Z</time>
      </trkpt>
      <trkpt lat="47.09533" lon="2.27211">
        <ele>129</ele>
        <time>2021-08-30T14:47:24Z</time>
      </trkpt>
      <trkpt lat="47.09511" lon="2.2718">
        <ele>128</ele>
        <time>2021-08-30T14:47:24Z</time>
      </trkpt>
      <trkpt lat="47.09487" lon="2.27151">
        <ele>127</ele>
        <time>2021-08-30T14:47:24Z</time>
      </trkpt>
      <trkpt lat="47.09462" lon="2.27123">
        <ele>126</ele>
        <time>2021-08-30T14:47:24Z</time>
      </trkpt>
      <trkpt lat="47.09443" lon="2.27097">
        <ele>126</ele>
        <time>2021-08-30T14:47:24Z</time>
      </trkpt>
      <trkpt lat="47.0944" lon="2.27091">
        <ele>126</ele>
        <time>2021-08-30T14:47:24Z</time>
      </trkpt>
      <trkpt lat="47.09433" lon="2.27048">
        <ele>127</ele>
        <time>2021-08-30T14:47:24Z</time>
      </trkpt>
      <trkpt lat="47.09434" lon="2.27001">
        <ele>127</ele>
        <time>2021-08-30T14:47:24Z</time>
      </trkpt>
      <trkpt lat="47.09428" lon="2.26956">
        <ele>129</ele>
        <time>2021-08-30T14:47:24Z</time>
      </trkpt>
      <trkpt lat="47.09418" lon="2.26913">
        <ele>130</ele>
        <time>2021-08-30T14:47:24Z</time>
      </trkpt>
      <trkpt lat="47.09402" lon="2.26872">
        <ele>131</ele>
        <time>2021-08-30T14:47:24Z</time>
      </trkpt>
      <trkpt lat="47.09383" lon="2.26846">
        <ele>131</ele>
        <time>2021-08-30T14:47:24Z</time>
      </trkpt>
      <trkpt lat="47.09378" lon="2.26841">
        <ele>131</ele>
        <time>2021-08-30T14:47:24Z</time>
      </trkpt>
      <trkpt lat="47.09348" lon="2.26828">
        <ele>131</ele>
        <time>2021-08-30T14:47:24Z</time>
      </trkpt>
      <trkpt lat="47.0932" lon="2.26819">
        <ele>131</ele>
        <time>2021-08-30T14:47:24Z</time>
      </trkpt>
      <trkpt lat="47.09293" lon="2.26809">
        <ele>131</ele>
        <time>2021-08-30T14:47:24Z</time>
      </trkpt>
      <trkpt lat="47.09262" lon="2.268">
        <ele>129</ele>
        <time>2021-08-30T14:47:24Z</time>
      </trkpt>
      <trkpt lat="47.09229" lon="2.26788">
        <ele>127</ele>
        <time>2021-08-30T14:47:24Z</time>
      </trkpt>
      <trkpt lat="47.09203" lon="2.26776">
        <ele>127</ele>
        <time>2021-08-30T14:47:24Z</time>
      </trkpt>
      <trkpt lat="47.09197" lon="2.26772">
        <ele>127</ele>
        <time>2021-08-30T14:47:24Z</time>
      </trkpt>
      <trkpt lat="47.09191" lon="2.26767">
        <ele>127</ele>
        <time>2021-08-30T14:47:24Z</time>
      </trkpt>
      <trkpt lat="47.09184" lon="2.26764">
        <ele>127</ele>
        <time>2021-08-30T14:47:24Z</time>
      </trkpt>
      <trkpt lat="47.09177" lon="2.2676">
        <ele>127</ele>
        <time>2021-08-30T14:47:24Z</time>
      </trkpt>
      <trkpt lat="47.0917" lon="2.26756">
        <ele>127</ele>
        <time>2021-08-30T14:47:24Z</time>
      </trkpt>
      <trkpt lat="47.09164" lon="2.26752">
        <ele>127</ele>
        <time>2021-08-30T14:47:24Z</time>
      </trkpt>
      <trkpt lat="47.09157" lon="2.26748">
        <ele>126</ele>
        <time>2021-08-30T14:47:24Z</time>
      </trkpt>
      <trkpt lat="47.0915" lon="2.26744">
        <ele>126</ele>
        <time>2021-08-30T14:47:24Z</time>
      </trkpt>
      <trkpt lat="47.09144" lon="2.2674">
        <ele>126</ele>
        <time>2021-08-30T14:47:24Z</time>
      </trkpt>
      <trkpt lat="47.09137" lon="2.26737">
        <ele>126</ele>
        <time>2021-08-30T14:47:24Z</time>
      </trkpt>
      <trkpt lat="47.0913" lon="2.26733">
        <ele>126</ele>
        <time>2021-08-30T14:47:24Z</time>
      </trkpt>
      <trkpt lat="47.09124" lon="2.26729">
        <ele>126</ele>
        <time>2021-08-30T14:47:24Z</time>
      </trkpt>
      <trkpt lat="47.09117" lon="2.26725">
        <ele>126</ele>
        <time>2021-08-30T14:47:24Z</time>
      </trkpt>
      <trkpt lat="47.0911" lon="2.26721">
        <ele>125</ele>
        <time>2021-08-30T14:47:24Z</time>
      </trkpt>
      <trkpt lat="47.09104" lon="2.26716">
        <ele>125</ele>
        <time>2021-08-30T14:47:24Z</time>
      </trkpt>
      <trkpt lat="47.09097" lon="2.26713">
        <ele>126</ele>
        <time>2021-08-30T14:47:24Z</time>
      </trkpt>
      <trkpt lat="47.0909" lon="2.26709">
        <ele>126</ele>
        <time>2021-08-30T14:47:24Z</time>
      </trkpt>
      <trkpt lat="47.09083" lon="2.26705">
        <ele>126</ele>
        <time>2021-08-30T14:47:24Z</time>
      </trkpt>
      <trkpt lat="47.09077" lon="2.26701">
        <ele>126</ele>
        <time>2021-08-30T14:47:24Z</time>
      </trkpt>
      <trkpt lat="47.0907" lon="2.26697">
        <ele>127</ele>
        <time>2021-08-30T14:47:24Z</time>
      </trkpt>
      <trkpt lat="47.09063" lon="2.26694">
        <ele>127</ele>
        <time>2021-08-30T14:47:24Z</time>
      </trkpt>
      <trkpt lat="47.09057" lon="2.2669">
        <ele>127</ele>
        <time>2021-08-30T14:47:24Z</time>
      </trkpt>
      <trkpt lat="47.0905" lon="2.26687">
        <ele>127</ele>
        <time>2021-08-30T14:47:24Z</time>
      </trkpt>
      <trkpt lat="47.09044" lon="2.26682">
        <ele>127</ele>
        <time>2021-08-30T14:47:24Z</time>
      </trkpt>
      <trkpt lat="47.09037" lon="2.26678">
        <ele>127</ele>
        <time>2021-08-30T14:47:24Z</time>
      </trkpt>
      <trkpt lat="47.0903" lon="2.26675">
        <ele>127</ele>
        <time>2021-08-30T14:47:24Z</time>
      </trkpt>
      <trkpt lat="47.09023" lon="2.26671">
        <ele>127</ele>
        <time>2021-08-30T14:47:24Z</time>
      </trkpt>
      <trkpt lat="47.09017" lon="2.26668">
        <ele>127</ele>
        <time>2021-08-30T14:47:24Z</time>
      </trkpt>
      <trkpt lat="47.0901" lon="2.26664">
        <ele>126</ele>
        <time>2021-08-30T14:47:24Z</time>
      </trkpt>
      <trkpt lat="47.09003" lon="2.26661">
        <ele>126</ele>
        <time>2021-08-30T14:47:24Z</time>
      </trkpt>
      <trkpt lat="47.08997" lon="2.26657">
        <ele>126</ele>
        <time>2021-08-30T14:47:24Z</time>
      </trkpt>
      <trkpt lat="47.0899" lon="2.26653">
        <ele>125</ele>
        <time>2021-08-30T14:47:24Z</time>
      </trkpt>
      <trkpt lat="47.08984" lon="2.26649">
        <ele>125</ele>
        <time>2021-08-30T14:47:24Z</time>
      </trkpt>
      <trkpt lat="47.08977" lon="2.26645">
        <ele>125</ele>
        <time>2021-08-30T14:47:24Z</time>
      </trkpt>
      <trkpt lat="47.08971" lon="2.26641">
        <ele>125</ele>
        <time>2021-08-30T14:47:24Z</time>
      </trkpt>
      <trkpt lat="47.08964" lon="2.26637">
        <ele>125</ele>
        <time>2021-08-30T14:47:24Z</time>
      </trkpt>
      <trkpt lat="47.08957" lon="2.26633">
        <ele>125</ele>
        <time>2021-08-30T14:47:24Z</time>
      </trkpt>
      <trkpt lat="47.08951" lon="2.26629">
        <ele>125</ele>
        <time>2021-08-30T14:47:24Z</time>
      </trkpt>
      <trkpt lat="47.08945" lon="2.26626">
        <ele>125</ele>
        <time>2021-08-30T14:47:24Z</time>
      </trkpt>
      <trkpt lat="47.08938" lon="2.26622">
        <ele>125</ele>
        <time>2021-08-30T14:47:24Z</time>
      </trkpt>
      <trkpt lat="47.08932" lon="2.26618">
        <ele>125</ele>
        <time>2021-08-30T14:47:24Z</time>
      </trkpt>
      <trkpt lat="47.08925" lon="2.26614">
        <ele>125</ele>
        <time>2021-08-30T14:47:24Z</time>
      </trkpt>
      <trkpt lat="47.08919" lon="2.26611">
        <ele>124</ele>
        <time>2021-08-30T14:47:24Z</time>
      </trkpt>
      <trkpt lat="47.08912" lon="2.26607">
        <ele>125</ele>
        <time>2021-08-30T14:47:24Z</time>
      </trkpt>
      <trkpt lat="47.08906" lon="2.26603">
        <ele>125</ele>
        <time>2021-08-30T14:47:24Z</time>
      </trkpt>
      <trkpt lat="47.08899" lon="2.26599">
        <ele>125</ele>
        <time>2021-08-30T14:47:24Z</time>
      </trkpt>
      <trkpt lat="47.08892" lon="2.26595">
        <ele>125</ele>
        <time>2021-08-30T14:47:24Z</time>
      </trkpt>
      <trkpt lat="47.08885" lon="2.26592">
        <ele>125</ele>
        <time>2021-08-30T14:47:24Z</time>
      </trkpt>
      <trkpt lat="47.08877" lon="2.26588">
        <ele>125</ele>
        <time>2021-08-30T14:47:24Z</time>
      </trkpt>
      <trkpt lat="47.08871" lon="2.26584">
        <ele>125</ele>
        <time>2021-08-30T14:47:24Z</time>
      </trkpt>
      <trkpt lat="47.08864" lon="2.2658">
        <ele>125</ele>
        <time>2021-08-30T14:47:24Z</time>
      </trkpt>
      <trkpt lat="47.08856" lon="2.26576">
        <ele>125</ele>
        <time>2021-08-30T14:47:24Z</time>
      </trkpt>
      <trkpt lat="47.08849" lon="2.26573">
        <ele>124</ele>
        <time>2021-08-30T14:47:24Z</time>
      </trkpt>
      <trkpt lat="47.08842" lon="2.26569">
        <ele>124</ele>
        <time>2021-08-30T14:47:24Z</time>
      </trkpt>
      <trkpt lat="47.08834" lon="2.26565">
        <ele>124</ele>
        <time>2021-08-30T14:47:24Z</time>
      </trkpt>
      <trkpt lat="47.08827" lon="2.2656">
        <ele>123</ele>
        <time>2021-08-30T14:47:24Z</time>
      </trkpt>
      <trkpt lat="47.0882" lon="2.26556">
        <ele>123</ele>
        <time>2021-08-30T14:47:24Z</time>
      </trkpt>
      <trkpt lat="47.08813" lon="2.26552">
        <ele>123</ele>
        <time>2021-08-30T14:47:24Z</time>
      </trkpt>
      <trkpt lat="47.08806" lon="2.26547">
        <ele>122</ele>
        <time>2021-08-30T14:47:24Z</time>
      </trkpt>
      <trkpt lat="47.08798" lon="2.26543">
        <ele>122</ele>
        <time>2021-08-30T14:47:24Z</time>
      </trkpt>
      <trkpt lat="47.08791" lon="2.26539">
        <ele>122</ele>
        <time>2021-08-30T14:47:24Z</time>
      </trkpt>
      <trkpt lat="47.08783" lon="2.26535">
        <ele>122</ele>
        <time>2021-08-30T14:47:24Z</time>
      </trkpt>
      <trkpt lat="47.08747" lon="2.26514">
        <ele>122</ele>
        <time>2021-08-30T14:47:24Z</time>
      </trkpt>
      <trkpt lat="47.08712" lon="2.26494">
        <ele>123</ele>
        <time>2021-08-30T14:47:24Z</time>
      </trkpt>
      <trkpt lat="47.08676" lon="2.26473">
        <ele>122</ele>
        <time>2021-08-30T14:47:24Z</time>
      </trkpt>
      <trkpt lat="47.0864" lon="2.26453">
        <ele>121</ele>
        <time>2021-08-30T14:47:24Z</time>
      </trkpt>
      <trkpt lat="47.08605" lon="2.26434">
        <ele>120</ele>
        <time>2021-08-30T14:47:24Z</time>
      </trkpt>
      <trkpt lat="47.08577" lon="2.26418">
        <ele>119</ele>
        <time>2021-08-30T14:47:24Z</time>
      </trkpt>
      <trkpt lat="47.08569" lon="2.26415">
        <ele>119</ele>
        <time>2021-08-30T14:47:24Z</time>
      </trkpt>
      <trkpt lat="47.08534" lon="2.264">
        <ele>120</ele>
        <time>2021-08-30T14:47:24Z</time>
      </trkpt>
      <trkpt lat="47.08499" lon="2.26394">
        <ele>120</ele>
        <time>2021-08-30T14:47:24Z</time>
      </trkpt>
      <trkpt lat="47.08467" lon="2.264">
        <ele>120</ele>
        <time>2021-08-30T14:47:24Z</time>
      </trkpt>
      <trkpt lat="47.08435" lon="2.26413">
        <ele>119</ele>
        <time>2021-08-30T14:47:24Z</time>
      </trkpt>
      <trkpt lat="47.08405" lon="2.26435">
        <ele>119</ele>
        <time>2021-08-30T14:47:24Z</time>
      </trkpt>
      <trkpt lat="47.08383" lon="2.26458">
        <ele>119</ele>
        <time>2021-08-30T14:47:24Z</time>
      </trkpt>
      <trkpt lat="47.08378" lon="2.26465">
        <ele>120</ele>
        <time>2021-08-30T14:47:24Z</time>
      </trkpt>
      <trkpt lat="47.08373" lon="2.26472">
        <ele>120</ele>
        <time>2021-08-30T14:47:24Z</time>
      </trkpt>
      <trkpt lat="47.08368" lon="2.26479">
        <ele>120</ele>
        <time>2021-08-30T14:47:24Z</time>
      </trkpt>
      <trkpt lat="47.08364" lon="2.26485">
        <ele>120</ele>
        <time>2021-08-30T14:47:24Z</time>
      </trkpt>
      <trkpt lat="47.08359" lon="2.26492">
        <ele>120</ele>
        <time>2021-08-30T14:47:24Z</time>
      </trkpt>
      <trkpt lat="47.08353" lon="2.265">
        <ele>120</ele>
        <time>2021-08-30T14:47:24Z</time>
      </trkpt>
      <trkpt lat="47.08348" lon="2.26507">
        <ele>121</ele>
        <time>2021-08-30T14:47:24Z</time>
      </trkpt>
      <trkpt lat="47.08344" lon="2.26514">
        <ele>121</ele>
        <time>2021-08-30T14:47:24Z</time>
      </trkpt>
      <trkpt lat="47.08339" lon="2.2652">
        <ele>121</ele>
        <time>2021-08-30T14:47:24Z</time>
      </trkpt>
      <trkpt lat="47.08334" lon="2.26527">
        <ele>122</ele>
        <time>2021-08-30T14:47:24Z</time>
      </trkpt>
      <trkpt lat="47.08329" lon="2.26534">
        <ele>121</ele>
        <time>2021-08-30T14:47:24Z</time>
      </trkpt>
      <trkpt lat="47.08325" lon="2.26541">
        <ele>121</ele>
        <time>2021-08-30T14:47:24Z</time>
      </trkpt>
      <trkpt lat="47.08321" lon="2.26548">
        <ele>121</ele>
        <time>2021-08-30T14:47:24Z</time>
      </trkpt>
      <trkpt lat="47.08316" lon="2.26555">
        <ele>121</ele>
        <time>2021-08-30T14:47:24Z</time>
      </trkpt>
      <trkpt lat="47.08311" lon="2.26562">
        <ele>121</ele>
        <time>2021-08-30T14:47:24Z</time>
      </trkpt>
      <trkpt lat="47.08306" lon="2.26569">
        <ele>121</ele>
        <time>2021-08-30T14:47:24Z</time>
      </trkpt>
      <trkpt lat="47.08302" lon="2.26575">
        <ele>121</ele>
        <time>2021-08-30T14:47:24Z</time>
      </trkpt>
      <trkpt lat="47.08297" lon="2.26582">
        <ele>121</ele>
        <time>2021-08-30T14:47:24Z</time>
      </trkpt>
      <trkpt lat="47.08292" lon="2.26589">
        <ele>121</ele>
        <time>2021-08-30T14:47:24Z</time>
      </trkpt>
      <trkpt lat="47.08287" lon="2.26596">
        <ele>120</ele>
        <time>2021-08-30T14:47:24Z</time>
      </trkpt>
      <trkpt lat="47.08282" lon="2.26602">
        <ele>120</ele>
        <time>2021-08-30T14:47:24Z</time>
      </trkpt>
      <trkpt lat="47.08278" lon="2.26609">
        <ele>120</ele>
        <time>2021-08-30T14:47:24Z</time>
      </trkpt>
      <trkpt lat="47.08273" lon="2.26616">
        <ele>120</ele>
        <time>2021-08-30T14:47:24Z</time>
      </trkpt>
      <trkpt lat="47.08268" lon="2.26623">
        <ele>120</ele>
        <time>2021-08-30T14:47:24Z</time>
      </trkpt>
      <trkpt lat="47.08263" lon="2.2663">
        <ele>120</ele>
        <time>2021-08-30T14:47:24Z</time>
      </trkpt>
      <trkpt lat="47.08258" lon="2.26637">
        <ele>120</ele>
        <time>2021-08-30T14:47:24Z</time>
      </trkpt>
      <trkpt lat="47.08253" lon="2.26644">
        <ele>120</ele>
        <time>2021-08-30T14:47:24Z</time>
      </trkpt>
      <trkpt lat="47.08248" lon="2.2665">
        <ele>121</ele>
        <time>2021-08-30T14:47:24Z</time>
      </trkpt>
      <trkpt lat="47.08244" lon="2.26657">
        <ele>122</ele>
        <time>2021-08-30T14:47:24Z</time>
      </trkpt>
      <trkpt lat="47.08239" lon="2.26664">
        <ele>122</ele>
        <time>2021-08-30T14:47:24Z</time>
      </trkpt>
      <trkpt lat="47.08234" lon="2.26671">
        <ele>123</ele>
        <time>2021-08-30T14:47:24Z</time>
      </trkpt>
      <trkpt lat="47.0823" lon="2.26677">
        <ele>123</ele>
        <time>2021-08-30T14:47:24Z</time>
      </trkpt>
      <trkpt lat="47.08225" lon="2.26684">
        <ele>123</ele>
        <time>2021-08-30T14:47:24Z</time>
      </trkpt>
      <trkpt lat="47.0822" lon="2.2669">
        <ele>124</ele>
        <time>2021-08-30T14:47:24Z</time>
      </trkpt>
      <trkpt lat="47.08216" lon="2.26697">
        <ele>124</ele>
        <time>2021-08-30T14:47:24Z</time>
      </trkpt>
      <trkpt lat="47.08211" lon="2.26703">
        <ele>124</ele>
        <time>2021-08-30T14:47:24Z</time>
      </trkpt>
      <trkpt lat="47.08206" lon="2.2671">
        <ele>124</ele>
        <time>2021-08-30T14:47:24Z</time>
      </trkpt>
      <trkpt lat="47.08202" lon="2.26717">
        <ele>124</ele>
        <time>2021-08-30T14:47:24Z</time>
      </trkpt>
      <trkpt lat="47.08197" lon="2.26723">
        <ele>124</ele>
        <time>2021-08-30T14:47:24Z</time>
      </trkpt>
      <trkpt lat="47.08192" lon="2.2673">
        <ele>124</ele>
        <time>2021-08-30T14:47:24Z</time>
      </trkpt>
      <trkpt lat="47.08188" lon="2.26737">
        <ele>124</ele>
        <time>2021-08-30T14:47:24Z</time>
      </trkpt>
      <trkpt lat="47.08184" lon="2.26743">
        <ele>124</ele>
        <time>2021-08-30T14:47:24Z</time>
      </trkpt>
      <trkpt lat="47.0818" lon="2.2675">
        <ele>124</ele>
        <time>2021-08-30T14:47:24Z</time>
      </trkpt>
      <trkpt lat="47.08175" lon="2.26756">
        <ele>123</ele>
        <time>2021-08-30T14:47:24Z</time>
      </trkpt>
      <trkpt lat="47.08171" lon="2.26762">
        <ele>123</ele>
        <time>2021-08-30T14:47:24Z</time>
      </trkpt>
      <trkpt lat="47.08166" lon="2.26769">
        <ele>123</ele>
        <time>2021-08-30T14:47:24Z</time>
      </trkpt>
      <trkpt lat="47.08163" lon="2.26775">
        <ele>123</ele>
        <time>2021-08-30T14:47:24Z</time>
      </trkpt>
      <trkpt lat="47.08158" lon="2.26782">
        <ele>122</ele>
        <time>2021-08-30T14:47:24Z</time>
      </trkpt>
      <trkpt lat="47.08154" lon="2.26789">
        <ele>122</ele>
        <time>2021-08-30T14:47:24Z</time>
      </trkpt>
      <trkpt lat="47.08151" lon="2.26796">
        <ele>122</ele>
        <time>2021-08-30T14:47:24Z</time>
      </trkpt>
      <trkpt lat="47.08147" lon="2.26804">
        <ele>122</ele>
        <time>2021-08-30T14:47:24Z</time>
      </trkpt>
      <trkpt lat="47.08143" lon="2.26812">
        <ele>122</ele>
        <time>2021-08-30T14:47:24Z</time>
      </trkpt>
      <trkpt lat="47.0814" lon="2.2682">
        <ele>122</ele>
        <time>2021-08-30T14:47:24Z</time>
      </trkpt>
      <trkpt lat="47.08138" lon="2.26829">
        <ele>122</ele>
        <time>2021-08-30T14:47:24Z</time>
      </trkpt>
      <trkpt lat="47.08136" lon="2.26837">
        <ele>122</ele>
        <time>2021-08-30T14:47:24Z</time>
      </trkpt>
      <trkpt lat="47.08134" lon="2.26845">
        <ele>122</ele>
        <time>2021-08-30T14:47:24Z</time>
      </trkpt>
      <trkpt lat="47.08132" lon="2.26854">
        <ele>122</ele>
        <time>2021-08-30T14:47:24Z</time>
      </trkpt>
      <trkpt lat="47.08131" lon="2.26863">
        <ele>122</ele>
        <time>2021-08-30T14:47:24Z</time>
      </trkpt>
      <trkpt lat="47.0813" lon="2.26871">
        <ele>122</ele>
        <time>2021-08-30T14:47:24Z</time>
      </trkpt>
      <trkpt lat="47.08129" lon="2.2688">
        <ele>122</ele>
        <time>2021-08-30T14:47:24Z</time>
      </trkpt>
      <trkpt lat="47.08129" lon="2.2689">
        <ele>122</ele>
        <time>2021-08-30T14:47:24Z</time>
      </trkpt>
      <trkpt lat="47.08128" lon="2.26899">
        <ele>122</ele>
        <time>2021-08-30T14:47:24Z</time>
      </trkpt>
      <trkpt lat="47.08127" lon="2.26947">
        <ele>121</ele>
        <time>2021-08-30T14:47:24Z</time>
      </trkpt>
      <trkpt lat="47.08127" lon="2.26995">
        <ele>122</ele>
        <time>2021-08-30T14:47:24Z</time>
      </trkpt>
      <trkpt lat="47.08125" lon="2.27042">
        <ele>122</ele>
        <time>2021-08-30T14:47:24Z</time>
      </trkpt>
      <trkpt lat="47.08122" lon="2.27088">
        <ele>122</ele>
        <time>2021-08-30T14:47:24Z</time>
      </trkpt>
      <trkpt lat="47.08117" lon="2.27134">
        <ele>123</ele>
        <time>2021-08-30T14:47:24Z</time>
      </trkpt>
      <trkpt lat="47.08113" lon="2.2717">
        <ele>124</ele>
        <time>2021-08-30T14:47:24Z</time>
      </trkpt>
      <trkpt lat="47.08111" lon="2.27179">
        <ele>124</ele>
        <time>2021-08-30T14:47:24Z</time>
      </trkpt>
      <trkpt lat="47.08089" lon="2.27205">
        <ele>125</ele>
        <time>2021-08-30T14:47:24Z</time>
      </trkpt>
      <trkpt lat="47.0807" lon="2.27221">
        <ele>125</ele>
        <time>2021-08-30T14:47:24Z</time>
      </trkpt>
      <trkpt lat="47.08067" lon="2.27263">
        <ele>125</ele>
        <time>2021-08-30T14:47:24Z</time>
      </trkpt>
      <trkpt lat="47.08067" lon="2.27309">
        <ele>125</ele>
        <time>2021-08-30T14:47:24Z</time>
      </trkpt>
      <trkpt lat="47.08068" lon="2.27355">
        <ele>126</ele>
        <time>2021-08-30T14:47:24Z</time>
      </trkpt>
      <trkpt lat="47.08067" lon="2.27391">
        <ele>126</ele>
        <time>2021-08-30T14:47:24Z</time>
      </trkpt>
      <trkpt lat="47.08066" lon="2.274">
        <ele>126</ele>
        <time>2021-08-30T14:47:24Z</time>
      </trkpt>
      <trkpt lat="47.08065" lon="2.27425">
        <ele>126</ele>
        <time>2021-08-30T14:47:24Z</time>
      </trkpt>
      <trkpt lat="47.08065" lon="2.27431">
        <ele>126</ele>
        <time>2021-08-30T14:47:24Z</time>
      </trkpt>
      <trkpt lat="47.08065" lon="2.27439">
        <ele>126</ele>
        <time>2021-08-30T14:47:24Z</time>
      </trkpt>
      <trkpt lat="47.08065" lon="2.27445">
        <ele>127</ele>
        <time>2021-08-30T14:47:24Z</time>
      </trkpt>
      <trkpt lat="47.08065" lon="2.2745">
        <ele>127</ele>
        <time>2021-08-30T14:47:24Z</time>
      </trkpt>
      <trkpt lat="47.08065" lon="2.27454">
        <ele>127</ele>
        <time>2021-08-30T14:47:24Z</time>
      </trkpt>
      <trkpt lat="47.08065" lon="2.27458">
        <ele>127</ele>
        <time>2021-08-30T14:47:24Z</time>
      </trkpt>
      <trkpt lat="47.08067" lon="2.27459">
        <ele>127</ele>
        <time>2021-08-30T14:47:24Z</time>
      </trkpt>
      <trkpt lat="47.08071" lon="2.27433">
        <ele>126</ele>
        <time>2021-08-30T14:47:24Z</time>
      </trkpt>
      <trkpt lat="47.08072" lon="2.27388">
        <ele>126</ele>
        <time>2021-08-30T14:47:24Z</time>
      </trkpt>
      <trkpt lat="47.08075" lon="2.27335">
        <ele>126</ele>
        <time>2021-08-30T14:47:24Z</time>
      </trkpt>
      <trkpt lat="47.08077" lon="2.27281">
        <ele>125</ele>
        <time>2021-08-30T14:47:24Z</time>
      </trkpt>
      <trkpt lat="47.08077" lon="2.27225">
        <ele>125</ele>
        <time>2021-08-30T14:47:24Z</time>
      </trkpt>
      <trkpt lat="47.08078" lon="2.27184">
        <ele>125</ele>
        <time>2021-08-30T14:47:24Z</time>
      </trkpt>
      <trkpt lat="47.08079" lon="2.27174">
        <ele>124</ele>
        <time>2021-08-30T14:47:24Z</time>
      </trkpt>
      <trkpt lat="47.08078" lon="2.27127">
        <ele>123</ele>
        <time>2021-08-30T14:47:24Z</time>
      </trkpt>
      <trkpt lat="47.08077" lon="2.27082">
        <ele>123</ele>
        <time>2021-08-30T14:47:24Z</time>
      </trkpt>
      <trkpt lat="47.08076" lon="2.27036">
        <ele>124</ele>
        <time>2021-08-30T14:47:24Z</time>
      </trkpt>
      <trkpt lat="47.08072" lon="2.2699">
        <ele>124</ele>
        <time>2021-08-30T14:47:24Z</time>
      </trkpt>
      <trkpt lat="47.08069" lon="2.26945">
        <ele>124</ele>
        <time>2021-08-30T14:47:24Z</time>
      </trkpt>
      <trkpt lat="47.08066" lon="2.26909">
        <ele>124</ele>
        <time>2021-08-30T14:47:24Z</time>
      </trkpt>
      <trkpt lat="47.08065" lon="2.26899">
        <ele>124</ele>
        <time>2021-08-30T14:47:24Z</time>
      </trkpt>
      <trkpt lat="47.0806" lon="2.26854">
        <ele>125</ele>
        <time>2021-08-30T14:47:24Z</time>
      </trkpt>
      <trkpt lat="47.08056" lon="2.26807">
        <ele>125</ele>
        <time>2021-08-30T14:47:24Z</time>
      </trkpt>
      <trkpt lat="47.08055" lon="2.26759">
        <ele>124</ele>
        <time>2021-08-30T14:47:24Z</time>
      </trkpt>
      <trkpt lat="47.08056" lon="2.2671">
        <ele>120</ele>
        <time>2021-08-30T14:47:24Z</time>
      </trkpt>
      <trkpt lat="47.08058" lon="2.26657">
        <ele>118</ele>
        <time>2021-08-30T14:47:24Z</time>
      </trkpt>
      <trkpt lat="47.08061" lon="2.26612">
        <ele>118</ele>
        <time>2021-08-30T14:47:24Z</time>
      </trkpt>
      <trkpt lat="47.08063" lon="2.266">
        <ele>119</ele>
        <time>2021-08-30T14:47:24Z</time>
      </trkpt>
      <trkpt lat="47.0807" lon="2.26542">
        <ele>119</ele>
        <time>2021-08-30T14:47:24Z</time>
      </trkpt>
      <trkpt lat="47.08078" lon="2.26487">
        <ele>119</ele>
        <time>2021-08-30T14:47:24Z</time>
      </trkpt>
      <trkpt lat="47.08082" lon="2.2643">
        <ele>120</ele>
        <time>2021-08-30T14:47:24Z</time>
      </trkpt>
      <trkpt lat="47.08084" lon="2.26375">
        <ele>120</ele>
        <time>2021-08-30T14:47:24Z</time>
      </trkpt>
      <trkpt lat="47.08084" lon="2.26319">
        <ele>120</ele>
        <time>2021-08-30T14:47:24Z</time>
      </trkpt>
      <trkpt lat="47.08085" lon="2.26276">
        <ele>120</ele>
        <time>2021-08-30T14:47:24Z</time>
      </trkpt>
      <trkpt lat="47.08085" lon="2.26265">
        <ele>120</ele>
        <time>2021-08-30T14:47:24Z</time>
      </trkpt>
      <trkpt lat="47.08086" lon="2.26214">
        <ele>119</ele>
        <time>2021-08-30T14:47:24Z</time>
      </trkpt>
      <trkpt lat="47.08087" lon="2.26172">
        <ele>118</ele>
        <time>2021-08-30T14:47:24Z</time>
      </trkpt>
      <trkpt lat="47.0809" lon="2.26154">
        <ele>118</ele>
        <time>2021-08-30T14:47:24Z</time>
      </trkpt>
      <trkpt lat="47.08071" lon="2.26148">
        <ele>119</ele>
        <time>2021-08-30T14:47:24Z</time>
      </trkpt>
      <trkpt lat="47.08042" lon="2.2613">
        <ele>120</ele>
        <time>2021-08-30T14:47:24Z</time>
      </trkpt>
      <trkpt lat="47.08017" lon="2.26115">
        <ele>120</ele>
        <time>2021-08-30T14:47:24Z</time>
      </trkpt>
      <trkpt lat="47.08012" lon="2.26111">
        <ele>120</ele>
        <time>2021-08-30T14:47:24Z</time>
      </trkpt>
      <trkpt lat="47.08" lon="2.26102">
        <ele>120</ele>
        <time>2021-08-30T14:47:24Z</time>
      </trkpt>
      <trkpt lat="47.07994" lon="2.26098">
        <ele>120</ele>
        <time>2021-08-30T14:47:24Z</time>
      </trkpt>
      <trkpt lat="47.07988" lon="2.26094">
        <ele>119</ele>
        <time>2021-08-30T14:47:24Z</time>
      </trkpt>
      <trkpt lat="47.07981" lon="2.2609">
        <ele>119</ele>
        <time>2021-08-30T14:47:24Z</time>
      </trkpt>
      <trkpt lat="47.07976" lon="2.26086">
        <ele>119</ele>
        <time>2021-08-30T14:47:24Z</time>
      </trkpt>
      <trkpt lat="47.0797" lon="2.26082">
        <ele>119</ele>
        <time>2021-08-30T14:47:24Z</time>
      </trkpt>
      <trkpt lat="47.07963" lon="2.26077">
        <ele>119</ele>
        <time>2021-08-30T14:47:24Z</time>
      </trkpt>
      <trkpt lat="47.07957" lon="2.26073">
        <ele>119</ele>
        <time>2021-08-30T14:47:24Z</time>
      </trkpt>
      <trkpt lat="47.07951" lon="2.26069">
        <ele>119</ele>
        <time>2021-08-30T14:47:24Z</time>
      </trkpt>
      <trkpt lat="47.07945" lon="2.26065">
        <ele>119</ele>
        <time>2021-08-30T14:47:24Z</time>
      </trkpt>
      <trkpt lat="47.07939" lon="2.2606">
        <ele>120</ele>
        <time>2021-08-30T14:47:24Z</time>
      </trkpt>
      <trkpt lat="47.07933" lon="2.26056">
        <ele>120</ele>
        <time>2021-08-30T14:47:24Z</time>
      </trkpt>
      <trkpt lat="47.07927" lon="2.26052">
        <ele>120</ele>
        <time>2021-08-30T14:47:24Z</time>
      </trkpt>
      <trkpt lat="47.07921" lon="2.26048">
        <ele>120</ele>
        <time>2021-08-30T14:47:24Z</time>
      </trkpt>
      <trkpt lat="47.07915" lon="2.26043">
        <ele>121</ele>
        <time>2021-08-30T14:47:24Z</time>
      </trkpt>
      <trkpt lat="47.07909" lon="2.26039">
        <ele>121</ele>
        <time>2021-08-30T14:47:24Z</time>
      </trkpt>
      <trkpt lat="47.07903" lon="2.26035">
        <ele>121</ele>
        <time>2021-08-30T14:47:24Z</time>
      </trkpt>
      <trkpt lat="47.07897" lon="2.26031">
        <ele>121</ele>
        <time>2021-08-30T14:47:24Z</time>
      </trkpt>
      <trkpt lat="47.0789" lon="2.26027">
        <ele>120</ele>
        <time>2021-08-30T14:47:24Z</time>
      </trkpt>
      <trkpt lat="47.07884" lon="2.26024">
        <ele>120</ele>
        <time>2021-08-30T14:47:24Z</time>
      </trkpt>
      <trkpt lat="47.07878" lon="2.26019">
        <ele>120</ele>
        <time>2021-08-30T14:47:24Z</time>
      </trkpt>
      <trkpt lat="47.07872" lon="2.26015">
        <ele>119</ele>
        <time>2021-08-30T14:47:24Z</time>
      </trkpt>
      <trkpt lat="47.07866" lon="2.2601">
        <ele>119</ele>
        <time>2021-08-30T14:47:24Z</time>
      </trkpt>
      <trkpt lat="47.0786" lon="2.26006">
        <ele>119</ele>
        <time>2021-08-30T14:47:24Z</time>
      </trkpt>
      <trkpt lat="47.07854" lon="2.26002">
        <ele>119</ele>
        <time>2021-08-30T14:47:24Z</time>
      </trkpt>
      <trkpt lat="47.07847" lon="2.25997">
        <ele>119</ele>
        <time>2021-08-30T14:47:24Z</time>
      </trkpt>
      <trkpt lat="47.07841" lon="2.25993">
        <ele>119</ele>
        <time>2021-08-30T14:47:24Z</time>
      </trkpt>
      <trkpt lat="47.07835" lon="2.2599">
        <ele>119</ele>
        <time>2021-08-30T14:47:24Z</time>
      </trkpt>
      <trkpt lat="47.07829" lon="2.25985">
        <ele>120</ele>
        <time>2021-08-30T14:47:24Z</time>
      </trkpt>
      <trkpt lat="47.07823" lon="2.25981">
        <ele>120</ele>
        <time>2021-08-30T14:47:24Z</time>
      </trkpt>
      <trkpt lat="47.07816" lon="2.25977">
        <ele>120</ele>
        <time>2021-08-30T14:47:24Z</time>
      </trkpt>
      <trkpt lat="47.0781" lon="2.25972">
        <ele>120</ele>
        <time>2021-08-30T14:47:24Z</time>
      </trkpt>
      <trkpt lat="47.07804" lon="2.25968">
        <ele>121</ele>
        <time>2021-08-30T14:47:24Z</time>
      </trkpt>
      <trkpt lat="47.07798" lon="2.25964">
        <ele>121</ele>
        <time>2021-08-30T14:47:24Z</time>
      </trkpt>
      <trkpt lat="47.07792" lon="2.25959">
        <ele>120</ele>
        <time>2021-08-30T14:47:24Z</time>
      </trkpt>
      <trkpt lat="47.07785" lon="2.25955">
        <ele>120</ele>
        <time>2021-08-30T14:47:24Z</time>
      </trkpt>
      <trkpt lat="47.07779" lon="2.25951">
        <ele>120</ele>
        <time>2021-08-30T14:47:24Z</time>
      </trkpt>
      <trkpt lat="47.07773" lon="2.25947">
        <ele>120</ele>
        <time>2021-08-30T14:47:24Z</time>
      </trkpt>
      <trkpt lat="47.07767" lon="2.25942">
        <ele>120</ele>
        <time>2021-08-30T14:47:24Z</time>
      </trkpt>
      <trkpt lat="47.07761" lon="2.25938">
        <ele>120</ele>
        <time>2021-08-30T14:47:24Z</time>
      </trkpt>
      <trkpt lat="47.07755" lon="2.25934">
        <ele>119</ele>
        <time>2021-08-30T14:47:24Z</time>
      </trkpt>
      <trkpt lat="47.07749" lon="2.2593">
        <ele>119</ele>
        <time>2021-08-30T14:47:24Z</time>
      </trkpt>
      <trkpt lat="47.07742" lon="2.25926">
        <ele>119</ele>
        <time>2021-08-30T14:47:24Z</time>
      </trkpt>
      <trkpt lat="47.07736" lon="2.25922">
        <ele>119</ele>
        <time>2021-08-30T14:47:24Z</time>
      </trkpt>
      <trkpt lat="47.0773" lon="2.25917">
        <ele>119</ele>
        <time>2021-08-30T14:47:24Z</time>
      </trkpt>
      <trkpt lat="47.07724" lon="2.25913">
        <ele>119</ele>
        <time>2021-08-30T14:47:24Z</time>
      </trkpt>
      <trkpt lat="47.07717" lon="2.25908">
        <ele>119</ele>
        <time>2021-08-30T14:47:24Z</time>
      </trkpt>
      <trkpt lat="47.07711" lon="2.25904">
        <ele>119</ele>
        <time>2021-08-30T14:47:24Z</time>
      </trkpt>
      <trkpt lat="47.07705" lon="2.259">
        <ele>120</ele>
        <time>2021-08-30T14:47:24Z</time>
      </trkpt>
      <trkpt lat="47.07698" lon="2.25895">
        <ele>120</ele>
        <time>2021-08-30T14:47:24Z</time>
      </trkpt>
      <trkpt lat="47.07692" lon="2.2589">
        <ele>121</ele>
        <time>2021-08-30T14:47:24Z</time>
      </trkpt>
      <trkpt lat="47.07685" lon="2.25886">
        <ele>121</ele>
        <time>2021-08-30T14:47:24Z</time>
      </trkpt>
      <trkpt lat="47.07679" lon="2.25882">
        <ele>121</ele>
        <time>2021-08-30T14:47:24Z</time>
      </trkpt>
      <trkpt lat="47.07673" lon="2.25877">
        <ele>121</ele>
        <time>2021-08-30T14:47:24Z</time>
      </trkpt>
      <trkpt lat="47.07666" lon="2.25873">
        <ele>122</ele>
        <time>2021-08-30T14:47:24Z</time>
      </trkpt>
      <trkpt lat="47.07659" lon="2.25869">
        <ele>122</ele>
        <time>2021-08-30T14:47:24Z</time>
      </trkpt>
      <trkpt lat="47.07653" lon="2.25865">
        <ele>122</ele>
        <time>2021-08-30T14:47:24Z</time>
      </trkpt>
      <trkpt lat="47.07646" lon="2.2586">
        <ele>122</ele>
        <time>2021-08-30T14:47:24Z</time>
      </trkpt>
      <trkpt lat="47.0764" lon="2.25856">
        <ele>122</ele>
        <time>2021-08-30T14:47:24Z</time>
      </trkpt>
      <trkpt lat="47.07634" lon="2.25851">
        <ele>122</ele>
        <time>2021-08-30T14:47:24Z</time>
      </trkpt>
      <trkpt lat="47.07627" lon="2.25847">
        <ele>122</ele>
        <time>2021-08-30T14:47:24Z</time>
      </trkpt>
      <trkpt lat="47.07594" lon="2.25825">
        <ele>121</ele>
        <time>2021-08-30T14:47:24Z</time>
      </trkpt>
      <trkpt lat="47.07562" lon="2.25802">
        <ele>121</ele>
        <time>2021-08-30T14:47:24Z</time>
      </trkpt>
      <trkpt lat="47.07529" lon="2.2578">
        <ele>121</ele>
        <time>2021-08-30T14:47:24Z</time>
      </trkpt>
      <trkpt lat="47.07497" lon="2.25758">
        <ele>121</ele>
        <time>2021-08-30T14:47:24Z</time>
      </trkpt>
      <trkpt lat="47.07465" lon="2.25737">
        <ele>122</ele>
        <time>2021-08-30T14:47:24Z</time>
      </trkpt>
      <trkpt lat="47.0744" lon="2.25718">
        <ele>122</ele>
        <time>2021-08-30T14:47:24Z</time>
      </trkpt>
      <trkpt lat="47.07434" lon="2.25713">
        <ele>122</ele>
        <time>2021-08-30T14:47:24Z</time>
      </trkpt>
      <trkpt lat="47.07402" lon="2.25691">
        <ele>121</ele>
        <time>2021-08-30T14:47:24Z</time>
      </trkpt>
      <trkpt lat="47.07369" lon="2.25668">
        <ele>122</ele>
        <time>2021-08-30T14:47:24Z</time>
      </trkpt>
      <trkpt lat="47.07338" lon="2.25645">
        <ele>122</ele>
        <time>2021-08-30T14:47:24Z</time>
      </trkpt>
      <trkpt lat="47.07307" lon="2.25623">
        <ele>123</ele>
        <time>2021-08-30T14:47:24Z</time>
      </trkpt>
      <trkpt lat="47.07275" lon="2.25602">
        <ele>123</ele>
        <time>2021-08-30T14:47:24Z</time>
      </trkpt>
      <trkpt lat="47.07249" lon="2.25586">
        <ele>123</ele>
        <time>2021-08-30T14:47:24Z</time>
      </trkpt>
      <trkpt lat="47.07243" lon="2.25582">
        <ele>122</ele>
        <time>2021-08-30T14:47:24Z</time>
      </trkpt>
      <trkpt lat="47.07236" lon="2.25578">
        <ele>122</ele>
        <time>2021-08-30T14:47:24Z</time>
      </trkpt>
      <trkpt lat="47.0723" lon="2.25574">
        <ele>122</ele>
        <time>2021-08-30T14:47:24Z</time>
      </trkpt>
      <trkpt lat="47.07224" lon="2.25569">
        <ele>122</ele>
        <time>2021-08-30T14:47:24Z</time>
      </trkpt>
      <trkpt lat="47.07218" lon="2.25565">
        <ele>122</ele>
        <time>2021-08-30T14:47:24Z</time>
      </trkpt>
      <trkpt lat="47.07212" lon="2.2556">
        <ele>122</ele>
        <time>2021-08-30T14:47:24Z</time>
      </trkpt>
      <trkpt lat="47.07205" lon="2.25556">
        <ele>122</ele>
        <time>2021-08-30T14:47:24Z</time>
      </trkpt>
      <trkpt lat="47.07199" lon="2.25551">
        <ele>122</ele>
        <time>2021-08-30T14:47:24Z</time>
      </trkpt>
      <trkpt lat="47.07193" lon="2.25547">
        <ele>123</ele>
        <time>2021-08-30T14:47:24Z</time>
      </trkpt>
      <trkpt lat="47.07187" lon="2.25542">
        <ele>123</ele>
        <time>2021-08-30T14:47:24Z</time>
      </trkpt>
      <trkpt lat="47.0718" lon="2.25538">
        <ele>123</ele>
        <time>2021-08-30T14:47:24Z</time>
      </trkpt>
      <trkpt lat="47.07174" lon="2.25533">
        <ele>123</ele>
        <time>2021-08-30T14:47:24Z</time>
      </trkpt>
      <trkpt lat="47.07168" lon="2.2553">
        <ele>123</ele>
        <time>2021-08-30T14:47:24Z</time>
      </trkpt>
      <trkpt lat="47.07162" lon="2.25526">
        <ele>124</ele>
        <time>2021-08-30T14:47:24Z</time>
      </trkpt>
      <trkpt lat="47.07155" lon="2.25522">
        <ele>124</ele>
        <time>2021-08-30T14:47:24Z</time>
      </trkpt>
      <trkpt lat="47.07149" lon="2.25517">
        <ele>124</ele>
        <time>2021-08-30T14:47:24Z</time>
      </trkpt>
      <trkpt lat="47.07143" lon="2.25513">
        <ele>124</ele>
        <time>2021-08-30T14:47:24Z</time>
      </trkpt>
      <trkpt lat="47.07137" lon="2.25509">
        <ele>124</ele>
        <time>2021-08-30T14:47:24Z</time>
      </trkpt>
      <trkpt lat="47.07131" lon="2.25504">
        <ele>124</ele>
        <time>2021-08-30T14:47:24Z</time>
      </trkpt>
      <trkpt lat="47.07125" lon="2.255">
        <ele>123</ele>
        <time>2021-08-30T14:47:24Z</time>
      </trkpt>
      <trkpt lat="47.07118" lon="2.25496">
        <ele>123</ele>
        <time>2021-08-30T14:47:24Z</time>
      </trkpt>
      <trkpt lat="47.07112" lon="2.25491">
        <ele>123</ele>
        <time>2021-08-30T14:47:24Z</time>
      </trkpt>
      <trkpt lat="47.07106" lon="2.25487">
        <ele>123</ele>
        <time>2021-08-30T14:47:24Z</time>
      </trkpt>
      <trkpt lat="47.071" lon="2.25482">
        <ele>123</ele>
        <time>2021-08-30T14:47:24Z</time>
      </trkpt>
      <trkpt lat="47.07093" lon="2.25478">
        <ele>123</ele>
        <time>2021-08-30T14:47:24Z</time>
      </trkpt>
      <trkpt lat="47.07087" lon="2.25474">
        <ele>123</ele>
        <time>2021-08-30T14:47:24Z</time>
      </trkpt>
      <trkpt lat="47.07082" lon="2.25469">
        <ele>122</ele>
        <time>2021-08-30T14:47:24Z</time>
      </trkpt>
      <trkpt lat="47.07076" lon="2.25465">
        <ele>123</ele>
        <time>2021-08-30T14:47:24Z</time>
      </trkpt>
      <trkpt lat="47.0707" lon="2.25461">
        <ele>123</ele>
        <time>2021-08-30T14:47:24Z</time>
      </trkpt>
      <trkpt lat="47.07063" lon="2.25457">
        <ele>123</ele>
        <time>2021-08-30T14:47:24Z</time>
      </trkpt>
      <trkpt lat="47.07057" lon="2.25453">
        <ele>123</ele>
        <time>2021-08-30T14:47:24Z</time>
      </trkpt>
      <trkpt lat="47.07051" lon="2.25449">
        <ele>124</ele>
        <time>2021-08-30T14:47:24Z</time>
      </trkpt>
      <trkpt lat="47.07045" lon="2.25445">
        <ele>124</ele>
        <time>2021-08-30T14:47:24Z</time>
      </trkpt>
      <trkpt lat="47.07038" lon="2.2544">
        <ele>125</ele>
        <time>2021-08-30T14:47:24Z</time>
      </trkpt>
      <trkpt lat="47.07032" lon="2.25436">
        <ele>125</ele>
        <time>2021-08-30T14:47:24Z</time>
      </trkpt>
      <trkpt lat="47.07026" lon="2.25432">
        <ele>126</ele>
        <time>2021-08-30T14:47:24Z</time>
      </trkpt>
      <trkpt lat="47.0702" lon="2.25428">
        <ele>126</ele>
        <time>2021-08-30T14:47:24Z</time>
      </trkpt>
      <trkpt lat="47.07014" lon="2.25424">
        <ele>126</ele>
        <time>2021-08-30T14:47:24Z</time>
      </trkpt>
      <trkpt lat="47.07008" lon="2.2542">
        <ele>126</ele>
        <time>2021-08-30T14:47:24Z</time>
      </trkpt>
      <trkpt lat="47.07001" lon="2.25416">
        <ele>125</ele>
        <time>2021-08-30T14:47:24Z</time>
      </trkpt>
      <trkpt lat="47.06995" lon="2.25411">
        <ele>126</ele>
        <time>2021-08-30T14:47:24Z</time>
      </trkpt>
      <trkpt lat="47.06989" lon="2.25407">
        <ele>126</ele>
        <time>2021-08-30T14:47:24Z</time>
      </trkpt>
      <trkpt lat="47.06983" lon="2.25403">
        <ele>126</ele>
        <time>2021-08-30T14:47:24Z</time>
      </trkpt>
      <trkpt lat="47.06978" lon="2.25399">
        <ele>126</ele>
        <time>2021-08-30T14:47:24Z</time>
      </trkpt>
      <trkpt lat="47.06972" lon="2.25395">
        <ele>126</ele>
        <time>2021-08-30T14:47:24Z</time>
      </trkpt>
      <trkpt lat="47.06966" lon="2.25391">
        <ele>126</ele>
        <time>2021-08-30T14:47:24Z</time>
      </trkpt>
      <trkpt lat="47.0696" lon="2.25388">
        <ele>126</ele>
        <time>2021-08-30T14:47:24Z</time>
      </trkpt>
      <trkpt lat="47.06954" lon="2.25383">
        <ele>126</ele>
        <time>2021-08-30T14:47:24Z</time>
      </trkpt>
      <trkpt lat="47.06948" lon="2.25379">
        <ele>126</ele>
        <time>2021-08-30T14:47:24Z</time>
      </trkpt>
      <trkpt lat="47.06943" lon="2.25375">
        <ele>127</ele>
        <time>2021-08-30T14:47:24Z</time>
      </trkpt>
      <trkpt lat="47.06936" lon="2.25372">
        <ele>127</ele>
        <time>2021-08-30T14:47:24Z</time>
      </trkpt>
      <trkpt lat="47.06931" lon="2.25367">
        <ele>127</ele>
        <time>2021-08-30T14:47:24Z</time>
      </trkpt>
      <trkpt lat="47.06925" lon="2.25363">
        <ele>127</ele>
        <time>2021-08-30T14:47:24Z</time>
      </trkpt>
      <trkpt lat="47.06919" lon="2.25359">
        <ele>127</ele>
        <time>2021-08-30T14:47:24Z</time>
      </trkpt>
      <trkpt lat="47.06913" lon="2.25355">
        <ele>127</ele>
        <time>2021-08-30T14:47:24Z</time>
      </trkpt>
      <trkpt lat="47.06908" lon="2.25351">
        <ele>127</ele>
        <time>2021-08-30T14:47:24Z</time>
      </trkpt>
      <trkpt lat="47.06902" lon="2.25348">
        <ele>127</ele>
        <time>2021-08-30T14:47:24Z</time>
      </trkpt>
      <trkpt lat="47.06896" lon="2.25344">
        <ele>127</ele>
        <time>2021-08-30T14:47:24Z</time>
      </trkpt>
      <trkpt lat="47.06891" lon="2.2534">
        <ele>127</ele>
        <time>2021-08-30T14:47:24Z</time>
      </trkpt>
      <trkpt lat="47.06886" lon="2.25336">
        <ele>127</ele>
        <time>2021-08-30T14:47:24Z</time>
      </trkpt>
      <trkpt lat="47.0688" lon="2.25332">
        <ele>126</ele>
        <time>2021-08-30T14:47:24Z</time>
      </trkpt>
      <trkpt lat="47.06853" lon="2.25313">
        <ele>126</ele>
        <time>2021-08-30T14:47:24Z</time>
      </trkpt>
      <trkpt lat="47.06825" lon="2.25294">
        <ele>127</ele>
        <time>2021-08-30T14:47:24Z</time>
      </trkpt>
      <trkpt lat="47.06798" lon="2.25275">
        <ele>127</ele>
        <time>2021-08-30T14:47:24Z</time>
      </trkpt>
      <trkpt lat="47.0677" lon="2.25256">
        <ele>127</ele>
        <time>2021-08-30T14:47:24Z</time>
      </trkpt>
      <trkpt lat="47.06737" lon="2.25233">
        <ele>127</ele>
        <time>2021-08-30T14:47:24Z</time>
      </trkpt>
      <trkpt lat="47.06707" lon="2.25214">
        <ele>128</ele>
        <time>2021-08-30T14:47:24Z</time>
      </trkpt>
      <trkpt lat="47.06698" lon="2.25208">
        <ele>129</ele>
        <time>2021-08-30T14:47:24Z</time>
      </trkpt>
      <trkpt lat="47.06674" lon="2.25192">
        <ele>129</ele>
        <time>2021-08-30T14:47:24Z</time>
      </trkpt>
      <trkpt lat="47.06643" lon="2.2517">
        <ele>128</ele>
        <time>2021-08-30T14:47:24Z</time>
      </trkpt>
      <trkpt lat="47.06609" lon="2.25146">
        <ele>127</ele>
        <time>2021-08-30T14:47:24Z</time>
      </trkpt>
      <trkpt lat="47.06576" lon="2.25124">
        <ele>129</ele>
        <time>2021-08-30T14:47:24Z</time>
      </trkpt>
      <trkpt lat="47.06548" lon="2.25104">
        <ele>130</ele>
        <time>2021-08-30T14:47:24Z</time>
      </trkpt>
      <trkpt lat="47.06542" lon="2.25101">
        <ele>130</ele>
        <time>2021-08-30T14:47:24Z</time>
      </trkpt>
      <trkpt lat="47.06537" lon="2.25097">
        <ele>130</ele>
        <time>2021-08-30T14:47:24Z</time>
      </trkpt>
      <trkpt lat="47.06532" lon="2.25093">
        <ele>130</ele>
        <time>2021-08-30T14:47:24Z</time>
      </trkpt>
      <trkpt lat="47.06521" lon="2.25085">
        <ele>130</ele>
        <time>2021-08-30T14:47:24Z</time>
      </trkpt>
      <trkpt lat="47.06516" lon="2.25081">
        <ele>130</ele>
        <time>2021-08-30T14:47:24Z</time>
      </trkpt>
      <trkpt lat="47.0651" lon="2.25078">
        <ele>130</ele>
        <time>2021-08-30T14:47:24Z</time>
      </trkpt>
      <trkpt lat="47.06481" lon="2.25058">
        <ele>130</ele>
        <time>2021-08-30T14:47:24Z</time>
      </trkpt>
      <trkpt lat="47.06447" lon="2.25033">
        <ele>129</ele>
        <time>2021-08-30T14:47:24Z</time>
      </trkpt>
      <trkpt lat="47.06413" lon="2.2501">
        <ele>130</ele>
        <time>2021-08-30T14:47:24Z</time>
      </trkpt>
      <trkpt lat="47.06384" lon="2.2499">
        <ele>129</ele>
        <time>2021-08-30T14:47:24Z</time>
      </trkpt>
      <trkpt lat="47.06356" lon="2.24969">
        <ele>127</ele>
        <time>2021-08-30T14:47:24Z</time>
      </trkpt>
      <trkpt lat="47.06334" lon="2.24953">
        <ele>127</ele>
        <time>2021-08-30T14:47:24Z</time>
      </trkpt>
      <trkpt lat="47.06329" lon="2.24949">
        <ele>127</ele>
        <time>2021-08-30T14:47:24Z</time>
      </trkpt>
      <trkpt lat="47.06323" lon="2.24946">
        <ele>127</ele>
        <time>2021-08-30T14:47:24Z</time>
      </trkpt>
      <trkpt lat="47.06317" lon="2.24941">
        <ele>127</ele>
        <time>2021-08-30T14:47:24Z</time>
      </trkpt>
      <trkpt lat="47.06312" lon="2.24937">
        <ele>127</ele>
        <time>2021-08-30T14:47:24Z</time>
      </trkpt>
      <trkpt lat="47.06306" lon="2.24933">
        <ele>127</ele>
        <time>2021-08-30T14:47:24Z</time>
      </trkpt>
      <trkpt lat="47.06301" lon="2.24929">
        <ele>128</ele>
        <time>2021-08-30T14:47:24Z</time>
      </trkpt>
      <trkpt lat="47.06295" lon="2.24925">
        <ele>128</ele>
        <time>2021-08-30T14:47:24Z</time>
      </trkpt>
      <trkpt lat="47.06289" lon="2.24921">
        <ele>128</ele>
        <time>2021-08-30T14:47:24Z</time>
      </trkpt>
      <trkpt lat="47.06284" lon="2.24918">
        <ele>128</ele>
        <time>2021-08-30T14:47:24Z</time>
      </trkpt>
      <trkpt lat="47.06278" lon="2.24914">
        <ele>128</ele>
        <time>2021-08-30T14:47:24Z</time>
      </trkpt>
      <trkpt lat="47.06273" lon="2.2491">
        <ele>129</ele>
        <time>2021-08-30T14:47:24Z</time>
      </trkpt>
      <trkpt lat="47.06267" lon="2.24906">
        <ele>129</ele>
        <time>2021-08-30T14:47:24Z</time>
      </trkpt>
      <trkpt lat="47.06262" lon="2.24902">
        <ele>129</ele>
        <time>2021-08-30T14:47:24Z</time>
      </trkpt>
      <trkpt lat="47.06256" lon="2.24899">
        <ele>130</ele>
        <time>2021-08-30T14:47:24Z</time>
      </trkpt>
      <trkpt lat="47.06251" lon="2.24895">
        <ele>130</ele>
        <time>2021-08-30T14:47:24Z</time>
      </trkpt>
      <trkpt lat="47.06245" lon="2.24892">
        <ele>130</ele>
        <time>2021-08-30T14:47:24Z</time>
      </trkpt>
      <trkpt lat="47.06239" lon="2.24888">
        <ele>130</ele>
        <time>2021-08-30T14:47:24Z</time>
      </trkpt>
      <trkpt lat="47.06234" lon="2.24884">
        <ele>130</ele>
        <time>2021-08-30T14:47:24Z</time>
      </trkpt>
      <trkpt lat="47.06228" lon="2.24881">
        <ele>130</ele>
        <time>2021-08-30T14:47:24Z</time>
      </trkpt>
      <trkpt lat="47.06223" lon="2.24878">
        <ele>130</ele>
        <time>2021-08-30T14:47:24Z</time>
      </trkpt>
      <trkpt lat="47.06217" lon="2.24874">
        <ele>129</ele>
        <time>2021-08-30T14:47:24Z</time>
      </trkpt>
      <trkpt lat="47.06211" lon="2.24871">
        <ele>129</ele>
        <time>2021-08-30T14:47:24Z</time>
      </trkpt>
      <trkpt lat="47.06205" lon="2.24867">
        <ele>129</ele>
        <time>2021-08-30T14:47:24Z</time>
      </trkpt>
      <trkpt lat="47.062" lon="2.24863">
        <ele>129</ele>
        <time>2021-08-30T14:47:24Z</time>
      </trkpt>
      <trkpt lat="47.06194" lon="2.24859">
        <ele>129</ele>
        <time>2021-08-30T14:47:24Z</time>
      </trkpt>
      <trkpt lat="47.06188" lon="2.24856">
        <ele>129</ele>
        <time>2021-08-30T14:47:24Z</time>
      </trkpt>
      <trkpt lat="47.06183" lon="2.24853">
        <ele>130</ele>
        <time>2021-08-30T14:47:24Z</time>
      </trkpt>
      <trkpt lat="47.06177" lon="2.24849">
        <ele>130</ele>
        <time>2021-08-30T14:47:24Z</time>
      </trkpt>
      <trkpt lat="47.06171" lon="2.24845">
        <ele>130</ele>
        <time>2021-08-30T14:47:24Z</time>
      </trkpt>
      <trkpt lat="47.06166" lon="2.24841">
        <ele>131</ele>
        <time>2021-08-30T14:47:24Z</time>
      </trkpt>
      <trkpt lat="47.0616" lon="2.24838">
        <ele>131</ele>
        <time>2021-08-30T14:47:24Z</time>
      </trkpt>
      <trkpt lat="47.06155" lon="2.24834">
        <ele>131</ele>
        <time>2021-08-30T14:47:24Z</time>
      </trkpt>
      <trkpt lat="47.06149" lon="2.2483">
        <ele>131</ele>
        <time>2021-08-30T14:47:24Z</time>
      </trkpt>
      <trkpt lat="47.06144" lon="2.24826">
        <ele>131</ele>
        <time>2021-08-30T14:47:24Z</time>
      </trkpt>
      <trkpt lat="47.06139" lon="2.24823">
        <ele>131</ele>
        <time>2021-08-30T14:47:24Z</time>
      </trkpt>
      <trkpt lat="47.06133" lon="2.24819">
        <ele>131</ele>
        <time>2021-08-30T14:47:24Z</time>
      </trkpt>
      <trkpt lat="47.06128" lon="2.24816">
        <ele>130</ele>
        <time>2021-08-30T14:47:24Z</time>
      </trkpt>
      <trkpt lat="47.06122" lon="2.24813">
        <ele>130</ele>
        <time>2021-08-30T14:47:24Z</time>
      </trkpt>
      <trkpt lat="47.06116" lon="2.24808">
        <ele>130</ele>
        <time>2021-08-30T14:47:24Z</time>
      </trkpt>
      <trkpt lat="47.06111" lon="2.24804">
        <ele>129</ele>
        <time>2021-08-30T14:47:24Z</time>
      </trkpt>
      <trkpt lat="47.06106" lon="2.24801">
        <ele>129</ele>
        <time>2021-08-30T14:47:24Z</time>
      </trkpt>
      <trkpt lat="47.061" lon="2.24797">
        <ele>129</ele>
        <time>2021-08-30T14:47:24Z</time>
      </trkpt>
      <trkpt lat="47.06094" lon="2.24793">
        <ele>129</ele>
        <time>2021-08-30T14:47:24Z</time>
      </trkpt>
      <trkpt lat="47.06089" lon="2.2479">
        <ele>129</ele>
        <time>2021-08-30T14:47:24Z</time>
      </trkpt>
      <trkpt lat="47.06083" lon="2.24786">
        <ele>129</ele>
        <time>2021-08-30T14:47:24Z</time>
      </trkpt>
      <trkpt lat="47.06078" lon="2.24781">
        <ele>129</ele>
        <time>2021-08-30T14:47:24Z</time>
      </trkpt>
      <trkpt lat="47.06073" lon="2.24777">
        <ele>129</ele>
        <time>2021-08-30T14:47:24Z</time>
      </trkpt>
      <trkpt lat="47.06067" lon="2.24773">
        <ele>129</ele>
        <time>2021-08-30T14:47:24Z</time>
      </trkpt>
      <trkpt lat="47.06062" lon="2.2477">
        <ele>129</ele>
        <time>2021-08-30T14:47:24Z</time>
      </trkpt>
      <trkpt lat="47.06056" lon="2.24766">
        <ele>129</ele>
        <time>2021-08-30T14:47:24Z</time>
      </trkpt>
      <trkpt lat="47.06051" lon="2.24762">
        <ele>130</ele>
        <time>2021-08-30T14:47:24Z</time>
      </trkpt>
      <trkpt lat="47.06045" lon="2.24759">
        <ele>130</ele>
        <time>2021-08-30T14:47:24Z</time>
      </trkpt>
      <trkpt lat="47.06039" lon="2.24755">
        <ele>130</ele>
        <time>2021-08-30T14:47:24Z</time>
      </trkpt>
      <trkpt lat="47.06034" lon="2.24751">
        <ele>130</ele>
        <time>2021-08-30T14:47:24Z</time>
      </trkpt>
      <trkpt lat="47.06028" lon="2.24747">
        <ele>131</ele>
        <time>2021-08-30T14:47:24Z</time>
      </trkpt>
      <trkpt lat="47.06022" lon="2.24744">
        <ele>131</ele>
        <time>2021-08-30T14:47:24Z</time>
      </trkpt>
      <trkpt lat="47.06017" lon="2.24741">
        <ele>131</ele>
        <time>2021-08-30T14:47:24Z</time>
      </trkpt>
      <trkpt lat="47.06011" lon="2.24737">
        <ele>131</ele>
        <time>2021-08-30T14:47:24Z</time>
      </trkpt>
      <trkpt lat="47.06005" lon="2.24734">
        <ele>131</ele>
        <time>2021-08-30T14:47:24Z</time>
      </trkpt>
      <trkpt lat="47.05999" lon="2.24731">
        <ele>131</ele>
        <time>2021-08-30T14:47:24Z</time>
      </trkpt>
      <trkpt lat="47.05993" lon="2.24727">
        <ele>131</ele>
        <time>2021-08-30T14:47:24Z</time>
      </trkpt>
      <trkpt lat="47.05987" lon="2.24723">
        <ele>131</ele>
        <time>2021-08-30T14:47:24Z</time>
      </trkpt>
      <trkpt lat="47.05981" lon="2.2472">
        <ele>131</ele>
        <time>2021-08-30T14:47:24Z</time>
      </trkpt>
      <trkpt lat="47.0595" lon="2.24701">
        <ele>130</ele>
        <time>2021-08-30T14:47:24Z</time>
      </trkpt>
      <trkpt lat="47.05917" lon="2.24682">
        <ele>131</ele>
        <time>2021-08-30T14:47:24Z</time>
      </trkpt>
      <trkpt lat="47.05882" lon="2.24662">
        <ele>132</ele>
        <time>2021-08-30T14:47:24Z</time>
      </trkpt>
      <trkpt lat="47.05848" lon="2.24643">
        <ele>131</ele>
        <time>2021-08-30T14:47:24Z</time>
      </trkpt>
      <trkpt lat="47.05813" lon="2.24621">
        <ele>131</ele>
        <time>2021-08-30T14:47:24Z</time>
      </trkpt>
      <trkpt lat="47.05784" lon="2.24604">
        <ele>131</ele>
        <time>2021-08-30T14:47:24Z</time>
      </trkpt>
      <trkpt lat="47.05777" lon="2.246">
        <ele>130</ele>
        <time>2021-08-30T14:47:24Z</time>
      </trkpt>
      <trkpt lat="47.05741" lon="2.24583">
        <ele>128</ele>
        <time>2021-08-30T14:47:24Z</time>
      </trkpt>
      <trkpt lat="47.05706" lon="2.24561">
        <ele>128</ele>
        <time>2021-08-30T14:47:24Z</time>
      </trkpt>
      <trkpt lat="47.0567" lon="2.24541">
        <ele>127</ele>
        <time>2021-08-30T14:47:24Z</time>
      </trkpt>
      <trkpt lat="47.05632" lon="2.2452">
        <ele>124</ele>
        <time>2021-08-30T14:47:24Z</time>
      </trkpt>
      <trkpt lat="47.05597" lon="2.24498">
        <ele>124</ele>
        <time>2021-08-30T14:47:24Z</time>
      </trkpt>
      <trkpt lat="47.05569" lon="2.24482">
        <ele>125</ele>
        <time>2021-08-30T14:47:24Z</time>
      </trkpt>
      <trkpt lat="47.05562" lon="2.24478">
        <ele>125</ele>
        <time>2021-08-30T14:47:24Z</time>
      </trkpt>
      <trkpt lat="47.05556" lon="2.24473">
        <ele>125</ele>
        <time>2021-08-30T14:47:24Z</time>
      </trkpt>
      <trkpt lat="47.05549" lon="2.2447">
        <ele>126</ele>
        <time>2021-08-30T14:47:24Z</time>
      </trkpt>
      <trkpt lat="47.05542" lon="2.24465">
        <ele>126</ele>
        <time>2021-08-30T14:47:24Z</time>
      </trkpt>
      <trkpt lat="47.05537" lon="2.24461">
        <ele>126</ele>
        <time>2021-08-30T14:47:24Z</time>
      </trkpt>
      <trkpt lat="47.0553" lon="2.24457">
        <ele>126</ele>
        <time>2021-08-30T14:47:24Z</time>
      </trkpt>
      <trkpt lat="47.05523" lon="2.24453">
        <ele>127</ele>
        <time>2021-08-30T14:47:24Z</time>
      </trkpt>
      <trkpt lat="47.05517" lon="2.24448">
        <ele>127</ele>
        <time>2021-08-30T14:47:24Z</time>
      </trkpt>
      <trkpt lat="47.0551" lon="2.24444">
        <ele>127</ele>
        <time>2021-08-30T14:47:24Z</time>
      </trkpt>
      <trkpt lat="47.05503" lon="2.2444">
        <ele>127</ele>
        <time>2021-08-30T14:47:24Z</time>
      </trkpt>
      <trkpt lat="47.05496" lon="2.24436">
        <ele>127</ele>
        <time>2021-08-30T14:47:24Z</time>
      </trkpt>
      <trkpt lat="47.05488" lon="2.24432">
        <ele>127</ele>
        <time>2021-08-30T14:47:24Z</time>
      </trkpt>
      <trkpt lat="47.05481" lon="2.24429">
        <ele>126</ele>
        <time>2021-08-30T14:47:24Z</time>
      </trkpt>
      <trkpt lat="47.05474" lon="2.24425">
        <ele>126</ele>
        <time>2021-08-30T14:47:24Z</time>
      </trkpt>
      <trkpt lat="47.05467" lon="2.2442">
        <ele>125</ele>
        <time>2021-08-30T14:47:24Z</time>
      </trkpt>
      <trkpt lat="47.0546" lon="2.24416">
        <ele>125</ele>
        <time>2021-08-30T14:47:24Z</time>
      </trkpt>
      <trkpt lat="47.05453" lon="2.24412">
        <ele>125</ele>
        <time>2021-08-30T14:47:24Z</time>
      </trkpt>
      <trkpt lat="47.05446" lon="2.24408">
        <ele>124</ele>
        <time>2021-08-30T14:47:24Z</time>
      </trkpt>
      <trkpt lat="47.05438" lon="2.24403">
        <ele>124</ele>
        <time>2021-08-30T14:47:24Z</time>
      </trkpt>
      <trkpt lat="47.0543" lon="2.24399">
        <ele>124</ele>
        <time>2021-08-30T14:47:24Z</time>
      </trkpt>
      <trkpt lat="47.05423" lon="2.24395">
        <ele>123</ele>
        <time>2021-08-30T14:47:24Z</time>
      </trkpt>
      <trkpt lat="47.05416" lon="2.2439">
        <ele>123</ele>
        <time>2021-08-30T14:47:24Z</time>
      </trkpt>
      <trkpt lat="47.05409" lon="2.24386">
        <ele>123</ele>
        <time>2021-08-30T14:47:24Z</time>
      </trkpt>
      <trkpt lat="47.05402" lon="2.24382">
        <ele>123</ele>
        <time>2021-08-30T14:47:24Z</time>
      </trkpt>
      <trkpt lat="47.05395" lon="2.24378">
        <ele>123</ele>
        <time>2021-08-30T14:47:24Z</time>
      </trkpt>
      <trkpt lat="47.05388" lon="2.24374">
        <ele>122</ele>
        <time>2021-08-30T14:47:24Z</time>
      </trkpt>
      <trkpt lat="47.05381" lon="2.2437">
        <ele>122</ele>
        <time>2021-08-30T14:47:24Z</time>
      </trkpt>
      <trkpt lat="47.05374" lon="2.24365">
        <ele>122</ele>
        <time>2021-08-30T14:47:24Z</time>
      </trkpt>
      <trkpt lat="47.05366" lon="2.24361">
        <ele>122</ele>
        <time>2021-08-30T14:47:24Z</time>
      </trkpt>
      <trkpt lat="47.05359" lon="2.24357">
        <ele>122</ele>
        <time>2021-08-30T14:47:24Z</time>
      </trkpt>
      <trkpt lat="47.05352" lon="2.24353">
        <ele>122</ele>
        <time>2021-08-30T14:47:24Z</time>
      </trkpt>
      <trkpt lat="47.05345" lon="2.24349">
        <ele>122</ele>
        <time>2021-08-30T14:47:24Z</time>
      </trkpt>
      <trkpt lat="47.05338" lon="2.24345">
        <ele>122</ele>
        <time>2021-08-30T14:47:24Z</time>
      </trkpt>
      <trkpt lat="47.05331" lon="2.24341">
        <ele>122</ele>
        <time>2021-08-30T14:47:24Z</time>
      </trkpt>
      <trkpt lat="47.05324" lon="2.24337">
        <ele>122</ele>
        <time>2021-08-30T14:47:24Z</time>
      </trkpt>
      <trkpt lat="47.05317" lon="2.24333">
        <ele>123</ele>
        <time>2021-08-30T14:47:24Z</time>
      </trkpt>
      <trkpt lat="47.0531" lon="2.24329">
        <ele>123</ele>
        <time>2021-08-30T14:47:24Z</time>
      </trkpt>
      <trkpt lat="47.05303" lon="2.24325">
        <ele>123</ele>
        <time>2021-08-30T14:47:24Z</time>
      </trkpt>
      <trkpt lat="47.05295" lon="2.24321">
        <ele>123</ele>
        <time>2021-08-30T14:47:24Z</time>
      </trkpt>
      <trkpt lat="47.05289" lon="2.24317">
        <ele>124</ele>
        <time>2021-08-30T14:47:24Z</time>
      </trkpt>
      <trkpt lat="47.05281" lon="2.24313">
        <ele>124</ele>
        <time>2021-08-30T14:47:24Z</time>
      </trkpt>
      <trkpt lat="47.05274" lon="2.24309">
        <ele>124</ele>
        <time>2021-08-30T14:47:24Z</time>
      </trkpt>
      <trkpt lat="47.05267" lon="2.24305">
        <ele>123</ele>
        <time>2021-08-30T14:47:24Z</time>
      </trkpt>
      <trkpt lat="47.05261" lon="2.24301">
        <ele>123</ele>
        <time>2021-08-30T14:47:24Z</time>
      </trkpt>
      <trkpt lat="47.05254" lon="2.24297">
        <ele>123</ele>
        <time>2021-08-30T14:47:24Z</time>
      </trkpt>
      <trkpt lat="47.05247" lon="2.24293">
        <ele>123</ele>
        <time>2021-08-30T14:47:24Z</time>
      </trkpt>
      <trkpt lat="47.0524" lon="2.24289">
        <ele>123</ele>
        <time>2021-08-30T14:47:24Z</time>
      </trkpt>
      <trkpt lat="47.05233" lon="2.24285">
        <ele>123</ele>
        <time>2021-08-30T14:47:24Z</time>
      </trkpt>
      <trkpt lat="47.05226" lon="2.24282">
        <ele>123</ele>
        <time>2021-08-30T14:47:24Z</time>
      </trkpt>
      <trkpt lat="47.05219" lon="2.24278">
        <ele>123</ele>
        <time>2021-08-30T14:47:24Z</time>
      </trkpt>
      <trkpt lat="47.05212" lon="2.24274">
        <ele>123</ele>
        <time>2021-08-30T14:47:24Z</time>
      </trkpt>
      <trkpt lat="47.05205" lon="2.24269">
        <ele>123</ele>
        <time>2021-08-30T14:47:24Z</time>
      </trkpt>
      <trkpt lat="47.05198" lon="2.24266">
        <ele>123</ele>
        <time>2021-08-30T14:47:24Z</time>
      </trkpt>
      <trkpt lat="47.05192" lon="2.24262">
        <ele>123</ele>
        <time>2021-08-30T14:47:24Z</time>
      </trkpt>
      <trkpt lat="47.05185" lon="2.24258">
        <ele>123</ele>
        <time>2021-08-30T14:47:24Z</time>
      </trkpt>
      <trkpt lat="47.05178" lon="2.24254">
        <ele>123</ele>
        <time>2021-08-30T14:47:24Z</time>
      </trkpt>
      <trkpt lat="47.05171" lon="2.2425">
        <ele>122</ele>
        <time>2021-08-30T14:47:24Z</time>
      </trkpt>
      <trkpt lat="47.05164" lon="2.24245">
        <ele>122</ele>
        <time>2021-08-30T14:47:24Z</time>
      </trkpt>
      <trkpt lat="47.05157" lon="2.24242">
        <ele>123</ele>
        <time>2021-08-30T14:47:24Z</time>
      </trkpt>
      <trkpt lat="47.0515" lon="2.24238">
        <ele>123</ele>
        <time>2021-08-30T14:47:24Z</time>
      </trkpt>
      <trkpt lat="47.05143" lon="2.24234">
        <ele>123</ele>
        <time>2021-08-30T14:47:24Z</time>
      </trkpt>
      <trkpt lat="47.05137" lon="2.2423">
        <ele>123</ele>
        <time>2021-08-30T14:47:24Z</time>
      </trkpt>
      <trkpt lat="47.05102" lon="2.24209">
        <ele>124</ele>
        <time>2021-08-30T14:47:24Z</time>
      </trkpt>
      <trkpt lat="47.05069" lon="2.2419">
        <ele>123</ele>
        <time>2021-08-30T14:47:24Z</time>
      </trkpt>
      <trkpt lat="47.05034" lon="2.24171">
        <ele>122</ele>
        <time>2021-08-30T14:47:24Z</time>
      </trkpt>
      <trkpt lat="47.04999" lon="2.24151">
        <ele>121</ele>
        <time>2021-08-30T14:47:24Z</time>
      </trkpt>
      <trkpt lat="47.04964" lon="2.24131">
        <ele>121</ele>
        <time>2021-08-30T14:47:24Z</time>
      </trkpt>
      <trkpt lat="47.04937" lon="2.24115">
        <ele>121</ele>
        <time>2021-08-30T14:47:24Z</time>
      </trkpt>
      <trkpt lat="47.0493" lon="2.2411">
        <ele>121</ele>
        <time>2021-08-30T14:47:24Z</time>
      </trkpt>
      <trkpt lat="47.04896" lon="2.2409">
        <ele>121</ele>
        <time>2021-08-30T14:47:24Z</time>
      </trkpt>
      <trkpt lat="47.04863" lon="2.24069">
        <ele>122</ele>
        <time>2021-08-30T14:47:24Z</time>
      </trkpt>
      <trkpt lat="47.0483" lon="2.24051">
        <ele>123</ele>
        <time>2021-08-30T14:47:24Z</time>
      </trkpt>
      <trkpt lat="47.04799" lon="2.24034">
        <ele>123</ele>
        <time>2021-08-30T14:47:24Z</time>
      </trkpt>
      <trkpt lat="47.04769" lon="2.24016">
        <ele>122</ele>
        <time>2021-08-30T14:47:24Z</time>
      </trkpt>
      <trkpt lat="47.04745" lon="2.24002">
        <ele>121</ele>
        <time>2021-08-30T14:47:24Z</time>
      </trkpt>
      <trkpt lat="47.0474" lon="2.23998">
        <ele>121</ele>
        <time>2021-08-30T14:47:24Z</time>
      </trkpt>
      <trkpt lat="47.04734" lon="2.23995">
        <ele>121</ele>
        <time>2021-08-30T14:47:24Z</time>
      </trkpt>
      <trkpt lat="47.04728" lon="2.23992">
        <ele>121</ele>
        <time>2021-08-30T14:47:24Z</time>
      </trkpt>
      <trkpt lat="47.04722" lon="2.23989">
        <ele>121</ele>
        <time>2021-08-30T14:47:24Z</time>
      </trkpt>
      <trkpt lat="47.04717" lon="2.23986">
        <ele>121</ele>
        <time>2021-08-30T14:47:24Z</time>
      </trkpt>
      <trkpt lat="47.04712" lon="2.23983">
        <ele>121</ele>
        <time>2021-08-30T14:47:24Z</time>
      </trkpt>
      <trkpt lat="47.04706" lon="2.2398">
        <ele>122</ele>
        <time>2021-08-30T14:47:24Z</time>
      </trkpt>
      <trkpt lat="47.047" lon="2.23976">
        <ele>122</ele>
        <time>2021-08-30T14:47:24Z</time>
      </trkpt>
      <trkpt lat="47.04695" lon="2.23972">
        <ele>122</ele>
        <time>2021-08-30T14:47:24Z</time>
      </trkpt>
      <trkpt lat="47.04689" lon="2.23969">
        <ele>123</ele>
        <time>2021-08-30T14:47:24Z</time>
      </trkpt>
      <trkpt lat="47.04684" lon="2.23966">
        <ele>123</ele>
        <time>2021-08-30T14:47:24Z</time>
      </trkpt>
      <trkpt lat="47.04678" lon="2.23963">
        <ele>123</ele>
        <time>2021-08-30T14:47:24Z</time>
      </trkpt>
      <trkpt lat="47.04672" lon="2.23959">
        <ele>123</ele>
        <time>2021-08-30T14:47:24Z</time>
      </trkpt>
      <trkpt lat="47.04666" lon="2.23956">
        <ele>124</ele>
        <time>2021-08-30T14:47:24Z</time>
      </trkpt>
      <trkpt lat="47.04661" lon="2.23952">
        <ele>124</ele>
        <time>2021-08-30T14:47:24Z</time>
      </trkpt>
      <trkpt lat="47.04655" lon="2.23949">
        <ele>124</ele>
        <time>2021-08-30T14:47:24Z</time>
      </trkpt>
      <trkpt lat="47.04649" lon="2.23946">
        <ele>124</ele>
        <time>2021-08-30T14:47:24Z</time>
      </trkpt>
      <trkpt lat="47.04643" lon="2.23943">
        <ele>123</ele>
        <time>2021-08-30T14:47:24Z</time>
      </trkpt>
      <trkpt lat="47.04637" lon="2.23939">
        <ele>123</ele>
        <time>2021-08-30T14:47:24Z</time>
      </trkpt>
      <trkpt lat="47.04632" lon="2.23936">
        <ele>123</ele>
        <time>2021-08-30T14:47:24Z</time>
      </trkpt>
      <trkpt lat="47.04626" lon="2.23933">
        <ele>123</ele>
        <time>2021-08-30T14:47:24Z</time>
      </trkpt>
      <trkpt lat="47.04621" lon="2.23929">
        <ele>123</ele>
        <time>2021-08-30T14:47:24Z</time>
      </trkpt>
      <trkpt lat="47.04615" lon="2.23926">
        <ele>123</ele>
        <time>2021-08-30T14:47:24Z</time>
      </trkpt>
      <trkpt lat="47.0461" lon="2.23923">
        <ele>124</ele>
        <time>2021-08-30T14:47:24Z</time>
      </trkpt>
      <trkpt lat="47.04604" lon="2.2392">
        <ele>124</ele>
        <time>2021-08-30T14:47:24Z</time>
      </trkpt>
      <trkpt lat="47.04598" lon="2.23917">
        <ele>124</ele>
        <time>2021-08-30T14:47:24Z</time>
      </trkpt>
      <trkpt lat="47.04593" lon="2.23914">
        <ele>124</ele>
        <time>2021-08-30T14:47:24Z</time>
      </trkpt>
      <trkpt lat="47.04587" lon="2.2391">
        <ele>124</ele>
        <time>2021-08-30T14:47:24Z</time>
      </trkpt>
      <trkpt lat="47.04581" lon="2.23906">
        <ele>124</ele>
        <time>2021-08-30T14:47:24Z</time>
      </trkpt>
      <trkpt lat="47.04576" lon="2.23903">
        <ele>124</ele>
        <time>2021-08-30T14:47:24Z</time>
      </trkpt>
      <trkpt lat="47.04571" lon="2.239">
        <ele>124</ele>
        <time>2021-08-30T14:47:24Z</time>
      </trkpt>
      <trkpt lat="47.04565" lon="2.23897">
        <ele>124</ele>
        <time>2021-08-30T14:47:24Z</time>
      </trkpt>
      <trkpt lat="47.04559" lon="2.23894">
        <ele>124</ele>
        <time>2021-08-30T14:47:24Z</time>
      </trkpt>
      <trkpt lat="47.04553" lon="2.23891">
        <ele>124</ele>
        <time>2021-08-30T14:47:24Z</time>
      </trkpt>
      <trkpt lat="47.04548" lon="2.23887">
        <ele>124</ele>
        <time>2021-08-30T14:47:24Z</time>
      </trkpt>
      <trkpt lat="47.04542" lon="2.23884">
        <ele>124</ele>
        <time>2021-08-30T14:47:24Z</time>
      </trkpt>
      <trkpt lat="47.04537" lon="2.23881">
        <ele>124</ele>
        <time>2021-08-30T14:47:24Z</time>
      </trkpt>
      <trkpt lat="47.04531" lon="2.23878">
        <ele>124</ele>
        <time>2021-08-30T14:47:24Z</time>
      </trkpt>
      <trkpt lat="47.04525" lon="2.23874">
        <ele>124</ele>
        <time>2021-08-30T14:47:24Z</time>
      </trkpt>
      <trkpt lat="47.0452" lon="2.23871">
        <ele>124</ele>
        <time>2021-08-30T14:47:24Z</time>
      </trkpt>
      <trkpt lat="47.04514" lon="2.23868">
        <ele>124</ele>
        <time>2021-08-30T14:47:24Z</time>
      </trkpt>
      <trkpt lat="47.04508" lon="2.23864">
        <ele>124</ele>
        <time>2021-08-30T14:47:24Z</time>
      </trkpt>
      <trkpt lat="47.04503" lon="2.23861">
        <ele>123</ele>
        <time>2021-08-30T14:47:24Z</time>
      </trkpt>
      <trkpt lat="47.04498" lon="2.23858">
        <ele>123</ele>
        <time>2021-08-30T14:47:24Z</time>
      </trkpt>
      <trkpt lat="47.04492" lon="2.23855">
        <ele>123</ele>
        <time>2021-08-30T14:47:24Z</time>
      </trkpt>
      <trkpt lat="47.04487" lon="2.23851">
        <ele>123</ele>
        <time>2021-08-30T14:47:24Z</time>
      </trkpt>
      <trkpt lat="47.04482" lon="2.23848">
        <ele>123</ele>
        <time>2021-08-30T14:47:24Z</time>
      </trkpt>
      <trkpt lat="47.04476" lon="2.23845">
        <ele>123</ele>
        <time>2021-08-30T14:47:24Z</time>
      </trkpt>
      <trkpt lat="47.04472" lon="2.23842">
        <ele>124</ele>
        <time>2021-08-30T14:47:24Z</time>
      </trkpt>
      <trkpt lat="47.04466" lon="2.23838">
        <ele>124</ele>
        <time>2021-08-30T14:47:24Z</time>
      </trkpt>
      <trkpt lat="47.0446" lon="2.23836">
        <ele>124</ele>
        <time>2021-08-30T14:47:24Z</time>
      </trkpt>
      <trkpt lat="47.04453" lon="2.23832">
        <ele>124</ele>
        <time>2021-08-30T14:47:24Z</time>
      </trkpt>
      <trkpt lat="47.04448" lon="2.2383">
        <ele>124</ele>
        <time>2021-08-30T14:47:24Z</time>
      </trkpt>
      <trkpt lat="47.04442" lon="2.23826">
        <ele>125</ele>
        <time>2021-08-30T14:47:24Z</time>
      </trkpt>
      <trkpt lat="47.04437" lon="2.23823">
        <ele>125</ele>
        <time>2021-08-30T14:47:24Z</time>
      </trkpt>
      <trkpt lat="47.04432" lon="2.2382">
        <ele>125</ele>
        <time>2021-08-30T14:47:24Z</time>
      </trkpt>
      <trkpt lat="47.04427" lon="2.23817">
        <ele>125</ele>
        <time>2021-08-30T14:47:24Z</time>
      </trkpt>
      <trkpt lat="47.04423" lon="2.23813">
        <ele>125</ele>
        <time>2021-08-30T14:47:24Z</time>
      </trkpt>
      <trkpt lat="47.04417" lon="2.2381">
        <ele>125</ele>
        <time>2021-08-30T14:47:24Z</time>
      </trkpt>
      <trkpt lat="47.04412" lon="2.23807">
        <ele>125</ele>
        <time>2021-08-30T14:47:24Z</time>
      </trkpt>
      <trkpt lat="47.04406" lon="2.23804">
        <ele>125</ele>
        <time>2021-08-30T14:47:24Z</time>
      </trkpt>
      <trkpt lat="47.044" lon="2.23801">
        <ele>125</ele>
        <time>2021-08-30T14:47:24Z</time>
      </trkpt>
      <trkpt lat="47.04371" lon="2.23786">
        <ele>125</ele>
        <time>2021-08-30T14:47:24Z</time>
      </trkpt>
      <trkpt lat="47.04342" lon="2.23769">
        <ele>125</ele>
        <time>2021-08-30T14:47:24Z</time>
      </trkpt>
      <trkpt lat="47.04317" lon="2.23753">
        <ele>126</ele>
        <time>2021-08-30T14:47:24Z</time>
      </trkpt>
      <trkpt lat="47.04291" lon="2.23736">
        <ele>128</ele>
        <time>2021-08-30T14:47:24Z</time>
      </trkpt>
      <trkpt lat="47.04262" lon="2.23721">
        <ele>130</ele>
        <time>2021-08-30T14:47:24Z</time>
      </trkpt>
      <trkpt lat="47.0424" lon="2.23708">
        <ele>131</ele>
        <time>2021-08-30T14:47:24Z</time>
      </trkpt>
      <trkpt lat="47.04234" lon="2.23705">
        <ele>132</ele>
        <time>2021-08-30T14:47:24Z</time>
      </trkpt>
      <trkpt lat="47.04207" lon="2.2369">
        <ele>134</ele>
        <time>2021-08-30T14:47:24Z</time>
      </trkpt>
      <trkpt lat="47.0418" lon="2.23673">
        <ele>138</ele>
        <time>2021-08-30T14:47:24Z</time>
      </trkpt>
      <trkpt lat="47.04152" lon="2.23657">
        <ele>140</ele>
        <time>2021-08-30T14:47:24Z</time>
      </trkpt>
      <trkpt lat="47.04124" lon="2.23639">
        <ele>141</ele>
        <time>2021-08-30T14:47:24Z</time>
      </trkpt>
      <trkpt lat="47.04096" lon="2.23622">
        <ele>144</ele>
        <time>2021-08-30T14:47:24Z</time>
      </trkpt>
      <trkpt lat="47.04073" lon="2.23608">
        <ele>145</ele>
        <time>2021-08-30T14:47:24Z</time>
      </trkpt>
      <trkpt lat="47.04067" lon="2.23605">
        <ele>146</ele>
        <time>2021-08-30T14:47:24Z</time>
      </trkpt>
      <trkpt lat="47.04039" lon="2.23588">
        <ele>145</ele>
        <time>2021-08-30T14:47:24Z</time>
      </trkpt>
      <trkpt lat="47.04011" lon="2.23573">
        <ele>143</ele>
        <time>2021-08-30T14:47:24Z</time>
      </trkpt>
      <trkpt lat="47.03983" lon="2.23556">
        <ele>142</ele>
        <time>2021-08-30T14:47:24Z</time>
      </trkpt>
      <trkpt lat="47.03955" lon="2.23539">
        <ele>145</ele>
        <time>2021-08-30T14:47:24Z</time>
      </trkpt>
      <trkpt lat="47.03926" lon="2.23524">
        <ele>144</ele>
        <time>2021-08-30T14:47:24Z</time>
      </trkpt>
      <trkpt lat="47.03903" lon="2.23511">
        <ele>143</ele>
        <time>2021-08-30T14:47:24Z</time>
      </trkpt>
      <trkpt lat="47.03898" lon="2.23508">
        <ele>143</ele>
        <time>2021-08-30T14:47:24Z</time>
      </trkpt>
      <trkpt lat="47.03892" lon="2.23504">
        <ele>143</ele>
        <time>2021-08-30T14:47:24Z</time>
      </trkpt>
      <trkpt lat="47.03887" lon="2.23501">
        <ele>142</ele>
        <time>2021-08-30T14:47:24Z</time>
      </trkpt>
      <trkpt lat="47.0388" lon="2.23498">
        <ele>142</ele>
        <time>2021-08-30T14:47:24Z</time>
      </trkpt>
      <trkpt lat="47.03874" lon="2.23495">
        <ele>142</ele>
        <time>2021-08-30T14:47:24Z</time>
      </trkpt>
      <trkpt lat="47.03868" lon="2.23491">
        <ele>141</ele>
        <time>2021-08-30T14:47:24Z</time>
      </trkpt>
      <trkpt lat="47.03861" lon="2.23488">
        <ele>141</ele>
        <time>2021-08-30T14:47:24Z</time>
      </trkpt>
      <trkpt lat="47.03855" lon="2.23484">
        <ele>141</ele>
        <time>2021-08-30T14:47:24Z</time>
      </trkpt>
      <trkpt lat="47.03849" lon="2.23481">
        <ele>140</ele>
        <time>2021-08-30T14:47:24Z</time>
      </trkpt>
      <trkpt lat="47.03843" lon="2.23477">
        <ele>140</ele>
        <time>2021-08-30T14:47:24Z</time>
      </trkpt>
      <trkpt lat="47.03836" lon="2.23474">
        <ele>140</ele>
        <time>2021-08-30T14:47:24Z</time>
      </trkpt>
      <trkpt lat="47.0383" lon="2.2347">
        <ele>139</ele>
        <time>2021-08-30T14:47:24Z</time>
      </trkpt>
      <trkpt lat="47.03823" lon="2.23466">
        <ele>139</ele>
        <time>2021-08-30T14:47:24Z</time>
      </trkpt>
      <trkpt lat="47.03816" lon="2.23463">
        <ele>138</ele>
        <time>2021-08-30T14:47:24Z</time>
      </trkpt>
      <trkpt lat="47.03809" lon="2.23458">
        <ele>138</ele>
        <time>2021-08-30T14:47:24Z</time>
      </trkpt>
      <trkpt lat="47.03802" lon="2.23454">
        <ele>138</ele>
        <time>2021-08-30T14:47:24Z</time>
      </trkpt>
      <trkpt lat="47.03795" lon="2.2345">
        <ele>138</ele>
        <time>2021-08-30T14:47:24Z</time>
      </trkpt>
      <trkpt lat="47.03789" lon="2.23447">
        <ele>138</ele>
        <time>2021-08-30T14:47:24Z</time>
      </trkpt>
      <trkpt lat="47.03782" lon="2.23443">
        <ele>138</ele>
        <time>2021-08-30T14:47:24Z</time>
      </trkpt>
      <trkpt lat="47.03776" lon="2.23439">
        <ele>138</ele>
        <time>2021-08-30T14:47:24Z</time>
      </trkpt>
      <trkpt lat="47.03769" lon="2.23436">
        <ele>138</ele>
        <time>2021-08-30T14:47:24Z</time>
      </trkpt>
      <trkpt lat="47.03762" lon="2.23432">
        <ele>138</ele>
        <time>2021-08-30T14:47:24Z</time>
      </trkpt>
      <trkpt lat="47.03755" lon="2.23429">
        <ele>138</ele>
        <time>2021-08-30T14:47:24Z</time>
      </trkpt>
      <trkpt lat="47.03749" lon="2.23425">
        <ele>139</ele>
        <time>2021-08-30T14:47:24Z</time>
      </trkpt>
      <trkpt lat="47.03742" lon="2.23421">
        <ele>139</ele>
        <time>2021-08-30T14:47:24Z</time>
      </trkpt>
      <trkpt lat="47.03736" lon="2.23417">
        <ele>139</ele>
        <time>2021-08-30T14:47:24Z</time>
      </trkpt>
      <trkpt lat="47.03729" lon="2.23413">
        <ele>139</ele>
        <time>2021-08-30T14:47:24Z</time>
      </trkpt>
      <trkpt lat="47.03723" lon="2.23408">
        <ele>139</ele>
        <time>2021-08-30T14:47:24Z</time>
      </trkpt>
      <trkpt lat="47.03717" lon="2.23404">
        <ele>138</ele>
        <time>2021-08-30T14:47:24Z</time>
      </trkpt>
      <trkpt lat="47.0371" lon="2.234">
        <ele>138</ele>
        <time>2021-08-30T14:47:24Z</time>
      </trkpt>
      <trkpt lat="47.03703" lon="2.23397">
        <ele>138</ele>
        <time>2021-08-30T14:47:24Z</time>
      </trkpt>
      <trkpt lat="47.03697" lon="2.23393">
        <ele>138</ele>
        <time>2021-08-30T14:47:24Z</time>
      </trkpt>
      <trkpt lat="47.03691" lon="2.2339">
        <ele>138</ele>
        <time>2021-08-30T14:47:24Z</time>
      </trkpt>
      <trkpt lat="47.03684" lon="2.23386">
        <ele>138</ele>
        <time>2021-08-30T14:47:24Z</time>
      </trkpt>
      <trkpt lat="47.03678" lon="2.23382">
        <ele>138</ele>
        <time>2021-08-30T14:47:24Z</time>
      </trkpt>
      <trkpt lat="47.03671" lon="2.23379">
        <ele>138</ele>
        <time>2021-08-30T14:47:24Z</time>
      </trkpt>
      <trkpt lat="47.03665" lon="2.23375">
        <ele>138</ele>
        <time>2021-08-30T14:47:24Z</time>
      </trkpt>
      <trkpt lat="47.03658" lon="2.23371">
        <ele>138</ele>
        <time>2021-08-30T14:47:24Z</time>
      </trkpt>
      <trkpt lat="47.03652" lon="2.23367">
        <ele>138</ele>
        <time>2021-08-30T14:47:24Z</time>
      </trkpt>
      <trkpt lat="47.03646" lon="2.23364">
        <ele>138</ele>
        <time>2021-08-30T14:47:24Z</time>
      </trkpt>
      <trkpt lat="47.0364" lon="2.2336">
        <ele>138</ele>
        <time>2021-08-30T14:47:24Z</time>
      </trkpt>
      <trkpt lat="47.03634" lon="2.23357">
        <ele>139</ele>
        <time>2021-08-30T14:47:24Z</time>
      </trkpt>
      <trkpt lat="47.03628" lon="2.23353">
        <ele>139</ele>
        <time>2021-08-30T14:47:24Z</time>
      </trkpt>
      <trkpt lat="47.03623" lon="2.2335">
        <ele>139</ele>
        <time>2021-08-30T14:47:24Z</time>
      </trkpt>
      <trkpt lat="47.03617" lon="2.23346">
        <ele>139</ele>
        <time>2021-08-30T14:47:24Z</time>
      </trkpt>
      <trkpt lat="47.03611" lon="2.23343">
        <ele>139</ele>
        <time>2021-08-30T14:47:24Z</time>
      </trkpt>
      <trkpt lat="47.03606" lon="2.2334">
        <ele>139</ele>
        <time>2021-08-30T14:47:24Z</time>
      </trkpt>
      <trkpt lat="47.036" lon="2.23336">
        <ele>140</ele>
        <time>2021-08-30T14:47:24Z</time>
      </trkpt>
      <trkpt lat="47.03594" lon="2.23333">
        <ele>140</ele>
        <time>2021-08-30T14:47:24Z</time>
      </trkpt>
      <trkpt lat="47.03589" lon="2.2333">
        <ele>140</ele>
        <time>2021-08-30T14:47:24Z</time>
      </trkpt>
      <trkpt lat="47.03583" lon="2.23327">
        <ele>141</ele>
        <time>2021-08-30T14:47:24Z</time>
      </trkpt>
      <trkpt lat="47.03577" lon="2.23323">
        <ele>141</ele>
        <time>2021-08-30T14:47:24Z</time>
      </trkpt>
      <trkpt lat="47.03572" lon="2.2332">
        <ele>141</ele>
        <time>2021-08-30T14:47:24Z</time>
      </trkpt>
      <trkpt lat="47.03566" lon="2.23316">
        <ele>142</ele>
        <time>2021-08-30T14:47:24Z</time>
      </trkpt>
      <trkpt lat="47.0356" lon="2.23311">
        <ele>142</ele>
        <time>2021-08-30T14:47:24Z</time>
      </trkpt>
      <trkpt lat="47.03554" lon="2.23309">
        <ele>142</ele>
        <time>2021-08-30T14:47:24Z</time>
      </trkpt>
      <trkpt lat="47.03549" lon="2.23306">
        <ele>143</ele>
        <time>2021-08-30T14:47:24Z</time>
      </trkpt>
      <trkpt lat="47.03543" lon="2.23304">
        <ele>143</ele>
        <time>2021-08-30T14:47:24Z</time>
      </trkpt>
      <trkpt lat="47.03538" lon="2.23301">
        <ele>143</ele>
        <time>2021-08-30T14:47:24Z</time>
      </trkpt>
      <trkpt lat="47.03532" lon="2.23298">
        <ele>144</ele>
        <time>2021-08-30T14:47:24Z</time>
      </trkpt>
      <trkpt lat="47.03527" lon="2.23294">
        <ele>144</ele>
        <time>2021-08-30T14:47:24Z</time>
      </trkpt>
      <trkpt lat="47.03522" lon="2.23291">
        <ele>144</ele>
        <time>2021-08-30T14:47:24Z</time>
      </trkpt>
      <trkpt lat="47.03495" lon="2.23275">
        <ele>146</ele>
        <time>2021-08-30T14:47:24Z</time>
      </trkpt>
      <trkpt lat="47.03466" lon="2.2326">
        <ele>146</ele>
        <time>2021-08-30T14:47:24Z</time>
      </trkpt>
      <trkpt lat="47.03438" lon="2.23244">
        <ele>146</ele>
        <time>2021-08-30T14:47:24Z</time>
      </trkpt>
      <trkpt lat="47.03411" lon="2.23228">
        <ele>146</ele>
        <time>2021-08-30T14:47:24Z</time>
      </trkpt>
      <trkpt lat="47.03383" lon="2.23213">
        <ele>147</ele>
        <time>2021-08-30T14:47:24Z</time>
      </trkpt>
      <trkpt lat="47.03361" lon="2.23199">
        <ele>148</ele>
        <time>2021-08-30T14:47:24Z</time>
      </trkpt>
      <trkpt lat="47.03357" lon="2.23196">
        <ele>149</ele>
        <time>2021-08-30T14:47:24Z</time>
      </trkpt>
      <trkpt lat="47.03329" lon="2.23182">
        <ele>149</ele>
        <time>2021-08-30T14:47:24Z</time>
      </trkpt>
      <trkpt lat="47.03302" lon="2.23167">
        <ele>149</ele>
        <time>2021-08-30T14:47:24Z</time>
      </trkpt>
      <trkpt lat="47.03274" lon="2.23149">
        <ele>149</ele>
        <time>2021-08-30T14:47:24Z</time>
      </trkpt>
      <trkpt lat="47.03249" lon="2.23132">
        <ele>148</ele>
        <time>2021-08-30T14:47:24Z</time>
      </trkpt>
      <trkpt lat="47.03227" lon="2.23124">
        <ele>148</ele>
        <time>2021-08-30T14:47:24Z</time>
      </trkpt>
      <trkpt lat="47.03222" lon="2.23151">
        <ele>149</ele>
        <time>2021-08-30T14:47:24Z</time>
      </trkpt>
      <trkpt lat="47.03223" lon="2.23159">
        <ele>149</ele>
        <time>2021-08-30T14:47:24Z</time>
      </trkpt>
      <trkpt lat="47.03226" lon="2.23198">
        <ele>149</ele>
        <time>2021-08-30T14:47:24Z</time>
      </trkpt>
      <trkpt lat="47.03228" lon="2.23241">
        <ele>149</ele>
        <time>2021-08-30T14:47:24Z</time>
      </trkpt>
      <trkpt lat="47.03229" lon="2.23287">
        <ele>150</ele>
        <time>2021-08-30T14:47:24Z</time>
      </trkpt>
      <trkpt lat="47.03231" lon="2.23333">
        <ele>150</ele>
        <time>2021-08-30T14:47:24Z</time>
      </trkpt>
      <trkpt lat="47.03233" lon="2.2338">
        <ele>150</ele>
        <time>2021-08-30T14:47:24Z</time>
      </trkpt>
      <trkpt lat="47.03235" lon="2.23415">
        <ele>152</ele>
        <time>2021-08-30T14:47:24Z</time>
      </trkpt>
      <trkpt lat="47.03235" lon="2.23424">
        <ele>152</ele>
        <time>2021-08-30T14:47:24Z</time>
      </trkpt>
      <trkpt lat="47.03236" lon="2.23433">
        <ele>152</ele>
        <time>2021-08-30T14:47:24Z</time>
      </trkpt>
      <trkpt lat="47.03236" lon="2.23443">
        <ele>152</ele>
        <time>2021-08-30T14:47:24Z</time>
      </trkpt>
      <trkpt lat="47.03237" lon="2.23452">
        <ele>152</ele>
        <time>2021-08-30T14:47:24Z</time>
      </trkpt>
      <trkpt lat="47.03237" lon="2.23461">
        <ele>151</ele>
        <time>2021-08-30T14:47:24Z</time>
      </trkpt>
      <trkpt lat="47.03237" lon="2.23471">
        <ele>151</ele>
        <time>2021-08-30T14:47:24Z</time>
      </trkpt>
      <trkpt lat="47.03238" lon="2.2348">
        <ele>151</ele>
        <time>2021-08-30T14:47:24Z</time>
      </trkpt>
      <trkpt lat="47.03238" lon="2.23489">
        <ele>151</ele>
        <time>2021-08-30T14:47:24Z</time>
      </trkpt>
      <trkpt lat="47.03238" lon="2.23498">
        <ele>151</ele>
        <time>2021-08-30T14:47:24Z</time>
      </trkpt>
      <trkpt lat="47.03238" lon="2.23506">
        <ele>151</ele>
        <time>2021-08-30T14:47:24Z</time>
      </trkpt>
      <trkpt lat="47.03239" lon="2.23516">
        <ele>151</ele>
        <time>2021-08-30T14:47:24Z</time>
      </trkpt>
      <trkpt lat="47.03239" lon="2.23525">
        <ele>151</ele>
        <time>2021-08-30T14:47:24Z</time>
      </trkpt>
      <trkpt lat="47.0324" lon="2.23534">
        <ele>151</ele>
        <time>2021-08-30T14:47:24Z</time>
      </trkpt>
      <trkpt lat="47.0324" lon="2.23543">
        <ele>151</ele>
        <time>2021-08-30T14:47:24Z</time>
      </trkpt>
      <trkpt lat="47.03241" lon="2.23552">
        <ele>151</ele>
        <time>2021-08-30T14:47:24Z</time>
      </trkpt>
      <trkpt lat="47.03241" lon="2.23561">
        <ele>151</ele>
        <time>2021-08-30T14:47:24Z</time>
      </trkpt>
      <trkpt lat="47.03242" lon="2.2357">
        <ele>151</ele>
        <time>2021-08-30T14:47:24Z</time>
      </trkpt>
      <trkpt lat="47.03243" lon="2.2358">
        <ele>151</ele>
        <time>2021-08-30T14:47:24Z</time>
      </trkpt>
      <trkpt lat="47.03245" lon="2.23589">
        <ele>151</ele>
        <time>2021-08-30T14:47:24Z</time>
      </trkpt>
      <trkpt lat="47.03246" lon="2.23598">
        <ele>151</ele>
        <time>2021-08-30T14:47:24Z</time>
      </trkpt>
      <trkpt lat="47.03247" lon="2.23607">
        <ele>151</ele>
        <time>2021-08-30T14:47:24Z</time>
      </trkpt>
      <trkpt lat="47.0325" lon="2.23615">
        <ele>152</ele>
        <time>2021-08-30T14:47:24Z</time>
      </trkpt>
      <trkpt lat="47.03252" lon="2.23624">
        <ele>151</ele>
        <time>2021-08-30T14:47:24Z</time>
      </trkpt>
      <trkpt lat="47.03255" lon="2.23632">
        <ele>151</ele>
        <time>2021-08-30T14:47:24Z</time>
      </trkpt>
      <trkpt lat="47.03257" lon="2.23641">
        <ele>152</ele>
        <time>2021-08-30T14:47:24Z</time>
      </trkpt>
      <trkpt lat="47.0326" lon="2.2365">
        <ele>152</ele>
        <time>2021-08-30T14:47:24Z</time>
      </trkpt>
      <trkpt lat="47.03263" lon="2.23658">
        <ele>152</ele>
        <time>2021-08-30T14:47:24Z</time>
      </trkpt>
      <trkpt lat="47.03265" lon="2.23667">
        <ele>152</ele>
        <time>2021-08-30T14:47:24Z</time>
      </trkpt>
      <trkpt lat="47.03268" lon="2.23676">
        <ele>152</ele>
        <time>2021-08-30T14:47:24Z</time>
      </trkpt>
      <trkpt lat="47.0327" lon="2.23685">
        <ele>151</ele>
        <time>2021-08-30T14:47:24Z</time>
      </trkpt>
      <trkpt lat="47.03273" lon="2.23693">
        <ele>151</ele>
        <time>2021-08-30T14:47:24Z</time>
      </trkpt>
      <trkpt lat="47.03276" lon="2.23702">
        <ele>150</ele>
        <time>2021-08-30T14:47:24Z</time>
      </trkpt>
      <trkpt lat="47.03278" lon="2.23711">
        <ele>150</ele>
        <time>2021-08-30T14:47:24Z</time>
      </trkpt>
      <trkpt lat="47.03281" lon="2.2372">
        <ele>149</ele>
        <time>2021-08-30T14:47:24Z</time>
      </trkpt>
      <trkpt lat="47.03284" lon="2.23728">
        <ele>149</ele>
        <time>2021-08-30T14:47:24Z</time>
      </trkpt>
      <trkpt lat="47.03286" lon="2.23737">
        <ele>148</ele>
        <time>2021-08-30T14:47:24Z</time>
      </trkpt>
      <trkpt lat="47.03289" lon="2.23747">
        <ele>147</ele>
        <time>2021-08-30T14:47:24Z</time>
      </trkpt>
      <trkpt lat="47.03292" lon="2.23755">
        <ele>147</ele>
        <time>2021-08-30T14:47:24Z</time>
      </trkpt>
      <trkpt lat="47.03294" lon="2.23765">
        <ele>147</ele>
        <time>2021-08-30T14:47:24Z</time>
      </trkpt>
      <trkpt lat="47.03297" lon="2.23774">
        <ele>146</ele>
        <time>2021-08-30T14:47:24Z</time>
      </trkpt>
      <trkpt lat="47.033" lon="2.23782">
        <ele>146</ele>
        <time>2021-08-30T14:47:24Z</time>
      </trkpt>
      <trkpt lat="47.03302" lon="2.23791">
        <ele>146</ele>
        <time>2021-08-30T14:47:24Z</time>
      </trkpt>
      <trkpt lat="47.03305" lon="2.238">
        <ele>146</ele>
        <time>2021-08-30T14:47:24Z</time>
      </trkpt>
      <trkpt lat="47.03308" lon="2.23808">
        <ele>145</ele>
        <time>2021-08-30T14:47:24Z</time>
      </trkpt>
      <trkpt lat="47.03311" lon="2.23817">
        <ele>145</ele>
        <time>2021-08-30T14:47:24Z</time>
      </trkpt>
      <trkpt lat="47.03314" lon="2.23827">
        <ele>145</ele>
        <time>2021-08-30T14:47:24Z</time>
      </trkpt>
      <trkpt lat="47.03316" lon="2.23836">
        <ele>145</ele>
        <time>2021-08-30T14:47:24Z</time>
      </trkpt>
      <trkpt lat="47.03319" lon="2.23845">
        <ele>145</ele>
        <time>2021-08-30T14:47:24Z</time>
      </trkpt>
      <trkpt lat="47.03321" lon="2.23855">
        <ele>145</ele>
        <time>2021-08-30T14:47:24Z</time>
      </trkpt>
      <trkpt lat="47.03324" lon="2.23864">
        <ele>145</ele>
        <time>2021-08-30T14:47:24Z</time>
      </trkpt>
      <trkpt lat="47.03326" lon="2.23873">
        <ele>145</ele>
        <time>2021-08-30T14:47:24Z</time>
      </trkpt>
      <trkpt lat="47.03329" lon="2.23881">
        <ele>145</ele>
        <time>2021-08-30T14:47:24Z</time>
      </trkpt>
      <trkpt lat="47.03332" lon="2.2389">
        <ele>145</ele>
        <time>2021-08-30T14:47:24Z</time>
      </trkpt>
      <trkpt lat="47.03334" lon="2.239">
        <ele>144</ele>
        <time>2021-08-30T14:47:24Z</time>
      </trkpt>
      <trkpt lat="47.03337" lon="2.23908">
        <ele>144</ele>
        <time>2021-08-30T14:47:24Z</time>
      </trkpt>
      <trkpt lat="47.0334" lon="2.23917">
        <ele>144</ele>
        <time>2021-08-30T14:47:24Z</time>
      </trkpt>
      <trkpt lat="47.03343" lon="2.23926">
        <ele>144</ele>
        <time>2021-08-30T14:47:24Z</time>
      </trkpt>
      <trkpt lat="47.03346" lon="2.23935">
        <ele>144</ele>
        <time>2021-08-30T14:47:24Z</time>
      </trkpt>
      <trkpt lat="47.03348" lon="2.23944">
        <ele>144</ele>
        <time>2021-08-30T14:47:24Z</time>
      </trkpt>
      <trkpt lat="47.03351" lon="2.23953">
        <ele>144</ele>
        <time>2021-08-30T14:47:24Z</time>
      </trkpt>
      <trkpt lat="47.03354" lon="2.23962">
        <ele>144</ele>
        <time>2021-08-30T14:47:24Z</time>
      </trkpt>
      <trkpt lat="47.03356" lon="2.23971">
        <ele>144</ele>
        <time>2021-08-30T14:47:24Z</time>
      </trkpt>
      <trkpt lat="47.03369" lon="2.24018">
        <ele>144</ele>
        <time>2021-08-30T14:47:24Z</time>
      </trkpt>
      <trkpt lat="47.03382" lon="2.24062">
        <ele>144</ele>
        <time>2021-08-30T14:47:24Z</time>
      </trkpt>
      <trkpt lat="47.03396" lon="2.24107">
        <ele>143</ele>
        <time>2021-08-30T14:47:24Z</time>
      </trkpt>
      <trkpt lat="47.03411" lon="2.24155">
        <ele>141</ele>
        <time>2021-08-30T14:47:24Z</time>
      </trkpt>
      <trkpt lat="47.03425" lon="2.24203">
        <ele>139</ele>
        <time>2021-08-30T14:47:24Z</time>
      </trkpt>
      <trkpt lat="47.03437" lon="2.24243">
        <ele>138</ele>
        <time>2021-08-30T14:47:24Z</time>
      </trkpt>
      <trkpt lat="47.0344" lon="2.24252">
        <ele>138</ele>
        <time>2021-08-30T14:47:24Z</time>
      </trkpt>
      <trkpt lat="47.03455" lon="2.24301">
        <ele>136</ele>
        <time>2021-08-30T14:47:24Z</time>
      </trkpt>
      <trkpt lat="47.03469" lon="2.2435">
        <ele>133</ele>
        <time>2021-08-30T14:47:24Z</time>
      </trkpt>
      <trkpt lat="47.03484" lon="2.24398">
        <ele>132</ele>
        <time>2021-08-30T14:47:24Z</time>
      </trkpt>
      <trkpt lat="47.03499" lon="2.24448">
        <ele>129</ele>
        <time>2021-08-30T14:47:24Z</time>
      </trkpt>
      <trkpt lat="47.03514" lon="2.24499">
        <ele>128</ele>
        <time>2021-08-30T14:47:24Z</time>
      </trkpt>
      <trkpt lat="47.03525" lon="2.24537">
        <ele>129</ele>
        <time>2021-08-30T14:47:24Z</time>
      </trkpt>
      <trkpt lat="47.03528" lon="2.24547">
        <ele>129</ele>
        <time>2021-08-30T14:47:24Z</time>
      </trkpt>
      <trkpt lat="47.03531" lon="2.24556">
        <ele>129</ele>
        <time>2021-08-30T14:47:24Z</time>
      </trkpt>
      <trkpt lat="47.03534" lon="2.24566">
        <ele>129</ele>
        <time>2021-08-30T14:47:24Z</time>
      </trkpt>
      <trkpt lat="47.03536" lon="2.24575">
        <ele>129</ele>
        <time>2021-08-30T14:47:24Z</time>
      </trkpt>
      <trkpt lat="47.03539" lon="2.24585">
        <ele>129</ele>
        <time>2021-08-30T14:47:24Z</time>
      </trkpt>
      <trkpt lat="47.03542" lon="2.24594">
        <ele>129</ele>
        <time>2021-08-30T14:47:24Z</time>
      </trkpt>
      <trkpt lat="47.03545" lon="2.24603">
        <ele>129</ele>
        <time>2021-08-30T14:47:24Z</time>
      </trkpt>
      <trkpt lat="47.03548" lon="2.24612">
        <ele>129</ele>
        <time>2021-08-30T14:47:24Z</time>
      </trkpt>
      <trkpt lat="47.03551" lon="2.24621">
        <ele>129</ele>
        <time>2021-08-30T14:47:24Z</time>
      </trkpt>
      <trkpt lat="47.03554" lon="2.2463">
        <ele>129</ele>
        <time>2021-08-30T14:47:24Z</time>
      </trkpt>
      <trkpt lat="47.03557" lon="2.24639">
        <ele>129</ele>
        <time>2021-08-30T14:47:24Z</time>
      </trkpt>
      <trkpt lat="47.03559" lon="2.24648">
        <ele>129</ele>
        <time>2021-08-30T14:47:24Z</time>
      </trkpt>
      <trkpt lat="47.03561" lon="2.24657">
        <ele>129</ele>
        <time>2021-08-30T14:47:24Z</time>
      </trkpt>
      <trkpt lat="47.03564" lon="2.24666">
        <ele>129</ele>
        <time>2021-08-30T14:47:24Z</time>
      </trkpt>
      <trkpt lat="47.03567" lon="2.24674">
        <ele>129</ele>
        <time>2021-08-30T14:47:24Z</time>
      </trkpt>
      <trkpt lat="47.03569" lon="2.24683">
        <ele>129</ele>
        <time>2021-08-30T14:47:24Z</time>
      </trkpt>
      <trkpt lat="47.03572" lon="2.24691">
        <ele>129</ele>
        <time>2021-08-30T14:47:24Z</time>
      </trkpt>
      <trkpt lat="47.03574" lon="2.24699">
        <ele>129</ele>
        <time>2021-08-30T14:47:24Z</time>
      </trkpt>
      <trkpt lat="47.03577" lon="2.24707">
        <ele>129</ele>
        <time>2021-08-30T14:47:24Z</time>
      </trkpt>
      <trkpt lat="47.03579" lon="2.24715">
        <ele>129</ele>
        <time>2021-08-30T14:47:24Z</time>
      </trkpt>
      <trkpt lat="47.03581" lon="2.24723">
        <ele>128</ele>
        <time>2021-08-30T14:47:24Z</time>
      </trkpt>
      <trkpt lat="47.03584" lon="2.24731">
        <ele>128</ele>
        <time>2021-08-30T14:47:24Z</time>
      </trkpt>
      <trkpt lat="47.03586" lon="2.24739">
        <ele>128</ele>
        <time>2021-08-30T14:47:24Z</time>
      </trkpt>
      <trkpt lat="47.03589" lon="2.24747">
        <ele>128</ele>
        <time>2021-08-30T14:47:24Z</time>
      </trkpt>
      <trkpt lat="47.03591" lon="2.24756">
        <ele>128</ele>
        <time>2021-08-30T14:47:24Z</time>
      </trkpt>
      <trkpt lat="47.03593" lon="2.24764">
        <ele>128</ele>
        <time>2021-08-30T14:47:24Z</time>
      </trkpt>
      <trkpt lat="47.03596" lon="2.24771">
        <ele>128</ele>
        <time>2021-08-30T14:47:24Z</time>
      </trkpt>
      <trkpt lat="47.03598" lon="2.24779">
        <ele>128</ele>
        <time>2021-08-30T14:47:24Z</time>
      </trkpt>
      <trkpt lat="47.036" lon="2.24787">
        <ele>128</ele>
        <time>2021-08-30T14:47:24Z</time>
      </trkpt>
      <trkpt lat="47.03602" lon="2.24794">
        <ele>128</ele>
        <time>2021-08-30T14:47:24Z</time>
      </trkpt>
      <trkpt lat="47.03604" lon="2.24801">
        <ele>128</ele>
        <time>2021-08-30T14:47:24Z</time>
      </trkpt>
      <trkpt lat="47.03606" lon="2.24809">
        <ele>129</ele>
        <time>2021-08-30T14:47:24Z</time>
      </trkpt>
      <trkpt lat="47.03609" lon="2.24816">
        <ele>129</ele>
        <time>2021-08-30T14:47:24Z</time>
      </trkpt>
      <trkpt lat="47.03611" lon="2.24823">
        <ele>129</ele>
        <time>2021-08-30T14:47:24Z</time>
      </trkpt>
      <trkpt lat="47.03613" lon="2.2483">
        <ele>129</ele>
        <time>2021-08-30T14:47:24Z</time>
      </trkpt>
      <trkpt lat="47.03615" lon="2.24838">
        <ele>130</ele>
        <time>2021-08-30T14:47:24Z</time>
      </trkpt>
      <trkpt lat="47.03618" lon="2.24845">
        <ele>130</ele>
        <time>2021-08-30T14:47:24Z</time>
      </trkpt>
      <trkpt lat="47.0362" lon="2.24853">
        <ele>130</ele>
        <time>2021-08-30T14:47:24Z</time>
      </trkpt>
      <trkpt lat="47.03623" lon="2.24861">
        <ele>130</ele>
        <time>2021-08-30T14:47:24Z</time>
      </trkpt>
      <trkpt lat="47.03625" lon="2.24869">
        <ele>131</ele>
        <time>2021-08-30T14:47:24Z</time>
      </trkpt>
      <trkpt lat="47.03627" lon="2.24877">
        <ele>131</ele>
        <time>2021-08-30T14:47:24Z</time>
      </trkpt>
      <trkpt lat="47.0363" lon="2.24885">
        <ele>131</ele>
        <time>2021-08-30T14:47:24Z</time>
      </trkpt>
      <trkpt lat="47.03632" lon="2.24893">
        <ele>131</ele>
        <time>2021-08-30T14:47:24Z</time>
      </trkpt>
      <trkpt lat="47.03634" lon="2.249">
        <ele>131</ele>
        <time>2021-08-30T14:47:24Z</time>
      </trkpt>
      <trkpt lat="47.03636" lon="2.24908">
        <ele>131</ele>
        <time>2021-08-30T14:47:24Z</time>
      </trkpt>
      <trkpt lat="47.0364" lon="2.24916">
        <ele>132</ele>
        <time>2021-08-30T14:47:24Z</time>
      </trkpt>
      <trkpt lat="47.03642" lon="2.24924">
        <ele>132</ele>
        <time>2021-08-30T14:47:24Z</time>
      </trkpt>
      <trkpt lat="47.03644" lon="2.24933">
        <ele>132</ele>
        <time>2021-08-30T14:47:24Z</time>
      </trkpt>
      <trkpt lat="47.03646" lon="2.24942">
        <ele>132</ele>
        <time>2021-08-30T14:47:24Z</time>
      </trkpt>
      <trkpt lat="47.03649" lon="2.2495">
        <ele>131</ele>
        <time>2021-08-30T14:47:24Z</time>
      </trkpt>
      <trkpt lat="47.03651" lon="2.24958">
        <ele>131</ele>
        <time>2021-08-30T14:47:24Z</time>
      </trkpt>
      <trkpt lat="47.03653" lon="2.24967">
        <ele>131</ele>
        <time>2021-08-30T14:47:24Z</time>
      </trkpt>
      <trkpt lat="47.03656" lon="2.24976">
        <ele>130</ele>
        <time>2021-08-30T14:47:24Z</time>
      </trkpt>
      <trkpt lat="47.03658" lon="2.24984">
        <ele>130</ele>
        <time>2021-08-30T14:47:24Z</time>
      </trkpt>
      <trkpt lat="47.03661" lon="2.24993">
        <ele>130</ele>
        <time>2021-08-30T14:47:24Z</time>
      </trkpt>
      <trkpt lat="47.03664" lon="2.25002">
        <ele>130</ele>
        <time>2021-08-30T14:47:24Z</time>
      </trkpt>
      <trkpt lat="47.03666" lon="2.25011">
        <ele>130</ele>
        <time>2021-08-30T14:47:24Z</time>
      </trkpt>
      <trkpt lat="47.03669" lon="2.2502">
        <ele>129</ele>
        <time>2021-08-30T14:47:24Z</time>
      </trkpt>
      <trkpt lat="47.03672" lon="2.25029">
        <ele>129</ele>
        <time>2021-08-30T14:47:24Z</time>
      </trkpt>
      <trkpt lat="47.03674" lon="2.25038">
        <ele>129</ele>
        <time>2021-08-30T14:47:24Z</time>
      </trkpt>
      <trkpt lat="47.03678" lon="2.25047">
        <ele>128</ele>
        <time>2021-08-30T14:47:24Z</time>
      </trkpt>
      <trkpt lat="47.0368" lon="2.25056">
        <ele>128</ele>
        <time>2021-08-30T14:47:24Z</time>
      </trkpt>
      <trkpt lat="47.03694" lon="2.25102">
        <ele>128</ele>
        <time>2021-08-30T14:47:24Z</time>
      </trkpt>
      <trkpt lat="47.03707" lon="2.25146">
        <ele>128</ele>
        <time>2021-08-30T14:47:24Z</time>
      </trkpt>
      <trkpt lat="47.0372" lon="2.25191">
        <ele>128</ele>
        <time>2021-08-30T14:47:24Z</time>
      </trkpt>
      <trkpt lat="47.03733" lon="2.25235">
        <ele>128</ele>
        <time>2021-08-30T14:47:24Z</time>
      </trkpt>
      <trkpt lat="47.03745" lon="2.25276">
        <ele>129</ele>
        <time>2021-08-30T14:47:24Z</time>
      </trkpt>
      <trkpt lat="47.03754" lon="2.25307">
        <ele>129</ele>
        <time>2021-08-30T14:47:24Z</time>
      </trkpt>
      <trkpt lat="47.03756" lon="2.25314">
        <ele>129</ele>
        <time>2021-08-30T14:47:24Z</time>
      </trkpt>
      <trkpt lat="47.03768" lon="2.25353">
        <ele>130</ele>
        <time>2021-08-30T14:47:24Z</time>
      </trkpt>
      <trkpt lat="47.0378" lon="2.25393">
        <ele>129</ele>
        <time>2021-08-30T14:47:24Z</time>
      </trkpt>
      <trkpt lat="47.03791" lon="2.25432">
        <ele>129</ele>
        <time>2021-08-30T14:47:24Z</time>
      </trkpt>
      <trkpt lat="47.03803" lon="2.25472">
        <ele>129</ele>
        <time>2021-08-30T14:47:24Z</time>
      </trkpt>
      <trkpt lat="47.03815" lon="2.25512">
        <ele>131</ele>
        <time>2021-08-30T14:47:24Z</time>
      </trkpt>
      <trkpt lat="47.03826" lon="2.25545">
        <ele>130</ele>
        <time>2021-08-30T14:47:24Z</time>
      </trkpt>
      <trkpt lat="47.03828" lon="2.25554">
        <ele>130</ele>
        <time>2021-08-30T14:47:24Z</time>
      </trkpt>
      <trkpt lat="47.03843" lon="2.25603">
        <ele>131</ele>
        <time>2021-08-30T14:47:24Z</time>
      </trkpt>
      <trkpt lat="47.03857" lon="2.25653">
        <ele>133</ele>
        <time>2021-08-30T14:47:24Z</time>
      </trkpt>
      <trkpt lat="47.03872" lon="2.25702">
        <ele>134</ele>
        <time>2021-08-30T14:47:24Z</time>
      </trkpt>
      <trkpt lat="47.03874" lon="2.2571">
        <ele>134</ele>
        <time>2021-08-30T14:47:24Z</time>
      </trkpt>
      <trkpt lat="47.03879" lon="2.25726">
        <ele>135</ele>
        <time>2021-08-30T14:47:24Z</time>
      </trkpt>
      <trkpt lat="47.03881" lon="2.25734">
        <ele>135</ele>
        <time>2021-08-30T14:47:24Z</time>
      </trkpt>
      <trkpt lat="47.03884" lon="2.25742">
        <ele>136</ele>
        <time>2021-08-30T14:47:24Z</time>
      </trkpt>
      <trkpt lat="47.03886" lon="2.2575">
        <ele>136</ele>
        <time>2021-08-30T14:47:24Z</time>
      </trkpt>
      <trkpt lat="47.03888" lon="2.25757">
        <ele>136</ele>
        <time>2021-08-30T14:47:24Z</time>
      </trkpt>
      <trkpt lat="47.03891" lon="2.25765">
        <ele>137</ele>
        <time>2021-08-30T14:47:24Z</time>
      </trkpt>
      <trkpt lat="47.03904" lon="2.25813">
        <ele>139</ele>
        <time>2021-08-30T14:47:24Z</time>
      </trkpt>
      <trkpt lat="47.03918" lon="2.2586">
        <ele>140</ele>
        <time>2021-08-30T14:47:24Z</time>
      </trkpt>
      <trkpt lat="47.03931" lon="2.25901">
        <ele>141</ele>
        <time>2021-08-30T14:47:24Z</time>
      </trkpt>
      <trkpt lat="47.03944" lon="2.25943">
        <ele>141</ele>
        <time>2021-08-30T14:47:24Z</time>
      </trkpt>
      <trkpt lat="47.03956" lon="2.25985">
        <ele>141</ele>
        <time>2021-08-30T14:47:24Z</time>
      </trkpt>
      <trkpt lat="47.03966" lon="2.26018">
        <ele>141</ele>
        <time>2021-08-30T14:47:24Z</time>
      </trkpt>
      <trkpt lat="47.03968" lon="2.26026">
        <ele>141</ele>
        <time>2021-08-30T14:47:24Z</time>
      </trkpt>
      <trkpt lat="47.03981" lon="2.26067">
        <ele>140</ele>
        <time>2021-08-30T14:47:24Z</time>
      </trkpt>
      <trkpt lat="47.03993" lon="2.26109">
        <ele>140</ele>
        <time>2021-08-30T14:47:24Z</time>
      </trkpt>
      <trkpt lat="47.04009" lon="2.26159">
        <ele>141</ele>
        <time>2021-08-30T14:47:24Z</time>
      </trkpt>
      <trkpt lat="47.04021" lon="2.26202">
        <ele>142</ele>
        <time>2021-08-30T14:47:24Z</time>
      </trkpt>
      <trkpt lat="47.04033" lon="2.26244">
        <ele>144</ele>
        <time>2021-08-30T14:47:24Z</time>
      </trkpt>
      <trkpt lat="47.04043" lon="2.26277">
        <ele>145</ele>
        <time>2021-08-30T14:47:24Z</time>
      </trkpt>
      <trkpt lat="47.04047" lon="2.26285">
        <ele>145</ele>
        <time>2021-08-30T14:47:24Z</time>
      </trkpt>
      <trkpt lat="47.04059" lon="2.26325">
        <ele>145</ele>
        <time>2021-08-30T14:47:24Z</time>
      </trkpt>
      <trkpt lat="47.04063" lon="2.26361">
        <ele>141</ele>
        <time>2021-08-30T14:47:24Z</time>
      </trkpt>
      <trkpt lat="47.04036" lon="2.26377">
        <ele>142</ele>
        <time>2021-08-30T14:47:24Z</time>
      </trkpt>
      <trkpt lat="47.04007" lon="2.26392">
        <ele>142</ele>
        <time>2021-08-30T14:47:24Z</time>
      </trkpt>
      <trkpt lat="47.0398" lon="2.26407">
        <ele>141</ele>
        <time>2021-08-30T14:47:24Z</time>
      </trkpt>
      <trkpt lat="47.03962" lon="2.26416">
        <ele>141</ele>
        <time>2021-08-30T14:47:24Z</time>
      </trkpt>
      <trkpt lat="47.0396" lon="2.26415">
        <ele>141</ele>
        <time>2021-08-30T14:47:24Z</time>
      </trkpt>
      <trkpt lat="47.03956" lon="2.26415">
        <ele>141</ele>
        <time>2021-08-30T14:47:24Z</time>
      </trkpt>
      <trkpt lat="47.03956" lon="2.26415">
        <ele>141</ele>
        <time>2021-08-30T14:47:24Z</time>
      </trkpt>
      <trkpt lat="47.03951" lon="2.26417">
        <ele>141</ele>
        <time>2021-08-30T14:47:24Z</time>
      </trkpt>
      <trkpt lat="47.03951" lon="2.26417">
        <ele>141</ele>
        <time>2021-08-30T14:47:24Z</time>
      </trkpt>
      <trkpt lat="47.03951" lon="2.26417">
        <ele>141</ele>
        <time>2021-08-30T14:47:24Z</time>
      </trkpt>
      <trkpt lat="47.03951" lon="2.26416">
        <ele>141</ele>
        <time>2021-08-30T14:47:24Z</time>
      </trkpt>
      <trkpt lat="47.03951" lon="2.26416">
        <ele>141</ele>
        <time>2021-08-30T14:47:24Z</time>
      </trkpt>
      <trkpt lat="47.03951" lon="2.26417">
        <ele>141</ele>
        <time>2021-08-30T14:47:24Z</time>
      </trkpt>
      <trkpt lat="47.03951" lon="2.26417">
        <ele>141</ele>
        <time>2021-08-30T14:47:24Z</time>
      </trkpt>
      <trkpt lat="47.03951" lon="2.26418">
        <ele>141</ele>
        <time>2021-08-30T14:47:24Z</time>
      </trkpt>
      <trkpt lat="47.0395" lon="2.26419">
        <ele>141</ele>
        <time>2021-08-30T14:47:24Z</time>
      </trkpt>
      <trkpt lat="47.03948" lon="2.2642">
        <ele>141</ele>
        <time>2021-08-30T14:47:24Z</time>
      </trkpt>
      <trkpt lat="47.03946" lon="2.26421">
        <ele>141</ele>
        <time>2021-08-30T14:47:24Z</time>
      </trkpt>
      <trkpt lat="47.03943" lon="2.26422">
        <ele>140</ele>
        <time>2021-08-30T14:47:24Z</time>
      </trkpt>
      <trkpt lat="47.0394" lon="2.26425">
        <ele>140</ele>
        <time>2021-08-30T14:47:24Z</time>
      </trkpt>
      <trkpt lat="47.03918" lon="2.26437">
        <ele>140</ele>
        <time>2021-08-30T14:47:24Z</time>
      </trkpt>
      <trkpt lat="47.03894" lon="2.2645">
        <ele>138</ele>
        <time>2021-08-30T14:47:24Z</time>
      </trkpt>
      <trkpt lat="47.03869" lon="2.26463">
        <ele>137</ele>
        <time>2021-08-30T14:47:24Z</time>
      </trkpt>
      <trkpt lat="47.0384" lon="2.26482">
        <ele>137</ele>
        <time>2021-08-30T14:47:24Z</time>
      </trkpt>
      <trkpt lat="47.03816" lon="2.26518">
        <ele>138</ele>
        <time>2021-08-30T14:47:24Z</time>
      </trkpt>
      <trkpt lat="47.03798" lon="2.26549">
        <ele>138</ele>
        <time>2021-08-30T14:47:24Z</time>
      </trkpt>
      <trkpt lat="47.03794" lon="2.26557">
        <ele>138</ele>
        <time>2021-08-30T14:47:24Z</time>
      </trkpt>
      <trkpt lat="47.03773" lon="2.26591">
        <ele>138</ele>
        <time>2021-08-30T14:47:24Z</time>
      </trkpt>
      <trkpt lat="47.0375" lon="2.26629">
        <ele>138</ele>
        <time>2021-08-30T14:47:24Z</time>
      </trkpt>
      <trkpt lat="47.03727" lon="2.26671">
        <ele>137</ele>
        <time>2021-08-30T14:47:24Z</time>
      </trkpt>
      <trkpt lat="47.03705" lon="2.26717">
        <ele>134</ele>
        <time>2021-08-30T14:47:24Z</time>
      </trkpt>
      <trkpt lat="47.03686" lon="2.26766">
        <ele>133</ele>
        <time>2021-08-30T14:47:24Z</time>
      </trkpt>
      <trkpt lat="47.0368" lon="2.26806">
        <ele>132</ele>
        <time>2021-08-30T14:47:24Z</time>
      </trkpt>
      <trkpt lat="47.03679" lon="2.26817">
        <ele>132</ele>
        <time>2021-08-30T14:47:24Z</time>
      </trkpt>
      <trkpt lat="47.03679" lon="2.26827">
        <ele>132</ele>
        <time>2021-08-30T14:47:24Z</time>
      </trkpt>
      <trkpt lat="47.03679" lon="2.26838">
        <ele>132</ele>
        <time>2021-08-30T14:47:24Z</time>
      </trkpt>
      <trkpt lat="47.0368" lon="2.26849">
        <ele>132</ele>
        <time>2021-08-30T14:47:24Z</time>
      </trkpt>
      <trkpt lat="47.03681" lon="2.2686">
        <ele>132</ele>
        <time>2021-08-30T14:47:24Z</time>
      </trkpt>
      <trkpt lat="47.03681" lon="2.26871">
        <ele>132</ele>
        <time>2021-08-30T14:47:24Z</time>
      </trkpt>
      <trkpt lat="47.03682" lon="2.26881">
        <ele>132</ele>
        <time>2021-08-30T14:47:24Z</time>
      </trkpt>
      <trkpt lat="47.03684" lon="2.26893">
        <ele>132</ele>
        <time>2021-08-30T14:47:24Z</time>
      </trkpt>
      <trkpt lat="47.03684" lon="2.26902">
        <ele>132</ele>
        <time>2021-08-30T14:47:24Z</time>
      </trkpt>
      <trkpt lat="47.03685" lon="2.26912">
        <ele>132</ele>
        <time>2021-08-30T14:47:24Z</time>
      </trkpt>
      <trkpt lat="47.03686" lon="2.2692">
        <ele>132</ele>
        <time>2021-08-30T14:47:24Z</time>
      </trkpt>
      <trkpt lat="47.03687" lon="2.26929">
        <ele>132</ele>
        <time>2021-08-30T14:47:24Z</time>
      </trkpt>
      <trkpt lat="47.03688" lon="2.26938">
        <ele>132</ele>
        <time>2021-08-30T14:47:24Z</time>
      </trkpt>
      <trkpt lat="47.03689" lon="2.26947">
        <ele>132</ele>
        <time>2021-08-30T14:47:24Z</time>
      </trkpt>
      <trkpt lat="47.03689" lon="2.26955">
        <ele>132</ele>
        <time>2021-08-30T14:47:24Z</time>
      </trkpt>
      <trkpt lat="47.0369" lon="2.26964">
        <ele>132</ele>
        <time>2021-08-30T14:47:24Z</time>
      </trkpt>
      <trkpt lat="47.03691" lon="2.26972">
        <ele>132</ele>
        <time>2021-08-30T14:47:24Z</time>
      </trkpt>
      <trkpt lat="47.03692" lon="2.2698">
        <ele>132</ele>
        <time>2021-08-30T14:47:24Z</time>
      </trkpt>
      <trkpt lat="47.03692" lon="2.26989">
        <ele>132</ele>
        <time>2021-08-30T14:47:24Z</time>
      </trkpt>
      <trkpt lat="47.03693" lon="2.26998">
        <ele>132</ele>
        <time>2021-08-30T14:47:24Z</time>
      </trkpt>
      <trkpt lat="47.03694" lon="2.27007">
        <ele>132</ele>
        <time>2021-08-30T14:47:24Z</time>
      </trkpt>
      <trkpt lat="47.03694" lon="2.27016">
        <ele>132</ele>
        <time>2021-08-30T14:47:24Z</time>
      </trkpt>
      <trkpt lat="47.03695" lon="2.27024">
        <ele>132</ele>
        <time>2021-08-30T14:47:24Z</time>
      </trkpt>
      <trkpt lat="47.03695" lon="2.27032">
        <ele>132</ele>
        <time>2021-08-30T14:47:24Z</time>
      </trkpt>
      <trkpt lat="47.03697" lon="2.2704">
        <ele>132</ele>
        <time>2021-08-30T14:47:24Z</time>
      </trkpt>
      <trkpt lat="47.03698" lon="2.27048">
        <ele>132</ele>
        <time>2021-08-30T14:47:24Z</time>
      </trkpt>
      <trkpt lat="47.03698" lon="2.27057">
        <ele>132</ele>
        <time>2021-08-30T14:47:24Z</time>
      </trkpt>
      <trkpt lat="47.03699" lon="2.27066">
        <ele>132</ele>
        <time>2021-08-30T14:47:24Z</time>
      </trkpt>
      <trkpt lat="47.037" lon="2.27075">
        <ele>132</ele>
        <time>2021-08-30T14:47:24Z</time>
      </trkpt>
      <trkpt lat="47.037" lon="2.27084">
        <ele>132</ele>
        <time>2021-08-30T14:47:24Z</time>
      </trkpt>
      <trkpt lat="47.03701" lon="2.27093">
        <ele>132</ele>
        <time>2021-08-30T14:47:24Z</time>
      </trkpt>
      <trkpt lat="47.03702" lon="2.27102">
        <ele>132</ele>
        <time>2021-08-30T14:47:24Z</time>
      </trkpt>
      <trkpt lat="47.03702" lon="2.2711">
        <ele>132</ele>
        <time>2021-08-30T14:47:24Z</time>
      </trkpt>
      <trkpt lat="47.03703" lon="2.2712">
        <ele>132</ele>
        <time>2021-08-30T14:47:24Z</time>
      </trkpt>
      <trkpt lat="47.03704" lon="2.27129">
        <ele>132</ele>
        <time>2021-08-30T14:47:24Z</time>
      </trkpt>
      <trkpt lat="47.03704" lon="2.27138">
        <ele>132</ele>
        <time>2021-08-30T14:47:24Z</time>
      </trkpt>
      <trkpt lat="47.03704" lon="2.27147">
        <ele>131</ele>
        <time>2021-08-30T14:47:24Z</time>
      </trkpt>
      <trkpt lat="47.03702" lon="2.27156">
        <ele>131</ele>
        <time>2021-08-30T14:47:24Z</time>
      </trkpt>
      <trkpt lat="47.03701" lon="2.27165">
        <ele>131</ele>
        <time>2021-08-30T14:47:24Z</time>
      </trkpt>
      <trkpt lat="47.037" lon="2.27174">
        <ele>131</ele>
        <time>2021-08-30T14:47:24Z</time>
      </trkpt>
      <trkpt lat="47.03699" lon="2.27183">
        <ele>131</ele>
        <time>2021-08-30T14:47:24Z</time>
      </trkpt>
      <trkpt lat="47.03697" lon="2.27192">
        <ele>131</ele>
        <time>2021-08-30T14:47:24Z</time>
      </trkpt>
      <trkpt lat="47.03695" lon="2.272">
        <ele>131</ele>
        <time>2021-08-30T14:47:24Z</time>
      </trkpt>
      <trkpt lat="47.03693" lon="2.27208">
        <ele>131</ele>
        <time>2021-08-30T14:47:24Z</time>
      </trkpt>
      <trkpt lat="47.03692" lon="2.27217">
        <ele>131</ele>
        <time>2021-08-30T14:47:24Z</time>
      </trkpt>
      <trkpt lat="47.0369" lon="2.27226">
        <ele>132</ele>
        <time>2021-08-30T14:47:24Z</time>
      </trkpt>
      <trkpt lat="47.03688" lon="2.27235">
        <ele>132</ele>
        <time>2021-08-30T14:47:24Z</time>
      </trkpt>
      <trkpt lat="47.03687" lon="2.27243">
        <ele>132</ele>
        <time>2021-08-30T14:47:24Z</time>
      </trkpt>
      <trkpt lat="47.03686" lon="2.27251">
        <ele>133</ele>
        <time>2021-08-30T14:47:24Z</time>
      </trkpt>
      <trkpt lat="47.03685" lon="2.2726">
        <ele>133</ele>
        <time>2021-08-30T14:47:24Z</time>
      </trkpt>
      <trkpt lat="47.03683" lon="2.27269">
        <ele>133</ele>
        <time>2021-08-30T14:47:24Z</time>
      </trkpt>
      <trkpt lat="47.03682" lon="2.27277">
        <ele>133</ele>
        <time>2021-08-30T14:47:24Z</time>
      </trkpt>
      <trkpt lat="47.0368" lon="2.27286">
        <ele>134</ele>
        <time>2021-08-30T14:47:24Z</time>
      </trkpt>
      <trkpt lat="47.03679" lon="2.27294">
        <ele>134</ele>
        <time>2021-08-30T14:47:24Z</time>
      </trkpt>
      <trkpt lat="47.03677" lon="2.27302">
        <ele>134</ele>
        <time>2021-08-30T14:47:24Z</time>
      </trkpt>
      <trkpt lat="47.03676" lon="2.2731">
        <ele>134</ele>
        <time>2021-08-30T14:47:24Z</time>
      </trkpt>
      <trkpt lat="47.03674" lon="2.27318">
        <ele>134</ele>
        <time>2021-08-30T14:47:24Z</time>
      </trkpt>
      <trkpt lat="47.03673" lon="2.27326">
        <ele>134</ele>
        <time>2021-08-30T14:47:24Z</time>
      </trkpt>
      <trkpt lat="47.0367" lon="2.27333">
        <ele>135</ele>
        <time>2021-08-30T14:47:24Z</time>
      </trkpt>
      <trkpt lat="47.03669" lon="2.2734">
        <ele>135</ele>
        <time>2021-08-30T14:47:24Z</time>
      </trkpt>
      <trkpt lat="47.03666" lon="2.27348">
        <ele>135</ele>
        <time>2021-08-30T14:47:24Z</time>
      </trkpt>
      <trkpt lat="47.03664" lon="2.27356">
        <ele>135</ele>
        <time>2021-08-30T14:47:24Z</time>
      </trkpt>
      <trkpt lat="47.03654" lon="2.27395">
        <ele>135</ele>
        <time>2021-08-30T14:47:24Z</time>
      </trkpt>
      <trkpt lat="47.03653" lon="2.27436">
        <ele>135</ele>
        <time>2021-08-30T14:47:24Z</time>
      </trkpt>
      <trkpt lat="47.03652" lon="2.27481">
        <ele>135</ele>
        <time>2021-08-30T14:47:24Z</time>
      </trkpt>
      <trkpt lat="47.03648" lon="2.27524">
        <ele>136</ele>
        <time>2021-08-30T14:47:24Z</time>
      </trkpt>
      <trkpt lat="47.03646" lon="2.27567">
        <ele>137</ele>
        <time>2021-08-30T14:47:24Z</time>
      </trkpt>
      <trkpt lat="47.03643" lon="2.27604">
        <ele>137</ele>
        <time>2021-08-30T14:47:24Z</time>
      </trkpt>
      <trkpt lat="47.03642" lon="2.27613">
        <ele>138</ele>
        <time>2021-08-30T14:47:24Z</time>
      </trkpt>
      <trkpt lat="47.03637" lon="2.27656">
        <ele>140</ele>
        <time>2021-08-30T14:47:24Z</time>
      </trkpt>
      <trkpt lat="47.03631" lon="2.27697">
        <ele>143</ele>
        <time>2021-08-30T14:47:24Z</time>
      </trkpt>
      <trkpt lat="47.03629" lon="2.27705">
        <ele>143</ele>
        <time>2021-08-30T14:47:24Z</time>
      </trkpt>
      <trkpt lat="47.03627" lon="2.27713">
        <ele>143</ele>
        <time>2021-08-30T14:47:24Z</time>
      </trkpt>
      <trkpt lat="47.03624" lon="2.2772">
        <ele>143</ele>
        <time>2021-08-30T14:47:24Z</time>
      </trkpt>
      <trkpt lat="47.03622" lon="2.27728">
        <ele>143</ele>
        <time>2021-08-30T14:47:24Z</time>
      </trkpt>
      <trkpt lat="47.03619" lon="2.27736">
        <ele>143</ele>
        <time>2021-08-30T14:47:24Z</time>
      </trkpt>
      <trkpt lat="47.03617" lon="2.27744">
        <ele>143</ele>
        <time>2021-08-30T14:47:24Z</time>
      </trkpt>
      <trkpt lat="47.03615" lon="2.27752">
        <ele>143</ele>
        <time>2021-08-30T14:47:24Z</time>
      </trkpt>
      <trkpt lat="47.03612" lon="2.2776">
        <ele>143</ele>
        <time>2021-08-30T14:47:24Z</time>
      </trkpt>
      <trkpt lat="47.03609" lon="2.27768">
        <ele>142</ele>
        <time>2021-08-30T14:47:24Z</time>
      </trkpt>
      <trkpt lat="47.03587" lon="2.27804">
        <ele>141</ele>
        <time>2021-08-30T14:47:24Z</time>
      </trkpt>
      <trkpt lat="47.0356" lon="2.27841">
        <ele>138</ele>
        <time>2021-08-30T14:47:24Z</time>
      </trkpt>
      <trkpt lat="47.03537" lon="2.2788">
        <ele>136</ele>
        <time>2021-08-30T14:47:24Z</time>
      </trkpt>
      <trkpt lat="47.03523" lon="2.279">
        <ele>136</ele>
        <time>2021-08-30T14:47:24Z</time>
      </trkpt>
      <trkpt lat="47.03517" lon="2.27906">
        <ele>136</ele>
        <time>2021-08-30T14:47:24Z</time>
      </trkpt>
      <trkpt lat="47.03511" lon="2.2791">
        <ele>136</ele>
        <time>2021-08-30T14:47:24Z</time>
      </trkpt>
      <trkpt lat="47.03505" lon="2.27915">
        <ele>136</ele>
        <time>2021-08-30T14:47:24Z</time>
      </trkpt>
      <trkpt lat="47.03499" lon="2.27919">
        <ele>136</ele>
        <time>2021-08-30T14:47:24Z</time>
      </trkpt>
      <trkpt lat="47.03493" lon="2.27924">
        <ele>136</ele>
        <time>2021-08-30T14:47:24Z</time>
      </trkpt>
      <trkpt lat="47.03488" lon="2.27929">
        <ele>136</ele>
        <time>2021-08-30T14:47:24Z</time>
      </trkpt>
      <trkpt lat="47.03483" lon="2.27934">
        <ele>136</ele>
        <time>2021-08-30T14:47:24Z</time>
      </trkpt>
      <trkpt lat="47.03457" lon="2.27961">
        <ele>136</ele>
        <time>2021-08-30T14:47:24Z</time>
      </trkpt>
      <trkpt lat="47.0343" lon="2.2799">
        <ele>137</ele>
        <time>2021-08-30T14:47:24Z</time>
      </trkpt>
      <trkpt lat="47.03397" lon="2.28011">
        <ele>136</ele>
        <time>2021-08-30T14:47:24Z</time>
      </trkpt>
      <trkpt lat="47.03362" lon="2.28016">
        <ele>134</ele>
        <time>2021-08-30T14:47:24Z</time>
      </trkpt>
      <trkpt lat="47.03327" lon="2.28015">
        <ele>133</ele>
        <time>2021-08-30T14:47:24Z</time>
      </trkpt>
      <trkpt lat="47.033" lon="2.28004">
        <ele>134</ele>
        <time>2021-08-30T14:47:24Z</time>
      </trkpt>
      <trkpt lat="47.03294" lon="2.28">
        <ele>134</ele>
        <time>2021-08-30T14:47:24Z</time>
      </trkpt>
      <trkpt lat="47.03264" lon="2.27992">
        <ele>137</ele>
        <time>2021-08-30T14:47:24Z</time>
      </trkpt>
      <trkpt lat="47.03236" lon="2.28017">
        <ele>137</ele>
        <time>2021-08-30T14:47:24Z</time>
      </trkpt>
      <trkpt lat="47.03209" lon="2.28004">
        <ele>139</ele>
        <time>2021-08-30T14:47:24Z</time>
      </trkpt>
      <trkpt lat="47.03195" lon="2.27978">
        <ele>140</ele>
        <time>2021-08-30T14:47:24Z</time>
      </trkpt>
      <trkpt lat="47.03175" lon="2.27949">
        <ele>140</ele>
        <time>2021-08-30T14:47:24Z</time>
      </trkpt>
      <trkpt lat="47.03154" lon="2.27932">
        <ele>141</ele>
        <time>2021-08-30T14:47:24Z</time>
      </trkpt>
      <trkpt lat="47.03148" lon="2.27928">
        <ele>142</ele>
        <time>2021-08-30T14:47:24Z</time>
      </trkpt>
      <trkpt lat="47.03118" lon="2.27916">
        <ele>143</ele>
        <time>2021-08-30T14:47:24Z</time>
      </trkpt>
      <trkpt lat="47.03091" lon="2.279">
        <ele>143</ele>
        <time>2021-08-30T14:47:24Z</time>
      </trkpt>
      <trkpt lat="47.03061" lon="2.27888">
        <ele>142</ele>
        <time>2021-08-30T14:47:24Z</time>
      </trkpt>
      <trkpt lat="47.03031" lon="2.27889">
        <ele>142</ele>
        <time>2021-08-30T14:47:24Z</time>
      </trkpt>
      <trkpt lat="47.03001" lon="2.279">
        <ele>144</ele>
        <time>2021-08-30T14:47:24Z</time>
      </trkpt>
      <trkpt lat="47.02978" lon="2.2791">
        <ele>145</ele>
        <time>2021-08-30T14:47:24Z</time>
      </trkpt>
      <trkpt lat="47.02973" lon="2.27911">
        <ele>145</ele>
        <time>2021-08-30T14:47:24Z</time>
      </trkpt>
      <trkpt lat="47.02945" lon="2.27921">
        <ele>145</ele>
        <time>2021-08-30T14:47:24Z</time>
      </trkpt>
      <trkpt lat="47.02916" lon="2.27934">
        <ele>145</ele>
        <time>2021-08-30T14:47:24Z</time>
      </trkpt>
      <trkpt lat="47.02891" lon="2.27963">
        <ele>145</ele>
        <time>2021-08-30T14:47:24Z</time>
      </trkpt>
      <trkpt lat="47.02874" lon="2.28004">
        <ele>144</ele>
        <time>2021-08-30T14:47:24Z</time>
      </trkpt>
      <trkpt lat="47.02857" lon="2.28046">
        <ele>144</ele>
        <time>2021-08-30T14:47:24Z</time>
      </trkpt>
      <trkpt lat="47.02844" lon="2.28079">
        <ele>144</ele>
        <time>2021-08-30T14:47:24Z</time>
      </trkpt>
      <trkpt lat="47.02842" lon="2.28087">
        <ele>145</ele>
        <time>2021-08-30T14:47:24Z</time>
      </trkpt>
      <trkpt lat="47.02826" lon="2.28129">
        <ele>145</ele>
        <time>2021-08-30T14:47:24Z</time>
      </trkpt>
      <trkpt lat="47.02815" lon="2.28171">
        <ele>145</ele>
        <time>2021-08-30T14:47:24Z</time>
      </trkpt>
      <trkpt lat="47.02812" lon="2.28217">
        <ele>145</ele>
        <time>2021-08-30T14:47:24Z</time>
      </trkpt>
      <trkpt lat="47.0281" lon="2.28268">
        <ele>143</ele>
        <time>2021-08-30T14:47:24Z</time>
      </trkpt>
      <trkpt lat="47.02818" lon="2.28318">
        <ele>142</ele>
        <time>2021-08-30T14:47:24Z</time>
      </trkpt>
      <trkpt lat="47.0283" lon="2.28355">
        <ele>142</ele>
        <time>2021-08-30T14:47:24Z</time>
      </trkpt>
      <trkpt lat="47.02833" lon="2.28365">
        <ele>142</ele>
        <time>2021-08-30T14:47:24Z</time>
      </trkpt>
      <trkpt lat="47.02839" lon="2.28383">
        <ele>141</ele>
        <time>2021-08-30T14:47:24Z</time>
      </trkpt>
      <trkpt lat="47.02841" lon="2.28393">
        <ele>141</ele>
        <time>2021-08-30T14:47:24Z</time>
      </trkpt>
      <trkpt lat="47.02842" lon="2.28403">
        <ele>141</ele>
        <time>2021-08-30T14:47:24Z</time>
      </trkpt>
      <trkpt lat="47.02841" lon="2.28413">
        <ele>141</ele>
        <time>2021-08-30T14:47:24Z</time>
      </trkpt>
      <trkpt lat="47.02838" lon="2.28424">
        <ele>141</ele>
        <time>2021-08-30T14:47:24Z</time>
      </trkpt>
      <trkpt lat="47.02835" lon="2.28433">
        <ele>141</ele>
        <time>2021-08-30T14:47:24Z</time>
      </trkpt>
      <trkpt lat="47.0283" lon="2.28441">
        <ele>141</ele>
        <time>2021-08-30T14:47:24Z</time>
      </trkpt>
      <trkpt lat="47.02825" lon="2.2845">
        <ele>141</ele>
        <time>2021-08-30T14:47:24Z</time>
      </trkpt>
      <trkpt lat="47.02821" lon="2.28458">
        <ele>141</ele>
        <time>2021-08-30T14:47:24Z</time>
      </trkpt>
      <trkpt lat="47.02817" lon="2.28466">
        <ele>141</ele>
        <time>2021-08-30T14:47:24Z</time>
      </trkpt>
      <trkpt lat="47.02813" lon="2.28474">
        <ele>141</ele>
        <time>2021-08-30T14:47:24Z</time>
      </trkpt>
      <trkpt lat="47.02809" lon="2.28481">
        <ele>141</ele>
        <time>2021-08-30T14:47:24Z</time>
      </trkpt>
      <trkpt lat="47.02805" lon="2.28488">
        <ele>142</ele>
        <time>2021-08-30T14:47:24Z</time>
      </trkpt>
      <trkpt lat="47.02801" lon="2.28495">
        <ele>142</ele>
        <time>2021-08-30T14:47:24Z</time>
      </trkpt>
      <trkpt lat="47.02797" lon="2.28501">
        <ele>142</ele>
        <time>2021-08-30T14:47:24Z</time>
      </trkpt>
      <trkpt lat="47.02793" lon="2.28509">
        <ele>142</ele>
        <time>2021-08-30T14:47:24Z</time>
      </trkpt>
      <trkpt lat="47.02789" lon="2.28515">
        <ele>142</ele>
        <time>2021-08-30T14:47:24Z</time>
      </trkpt>
      <trkpt lat="47.02785" lon="2.28522">
        <ele>142</ele>
        <time>2021-08-30T14:47:24Z</time>
      </trkpt>
      <trkpt lat="47.02782" lon="2.28531">
        <ele>142</ele>
        <time>2021-08-30T14:47:24Z</time>
      </trkpt>
      <trkpt lat="47.02778" lon="2.28538">
        <ele>142</ele>
        <time>2021-08-30T14:47:24Z</time>
      </trkpt>
      <trkpt lat="47.02775" lon="2.28545">
        <ele>143</ele>
        <time>2021-08-30T14:47:24Z</time>
      </trkpt>
      <trkpt lat="47.02771" lon="2.28553">
        <ele>143</ele>
        <time>2021-08-30T14:47:24Z</time>
      </trkpt>
      <trkpt lat="47.02768" lon="2.2856">
        <ele>143</ele>
        <time>2021-08-30T14:47:24Z</time>
      </trkpt>
      <trkpt lat="47.02765" lon="2.28567">
        <ele>143</ele>
        <time>2021-08-30T14:47:24Z</time>
      </trkpt>
      <trkpt lat="47.02761" lon="2.28575">
        <ele>143</ele>
        <time>2021-08-30T14:47:24Z</time>
      </trkpt>
      <trkpt lat="47.02757" lon="2.28583">
        <ele>143</ele>
        <time>2021-08-30T14:47:24Z</time>
      </trkpt>
      <trkpt lat="47.02754" lon="2.2859">
        <ele>143</ele>
        <time>2021-08-30T14:47:24Z</time>
      </trkpt>
      <trkpt lat="47.0275" lon="2.28596">
        <ele>143</ele>
        <time>2021-08-30T14:47:24Z</time>
      </trkpt>
      <trkpt lat="47.02747" lon="2.28603">
        <ele>143</ele>
        <time>2021-08-30T14:47:24Z</time>
      </trkpt>
      <trkpt lat="47.02743" lon="2.28609">
        <ele>143</ele>
        <time>2021-08-30T14:47:24Z</time>
      </trkpt>
      <trkpt lat="47.0274" lon="2.28616">
        <ele>143</ele>
        <time>2021-08-30T14:47:24Z</time>
      </trkpt>
      <trkpt lat="47.02737" lon="2.28624">
        <ele>143</ele>
        <time>2021-08-30T14:47:24Z</time>
      </trkpt>
      <trkpt lat="47.02733" lon="2.28631">
        <ele>143</ele>
        <time>2021-08-30T14:47:24Z</time>
      </trkpt>
      <trkpt lat="47.02729" lon="2.2864">
        <ele>143</ele>
        <time>2021-08-30T14:47:24Z</time>
      </trkpt>
      <trkpt lat="47.02725" lon="2.28648">
        <ele>143</ele>
        <time>2021-08-30T14:47:24Z</time>
      </trkpt>
      <trkpt lat="47.02721" lon="2.28656">
        <ele>143</ele>
        <time>2021-08-30T14:47:24Z</time>
      </trkpt>
      <trkpt lat="47.02717" lon="2.28663">
        <ele>143</ele>
        <time>2021-08-30T14:47:24Z</time>
      </trkpt>
      <trkpt lat="47.02712" lon="2.28671">
        <ele>143</ele>
        <time>2021-08-30T14:47:24Z</time>
      </trkpt>
      <trkpt lat="47.02708" lon="2.28679">
        <ele>143</ele>
        <time>2021-08-30T14:47:24Z</time>
      </trkpt>
      <trkpt lat="47.02704" lon="2.28687">
        <ele>143</ele>
        <time>2021-08-30T14:47:24Z</time>
      </trkpt>
      <trkpt lat="47.027" lon="2.28695">
        <ele>142</ele>
        <time>2021-08-30T14:47:24Z</time>
      </trkpt>
      <trkpt lat="47.02695" lon="2.28702">
        <ele>142</ele>
        <time>2021-08-30T14:47:24Z</time>
      </trkpt>
      <trkpt lat="47.02691" lon="2.2871">
        <ele>143</ele>
        <time>2021-08-30T14:47:24Z</time>
      </trkpt>
      <trkpt lat="47.02687" lon="2.28718">
        <ele>143</ele>
        <time>2021-08-30T14:47:24Z</time>
      </trkpt>
      <trkpt lat="47.02684" lon="2.28725">
        <ele>143</ele>
        <time>2021-08-30T14:47:24Z</time>
      </trkpt>
      <trkpt lat="47.0268" lon="2.28732">
        <ele>143</ele>
        <time>2021-08-30T14:47:24Z</time>
      </trkpt>
      <trkpt lat="47.02676" lon="2.28739">
        <ele>143</ele>
        <time>2021-08-30T14:47:24Z</time>
      </trkpt>
      <trkpt lat="47.02672" lon="2.28746">
        <ele>143</ele>
        <time>2021-08-30T14:47:24Z</time>
      </trkpt>
      <trkpt lat="47.02669" lon="2.28753">
        <ele>143</ele>
        <time>2021-08-30T14:47:24Z</time>
      </trkpt>
      <trkpt lat="47.02666" lon="2.2876">
        <ele>143</ele>
        <time>2021-08-30T14:47:24Z</time>
      </trkpt>
      <trkpt lat="47.02663" lon="2.28765">
        <ele>143</ele>
        <time>2021-08-30T14:47:24Z</time>
      </trkpt>
      <trkpt lat="47.0266" lon="2.28771">
        <ele>143</ele>
        <time>2021-08-30T14:47:24Z</time>
      </trkpt>
      <trkpt lat="47.02657" lon="2.28776">
        <ele>143</ele>
        <time>2021-08-30T14:47:24Z</time>
      </trkpt>
      <trkpt lat="47.02643" lon="2.28803">
        <ele>144</ele>
        <time>2021-08-30T14:47:24Z</time>
      </trkpt>
      <trkpt lat="47.02626" lon="2.28831">
        <ele>145</ele>
        <time>2021-08-30T14:47:24Z</time>
      </trkpt>
      <trkpt lat="47.02613" lon="2.28854">
        <ele>145</ele>
        <time>2021-08-30T14:47:24Z</time>
      </trkpt>
      <trkpt lat="47.02609" lon="2.2886">
        <ele>145</ele>
        <time>2021-08-30T14:47:24Z</time>
      </trkpt>
      <trkpt lat="47.02605" lon="2.28866">
        <ele>146</ele>
        <time>2021-08-30T14:47:24Z</time>
      </trkpt>
      <trkpt lat="47.02601" lon="2.28873">
        <ele>146</ele>
        <time>2021-08-30T14:47:24Z</time>
      </trkpt>
      <trkpt lat="47.02597" lon="2.28879">
        <ele>147</ele>
        <time>2021-08-30T14:47:24Z</time>
      </trkpt>
      <trkpt lat="47.02594" lon="2.28886">
        <ele>147</ele>
        <time>2021-08-30T14:47:24Z</time>
      </trkpt>
      <trkpt lat="47.0259" lon="2.28892">
        <ele>148</ele>
        <time>2021-08-30T14:47:24Z</time>
      </trkpt>
      <trkpt lat="47.02586" lon="2.28898">
        <ele>148</ele>
        <time>2021-08-30T14:47:24Z</time>
      </trkpt>
      <trkpt lat="47.02567" lon="2.2893">
        <ele>149</ele>
        <time>2021-08-30T14:47:24Z</time>
      </trkpt>
      <trkpt lat="47.02546" lon="2.28962">
        <ele>149</ele>
        <time>2021-08-30T14:47:24Z</time>
      </trkpt>
      <trkpt lat="47.02527" lon="2.28996">
        <ele>150</ele>
        <time>2021-08-30T14:47:24Z</time>
      </trkpt>
      <trkpt lat="47.02507" lon="2.29027">
        <ele>151</ele>
        <time>2021-08-30T14:47:24Z</time>
      </trkpt>
      <trkpt lat="47.02483" lon="2.29055">
        <ele>151</ele>
        <time>2021-08-30T14:47:24Z</time>
      </trkpt>
      <trkpt lat="47.02465" lon="2.29077">
        <ele>151</ele>
        <time>2021-08-30T14:47:24Z</time>
      </trkpt>
      <trkpt lat="47.02461" lon="2.29083">
        <ele>151</ele>
        <time>2021-08-30T14:47:24Z</time>
      </trkpt>
      <trkpt lat="47.02439" lon="2.29114">
        <ele>149</ele>
        <time>2021-08-30T14:47:24Z</time>
      </trkpt>
      <trkpt lat="47.02416" lon="2.29159">
        <ele>145</ele>
        <time>2021-08-30T14:47:24Z</time>
      </trkpt>
      <trkpt lat="47.0239" lon="2.29211">
        <ele>144</ele>
        <time>2021-08-30T14:47:24Z</time>
      </trkpt>
      <trkpt lat="47.02367" lon="2.29256">
        <ele>145</ele>
        <time>2021-08-30T14:47:24Z</time>
      </trkpt>
      <trkpt lat="47.02349" lon="2.29288">
        <ele>146</ele>
        <time>2021-08-30T14:47:24Z</time>
      </trkpt>
      <trkpt lat="47.02334" lon="2.29314">
        <ele>147</ele>
        <time>2021-08-30T14:47:24Z</time>
      </trkpt>
      <trkpt lat="47.02331" lon="2.29321">
        <ele>147</ele>
        <time>2021-08-30T14:47:24Z</time>
      </trkpt>
      <trkpt lat="47.02327" lon="2.29328">
        <ele>147</ele>
        <time>2021-08-30T14:47:24Z</time>
      </trkpt>
      <trkpt lat="47.02322" lon="2.29334">
        <ele>147</ele>
        <time>2021-08-30T14:47:24Z</time>
      </trkpt>
      <trkpt lat="47.02318" lon="2.29341">
        <ele>147</ele>
        <time>2021-08-30T14:47:24Z</time>
      </trkpt>
      <trkpt lat="47.02314" lon="2.29347">
        <ele>147</ele>
        <time>2021-08-30T14:47:24Z</time>
      </trkpt>
      <trkpt lat="47.0231" lon="2.29354">
        <ele>147</ele>
        <time>2021-08-30T14:47:24Z</time>
      </trkpt>
      <trkpt lat="47.02307" lon="2.29359">
        <ele>147</ele>
        <time>2021-08-30T14:47:24Z</time>
      </trkpt>
      <trkpt lat="47.02305" lon="2.29366">
        <ele>147</ele>
        <time>2021-08-30T14:47:24Z</time>
      </trkpt>
      <trkpt lat="47.02305" lon="2.29373">
        <ele>147</ele>
        <time>2021-08-30T14:47:24Z</time>
      </trkpt>
      <trkpt lat="47.02307" lon="2.2938">
        <ele>147</ele>
        <time>2021-08-30T14:47:24Z</time>
      </trkpt>
      <trkpt lat="47.02311" lon="2.29387">
        <ele>147</ele>
        <time>2021-08-30T14:47:24Z</time>
      </trkpt>
      <trkpt lat="47.02315" lon="2.29392">
        <ele>147</ele>
        <time>2021-08-30T14:47:24Z</time>
      </trkpt>
      <trkpt lat="47.02319" lon="2.29399">
        <ele>147</ele>
        <time>2021-08-30T14:47:24Z</time>
      </trkpt>
      <trkpt lat="47.02322" lon="2.29406">
        <ele>147</ele>
        <time>2021-08-30T14:47:24Z</time>
      </trkpt>
      <trkpt lat="47.02326" lon="2.29412">
        <ele>147</ele>
        <time>2021-08-30T14:47:24Z</time>
      </trkpt>
      <trkpt lat="47.0233" lon="2.29419">
        <ele>147</ele>
        <time>2021-08-30T14:47:24Z</time>
      </trkpt>
      <trkpt lat="47.02333" lon="2.29426">
        <ele>147</ele>
        <time>2021-08-30T14:47:24Z</time>
      </trkpt>
      <trkpt lat="47.02336" lon="2.29432">
        <ele>148</ele>
        <time>2021-08-30T14:47:24Z</time>
      </trkpt>
      <trkpt lat="47.02339" lon="2.29438">
        <ele>148</ele>
        <time>2021-08-30T14:47:24Z</time>
      </trkpt>
      <trkpt lat="47.02342" lon="2.29445">
        <ele>149</ele>
        <time>2021-08-30T14:47:24Z</time>
      </trkpt>
      <trkpt lat="47.02345" lon="2.29451">
        <ele>149</ele>
        <time>2021-08-30T14:47:24Z</time>
      </trkpt>
      <trkpt lat="47.02349" lon="2.29458">
        <ele>150</ele>
        <time>2021-08-30T14:47:24Z</time>
      </trkpt>
      <trkpt lat="47.02352" lon="2.29464">
        <ele>150</ele>
        <time>2021-08-30T14:47:24Z</time>
      </trkpt>
      <trkpt lat="47.02355" lon="2.29471">
        <ele>150</ele>
        <time>2021-08-30T14:47:24Z</time>
      </trkpt>
      <trkpt lat="47.02359" lon="2.29478">
        <ele>150</ele>
        <time>2021-08-30T14:47:24Z</time>
      </trkpt>
      <trkpt lat="47.02362" lon="2.29483">
        <ele>151</ele>
        <time>2021-08-30T14:47:24Z</time>
      </trkpt>
      <trkpt lat="47.02365" lon="2.2949">
        <ele>151</ele>
        <time>2021-08-30T14:47:24Z</time>
      </trkpt>
      <trkpt lat="47.02369" lon="2.29496">
        <ele>151</ele>
        <time>2021-08-30T14:47:24Z</time>
      </trkpt>
      <trkpt lat="47.02373" lon="2.29503">
        <ele>151</ele>
        <time>2021-08-30T14:47:24Z</time>
      </trkpt>
      <trkpt lat="47.02376" lon="2.2951">
        <ele>151</ele>
        <time>2021-08-30T14:47:24Z</time>
      </trkpt>
      <trkpt lat="47.0238" lon="2.29516">
        <ele>151</ele>
        <time>2021-08-30T14:47:24Z</time>
      </trkpt>
      <trkpt lat="47.02384" lon="2.29522">
        <ele>151</ele>
        <time>2021-08-30T14:47:24Z</time>
      </trkpt>
      <trkpt lat="47.02387" lon="2.29529">
        <ele>151</ele>
        <time>2021-08-30T14:47:24Z</time>
      </trkpt>
      <trkpt lat="47.02391" lon="2.29535">
        <ele>151</ele>
        <time>2021-08-30T14:47:24Z</time>
      </trkpt>
      <trkpt lat="47.02395" lon="2.29541">
        <ele>151</ele>
        <time>2021-08-30T14:47:24Z</time>
      </trkpt>
      <trkpt lat="47.024" lon="2.29547">
        <ele>152</ele>
        <time>2021-08-30T14:47:24Z</time>
      </trkpt>
      <trkpt lat="47.02404" lon="2.29554">
        <ele>152</ele>
        <time>2021-08-30T14:47:24Z</time>
      </trkpt>
      <trkpt lat="47.02408" lon="2.2956">
        <ele>152</ele>
        <time>2021-08-30T14:47:24Z</time>
      </trkpt>
      <trkpt lat="47.02412" lon="2.29567">
        <ele>152</ele>
        <time>2021-08-30T14:47:24Z</time>
      </trkpt>
      <trkpt lat="47.02416" lon="2.29572">
        <ele>152</ele>
        <time>2021-08-30T14:47:24Z</time>
      </trkpt>
      <trkpt lat="47.02421" lon="2.29579">
        <ele>152</ele>
        <time>2021-08-30T14:47:24Z</time>
      </trkpt>
      <trkpt lat="47.02425" lon="2.29585">
        <ele>152</ele>
        <time>2021-08-30T14:47:24Z</time>
      </trkpt>
      <trkpt lat="47.02429" lon="2.29591">
        <ele>152</ele>
        <time>2021-08-30T14:47:24Z</time>
      </trkpt>
      <trkpt lat="47.02434" lon="2.29597">
        <ele>152</ele>
        <time>2021-08-30T14:47:24Z</time>
      </trkpt>
      <trkpt lat="47.02438" lon="2.29603">
        <ele>152</ele>
        <time>2021-08-30T14:47:24Z</time>
      </trkpt>
      <trkpt lat="47.02442" lon="2.2961">
        <ele>152</ele>
        <time>2021-08-30T14:47:24Z</time>
      </trkpt>
      <trkpt lat="47.02446" lon="2.29616">
        <ele>152</ele>
        <time>2021-08-30T14:47:24Z</time>
      </trkpt>
      <trkpt lat="47.02451" lon="2.29623">
        <ele>152</ele>
        <time>2021-08-30T14:47:24Z</time>
      </trkpt>
      <trkpt lat="47.02455" lon="2.2963">
        <ele>152</ele>
        <time>2021-08-30T14:47:24Z</time>
      </trkpt>
      <trkpt lat="47.02459" lon="2.29637">
        <ele>151</ele>
        <time>2021-08-30T14:47:24Z</time>
      </trkpt>
      <trkpt lat="47.02464" lon="2.29644">
        <ele>151</ele>
        <time>2021-08-30T14:47:24Z</time>
      </trkpt>
      <trkpt lat="47.02468" lon="2.29651">
        <ele>150</ele>
        <time>2021-08-30T14:47:24Z</time>
      </trkpt>
      <trkpt lat="47.02472" lon="2.29658">
        <ele>149</ele>
        <time>2021-08-30T14:47:24Z</time>
      </trkpt>
      <trkpt lat="47.02476" lon="2.29665">
        <ele>149</ele>
        <time>2021-08-30T14:47:24Z</time>
      </trkpt>
      <trkpt lat="47.0248" lon="2.29671">
        <ele>149</ele>
        <time>2021-08-30T14:47:24Z</time>
      </trkpt>
      <trkpt lat="47.02484" lon="2.29679">
        <ele>149</ele>
        <time>2021-08-30T14:47:24Z</time>
      </trkpt>
      <trkpt lat="47.02488" lon="2.29686">
        <ele>149</ele>
        <time>2021-08-30T14:47:24Z</time>
      </trkpt>
      <trkpt lat="47.02492" lon="2.29694">
        <ele>148</ele>
        <time>2021-08-30T14:47:24Z</time>
      </trkpt>
      <trkpt lat="47.02496" lon="2.29701">
        <ele>148</ele>
        <time>2021-08-30T14:47:24Z</time>
      </trkpt>
      <trkpt lat="47.02499" lon="2.29708">
        <ele>148</ele>
        <time>2021-08-30T14:47:24Z</time>
      </trkpt>
      <trkpt lat="47.02503" lon="2.29715">
        <ele>148</ele>
        <time>2021-08-30T14:47:24Z</time>
      </trkpt>
      <trkpt lat="47.02507" lon="2.29721">
        <ele>148</ele>
        <time>2021-08-30T14:47:24Z</time>
      </trkpt>
      <trkpt lat="47.02511" lon="2.29728">
        <ele>148</ele>
        <time>2021-08-30T14:47:24Z</time>
      </trkpt>
      <trkpt lat="47.02515" lon="2.29736">
        <ele>148</ele>
        <time>2021-08-30T14:47:24Z</time>
      </trkpt>
      <trkpt lat="47.02519" lon="2.29743">
        <ele>148</ele>
        <time>2021-08-30T14:47:24Z</time>
      </trkpt>
      <trkpt lat="47.02522" lon="2.2975">
        <ele>148</ele>
        <time>2021-08-30T14:47:24Z</time>
      </trkpt>
      <trkpt lat="47.02526" lon="2.29758">
        <ele>149</ele>
        <time>2021-08-30T14:47:24Z</time>
      </trkpt>
      <trkpt lat="47.0253" lon="2.29765">
        <ele>149</ele>
        <time>2021-08-30T14:47:24Z</time>
      </trkpt>
      <trkpt lat="47.02533" lon="2.29772">
        <ele>150</ele>
        <time>2021-08-30T14:47:24Z</time>
      </trkpt>
      <trkpt lat="47.02549" lon="2.29801">
        <ele>153</ele>
        <time>2021-08-30T14:47:24Z</time>
      </trkpt>
      <trkpt lat="47.02553" lon="2.29808">
        <ele>153</ele>
        <time>2021-08-30T14:47:24Z</time>
      </trkpt>
      <trkpt lat="47.02557" lon="2.29815">
        <ele>154</ele>
        <time>2021-08-30T14:47:24Z</time>
      </trkpt>
      <trkpt lat="47.02561" lon="2.29822">
        <ele>154</ele>
        <time>2021-08-30T14:47:24Z</time>
      </trkpt>
      <trkpt lat="47.02565" lon="2.29829">
        <ele>154</ele>
        <time>2021-08-30T14:47:24Z</time>
      </trkpt>
      <trkpt lat="47.02568" lon="2.29836">
        <ele>154</ele>
        <time>2021-08-30T14:47:24Z</time>
      </trkpt>
      <trkpt lat="47.02572" lon="2.29843">
        <ele>153</ele>
        <time>2021-08-30T14:47:24Z</time>
      </trkpt>
      <trkpt lat="47.02576" lon="2.2985">
        <ele>153</ele>
        <time>2021-08-30T14:47:24Z</time>
      </trkpt>
      <trkpt lat="47.0258" lon="2.29858">
        <ele>153</ele>
        <time>2021-08-30T14:47:24Z</time>
      </trkpt>
      <trkpt lat="47.02599" lon="2.29895">
        <ele>153</ele>
        <time>2021-08-30T14:47:24Z</time>
      </trkpt>
      <trkpt lat="47.02618" lon="2.29931">
        <ele>152</ele>
        <time>2021-08-30T14:47:24Z</time>
      </trkpt>
      <trkpt lat="47.02638" lon="2.29968">
        <ele>151</ele>
        <time>2021-08-30T14:47:24Z</time>
      </trkpt>
      <trkpt lat="47.02657" lon="2.30004">
        <ele>152</ele>
        <time>2021-08-30T14:47:24Z</time>
      </trkpt>
      <trkpt lat="47.02677" lon="2.30041">
        <ele>151</ele>
        <time>2021-08-30T14:47:24Z</time>
      </trkpt>
      <trkpt lat="47.02692" lon="2.3007">
        <ele>152</ele>
        <time>2021-08-30T14:47:24Z</time>
      </trkpt>
      <trkpt lat="47.02695" lon="2.30078">
        <ele>152</ele>
        <time>2021-08-30T14:47:24Z</time>
      </trkpt>
      <trkpt lat="47.02714" lon="2.30114">
        <ele>152</ele>
        <time>2021-08-30T14:47:24Z</time>
      </trkpt>
      <trkpt lat="47.02734" lon="2.30149">
        <ele>153</ele>
        <time>2021-08-30T14:47:24Z</time>
      </trkpt>
      <trkpt lat="47.02753" lon="2.30186">
        <ele>155</ele>
        <time>2021-08-30T14:47:24Z</time>
      </trkpt>
      <trkpt lat="47.02772" lon="2.30224">
        <ele>157</ele>
        <time>2021-08-30T14:47:24Z</time>
      </trkpt>
      <trkpt lat="47.02791" lon="2.30261">
        <ele>157</ele>
        <time>2021-08-30T14:47:24Z</time>
      </trkpt>
      <trkpt lat="47.02806" lon="2.30289">
        <ele>156</ele>
        <time>2021-08-30T14:47:24Z</time>
      </trkpt>
      <trkpt lat="47.0281" lon="2.30296">
        <ele>156</ele>
        <time>2021-08-30T14:47:24Z</time>
      </trkpt>
      <trkpt lat="47.0283" lon="2.30332">
        <ele>157</ele>
        <time>2021-08-30T14:47:24Z</time>
      </trkpt>
      <trkpt lat="47.02849" lon="2.3037">
        <ele>158</ele>
        <time>2021-08-30T14:47:24Z</time>
      </trkpt>
      <trkpt lat="47.02868" lon="2.30407">
        <ele>159</ele>
        <time>2021-08-30T14:47:24Z</time>
      </trkpt>
      <trkpt lat="47.02887" lon="2.30442">
        <ele>159</ele>
        <time>2021-08-30T14:47:24Z</time>
      </trkpt>
      <trkpt lat="47.02906" lon="2.30478">
        <ele>160</ele>
        <time>2021-08-30T14:47:24Z</time>
      </trkpt>
      <trkpt lat="47.02922" lon="2.30507">
        <ele>160</ele>
        <time>2021-08-30T14:47:24Z</time>
      </trkpt>
      <trkpt lat="47.02925" lon="2.30514">
        <ele>160</ele>
        <time>2021-08-30T14:47:24Z</time>
      </trkpt>
      <trkpt lat="47.02937" lon="2.30536">
        <ele>160</ele>
        <time>2021-08-30T14:47:24Z</time>
      </trkpt>
      <trkpt lat="47.0294" lon="2.30543">
        <ele>160</ele>
        <time>2021-08-30T14:47:24Z</time>
      </trkpt>
      <trkpt lat="47.02944" lon="2.30551">
        <ele>160</ele>
        <time>2021-08-30T14:47:24Z</time>
      </trkpt>
      <trkpt lat="47.02948" lon="2.30558">
        <ele>160</ele>
        <time>2021-08-30T14:47:24Z</time>
      </trkpt>
      <trkpt lat="47.02952" lon="2.30565">
        <ele>160</ele>
        <time>2021-08-30T14:47:24Z</time>
      </trkpt>
      <trkpt lat="47.02956" lon="2.30572">
        <ele>160</ele>
        <time>2021-08-30T14:47:24Z</time>
      </trkpt>
      <trkpt lat="47.0296" lon="2.3058">
        <ele>160</ele>
        <time>2021-08-30T14:47:24Z</time>
      </trkpt>
      <trkpt lat="47.02964" lon="2.30587">
        <ele>160</ele>
        <time>2021-08-30T14:47:24Z</time>
      </trkpt>
      <trkpt lat="47.02967" lon="2.30594">
        <ele>161</ele>
        <time>2021-08-30T14:47:24Z</time>
      </trkpt>
      <trkpt lat="47.02971" lon="2.30602">
        <ele>161</ele>
        <time>2021-08-30T14:47:24Z</time>
      </trkpt>
      <trkpt lat="47.02975" lon="2.3061">
        <ele>162</ele>
        <time>2021-08-30T14:47:24Z</time>
      </trkpt>
      <trkpt lat="47.02979" lon="2.30617">
        <ele>162</ele>
        <time>2021-08-30T14:47:24Z</time>
      </trkpt>
      <trkpt lat="47.02983" lon="2.30625">
        <ele>162</ele>
        <time>2021-08-30T14:47:24Z</time>
      </trkpt>
      <trkpt lat="47.02987" lon="2.30632">
        <ele>162</ele>
        <time>2021-08-30T14:47:24Z</time>
      </trkpt>
      <trkpt lat="47.02991" lon="2.30639">
        <ele>162</ele>
        <time>2021-08-30T14:47:24Z</time>
      </trkpt>
      <trkpt lat="47.02995" lon="2.30645">
        <ele>162</ele>
        <time>2021-08-30T14:47:24Z</time>
      </trkpt>
      <trkpt lat="47.02999" lon="2.30653">
        <ele>161</ele>
        <time>2021-08-30T14:47:24Z</time>
      </trkpt>
      <trkpt lat="47.03002" lon="2.3066">
        <ele>161</ele>
        <time>2021-08-30T14:47:24Z</time>
      </trkpt>
      <trkpt lat="47.03006" lon="2.30667">
        <ele>161</ele>
        <time>2021-08-30T14:47:24Z</time>
      </trkpt>
      <trkpt lat="47.0301" lon="2.30674">
        <ele>161</ele>
        <time>2021-08-30T14:47:24Z</time>
      </trkpt>
      <trkpt lat="47.03014" lon="2.30682">
        <ele>160</ele>
        <time>2021-08-30T14:47:24Z</time>
      </trkpt>
      <trkpt lat="47.03018" lon="2.30689">
        <ele>160</ele>
        <time>2021-08-30T14:47:24Z</time>
      </trkpt>
      <trkpt lat="47.03022" lon="2.30696">
        <ele>160</ele>
        <time>2021-08-30T14:47:24Z</time>
      </trkpt>
      <trkpt lat="47.03026" lon="2.30703">
        <ele>160</ele>
        <time>2021-08-30T14:47:24Z</time>
      </trkpt>
      <trkpt lat="47.0303" lon="2.3071">
        <ele>161</ele>
        <time>2021-08-30T14:47:24Z</time>
      </trkpt>
      <trkpt lat="47.03033" lon="2.30718">
        <ele>161</ele>
        <time>2021-08-30T14:47:24Z</time>
      </trkpt>
      <trkpt lat="47.03037" lon="2.30725">
        <ele>160</ele>
        <time>2021-08-30T14:47:24Z</time>
      </trkpt>
      <trkpt lat="47.0304" lon="2.30733">
        <ele>160</ele>
        <time>2021-08-30T14:47:24Z</time>
      </trkpt>
      <trkpt lat="47.03044" lon="2.3074">
        <ele>160</ele>
        <time>2021-08-30T14:47:24Z</time>
      </trkpt>
      <trkpt lat="47.03048" lon="2.30747">
        <ele>160</ele>
        <time>2021-08-30T14:47:24Z</time>
      </trkpt>
      <trkpt lat="47.03052" lon="2.30755">
        <ele>160</ele>
        <time>2021-08-30T14:47:24Z</time>
      </trkpt>
      <trkpt lat="47.03056" lon="2.30763">
        <ele>161</ele>
        <time>2021-08-30T14:47:24Z</time>
      </trkpt>
      <trkpt lat="47.0306" lon="2.3077">
        <ele>161</ele>
        <time>2021-08-30T14:47:24Z</time>
      </trkpt>
      <trkpt lat="47.03063" lon="2.30777">
        <ele>161</ele>
        <time>2021-08-30T14:47:24Z</time>
      </trkpt>
      <trkpt lat="47.03067" lon="2.30785">
        <ele>161</ele>
        <time>2021-08-30T14:47:24Z</time>
      </trkpt>
      <trkpt lat="47.03071" lon="2.30792">
        <ele>161</ele>
        <time>2021-08-30T14:47:24Z</time>
      </trkpt>
      <trkpt lat="47.03075" lon="2.30799">
        <ele>161</ele>
        <time>2021-08-30T14:47:24Z</time>
      </trkpt>
      <trkpt lat="47.03079" lon="2.30807">
        <ele>161</ele>
        <time>2021-08-30T14:47:24Z</time>
      </trkpt>
      <trkpt lat="47.03082" lon="2.30814">
        <ele>161</ele>
        <time>2021-08-30T14:47:24Z</time>
      </trkpt>
      <trkpt lat="47.03086" lon="2.30821">
        <ele>161</ele>
        <time>2021-08-30T14:47:24Z</time>
      </trkpt>
      <trkpt lat="47.0309" lon="2.30829">
        <ele>160</ele>
        <time>2021-08-30T14:47:24Z</time>
      </trkpt>
      <trkpt lat="47.03094" lon="2.30835">
        <ele>160</ele>
        <time>2021-08-30T14:47:24Z</time>
      </trkpt>
      <trkpt lat="47.03098" lon="2.30842">
        <ele>159</ele>
        <time>2021-08-30T14:47:24Z</time>
      </trkpt>
      <trkpt lat="47.03102" lon="2.30849">
        <ele>159</ele>
        <time>2021-08-30T14:47:24Z</time>
      </trkpt>
      <trkpt lat="47.03106" lon="2.30856">
        <ele>159</ele>
        <time>2021-08-30T14:47:24Z</time>
      </trkpt>
      <trkpt lat="47.0311" lon="2.30863">
        <ele>158</ele>
        <time>2021-08-30T14:47:24Z</time>
      </trkpt>
      <trkpt lat="47.03114" lon="2.3087">
        <ele>159</ele>
        <time>2021-08-30T14:47:24Z</time>
      </trkpt>
      <trkpt lat="47.03117" lon="2.30878">
        <ele>159</ele>
        <time>2021-08-30T14:47:24Z</time>
      </trkpt>
      <trkpt lat="47.03121" lon="2.30885">
        <ele>159</ele>
        <time>2021-08-30T14:47:24Z</time>
      </trkpt>
      <trkpt lat="47.03125" lon="2.30893">
        <ele>159</ele>
        <time>2021-08-30T14:47:24Z</time>
      </trkpt>
      <trkpt lat="47.03129" lon="2.309">
        <ele>159</ele>
        <time>2021-08-30T14:47:24Z</time>
      </trkpt>
      <trkpt lat="47.03133" lon="2.30907">
        <ele>159</ele>
        <time>2021-08-30T14:47:24Z</time>
      </trkpt>
      <trkpt lat="47.03137" lon="2.30915">
        <ele>159</ele>
        <time>2021-08-30T14:47:24Z</time>
      </trkpt>
      <trkpt lat="47.03141" lon="2.30922">
        <ele>159</ele>
        <time>2021-08-30T14:47:24Z</time>
      </trkpt>
      <trkpt lat="47.03144" lon="2.3093">
        <ele>159</ele>
        <time>2021-08-30T14:47:24Z</time>
      </trkpt>
      <trkpt lat="47.03148" lon="2.30937">
        <ele>159</ele>
        <time>2021-08-30T14:47:24Z</time>
      </trkpt>
      <trkpt lat="47.03152" lon="2.30945">
        <ele>159</ele>
        <time>2021-08-30T14:47:24Z</time>
      </trkpt>
      <trkpt lat="47.03155" lon="2.30952">
        <ele>159</ele>
        <time>2021-08-30T14:47:24Z</time>
      </trkpt>
      <trkpt lat="47.03159" lon="2.30959">
        <ele>159</ele>
        <time>2021-08-30T14:47:24Z</time>
      </trkpt>
      <trkpt lat="47.03163" lon="2.30966">
        <ele>159</ele>
        <time>2021-08-30T14:47:24Z</time>
      </trkpt>
      <trkpt lat="47.03183" lon="2.31002">
        <ele>158</ele>
        <time>2021-08-30T14:47:24Z</time>
      </trkpt>
      <trkpt lat="47.03202" lon="2.31039">
        <ele>158</ele>
        <time>2021-08-30T14:47:24Z</time>
      </trkpt>
      <trkpt lat="47.0322" lon="2.31075">
        <ele>157</ele>
        <time>2021-08-30T14:47:24Z</time>
      </trkpt>
      <trkpt lat="47.0324" lon="2.31113">
        <ele>156</ele>
        <time>2021-08-30T14:47:24Z</time>
      </trkpt>
      <trkpt lat="47.03258" lon="2.3115">
        <ele>156</ele>
        <time>2021-08-30T14:47:24Z</time>
      </trkpt>
      <trkpt lat="47.03278" lon="2.31186">
        <ele>158</ele>
        <time>2021-08-30T14:47:24Z</time>
      </trkpt>
      <trkpt lat="47.03282" lon="2.31194">
        <ele>159</ele>
        <time>2021-08-30T14:47:24Z</time>
      </trkpt>
      <trkpt lat="47.03306" lon="2.31236">
        <ele>161</ele>
        <time>2021-08-30T14:47:24Z</time>
      </trkpt>
      <trkpt lat="47.03334" lon="2.31287">
        <ele>160</ele>
        <time>2021-08-30T14:47:24Z</time>
      </trkpt>
      <trkpt lat="47.03357" lon="2.31334">
        <ele>158</ele>
        <time>2021-08-30T14:47:24Z</time>
      </trkpt>
      <trkpt lat="47.03382" lon="2.31378">
        <ele>160</ele>
        <time>2021-08-30T14:47:24Z</time>
      </trkpt>
      <trkpt lat="47.03405" lon="2.31428">
        <ele>159</ele>
        <time>2021-08-30T14:47:24Z</time>
      </trkpt>
      <trkpt lat="47.03421" lon="2.3146">
        <ele>156</ele>
        <time>2021-08-30T14:47:24Z</time>
      </trkpt>
      <trkpt lat="47.03426" lon="2.31467">
        <ele>156</ele>
        <time>2021-08-30T14:47:24Z</time>
      </trkpt>
      <trkpt lat="47.03433" lon="2.31483">
        <ele>155</ele>
        <time>2021-08-30T14:47:24Z</time>
      </trkpt>
      <trkpt lat="47.03437" lon="2.31491">
        <ele>155</ele>
        <time>2021-08-30T14:47:24Z</time>
      </trkpt>
      <trkpt lat="47.03441" lon="2.31499">
        <ele>154</ele>
        <time>2021-08-30T14:47:24Z</time>
      </trkpt>
      <trkpt lat="47.03445" lon="2.31508">
        <ele>154</ele>
        <time>2021-08-30T14:47:24Z</time>
      </trkpt>
      <trkpt lat="47.03448" lon="2.31516">
        <ele>154</ele>
        <time>2021-08-30T14:47:24Z</time>
      </trkpt>
      <trkpt lat="47.03452" lon="2.31523">
        <ele>153</ele>
        <time>2021-08-30T14:47:24Z</time>
      </trkpt>
      <trkpt lat="47.03456" lon="2.31531">
        <ele>153</ele>
        <time>2021-08-30T14:47:24Z</time>
      </trkpt>
      <trkpt lat="47.0346" lon="2.31539">
        <ele>154</ele>
        <time>2021-08-30T14:47:24Z</time>
      </trkpt>
      <trkpt lat="47.03463" lon="2.31547">
        <ele>154</ele>
        <time>2021-08-30T14:47:24Z</time>
      </trkpt>
      <trkpt lat="47.03467" lon="2.31555">
        <ele>154</ele>
        <time>2021-08-30T14:47:24Z</time>
      </trkpt>
      <trkpt lat="47.03471" lon="2.31562">
        <ele>154</ele>
        <time>2021-08-30T14:47:24Z</time>
      </trkpt>
      <trkpt lat="47.03475" lon="2.31569">
        <ele>155</ele>
        <time>2021-08-30T14:47:24Z</time>
      </trkpt>
      <trkpt lat="47.03479" lon="2.31577">
        <ele>155</ele>
        <time>2021-08-30T14:47:24Z</time>
      </trkpt>
      <trkpt lat="47.03483" lon="2.31585">
        <ele>155</ele>
        <time>2021-08-30T14:47:24Z</time>
      </trkpt>
      <trkpt lat="47.03487" lon="2.31593">
        <ele>155</ele>
        <time>2021-08-30T14:47:24Z</time>
      </trkpt>
      <trkpt lat="47.03491" lon="2.31601">
        <ele>156</ele>
        <time>2021-08-30T14:47:24Z</time>
      </trkpt>
      <trkpt lat="47.03495" lon="2.31609">
        <ele>156</ele>
        <time>2021-08-30T14:47:24Z</time>
      </trkpt>
      <trkpt lat="47.03499" lon="2.31616">
        <ele>156</ele>
        <time>2021-08-30T14:47:24Z</time>
      </trkpt>
      <trkpt lat="47.03503" lon="2.31624">
        <ele>156</ele>
        <time>2021-08-30T14:47:24Z</time>
      </trkpt>
      <trkpt lat="47.03507" lon="2.31632">
        <ele>156</ele>
        <time>2021-08-30T14:47:24Z</time>
      </trkpt>
      <trkpt lat="47.03511" lon="2.31639">
        <ele>155</ele>
        <time>2021-08-30T14:47:24Z</time>
      </trkpt>
      <trkpt lat="47.03515" lon="2.31647">
        <ele>155</ele>
        <time>2021-08-30T14:47:24Z</time>
      </trkpt>
      <trkpt lat="47.03519" lon="2.31655">
        <ele>155</ele>
        <time>2021-08-30T14:47:24Z</time>
      </trkpt>
      <trkpt lat="47.03522" lon="2.31663">
        <ele>155</ele>
        <time>2021-08-30T14:47:24Z</time>
      </trkpt>
      <trkpt lat="47.03531" lon="2.31677">
        <ele>155</ele>
        <time>2021-08-30T14:47:24Z</time>
      </trkpt>
      <trkpt lat="47.03534" lon="2.31684">
        <ele>155</ele>
        <time>2021-08-30T14:47:24Z</time>
      </trkpt>
      <trkpt lat="47.03538" lon="2.31692">
        <ele>154</ele>
        <time>2021-08-30T14:47:24Z</time>
      </trkpt>
      <trkpt lat="47.03542" lon="2.317">
        <ele>155</ele>
        <time>2021-08-30T14:47:24Z</time>
      </trkpt>
      <trkpt lat="47.03547" lon="2.31707">
        <ele>155</ele>
        <time>2021-08-30T14:47:24Z</time>
      </trkpt>
      <trkpt lat="47.03551" lon="2.31714">
        <ele>155</ele>
        <time>2021-08-30T14:47:24Z</time>
      </trkpt>
      <trkpt lat="47.03554" lon="2.31721">
        <ele>155</ele>
        <time>2021-08-30T14:47:24Z</time>
      </trkpt>
      <trkpt lat="47.03558" lon="2.31729">
        <ele>156</ele>
        <time>2021-08-30T14:47:24Z</time>
      </trkpt>
      <trkpt lat="47.03563" lon="2.31736">
        <ele>156</ele>
        <time>2021-08-30T14:47:24Z</time>
      </trkpt>
      <trkpt lat="47.03566" lon="2.31742">
        <ele>156</ele>
        <time>2021-08-30T14:47:24Z</time>
      </trkpt>
      <trkpt lat="47.0357" lon="2.3175">
        <ele>156</ele>
        <time>2021-08-30T14:47:24Z</time>
      </trkpt>
      <trkpt lat="47.03574" lon="2.31757">
        <ele>156</ele>
        <time>2021-08-30T14:47:24Z</time>
      </trkpt>
      <trkpt lat="47.03578" lon="2.31764">
        <ele>157</ele>
        <time>2021-08-30T14:47:24Z</time>
      </trkpt>
      <trkpt lat="47.03582" lon="2.31771">
        <ele>157</ele>
        <time>2021-08-30T14:47:24Z</time>
      </trkpt>
      <trkpt lat="47.03586" lon="2.31778">
        <ele>157</ele>
        <time>2021-08-30T14:47:24Z</time>
      </trkpt>
      <trkpt lat="47.03589" lon="2.31785">
        <ele>157</ele>
        <time>2021-08-30T14:47:24Z</time>
      </trkpt>
      <trkpt lat="47.03594" lon="2.31792">
        <ele>157</ele>
        <time>2021-08-30T14:47:24Z</time>
      </trkpt>
      <trkpt lat="47.03598" lon="2.31799">
        <ele>157</ele>
        <time>2021-08-30T14:47:24Z</time>
      </trkpt>
      <trkpt lat="47.03602" lon="2.31806">
        <ele>156</ele>
        <time>2021-08-30T14:47:24Z</time>
      </trkpt>
      <trkpt lat="47.03606" lon="2.31814">
        <ele>156</ele>
        <time>2021-08-30T14:47:24Z</time>
      </trkpt>
      <trkpt lat="47.0361" lon="2.31821">
        <ele>156</ele>
        <time>2021-08-30T14:47:24Z</time>
      </trkpt>
      <trkpt lat="47.03614" lon="2.31828">
        <ele>156</ele>
        <time>2021-08-30T14:47:24Z</time>
      </trkpt>
      <trkpt lat="47.03618" lon="2.31835">
        <ele>155</ele>
        <time>2021-08-30T14:47:24Z</time>
      </trkpt>
      <trkpt lat="47.03622" lon="2.31843">
        <ele>155</ele>
        <time>2021-08-30T14:47:24Z</time>
      </trkpt>
      <trkpt lat="47.03625" lon="2.3185">
        <ele>155</ele>
        <time>2021-08-30T14:47:24Z</time>
      </trkpt>
      <trkpt lat="47.03629" lon="2.31857">
        <ele>155</ele>
        <time>2021-08-30T14:47:24Z</time>
      </trkpt>
      <trkpt lat="47.03633" lon="2.31865">
        <ele>155</ele>
        <time>2021-08-30T14:47:24Z</time>
      </trkpt>
      <trkpt lat="47.03637" lon="2.31872">
        <ele>155</ele>
        <time>2021-08-30T14:47:24Z</time>
      </trkpt>
      <trkpt lat="47.03641" lon="2.3188">
        <ele>156</ele>
        <time>2021-08-30T14:47:24Z</time>
      </trkpt>
      <trkpt lat="47.03645" lon="2.31887">
        <ele>156</ele>
        <time>2021-08-30T14:47:24Z</time>
      </trkpt>
      <trkpt lat="47.03649" lon="2.31895">
        <ele>156</ele>
        <time>2021-08-30T14:47:24Z</time>
      </trkpt>
      <trkpt lat="47.03653" lon="2.31902">
        <ele>157</ele>
        <time>2021-08-30T14:47:24Z</time>
      </trkpt>
      <trkpt lat="47.03657" lon="2.3191">
        <ele>157</ele>
        <time>2021-08-30T14:47:24Z</time>
      </trkpt>
      <trkpt lat="47.03661" lon="2.31917">
        <ele>158</ele>
        <time>2021-08-30T14:47:24Z</time>
      </trkpt>
      <trkpt lat="47.03665" lon="2.31924">
        <ele>157</ele>
        <time>2021-08-30T14:47:24Z</time>
      </trkpt>
      <trkpt lat="47.03668" lon="2.3193">
        <ele>157</ele>
        <time>2021-08-30T14:47:24Z</time>
      </trkpt>
      <trkpt lat="47.03687" lon="2.31966">
        <ele>155</ele>
        <time>2021-08-30T14:47:24Z</time>
      </trkpt>
      <trkpt lat="47.03706" lon="2.32003">
        <ele>155</ele>
        <time>2021-08-30T14:47:24Z</time>
      </trkpt>
      <trkpt lat="47.03724" lon="2.3204">
        <ele>156</ele>
        <time>2021-08-30T14:47:24Z</time>
      </trkpt>
      <trkpt lat="47.03744" lon="2.32076">
        <ele>156</ele>
        <time>2021-08-30T14:47:24Z</time>
      </trkpt>
      <trkpt lat="47.03764" lon="2.32114">
        <ele>155</ele>
        <time>2021-08-30T14:47:24Z</time>
      </trkpt>
      <trkpt lat="47.03779" lon="2.32145">
        <ele>154</ele>
        <time>2021-08-30T14:47:24Z</time>
      </trkpt>
      <trkpt lat="47.03783" lon="2.32153">
        <ele>154</ele>
        <time>2021-08-30T14:47:24Z</time>
      </trkpt>
      <trkpt lat="47.03804" lon="2.32191">
        <ele>153</ele>
        <time>2021-08-30T14:47:24Z</time>
      </trkpt>
      <trkpt lat="47.03825" lon="2.32229">
        <ele>150</ele>
        <time>2021-08-30T14:47:24Z</time>
      </trkpt>
      <trkpt lat="47.03844" lon="2.32269">
        <ele>150</ele>
        <time>2021-08-30T14:47:24Z</time>
      </trkpt>
      <trkpt lat="47.03865" lon="2.32308">
        <ele>150</ele>
        <time>2021-08-30T14:47:24Z</time>
      </trkpt>
      <trkpt lat="47.03884" lon="2.32344">
        <ele>150</ele>
        <time>2021-08-30T14:47:24Z</time>
      </trkpt>
      <trkpt lat="47.03897" lon="2.32369">
        <ele>149</ele>
        <time>2021-08-30T14:47:24Z</time>
      </trkpt>
      <trkpt lat="47.039" lon="2.32376">
        <ele>149</ele>
        <time>2021-08-30T14:47:24Z</time>
      </trkpt>
      <trkpt lat="47.03921" lon="2.32413">
        <ele>149</ele>
        <time>2021-08-30T14:47:24Z</time>
      </trkpt>
      <trkpt lat="47.03941" lon="2.32451">
        <ele>149</ele>
        <time>2021-08-30T14:47:24Z</time>
      </trkpt>
      <trkpt lat="47.03959" lon="2.32488">
        <ele>150</ele>
        <time>2021-08-30T14:47:24Z</time>
      </trkpt>
      <trkpt lat="47.03976" lon="2.32525">
        <ele>149</ele>
        <time>2021-08-30T14:47:24Z</time>
      </trkpt>
      <trkpt lat="47.03996" lon="2.32559">
        <ele>148</ele>
        <time>2021-08-30T14:47:24Z</time>
      </trkpt>
      <trkpt lat="47.0401" lon="2.32586">
        <ele>148</ele>
        <time>2021-08-30T14:47:24Z</time>
      </trkpt>
      <trkpt lat="47.04013" lon="2.32592">
        <ele>148</ele>
        <time>2021-08-30T14:47:24Z</time>
      </trkpt>
      <trkpt lat="47.04021" lon="2.32605">
        <ele>148</ele>
        <time>2021-08-30T14:47:24Z</time>
      </trkpt>
      <trkpt lat="47.04025" lon="2.32612">
        <ele>149</ele>
        <time>2021-08-30T14:47:24Z</time>
      </trkpt>
      <trkpt lat="47.04027" lon="2.32618">
        <ele>149</ele>
        <time>2021-08-30T14:47:24Z</time>
      </trkpt>
      <trkpt lat="47.04031" lon="2.32624">
        <ele>149</ele>
        <time>2021-08-30T14:47:24Z</time>
      </trkpt>
      <trkpt lat="47.04034" lon="2.32631">
        <ele>149</ele>
        <time>2021-08-30T14:47:24Z</time>
      </trkpt>
      <trkpt lat="47.04038" lon="2.32637">
        <ele>150</ele>
        <time>2021-08-30T14:47:24Z</time>
      </trkpt>
      <trkpt lat="47.04042" lon="2.32643">
        <ele>150</ele>
        <time>2021-08-30T14:47:24Z</time>
      </trkpt>
      <trkpt lat="47.04046" lon="2.3265">
        <ele>151</ele>
        <time>2021-08-30T14:47:24Z</time>
      </trkpt>
      <trkpt lat="47.0405" lon="2.32657">
        <ele>151</ele>
        <time>2021-08-30T14:47:24Z</time>
      </trkpt>
      <trkpt lat="47.04054" lon="2.32662">
        <ele>151</ele>
        <time>2021-08-30T14:47:24Z</time>
      </trkpt>
      <trkpt lat="47.04058" lon="2.32668">
        <ele>152</ele>
        <time>2021-08-30T14:47:24Z</time>
      </trkpt>
      <trkpt lat="47.04062" lon="2.32673">
        <ele>152</ele>
        <time>2021-08-30T14:47:24Z</time>
      </trkpt>
      <trkpt lat="47.04067" lon="2.32678">
        <ele>152</ele>
        <time>2021-08-30T14:47:24Z</time>
      </trkpt>
      <trkpt lat="47.04072" lon="2.32683">
        <ele>152</ele>
        <time>2021-08-30T14:47:24Z</time>
      </trkpt>
      <trkpt lat="47.04077" lon="2.32688">
        <ele>152</ele>
        <time>2021-08-30T14:47:24Z</time>
      </trkpt>
      <trkpt lat="47.04082" lon="2.32691">
        <ele>152</ele>
        <time>2021-08-30T14:47:24Z</time>
      </trkpt>
      <trkpt lat="47.04087" lon="2.32695">
        <ele>152</ele>
        <time>2021-08-30T14:47:24Z</time>
      </trkpt>
      <trkpt lat="47.04092" lon="2.32699">
        <ele>152</ele>
        <time>2021-08-30T14:47:24Z</time>
      </trkpt>
      <trkpt lat="47.04098" lon="2.32704">
        <ele>152</ele>
        <time>2021-08-30T14:47:24Z</time>
      </trkpt>
      <trkpt lat="47.04103" lon="2.32706">
        <ele>152</ele>
        <time>2021-08-30T14:47:24Z</time>
      </trkpt>
      <trkpt lat="47.04108" lon="2.32708">
        <ele>152</ele>
        <time>2021-08-30T14:47:24Z</time>
      </trkpt>
      <trkpt lat="47.04114" lon="2.3271">
        <ele>152</ele>
        <time>2021-08-30T14:47:24Z</time>
      </trkpt>
      <trkpt lat="47.04119" lon="2.32711">
        <ele>152</ele>
        <time>2021-08-30T14:47:24Z</time>
      </trkpt>
      <trkpt lat="47.04123" lon="2.32714">
        <ele>151</ele>
        <time>2021-08-30T14:47:24Z</time>
      </trkpt>
      <trkpt lat="47.04128" lon="2.32715">
        <ele>151</ele>
        <time>2021-08-30T14:47:24Z</time>
      </trkpt>
      <trkpt lat="47.04133" lon="2.32716">
        <ele>151</ele>
        <time>2021-08-30T14:47:24Z</time>
      </trkpt>
      <trkpt lat="47.04138" lon="2.32718">
        <ele>150</ele>
        <time>2021-08-30T14:47:24Z</time>
      </trkpt>
      <trkpt lat="47.04144" lon="2.32718">
        <ele>150</ele>
        <time>2021-08-30T14:47:24Z</time>
      </trkpt>
      <trkpt lat="47.0415" lon="2.32718">
        <ele>150</ele>
        <time>2021-08-30T14:47:24Z</time>
      </trkpt>
      <trkpt lat="47.04156" lon="2.32718">
        <ele>150</ele>
        <time>2021-08-30T14:47:24Z</time>
      </trkpt>
      <trkpt lat="47.04162" lon="2.32717">
        <ele>149</ele>
        <time>2021-08-30T14:47:24Z</time>
      </trkpt>
      <trkpt lat="47.04168" lon="2.32717">
        <ele>149</ele>
        <time>2021-08-30T14:47:24Z</time>
      </trkpt>
      <trkpt lat="47.04174" lon="2.32715">
        <ele>149</ele>
        <time>2021-08-30T14:47:24Z</time>
      </trkpt>
      <trkpt lat="47.0418" lon="2.32715">
        <ele>149</ele>
        <time>2021-08-30T14:47:24Z</time>
      </trkpt>
      <trkpt lat="47.04186" lon="2.32714">
        <ele>149</ele>
        <time>2021-08-30T14:47:24Z</time>
      </trkpt>
      <trkpt lat="47.04193" lon="2.32713">
        <ele>149</ele>
        <time>2021-08-30T14:47:24Z</time>
      </trkpt>
      <trkpt lat="47.04199" lon="2.32713">
        <ele>149</ele>
        <time>2021-08-30T14:47:24Z</time>
      </trkpt>
      <trkpt lat="47.04205" lon="2.32712">
        <ele>149</ele>
        <time>2021-08-30T14:47:24Z</time>
      </trkpt>
      <trkpt lat="47.04211" lon="2.32711">
        <ele>149</ele>
        <time>2021-08-30T14:47:24Z</time>
      </trkpt>
      <trkpt lat="47.04217" lon="2.3271">
        <ele>149</ele>
        <time>2021-08-30T14:47:24Z</time>
      </trkpt>
      <trkpt lat="47.04222" lon="2.32709">
        <ele>149</ele>
        <time>2021-08-30T14:47:24Z</time>
      </trkpt>
      <trkpt lat="47.04228" lon="2.32708">
        <ele>149</ele>
        <time>2021-08-30T14:47:24Z</time>
      </trkpt>
      <trkpt lat="47.04234" lon="2.32708">
        <ele>149</ele>
        <time>2021-08-30T14:47:24Z</time>
      </trkpt>
      <trkpt lat="47.04239" lon="2.32707">
        <ele>149</ele>
        <time>2021-08-30T14:47:24Z</time>
      </trkpt>
      <trkpt lat="47.04244" lon="2.32708">
        <ele>149</ele>
        <time>2021-08-30T14:47:24Z</time>
      </trkpt>
      <trkpt lat="47.04246" lon="2.32709">
        <ele>149</ele>
        <time>2021-08-30T14:47:24Z</time>
      </trkpt>
      <trkpt lat="47.04249" lon="2.3271">
        <ele>149</ele>
        <time>2021-08-30T14:47:24Z</time>
      </trkpt>
      <trkpt lat="47.04251" lon="2.3271">
        <ele>150</ele>
        <time>2021-08-30T14:47:24Z</time>
      </trkpt>
      <trkpt lat="47.04251" lon="2.3271">
        <ele>150</ele>
        <time>2021-08-30T14:47:24Z</time>
      </trkpt>
      <trkpt lat="47.04251" lon="2.3271">
        <ele>150</ele>
        <time>2021-08-30T14:47:24Z</time>
      </trkpt>
      <trkpt lat="47.04251" lon="2.3271">
        <ele>150</ele>
        <time>2021-08-30T14:47:24Z</time>
      </trkpt>
      <trkpt lat="47.04251" lon="2.3271">
        <ele>150</ele>
        <time>2021-08-30T14:47:24Z</time>
      </trkpt>
      <trkpt lat="47.04252" lon="2.3271">
        <ele>150</ele>
        <time>2021-08-30T14:47:24Z</time>
      </trkpt>
      <trkpt lat="47.04252" lon="2.32711">
        <ele>150</ele>
        <time>2021-08-30T14:47:24Z</time>
      </trkpt>
      <trkpt lat="47.04252" lon="2.32711">
        <ele>150</ele>
        <time>2021-08-30T14:47:24Z</time>
      </trkpt>
      <trkpt lat="47.04256" lon="2.32709">
        <ele>150</ele>
        <time>2021-08-30T14:47:24Z</time>
      </trkpt>
      <trkpt lat="47.04272" lon="2.32708">
        <ele>150</ele>
        <time>2021-08-30T14:47:24Z</time>
      </trkpt>
      <trkpt lat="47.04277" lon="2.32709">
        <ele>150</ele>
        <time>2021-08-30T14:47:24Z</time>
      </trkpt>
      <trkpt lat="47.04301" lon="2.32716">
        <ele>150</ele>
        <time>2021-08-30T14:47:24Z</time>
      </trkpt>
      <trkpt lat="47.04304" lon="2.32755">
        <ele>150</ele>
        <time>2021-08-30T14:47:24Z</time>
      </trkpt>
      <trkpt lat="47.04287" lon="2.32797">
        <ele>149</ele>
        <time>2021-08-30T14:47:24Z</time>
      </trkpt>
      <trkpt lat="47.04268" lon="2.32839">
        <ele>148</ele>
        <time>2021-08-30T14:47:24Z</time>
      </trkpt>
      <trkpt lat="47.04246" lon="2.32878">
        <ele>149</ele>
        <time>2021-08-30T14:47:24Z</time>
      </trkpt>
      <trkpt lat="47.04226" lon="2.32908">
        <ele>152</ele>
        <time>2021-08-30T14:47:24Z</time>
      </trkpt>
      <trkpt lat="47.0422" lon="2.32915">
        <ele>153</ele>
        <time>2021-08-30T14:47:24Z</time>
      </trkpt>
      <trkpt lat="47.04194" lon="2.32952">
        <ele>152</ele>
        <time>2021-08-30T14:47:24Z</time>
      </trkpt>
      <trkpt lat="47.04167" lon="2.32989">
        <ele>151</ele>
        <time>2021-08-30T14:47:24Z</time>
      </trkpt>
      <trkpt lat="47.0414" lon="2.33023">
        <ele>151</ele>
        <time>2021-08-30T14:47:24Z</time>
      </trkpt>
      <trkpt lat="47.04114" lon="2.33052">
        <ele>152</ele>
        <time>2021-08-30T14:47:24Z</time>
      </trkpt>
      <trkpt lat="47.04087" lon="2.33063">
        <ele>152</ele>
        <time>2021-08-30T14:47:24Z</time>
      </trkpt>
      <trkpt lat="47.04069" lon="2.33081">
        <ele>152</ele>
        <time>2021-08-30T14:47:24Z</time>
      </trkpt>
      <trkpt lat="47.04067" lon="2.33089">
        <ele>151</ele>
        <time>2021-08-30T14:47:24Z</time>
      </trkpt>
      <trkpt lat="47.04076" lon="2.33125">
        <ele>151</ele>
        <time>2021-08-30T14:47:24Z</time>
      </trkpt>
      <trkpt lat="47.04098" lon="2.33151">
        <ele>153</ele>
        <time>2021-08-30T14:47:24Z</time>
      </trkpt>
      <trkpt lat="47.04112" lon="2.33189">
        <ele>155</ele>
        <time>2021-08-30T14:47:24Z</time>
      </trkpt>
      <trkpt lat="47.04124" lon="2.33225">
        <ele>155</ele>
        <time>2021-08-30T14:47:24Z</time>
      </trkpt>
      <trkpt lat="47.04136" lon="2.33262">
        <ele>154</ele>
        <time>2021-08-30T14:47:24Z</time>
      </trkpt>
      <trkpt lat="47.04145" lon="2.33294">
        <ele>153</ele>
        <time>2021-08-30T14:47:24Z</time>
      </trkpt>
      <trkpt lat="47.04147" lon="2.33302">
        <ele>153</ele>
        <time>2021-08-30T14:47:24Z</time>
      </trkpt>
      <trkpt lat="47.04148" lon="2.3331">
        <ele>153</ele>
        <time>2021-08-30T14:47:24Z</time>
      </trkpt>
      <trkpt lat="47.0415" lon="2.33319">
        <ele>153</ele>
        <time>2021-08-30T14:47:24Z</time>
      </trkpt>
      <trkpt lat="47.04151" lon="2.33327">
        <ele>153</ele>
        <time>2021-08-30T14:47:24Z</time>
      </trkpt>
      <trkpt lat="47.04152" lon="2.33336">
        <ele>153</ele>
        <time>2021-08-30T14:47:24Z</time>
      </trkpt>
      <trkpt lat="47.04153" lon="2.33345">
        <ele>153</ele>
        <time>2021-08-30T14:47:24Z</time>
      </trkpt>
      <trkpt lat="47.04154" lon="2.33352">
        <ele>154</ele>
        <time>2021-08-30T14:47:24Z</time>
      </trkpt>
      <trkpt lat="47.04155" lon="2.3336">
        <ele>154</ele>
        <time>2021-08-30T14:47:24Z</time>
      </trkpt>
      <trkpt lat="47.04156" lon="2.33369">
        <ele>154</ele>
        <time>2021-08-30T14:47:24Z</time>
      </trkpt>
      <trkpt lat="47.04156" lon="2.33377">
        <ele>154</ele>
        <time>2021-08-30T14:47:24Z</time>
      </trkpt>
      <trkpt lat="47.04155" lon="2.33385">
        <ele>154</ele>
        <time>2021-08-30T14:47:24Z</time>
      </trkpt>
      <trkpt lat="47.04155" lon="2.33394">
        <ele>155</ele>
        <time>2021-08-30T14:47:24Z</time>
      </trkpt>
      <trkpt lat="47.04155" lon="2.33402">
        <ele>155</ele>
        <time>2021-08-30T14:47:24Z</time>
      </trkpt>
      <trkpt lat="47.04154" lon="2.33412">
        <ele>156</ele>
        <time>2021-08-30T14:47:24Z</time>
      </trkpt>
      <trkpt lat="47.04153" lon="2.33421">
        <ele>156</ele>
        <time>2021-08-30T14:47:24Z</time>
      </trkpt>
      <trkpt lat="47.04152" lon="2.3343">
        <ele>156</ele>
        <time>2021-08-30T14:47:24Z</time>
      </trkpt>
      <trkpt lat="47.04152" lon="2.33438">
        <ele>156</ele>
        <time>2021-08-30T14:47:24Z</time>
      </trkpt>
      <trkpt lat="47.0415" lon="2.33447">
        <ele>156</ele>
        <time>2021-08-30T14:47:24Z</time>
      </trkpt>
      <trkpt lat="47.04148" lon="2.33456">
        <ele>155</ele>
        <time>2021-08-30T14:47:24Z</time>
      </trkpt>
      <trkpt lat="47.04147" lon="2.33464">
        <ele>155</ele>
        <time>2021-08-30T14:47:24Z</time>
      </trkpt>
      <trkpt lat="47.04145" lon="2.33473">
        <ele>155</ele>
        <time>2021-08-30T14:47:24Z</time>
      </trkpt>
      <trkpt lat="47.04143" lon="2.33482">
        <ele>155</ele>
        <time>2021-08-30T14:47:24Z</time>
      </trkpt>
      <trkpt lat="47.0414" lon="2.3349">
        <ele>155</ele>
        <time>2021-08-30T14:47:24Z</time>
      </trkpt>
      <trkpt lat="47.04138" lon="2.33498">
        <ele>154</ele>
        <time>2021-08-30T14:47:24Z</time>
      </trkpt>
      <trkpt lat="47.04135" lon="2.33506">
        <ele>154</ele>
        <time>2021-08-30T14:47:24Z</time>
      </trkpt>
      <trkpt lat="47.04132" lon="2.33515">
        <ele>154</ele>
        <time>2021-08-30T14:47:24Z</time>
      </trkpt>
      <trkpt lat="47.04128" lon="2.33522">
        <ele>154</ele>
        <time>2021-08-30T14:47:24Z</time>
      </trkpt>
      <trkpt lat="47.04125" lon="2.3353">
        <ele>154</ele>
        <time>2021-08-30T14:47:24Z</time>
      </trkpt>
      <trkpt lat="47.04121" lon="2.33538">
        <ele>154</ele>
        <time>2021-08-30T14:47:24Z</time>
      </trkpt>
      <trkpt lat="47.04117" lon="2.33545">
        <ele>154</ele>
        <time>2021-08-30T14:47:24Z</time>
      </trkpt>
      <trkpt lat="47.04113" lon="2.33552">
        <ele>154</ele>
        <time>2021-08-30T14:47:24Z</time>
      </trkpt>
      <trkpt lat="47.04109" lon="2.3356">
        <ele>155</ele>
        <time>2021-08-30T14:47:24Z</time>
      </trkpt>
      <trkpt lat="47.04104" lon="2.33566">
        <ele>155</ele>
        <time>2021-08-30T14:47:24Z</time>
      </trkpt>
      <trkpt lat="47.04099" lon="2.33572">
        <ele>155</ele>
        <time>2021-08-30T14:47:24Z</time>
      </trkpt>
      <trkpt lat="47.04095" lon="2.33579">
        <ele>155</ele>
        <time>2021-08-30T14:47:24Z</time>
      </trkpt>
      <trkpt lat="47.04091" lon="2.33585">
        <ele>155</ele>
        <time>2021-08-30T14:47:24Z</time>
      </trkpt>
      <trkpt lat="47.04086" lon="2.33591">
        <ele>155</ele>
        <time>2021-08-30T14:47:24Z</time>
      </trkpt>
      <trkpt lat="47.04081" lon="2.33596">
        <ele>154</ele>
        <time>2021-08-30T14:47:24Z</time>
      </trkpt>
      <trkpt lat="47.04077" lon="2.33601">
        <ele>154</ele>
        <time>2021-08-30T14:47:24Z</time>
      </trkpt>
      <trkpt lat="47.04063" lon="2.33613">
        <ele>154</ele>
        <time>2021-08-30T14:47:24Z</time>
      </trkpt>
      <trkpt lat="47.04057" lon="2.33616">
        <ele>153</ele>
        <time>2021-08-30T14:47:24Z</time>
      </trkpt>
      <trkpt lat="47.04052" lon="2.33619">
        <ele>153</ele>
        <time>2021-08-30T14:47:24Z</time>
      </trkpt>
      <trkpt lat="47.04047" lon="2.33623">
        <ele>153</ele>
        <time>2021-08-30T14:47:24Z</time>
      </trkpt>
      <trkpt lat="47.0404" lon="2.33627">
        <ele>153</ele>
        <time>2021-08-30T14:47:24Z</time>
      </trkpt>
      <trkpt lat="47.04034" lon="2.3363">
        <ele>153</ele>
        <time>2021-08-30T14:47:24Z</time>
      </trkpt>
      <trkpt lat="47.04028" lon="2.33634">
        <ele>153</ele>
        <time>2021-08-30T14:47:24Z</time>
      </trkpt>
      <trkpt lat="47.04023" lon="2.33637">
        <ele>154</ele>
        <time>2021-08-30T14:47:24Z</time>
      </trkpt>
      <trkpt lat="47.03993" lon="2.3365">
        <ele>155</ele>
        <time>2021-08-30T14:47:24Z</time>
      </trkpt>
      <trkpt lat="47.03963" lon="2.33664">
        <ele>157</ele>
        <time>2021-08-30T14:47:24Z</time>
      </trkpt>
      <trkpt lat="47.03934" lon="2.33679">
        <ele>158</ele>
        <time>2021-08-30T14:47:24Z</time>
      </trkpt>
      <trkpt lat="47.03904" lon="2.33696">
        <ele>159</ele>
        <time>2021-08-30T14:47:24Z</time>
      </trkpt>
      <trkpt lat="47.03875" lon="2.33714">
        <ele>159</ele>
        <time>2021-08-30T14:47:24Z</time>
      </trkpt>
      <trkpt lat="47.03852" lon="2.3373">
        <ele>159</ele>
        <time>2021-08-30T14:47:24Z</time>
      </trkpt>
      <trkpt lat="47.03846" lon="2.33734">
        <ele>159</ele>
        <time>2021-08-30T14:47:24Z</time>
      </trkpt>
      <trkpt lat="47.03816" lon="2.33754">
        <ele>160</ele>
        <time>2021-08-30T14:47:24Z</time>
      </trkpt>
      <trkpt lat="47.03789" lon="2.33773">
        <ele>161</ele>
        <time>2021-08-30T14:47:24Z</time>
      </trkpt>
      <trkpt lat="47.03761" lon="2.33793">
        <ele>162</ele>
        <time>2021-08-30T14:47:24Z</time>
      </trkpt>
      <trkpt lat="47.03732" lon="2.33806">
        <ele>161</ele>
        <time>2021-08-30T14:47:24Z</time>
      </trkpt>
      <trkpt lat="47.03714" lon="2.33828">
        <ele>160</ele>
        <time>2021-08-30T14:47:24Z</time>
      </trkpt>
      <trkpt lat="47.0372" lon="2.33859">
        <ele>159</ele>
        <time>2021-08-30T14:47:24Z</time>
      </trkpt>
      <trkpt lat="47.03723" lon="2.33867">
        <ele>159</ele>
        <time>2021-08-30T14:47:24Z</time>
      </trkpt>
      <trkpt lat="47.03739" lon="2.33905">
        <ele>159</ele>
        <time>2021-08-30T14:47:24Z</time>
      </trkpt>
      <trkpt lat="47.03757" lon="2.33942">
        <ele>159</ele>
        <time>2021-08-30T14:47:24Z</time>
      </trkpt>
      <trkpt lat="47.03775" lon="2.33981">
        <ele>160</ele>
        <time>2021-08-30T14:47:24Z</time>
      </trkpt>
      <trkpt lat="47.03794" lon="2.34017">
        <ele>160</ele>
        <time>2021-08-30T14:47:24Z</time>
      </trkpt>
      <trkpt lat="47.03817" lon="2.3405">
        <ele>161</ele>
        <time>2021-08-30T14:47:24Z</time>
      </trkpt>
      <trkpt lat="47.03838" lon="2.34068">
        <ele>160</ele>
        <time>2021-08-30T14:47:24Z</time>
      </trkpt>
      <trkpt lat="47.03843" lon="2.34072">
        <ele>160</ele>
        <time>2021-08-30T14:47:24Z</time>
      </trkpt>
      <trkpt lat="47.03854" lon="2.34079">
        <ele>159</ele>
        <time>2021-08-30T14:47:24Z</time>
      </trkpt>
      <trkpt lat="47.0386" lon="2.34083">
        <ele>159</ele>
        <time>2021-08-30T14:47:24Z</time>
      </trkpt>
      <trkpt lat="47.03866" lon="2.34086">
        <ele>158</ele>
        <time>2021-08-30T14:47:24Z</time>
      </trkpt>
      <trkpt lat="47.03871" lon="2.34091">
        <ele>158</ele>
        <time>2021-08-30T14:47:24Z</time>
      </trkpt>
      <trkpt lat="47.03876" lon="2.34095">
        <ele>158</ele>
        <time>2021-08-30T14:47:24Z</time>
      </trkpt>
      <trkpt lat="47.03882" lon="2.34099">
        <ele>158</ele>
        <time>2021-08-30T14:47:24Z</time>
      </trkpt>
      <trkpt lat="47.03887" lon="2.34102">
        <ele>158</ele>
        <time>2021-08-30T14:47:24Z</time>
      </trkpt>
      <trkpt lat="47.03893" lon="2.34106">
        <ele>158</ele>
        <time>2021-08-30T14:47:24Z</time>
      </trkpt>
      <trkpt lat="47.03898" lon="2.3411">
        <ele>158</ele>
        <time>2021-08-30T14:47:24Z</time>
      </trkpt>
      <trkpt lat="47.03904" lon="2.34114">
        <ele>157</ele>
        <time>2021-08-30T14:47:24Z</time>
      </trkpt>
      <trkpt lat="47.0391" lon="2.34117">
        <ele>157</ele>
        <time>2021-08-30T14:47:24Z</time>
      </trkpt>
      <trkpt lat="47.03916" lon="2.34121">
        <ele>157</ele>
        <time>2021-08-30T14:47:24Z</time>
      </trkpt>
      <trkpt lat="47.03921" lon="2.34125">
        <ele>157</ele>
        <time>2021-08-30T14:47:24Z</time>
      </trkpt>
      <trkpt lat="47.03927" lon="2.34129">
        <ele>157</ele>
        <time>2021-08-30T14:47:24Z</time>
      </trkpt>
      <trkpt lat="47.03933" lon="2.34133">
        <ele>158</ele>
        <time>2021-08-30T14:47:24Z</time>
      </trkpt>
      <trkpt lat="47.03938" lon="2.34137">
        <ele>158</ele>
        <time>2021-08-30T14:47:24Z</time>
      </trkpt>
      <trkpt lat="47.03943" lon="2.34141">
        <ele>158</ele>
        <time>2021-08-30T14:47:24Z</time>
      </trkpt>
      <trkpt lat="47.03949" lon="2.34145">
        <ele>159</ele>
        <time>2021-08-30T14:47:24Z</time>
      </trkpt>
      <trkpt lat="47.03955" lon="2.34149">
        <ele>159</ele>
        <time>2021-08-30T14:47:24Z</time>
      </trkpt>
      <trkpt lat="47.0396" lon="2.34152">
        <ele>159</ele>
        <time>2021-08-30T14:47:24Z</time>
      </trkpt>
      <trkpt lat="47.03966" lon="2.34156">
        <ele>159</ele>
        <time>2021-08-30T14:47:24Z</time>
      </trkpt>
      <trkpt lat="47.03971" lon="2.3416">
        <ele>159</ele>
        <time>2021-08-30T14:47:24Z</time>
      </trkpt>
      <trkpt lat="47.03977" lon="2.34164">
        <ele>159</ele>
        <time>2021-08-30T14:47:24Z</time>
      </trkpt>
      <trkpt lat="47.03983" lon="2.34167">
        <ele>159</ele>
        <time>2021-08-30T14:47:24Z</time>
      </trkpt>
      <trkpt lat="47.03989" lon="2.34171">
        <ele>159</ele>
        <time>2021-08-30T14:47:24Z</time>
      </trkpt>
      <trkpt lat="47.03994" lon="2.34176">
        <ele>159</ele>
        <time>2021-08-30T14:47:24Z</time>
      </trkpt>
      <trkpt lat="47.04" lon="2.34179">
        <ele>159</ele>
        <time>2021-08-30T14:47:24Z</time>
      </trkpt>
      <trkpt lat="47.04005" lon="2.34183">
        <ele>158</ele>
        <time>2021-08-30T14:47:24Z</time>
      </trkpt>
      <trkpt lat="47.04011" lon="2.34187">
        <ele>158</ele>
        <time>2021-08-30T14:47:24Z</time>
      </trkpt>
      <trkpt lat="47.04016" lon="2.34191">
        <ele>157</ele>
        <time>2021-08-30T14:47:24Z</time>
      </trkpt>
      <trkpt lat="47.04022" lon="2.34196">
        <ele>157</ele>
        <time>2021-08-30T14:47:24Z</time>
      </trkpt>
      <trkpt lat="47.04028" lon="2.342">
        <ele>157</ele>
        <time>2021-08-30T14:47:24Z</time>
      </trkpt>
      <trkpt lat="47.04034" lon="2.34204">
        <ele>157</ele>
        <time>2021-08-30T14:47:24Z</time>
      </trkpt>
      <trkpt lat="47.04039" lon="2.34207">
        <ele>157</ele>
        <time>2021-08-30T14:47:24Z</time>
      </trkpt>
      <trkpt lat="47.04045" lon="2.34211">
        <ele>157</ele>
        <time>2021-08-30T14:47:24Z</time>
      </trkpt>
      <trkpt lat="47.0405" lon="2.34216">
        <ele>157</ele>
        <time>2021-08-30T14:47:24Z</time>
      </trkpt>
      <trkpt lat="47.04056" lon="2.3422">
        <ele>157</ele>
        <time>2021-08-30T14:47:24Z</time>
      </trkpt>
      <trkpt lat="47.04061" lon="2.34225">
        <ele>157</ele>
        <time>2021-08-30T14:47:24Z</time>
      </trkpt>
      <trkpt lat="47.04067" lon="2.34228">
        <ele>157</ele>
        <time>2021-08-30T14:47:24Z</time>
      </trkpt>
      <trkpt lat="47.04072" lon="2.34233">
        <ele>157</ele>
        <time>2021-08-30T14:47:24Z</time>
      </trkpt>
      <trkpt lat="47.04078" lon="2.34236">
        <ele>158</ele>
        <time>2021-08-30T14:47:24Z</time>
      </trkpt>
      <trkpt lat="47.04083" lon="2.3424">
        <ele>158</ele>
        <time>2021-08-30T14:47:24Z</time>
      </trkpt>
      <trkpt lat="47.04088" lon="2.34244">
        <ele>158</ele>
        <time>2021-08-30T14:47:24Z</time>
      </trkpt>
      <trkpt lat="47.04093" lon="2.34247">
        <ele>158</ele>
        <time>2021-08-30T14:47:24Z</time>
      </trkpt>
      <trkpt lat="47.04099" lon="2.34251">
        <ele>158</ele>
        <time>2021-08-30T14:47:24Z</time>
      </trkpt>
      <trkpt lat="47.04105" lon="2.34255">
        <ele>158</ele>
        <time>2021-08-30T14:47:24Z</time>
      </trkpt>
      <trkpt lat="47.0411" lon="2.34257">
        <ele>158</ele>
        <time>2021-08-30T14:47:24Z</time>
      </trkpt>
      <trkpt lat="47.04116" lon="2.34261">
        <ele>157</ele>
        <time>2021-08-30T14:47:24Z</time>
      </trkpt>
      <trkpt lat="47.04121" lon="2.34264">
        <ele>157</ele>
        <time>2021-08-30T14:47:24Z</time>
      </trkpt>
      <trkpt lat="47.04126" lon="2.34267">
        <ele>157</ele>
        <time>2021-08-30T14:47:24Z</time>
      </trkpt>
      <trkpt lat="47.04131" lon="2.3427">
        <ele>157</ele>
        <time>2021-08-30T14:47:24Z</time>
      </trkpt>
      <trkpt lat="47.04136" lon="2.34274">
        <ele>157</ele>
        <time>2021-08-30T14:47:24Z</time>
      </trkpt>
      <trkpt lat="47.04142" lon="2.34277">
        <ele>157</ele>
        <time>2021-08-30T14:47:24Z</time>
      </trkpt>
      <trkpt lat="47.04145" lon="2.34279">
        <ele>156</ele>
        <time>2021-08-30T14:47:24Z</time>
      </trkpt>
      <trkpt lat="47.0415" lon="2.34282">
        <ele>156</ele>
        <time>2021-08-30T14:47:24Z</time>
      </trkpt>
      <trkpt lat="47.04155" lon="2.34284">
        <ele>156</ele>
        <time>2021-08-30T14:47:24Z</time>
      </trkpt>
      <trkpt lat="47.0416" lon="2.34287">
        <ele>156</ele>
        <time>2021-08-30T14:47:24Z</time>
      </trkpt>
      <trkpt lat="47.04165" lon="2.34289">
        <ele>156</ele>
        <time>2021-08-30T14:47:24Z</time>
      </trkpt>
      <trkpt lat="47.04171" lon="2.34292">
        <ele>157</ele>
        <time>2021-08-30T14:47:24Z</time>
      </trkpt>
      <trkpt lat="47.04176" lon="2.34296">
        <ele>157</ele>
        <time>2021-08-30T14:47:24Z</time>
      </trkpt>
      <trkpt lat="47.04181" lon="2.34299">
        <ele>157</ele>
        <time>2021-08-30T14:47:24Z</time>
      </trkpt>
      <trkpt lat="47.04209" lon="2.34315">
        <ele>158</ele>
        <time>2021-08-30T14:47:24Z</time>
      </trkpt>
      <trkpt lat="47.04239" lon="2.34331">
        <ele>159</ele>
        <time>2021-08-30T14:47:24Z</time>
      </trkpt>
      <trkpt lat="47.04266" lon="2.34359">
        <ele>160</ele>
        <time>2021-08-30T14:47:24Z</time>
      </trkpt>
      <trkpt lat="47.04288" lon="2.34392">
        <ele>160</ele>
        <time>2021-08-30T14:47:24Z</time>
      </trkpt>
      <trkpt lat="47.04305" lon="2.34431">
        <ele>158</ele>
        <time>2021-08-30T14:47:24Z</time>
      </trkpt>
      <trkpt lat="47.0432" lon="2.34464">
        <ele>158</ele>
        <time>2021-08-30T14:47:24Z</time>
      </trkpt>
      <trkpt lat="47.04323" lon="2.34472">
        <ele>158</ele>
        <time>2021-08-30T14:47:24Z</time>
      </trkpt>
      <trkpt lat="47.04345" lon="2.34508">
        <ele>158</ele>
        <time>2021-08-30T14:47:24Z</time>
      </trkpt>
      <trkpt lat="47.04365" lon="2.34542">
        <ele>159</ele>
        <time>2021-08-30T14:47:24Z</time>
      </trkpt>
      <trkpt lat="47.04382" lon="2.34571">
        <ele>159</ele>
        <time>2021-08-30T14:47:24Z</time>
      </trkpt>
      <trkpt lat="47.04389" lon="2.34593">
        <ele>159</ele>
        <time>2021-08-30T14:47:24Z</time>
      </trkpt>
      <trkpt lat="47.04366" lon="2.34622">
        <ele>158</ele>
        <time>2021-08-30T14:47:24Z</time>
      </trkpt>
      <trkpt lat="47.04346" lon="2.34647">
        <ele>157</ele>
        <time>2021-08-30T14:47:24Z</time>
      </trkpt>
      <trkpt lat="47.04341" lon="2.34654">
        <ele>157</ele>
        <time>2021-08-30T14:47:24Z</time>
      </trkpt>
      <trkpt lat="47.04315" lon="2.34687">
        <ele>157</ele>
        <time>2021-08-30T14:47:24Z</time>
      </trkpt>
      <trkpt lat="47.04289" lon="2.34721">
        <ele>156</ele>
        <time>2021-08-30T14:47:24Z</time>
      </trkpt>
      <trkpt lat="47.04264" lon="2.34753">
        <ele>156</ele>
        <time>2021-08-30T14:47:24Z</time>
      </trkpt>
      <trkpt lat="47.0424" lon="2.34786">
        <ele>157</ele>
        <time>2021-08-30T14:47:24Z</time>
      </trkpt>
      <trkpt lat="47.04218" lon="2.34814">
        <ele>156</ele>
        <time>2021-08-30T14:47:24Z</time>
      </trkpt>
      <trkpt lat="47.04216" lon="2.34848">
        <ele>154</ele>
        <time>2021-08-30T14:47:24Z</time>
      </trkpt>
      <trkpt lat="47.0422" lon="2.34855">
        <ele>154</ele>
        <time>2021-08-30T14:47:24Z</time>
      </trkpt>
      <trkpt lat="47.04227" lon="2.34868">
        <ele>153</ele>
        <time>2021-08-30T14:47:24Z</time>
      </trkpt>
      <trkpt lat="47.0423" lon="2.34874">
        <ele>153</ele>
        <time>2021-08-30T14:47:24Z</time>
      </trkpt>
      <trkpt lat="47.04233" lon="2.34881">
        <ele>152</ele>
        <time>2021-08-30T14:47:24Z</time>
      </trkpt>
      <trkpt lat="47.04236" lon="2.34887">
        <ele>152</ele>
        <time>2021-08-30T14:47:24Z</time>
      </trkpt>
      <trkpt lat="47.04238" lon="2.34892">
        <ele>152</ele>
        <time>2021-08-30T14:47:24Z</time>
      </trkpt>
      <trkpt lat="47.04241" lon="2.34898">
        <ele>152</ele>
        <time>2021-08-30T14:47:24Z</time>
      </trkpt>
      <trkpt lat="47.04242" lon="2.34905">
        <ele>152</ele>
        <time>2021-08-30T14:47:24Z</time>
      </trkpt>
      <trkpt lat="47.04241" lon="2.34914">
        <ele>152</ele>
        <time>2021-08-30T14:47:24Z</time>
      </trkpt>
      <trkpt lat="47.04239" lon="2.34923">
        <ele>152</ele>
        <time>2021-08-30T14:47:24Z</time>
      </trkpt>
      <trkpt lat="47.04239" lon="2.34932">
        <ele>152</ele>
        <time>2021-08-30T14:47:24Z</time>
      </trkpt>
      <trkpt lat="47.04241" lon="2.34942">
        <ele>152</ele>
        <time>2021-08-30T14:47:24Z</time>
      </trkpt>
      <trkpt lat="47.04244" lon="2.3495">
        <ele>153</ele>
        <time>2021-08-30T14:47:24Z</time>
      </trkpt>
      <trkpt lat="47.04249" lon="2.34956">
        <ele>153</ele>
        <time>2021-08-30T14:47:24Z</time>
      </trkpt>
      <trkpt lat="47.04255" lon="2.34961">
        <ele>153</ele>
        <time>2021-08-30T14:47:24Z</time>
      </trkpt>
      <trkpt lat="47.04261" lon="2.34963">
        <ele>153</ele>
        <time>2021-08-30T14:47:24Z</time>
      </trkpt>
      <trkpt lat="47.04267" lon="2.34964">
        <ele>153</ele>
        <time>2021-08-30T14:47:24Z</time>
      </trkpt>
      <trkpt lat="47.04273" lon="2.34962">
        <ele>153</ele>
        <time>2021-08-30T14:47:24Z</time>
      </trkpt>
      <trkpt lat="47.0428" lon="2.34962">
        <ele>153</ele>
        <time>2021-08-30T14:47:24Z</time>
      </trkpt>
      <trkpt lat="47.04286" lon="2.34966">
        <ele>153</ele>
        <time>2021-08-30T14:47:24Z</time>
      </trkpt>
      <trkpt lat="47.04291" lon="2.3497">
        <ele>153</ele>
        <time>2021-08-30T14:47:24Z</time>
      </trkpt>
      <trkpt lat="47.04297" lon="2.34975">
        <ele>152</ele>
        <time>2021-08-30T14:47:24Z</time>
      </trkpt>
      <trkpt lat="47.04301" lon="2.3498">
        <ele>152</ele>
        <time>2021-08-30T14:47:24Z</time>
      </trkpt>
      <trkpt lat="47.04307" lon="2.34985">
        <ele>151</ele>
        <time>2021-08-30T14:47:24Z</time>
      </trkpt>
      <trkpt lat="47.04312" lon="2.3499">
        <ele>151</ele>
        <time>2021-08-30T14:47:24Z</time>
      </trkpt>
      <trkpt lat="47.04318" lon="2.34996">
        <ele>151</ele>
        <time>2021-08-30T14:47:24Z</time>
      </trkpt>
      <trkpt lat="47.04323" lon="2.35">
        <ele>150</ele>
        <time>2021-08-30T14:47:24Z</time>
      </trkpt>
      <trkpt lat="47.0433" lon="2.35003">
        <ele>150</ele>
        <time>2021-08-30T14:47:24Z</time>
      </trkpt>
      <trkpt lat="47.04336" lon="2.35006">
        <ele>150</ele>
        <time>2021-08-30T14:47:24Z</time>
      </trkpt>
      <trkpt lat="47.04341" lon="2.35009">
        <ele>150</ele>
        <time>2021-08-30T14:47:24Z</time>
      </trkpt>
      <trkpt lat="47.04348" lon="2.35013">
        <ele>150</ele>
        <time>2021-08-30T14:47:24Z</time>
      </trkpt>
      <trkpt lat="47.04353" lon="2.35018">
        <ele>150</ele>
        <time>2021-08-30T14:47:24Z</time>
      </trkpt>
      <trkpt lat="47.04359" lon="2.35023">
        <ele>150</ele>
        <time>2021-08-30T14:47:24Z</time>
      </trkpt>
      <trkpt lat="47.04364" lon="2.35029">
        <ele>151</ele>
        <time>2021-08-30T14:47:24Z</time>
      </trkpt>
      <trkpt lat="47.04369" lon="2.35034">
        <ele>151</ele>
        <time>2021-08-30T14:47:24Z</time>
      </trkpt>
      <trkpt lat="47.04373" lon="2.35041">
        <ele>151</ele>
        <time>2021-08-30T14:47:24Z</time>
      </trkpt>
      <trkpt lat="47.04378" lon="2.35048">
        <ele>151</ele>
        <time>2021-08-30T14:47:24Z</time>
      </trkpt>
      <trkpt lat="47.04383" lon="2.35054">
        <ele>151</ele>
        <time>2021-08-30T14:47:24Z</time>
      </trkpt>
      <trkpt lat="47.04387" lon="2.3506">
        <ele>151</ele>
        <time>2021-08-30T14:47:24Z</time>
      </trkpt>
      <trkpt lat="47.04392" lon="2.35066">
        <ele>151</ele>
        <time>2021-08-30T14:47:24Z</time>
      </trkpt>
      <trkpt lat="47.04397" lon="2.35072">
        <ele>151</ele>
        <time>2021-08-30T14:47:24Z</time>
      </trkpt>
      <trkpt lat="47.04402" lon="2.35078">
        <ele>151</ele>
        <time>2021-08-30T14:47:24Z</time>
      </trkpt>
      <trkpt lat="47.04406" lon="2.35084">
        <ele>152</ele>
        <time>2021-08-30T14:47:24Z</time>
      </trkpt>
      <trkpt lat="47.04411" lon="2.3509">
        <ele>152</ele>
        <time>2021-08-30T14:47:24Z</time>
      </trkpt>
      <trkpt lat="47.04416" lon="2.35096">
        <ele>152</ele>
        <time>2021-08-30T14:47:24Z</time>
      </trkpt>
      <trkpt lat="47.0442" lon="2.35103">
        <ele>152</ele>
        <time>2021-08-30T14:47:24Z</time>
      </trkpt>
      <trkpt lat="47.04424" lon="2.35109">
        <ele>153</ele>
        <time>2021-08-30T14:47:24Z</time>
      </trkpt>
      <trkpt lat="47.04429" lon="2.35115">
        <ele>153</ele>
        <time>2021-08-30T14:47:24Z</time>
      </trkpt>
      <trkpt lat="47.04434" lon="2.35121">
        <ele>153</ele>
        <time>2021-08-30T14:47:24Z</time>
      </trkpt>
      <trkpt lat="47.04439" lon="2.35127">
        <ele>154</ele>
        <time>2021-08-30T14:47:24Z</time>
      </trkpt>
      <trkpt lat="47.04444" lon="2.35133">
        <ele>154</ele>
        <time>2021-08-30T14:47:24Z</time>
      </trkpt>
      <trkpt lat="47.04448" lon="2.35139">
        <ele>154</ele>
        <time>2021-08-30T14:47:24Z</time>
      </trkpt>
      <trkpt lat="47.04453" lon="2.35145">
        <ele>154</ele>
        <time>2021-08-30T14:47:24Z</time>
      </trkpt>
      <trkpt lat="47.04458" lon="2.35151">
        <ele>154</ele>
        <time>2021-08-30T14:47:24Z</time>
      </trkpt>
      <trkpt lat="47.04462" lon="2.35156">
        <ele>154</ele>
        <time>2021-08-30T14:47:24Z</time>
      </trkpt>
      <trkpt lat="47.04464" lon="2.35162">
        <ele>153</ele>
        <time>2021-08-30T14:47:24Z</time>
      </trkpt>
      <trkpt lat="47.04464" lon="2.35168">
        <ele>153</ele>
        <time>2021-08-30T14:47:24Z</time>
      </trkpt>
      <trkpt lat="47.04461" lon="2.35174">
        <ele>153</ele>
        <time>2021-08-30T14:47:24Z</time>
      </trkpt>
      <trkpt lat="47.04457" lon="2.35179">
        <ele>152</ele>
        <time>2021-08-30T14:47:24Z</time>
      </trkpt>
      <trkpt lat="47.04453" lon="2.35185">
        <ele>152</ele>
        <time>2021-08-30T14:47:24Z</time>
      </trkpt>
      <trkpt lat="47.04449" lon="2.3519">
        <ele>152</ele>
        <time>2021-08-30T14:47:24Z</time>
      </trkpt>
      <trkpt lat="47.04445" lon="2.35197">
        <ele>151</ele>
        <time>2021-08-30T14:47:24Z</time>
      </trkpt>
      <trkpt lat="47.04422" lon="2.35233">
        <ele>149</ele>
        <time>2021-08-30T14:47:24Z</time>
      </trkpt>
      <trkpt lat="47.04397" lon="2.35274">
        <ele>148</ele>
        <time>2021-08-30T14:47:24Z</time>
      </trkpt>
      <trkpt lat="47.04372" lon="2.35315">
        <ele>148</ele>
        <time>2021-08-30T14:47:24Z</time>
      </trkpt>
      <trkpt lat="47.04351" lon="2.35348">
        <ele>149</ele>
        <time>2021-08-30T14:47:24Z</time>
      </trkpt>
      <trkpt lat="47.04333" lon="2.35374">
        <ele>151</ele>
        <time>2021-08-30T14:47:24Z</time>
      </trkpt>
      <trkpt lat="47.04318" lon="2.35397">
        <ele>152</ele>
        <time>2021-08-30T14:47:24Z</time>
      </trkpt>
      <trkpt lat="47.04315" lon="2.35403">
        <ele>152</ele>
        <time>2021-08-30T14:47:24Z</time>
      </trkpt>
      <trkpt lat="47.04296" lon="2.35432">
        <ele>153</ele>
        <time>2021-08-30T14:47:24Z</time>
      </trkpt>
      <trkpt lat="47.04292" lon="2.35438">
        <ele>154</ele>
        <time>2021-08-30T14:47:24Z</time>
      </trkpt>
      <trkpt lat="47.04289" lon="2.35445">
        <ele>155</ele>
        <time>2021-08-30T14:47:24Z</time>
      </trkpt>
      <trkpt lat="47.04285" lon="2.35451">
        <ele>155</ele>
        <time>2021-08-30T14:47:24Z</time>
      </trkpt>
      <trkpt lat="47.04281" lon="2.35458">
        <ele>156</ele>
        <time>2021-08-30T14:47:24Z</time>
      </trkpt>
      <trkpt lat="47.04277" lon="2.35465">
        <ele>157</ele>
        <time>2021-08-30T14:47:24Z</time>
      </trkpt>
      <trkpt lat="47.04274" lon="2.35471">
        <ele>157</ele>
        <time>2021-08-30T14:47:24Z</time>
      </trkpt>
      <trkpt lat="47.0427" lon="2.35477">
        <ele>157</ele>
        <time>2021-08-30T14:47:24Z</time>
      </trkpt>
      <trkpt lat="47.04267" lon="2.35484">
        <ele>158</ele>
        <time>2021-08-30T14:47:24Z</time>
      </trkpt>
      <trkpt lat="47.04263" lon="2.3549">
        <ele>158</ele>
        <time>2021-08-30T14:47:24Z</time>
      </trkpt>
      <trkpt lat="47.04263" lon="2.35504">
        <ele>158</ele>
        <time>2021-08-30T14:47:24Z</time>
      </trkpt>
      <trkpt lat="47.04281" lon="2.35513">
        <ele>158</ele>
        <time>2021-08-30T14:47:24Z</time>
      </trkpt>
      <trkpt lat="47.04298" lon="2.35531">
        <ele>156</ele>
        <time>2021-08-30T14:47:24Z</time>
      </trkpt>
      <trkpt lat="47.04316" lon="2.3555">
        <ele>155</ele>
        <time>2021-08-30T14:47:24Z</time>
      </trkpt>
      <trkpt lat="47.04335" lon="2.35571">
        <ele>154</ele>
        <time>2021-08-30T14:47:24Z</time>
      </trkpt>
      <trkpt lat="47.04351" lon="2.35589">
        <ele>153</ele>
        <time>2021-08-30T14:47:24Z</time>
      </trkpt>
      <trkpt lat="47.04355" lon="2.35592">
        <ele>153</ele>
        <time>2021-08-30T14:47:24Z</time>
      </trkpt>
      <trkpt lat="47.04374" lon="2.35614">
        <ele>153</ele>
        <time>2021-08-30T14:47:24Z</time>
      </trkpt>
      <trkpt lat="47.04392" lon="2.35635">
        <ele>153</ele>
        <time>2021-08-30T14:47:24Z</time>
      </trkpt>
      <trkpt lat="47.04409" lon="2.35655">
        <ele>153</ele>
        <time>2021-08-30T14:47:24Z</time>
      </trkpt>
      <trkpt lat="47.04425" lon="2.35679">
        <ele>152</ele>
        <time>2021-08-30T14:47:24Z</time>
      </trkpt>
      <trkpt lat="47.04443" lon="2.35704">
        <ele>152</ele>
        <time>2021-08-30T14:47:24Z</time>
      </trkpt>
      <trkpt lat="47.04455" lon="2.35722">
        <ele>152</ele>
        <time>2021-08-30T14:47:24Z</time>
      </trkpt>
      <trkpt lat="47.04457" lon="2.35726">
        <ele>152</ele>
        <time>2021-08-30T14:47:24Z</time>
      </trkpt>
      <trkpt lat="47.04462" lon="2.35733">
        <ele>151</ele>
        <time>2021-08-30T14:47:24Z</time>
      </trkpt>
      <trkpt lat="47.04465" lon="2.35736">
        <ele>151</ele>
        <time>2021-08-30T14:47:24Z</time>
      </trkpt>
      <trkpt lat="47.04468" lon="2.35739">
        <ele>151</ele>
        <time>2021-08-30T14:47:24Z</time>
      </trkpt>
      <trkpt lat="47.04471" lon="2.35743">
        <ele>151</ele>
        <time>2021-08-30T14:47:24Z</time>
      </trkpt>
      <trkpt lat="47.04474" lon="2.35746">
        <ele>151</ele>
        <time>2021-08-30T14:47:24Z</time>
      </trkpt>
      <trkpt lat="47.04477" lon="2.35749">
        <ele>151</ele>
        <time>2021-08-30T14:47:24Z</time>
      </trkpt>
      <trkpt lat="47.04479" lon="2.35753">
        <ele>151</ele>
        <time>2021-08-30T14:47:24Z</time>
      </trkpt>
      <trkpt lat="47.04482" lon="2.35757">
        <ele>150</ele>
        <time>2021-08-30T14:47:24Z</time>
      </trkpt>
      <trkpt lat="47.04484" lon="2.3576">
        <ele>150</ele>
        <time>2021-08-30T14:47:24Z</time>
      </trkpt>
      <trkpt lat="47.04486" lon="2.35764">
        <ele>150</ele>
        <time>2021-08-30T14:47:24Z</time>
      </trkpt>
      <trkpt lat="47.04489" lon="2.35768">
        <ele>150</ele>
        <time>2021-08-30T14:47:24Z</time>
      </trkpt>
      <trkpt lat="47.04493" lon="2.35772">
        <ele>150</ele>
        <time>2021-08-30T14:47:24Z</time>
      </trkpt>
      <trkpt lat="47.04498" lon="2.35776">
        <ele>150</ele>
        <time>2021-08-30T14:47:24Z</time>
      </trkpt>
      <trkpt lat="47.04502" lon="2.35778">
        <ele>149</ele>
        <time>2021-08-30T14:47:24Z</time>
      </trkpt>
      <trkpt lat="47.04505" lon="2.35782">
        <ele>149</ele>
        <time>2021-08-30T14:47:24Z</time>
      </trkpt>
      <trkpt lat="47.04509" lon="2.35786">
        <ele>149</ele>
        <time>2021-08-30T14:47:24Z</time>
      </trkpt>
      <trkpt lat="47.04513" lon="2.35789">
        <ele>149</ele>
        <time>2021-08-30T14:47:24Z</time>
      </trkpt>
      <trkpt lat="47.04516" lon="2.35792">
        <ele>149</ele>
        <time>2021-08-30T14:47:24Z</time>
      </trkpt>
      <trkpt lat="47.04521" lon="2.35796">
        <ele>149</ele>
        <time>2021-08-30T14:47:24Z</time>
      </trkpt>
      <trkpt lat="47.04524" lon="2.358">
        <ele>149</ele>
        <time>2021-08-30T14:47:24Z</time>
      </trkpt>
      <trkpt lat="47.04528" lon="2.35803">
        <ele>149</ele>
        <time>2021-08-30T14:47:24Z</time>
      </trkpt>
      <trkpt lat="47.04533" lon="2.35806">
        <ele>150</ele>
        <time>2021-08-30T14:47:24Z</time>
      </trkpt>
      <trkpt lat="47.04537" lon="2.35809">
        <ele>150</ele>
        <time>2021-08-30T14:47:24Z</time>
      </trkpt>
      <trkpt lat="47.0454" lon="2.35813">
        <ele>150</ele>
        <time>2021-08-30T14:47:24Z</time>
      </trkpt>
      <trkpt lat="47.04544" lon="2.35816">
        <ele>151</ele>
        <time>2021-08-30T14:47:24Z</time>
      </trkpt>
      <trkpt lat="47.04548" lon="2.35819">
        <ele>151</ele>
        <time>2021-08-30T14:47:24Z</time>
      </trkpt>
      <trkpt lat="47.04552" lon="2.35823">
        <ele>151</ele>
        <time>2021-08-30T14:47:24Z</time>
      </trkpt>
      <trkpt lat="47.04556" lon="2.35826">
        <ele>151</ele>
        <time>2021-08-30T14:47:24Z</time>
      </trkpt>
      <trkpt lat="47.0456" lon="2.3583">
        <ele>151</ele>
        <time>2021-08-30T14:47:24Z</time>
      </trkpt>
      <trkpt lat="47.04564" lon="2.35833">
        <ele>151</ele>
        <time>2021-08-30T14:47:24Z</time>
      </trkpt>
      <trkpt lat="47.04568" lon="2.35837">
        <ele>151</ele>
        <time>2021-08-30T14:47:24Z</time>
      </trkpt>
      <trkpt lat="47.04572" lon="2.3584">
        <ele>151</ele>
        <time>2021-08-30T14:47:24Z</time>
      </trkpt>
      <trkpt lat="47.04576" lon="2.35843">
        <ele>151</ele>
        <time>2021-08-30T14:47:24Z</time>
      </trkpt>
      <trkpt lat="47.0458" lon="2.35847">
        <ele>151</ele>
        <time>2021-08-30T14:47:24Z</time>
      </trkpt>
      <trkpt lat="47.04584" lon="2.3585">
        <ele>151</ele>
        <time>2021-08-30T14:47:24Z</time>
      </trkpt>
      <trkpt lat="47.04588" lon="2.35854">
        <ele>151</ele>
        <time>2021-08-30T14:47:24Z</time>
      </trkpt>
      <trkpt lat="47.04592" lon="2.35858">
        <ele>151</ele>
        <time>2021-08-30T14:47:24Z</time>
      </trkpt>
      <trkpt lat="47.04596" lon="2.35862">
        <ele>151</ele>
        <time>2021-08-30T14:47:24Z</time>
      </trkpt>
      <trkpt lat="47.04599" lon="2.35865">
        <ele>151</ele>
        <time>2021-08-30T14:47:24Z</time>
      </trkpt>
      <trkpt lat="47.04604" lon="2.35868">
        <ele>152</ele>
        <time>2021-08-30T14:47:24Z</time>
      </trkpt>
      <trkpt lat="47.04608" lon="2.35871">
        <ele>152</ele>
        <time>2021-08-30T14:47:24Z</time>
      </trkpt>
      <trkpt lat="47.04612" lon="2.35875">
        <ele>152</ele>
        <time>2021-08-30T14:47:24Z</time>
      </trkpt>
      <trkpt lat="47.04616" lon="2.35878">
        <ele>153</ele>
        <time>2021-08-30T14:47:24Z</time>
      </trkpt>
      <trkpt lat="47.0462" lon="2.35882">
        <ele>153</ele>
        <time>2021-08-30T14:47:24Z</time>
      </trkpt>
      <trkpt lat="47.04623" lon="2.35885">
        <ele>153</ele>
        <time>2021-08-30T14:47:24Z</time>
      </trkpt>
      <trkpt lat="47.04628" lon="2.35888">
        <ele>153</ele>
        <time>2021-08-30T14:47:24Z</time>
      </trkpt>
      <trkpt lat="47.04632" lon="2.35891">
        <ele>154</ele>
        <time>2021-08-30T14:47:24Z</time>
      </trkpt>
      <trkpt lat="47.04636" lon="2.35894">
        <ele>154</ele>
        <time>2021-08-30T14:47:24Z</time>
      </trkpt>
      <trkpt lat="47.0464" lon="2.35897">
        <ele>154</ele>
        <time>2021-08-30T14:47:24Z</time>
      </trkpt>
      <trkpt lat="47.04645" lon="2.35901">
        <ele>154</ele>
        <time>2021-08-30T14:47:24Z</time>
      </trkpt>
      <trkpt lat="47.04649" lon="2.35905">
        <ele>153</ele>
        <time>2021-08-30T14:47:24Z</time>
      </trkpt>
      <trkpt lat="47.04653" lon="2.35909">
        <ele>153</ele>
        <time>2021-08-30T14:47:24Z</time>
      </trkpt>
      <trkpt lat="47.04657" lon="2.35914">
        <ele>153</ele>
        <time>2021-08-30T14:47:24Z</time>
      </trkpt>
      <trkpt lat="47.04661" lon="2.35917">
        <ele>153</ele>
        <time>2021-08-30T14:47:24Z</time>
      </trkpt>
      <trkpt lat="47.04665" lon="2.35921">
        <ele>153</ele>
        <time>2021-08-30T14:47:24Z</time>
      </trkpt>
      <trkpt lat="47.04669" lon="2.35925">
        <ele>152</ele>
        <time>2021-08-30T14:47:24Z</time>
      </trkpt>
      <trkpt lat="47.04673" lon="2.35929">
        <ele>152</ele>
        <time>2021-08-30T14:47:24Z</time>
      </trkpt>
      <trkpt lat="47.04677" lon="2.35933">
        <ele>152</ele>
        <time>2021-08-30T14:47:24Z</time>
      </trkpt>
      <trkpt lat="47.04681" lon="2.35936">
        <ele>151</ele>
        <time>2021-08-30T14:47:24Z</time>
      </trkpt>
      <trkpt lat="47.04685" lon="2.3594">
        <ele>151</ele>
        <time>2021-08-30T14:47:24Z</time>
      </trkpt>
      <trkpt lat="47.04689" lon="2.35944">
        <ele>151</ele>
        <time>2021-08-30T14:47:24Z</time>
      </trkpt>
      <trkpt lat="47.04712" lon="2.35966">
        <ele>150</ele>
        <time>2021-08-30T14:47:24Z</time>
      </trkpt>
      <trkpt lat="47.04736" lon="2.35989">
        <ele>149</ele>
        <time>2021-08-30T14:47:24Z</time>
      </trkpt>
      <trkpt lat="47.04762" lon="2.36011">
        <ele>147</ele>
        <time>2021-08-30T14:47:24Z</time>
      </trkpt>
      <trkpt lat="47.04783" lon="2.36031">
        <ele>146</ele>
        <time>2021-08-30T14:47:24Z</time>
      </trkpt>
      <trkpt lat="47.04805" lon="2.36051">
        <ele>146</ele>
        <time>2021-08-30T14:47:24Z</time>
      </trkpt>
      <trkpt lat="47.04821" lon="2.36064">
        <ele>147</ele>
        <time>2021-08-30T14:47:24Z</time>
      </trkpt>
      <trkpt lat="47.04824" lon="2.36068">
        <ele>147</ele>
        <time>2021-08-30T14:47:24Z</time>
      </trkpt>
      <trkpt lat="47.0484" lon="2.36083">
        <ele>149</ele>
        <time>2021-08-30T14:47:24Z</time>
      </trkpt>
      <trkpt lat="47.04857" lon="2.36097">
        <ele>150</ele>
        <time>2021-08-30T14:47:24Z</time>
      </trkpt>
      <trkpt lat="47.04875" lon="2.36114">
        <ele>150</ele>
        <time>2021-08-30T14:47:24Z</time>
      </trkpt>
      <trkpt lat="47.04895" lon="2.3613">
        <ele>151</ele>
        <time>2021-08-30T14:47:24Z</time>
      </trkpt>
      <trkpt lat="47.04915" lon="2.36148">
        <ele>152</ele>
        <time>2021-08-30T14:47:24Z</time>
      </trkpt>
      <trkpt lat="47.04931" lon="2.36163">
        <ele>152</ele>
        <time>2021-08-30T14:47:24Z</time>
      </trkpt>
      <trkpt lat="47.04935" lon="2.36167">
        <ele>153</ele>
        <time>2021-08-30T14:47:24Z</time>
      </trkpt>
      <trkpt lat="47.04955" lon="2.36181">
        <ele>152</ele>
        <time>2021-08-30T14:47:24Z</time>
      </trkpt>
      <trkpt lat="47.04973" lon="2.36199">
        <ele>153</ele>
        <time>2021-08-30T14:47:24Z</time>
      </trkpt>
      <trkpt lat="47.04992" lon="2.36216">
        <ele>154</ele>
        <time>2021-08-30T14:47:24Z</time>
      </trkpt>
      <trkpt lat="47.0501" lon="2.36233">
        <ele>155</ele>
        <time>2021-08-30T14:47:24Z</time>
      </trkpt>
      <trkpt lat="47.05011" lon="2.36258">
        <ele>155</ele>
        <time>2021-08-30T14:47:24Z</time>
      </trkpt>
      <trkpt lat="47.05224" lon="2.35871">
        <ele>148.7</ele>
      </trkpt>
      <trkpt lat="47.05538" lon="2.35489">
        <ele>148.5</ele>
      </trkpt>
      <trkpt lat="47.05481" lon="2.35374">
        <ele>142.3</ele>
      </trkpt>
      <trkpt lat="47.05559" lon="2.35243">
        <ele>144.8</ele>
      </trkpt>
      <trkpt lat="47.05566" lon="2.35259">
        <ele>145.4</ele>
      </trkpt>
      <trkpt lat="47.05585" lon="2.35184">
        <ele>143.6</ele>
      </trkpt>
      <trkpt lat="47.0561" lon="2.35131">
        <ele>141.7</ele>
      </trkpt>
      <trkpt lat="47.05664" lon="2.35038">
        <ele>141.9</ele>
      </trkpt>
      <trkpt lat="47.05697" lon="2.34989">
        <ele>145.1</ele>
      </trkpt>
      <trkpt lat="47.0579" lon="2.34806">
        <ele>149.5</ele>
      </trkpt>
      <trkpt lat="47.05979" lon="2.35406">
        <ele>158.6</ele>
      </trkpt>
      <trkpt lat="47.06022" lon="2.35523">
        <ele>160.2</ele>
      </trkpt>
      <trkpt lat="47.06061" lon="2.35612">
        <ele>158.9</ele>
      </trkpt>
      <trkpt lat="47.0609" lon="2.35659">
        <ele>158.9</ele>
      </trkpt>
      <trkpt lat="47.06117" lon="2.35713">
        <ele>158.1</ele>
      </trkpt>
      <trkpt lat="47.06142" lon="2.35778">
        <ele>157.2</ele>
      </trkpt>
      <trkpt lat="47.06181" lon="2.3587">
        <ele>154.8</ele>
      </trkpt>
      <trkpt lat="47.06301" lon="2.3613">
        <ele>152</ele>
      </trkpt>
      <trkpt lat="47.06404" lon="2.36368">
        <ele>148.1</ele>
      </trkpt>
      <trkpt lat="47.06477" lon="2.36527">
        <ele>146.6</ele>
      </trkpt>
      <trkpt lat="47.0656" lon="2.3673">
        <ele>147.4</ele>
      </trkpt>
      <trkpt lat="47.06572" lon="2.36766">
        <ele>147.6</ele>
      </trkpt>
      <trkpt lat="47.06605" lon="2.36838">
        <ele>147.3</ele>
      </trkpt>
      <trkpt lat="47.06639" lon="2.36917">
        <ele>148.7</ele>
      </trkpt>
      <trkpt lat="47.06658" lon="2.36951">
        <ele>148.9</ele>
      </trkpt>
      <trkpt lat="47.06688" lon="2.37017">
        <ele>149.8</ele>
      </trkpt>
      <trkpt lat="47.06657" lon="2.37048">
        <ele>150.6</ele>
      </trkpt>
      <trkpt lat="47.06644" lon="2.37052">
        <ele>150.6</ele>
      </trkpt>
      <trkpt lat="47.0663" lon="2.37058">
        <ele>150.6</ele>
      </trkpt>
      <trkpt lat="47.06625" lon="2.37054">
        <ele>150.4</ele>
      </trkpt>
      <trkpt lat="47.06619" lon="2.37053">
        <ele>150.3</ele>
      </trkpt>
      <trkpt lat="47.06611" lon="2.37056">
        <ele>150.3</ele>
      </trkpt>
      <trkpt lat="47.06603" lon="2.37071">
        <ele>150.8</ele>
      </trkpt>
      <trkpt lat="47.06603" lon="2.37077">
        <ele>151</ele>
      </trkpt>
      <trkpt lat="47.06606" lon="2.3709">
        <ele>151.3</ele>
      </trkpt>
      <trkpt lat="47.06613" lon="2.37101">
        <ele>151.4</ele>
      </trkpt>
      <trkpt lat="47.06621" lon="2.37103">
        <ele>151.5</ele>
      </trkpt>
      <trkpt lat="47.0663" lon="2.37099">
        <ele>151.5</ele>
      </trkpt>
      <trkpt lat="47.06649" lon="2.37148">
        <ele>151.3</ele>
      </trkpt>
      <trkpt lat="47.06662" lon="2.37171">
        <ele>151.2</ele>
      </trkpt>
      <trkpt lat="47.06759" lon="2.37305">
        <ele>154.1</ele>
      </trkpt>
      <trkpt lat="47.06852" lon="2.37424">
        <ele>155.2</ele>
      </trkpt>
      <trkpt lat="47.06847" lon="2.37432">
        <ele>155.5</ele>
      </trkpt>
      <trkpt lat="47.06846" lon="2.37443">
        <ele>155.7</ele>
      </trkpt>
      <trkpt lat="47.06847" lon="2.37454">
        <ele>155.7</ele>
      </trkpt>
      <trkpt lat="47.0684" lon="2.37465">
        <ele>156.2</ele>
      </trkpt>
      <trkpt lat="47.06654" lon="2.37771">
        <ele>158.5</ele>
      </trkpt>
      <trkpt lat="47.06627" lon="2.37806">
        <ele>158</ele>
      </trkpt>
      <trkpt lat="47.06575" lon="2.37877">
        <ele>157</ele>
      </trkpt>
      <trkpt lat="47.06583" lon="2.37889">
        <ele>156.7</ele>
      </trkpt>
      <trkpt lat="47.06575" lon="2.37877">
        <ele>157</ele>
      </trkpt>
      <trkpt lat="47.06567" lon="2.3787">
        <ele>157.1</ele>
      </trkpt>
      <trkpt lat="47.06558" lon="2.37866">
        <ele>157.2</ele>
      </trkpt>
      <trkpt lat="47.06547" lon="2.37866">
        <ele>157.2</ele>
      </trkpt>
      <trkpt lat="47.06532" lon="2.37873">
        <ele>157</ele>
      </trkpt>
      <trkpt lat="47.06525" lon="2.37881">
        <ele>156.9</ele>
      </trkpt>
      <trkpt lat="47.06519" lon="2.37892">
        <ele>156.6</ele>
      </trkpt>
      <trkpt lat="47.06515" lon="2.37906">
        <ele>156.3</ele>
      </trkpt>
      <trkpt lat="47.06514" lon="2.37914">
        <ele>156.1</ele>
      </trkpt>
      <trkpt lat="47.06515" lon="2.37935">
        <ele>155.6</ele>
      </trkpt>
      <trkpt lat="47.06518" lon="2.37947">
        <ele>155.3</ele>
      </trkpt>
      <trkpt lat="47.06524" lon="2.3796">
        <ele>155.1</ele>
      </trkpt>
      <trkpt lat="47.06532" lon="2.3797">
        <ele>155</ele>
      </trkpt>
      <trkpt lat="47.06543" lon="2.37976">
        <ele>154.9</ele>
      </trkpt>
      <trkpt lat="47.06512" lon="2.38063">
        <ele>151.9</ele>
      </trkpt>
      <trkpt lat="47.06453" lon="2.38196">
        <ele>148.9</ele>
      </trkpt>
      <trkpt lat="47.06389" lon="2.38341">
        <ele>149.3</ele>
      </trkpt>
      <trkpt lat="47.06362" lon="2.38351">
        <ele>149.6</ele>
      </trkpt>
      <trkpt lat="47.06358" lon="2.38354">
        <ele>149.6</ele>
      </trkpt>
      <trkpt lat="47.06352" lon="2.3836">
        <ele>149.7</ele>
      </trkpt>
      <trkpt lat="47.06338" lon="2.38389">
        <ele>149.9</ele>
      </trkpt>
      <trkpt lat="47.06333" lon="2.38393">
        <ele>150</ele>
      </trkpt>
      <trkpt lat="47.0633" lon="2.38401">
        <ele>149.9</ele>
      </trkpt>
      <trkpt lat="47.06324" lon="2.38415">
        <ele>149.8</ele>
      </trkpt>
      <trkpt lat="47.0632" lon="2.38423">
        <ele>149.6</ele>
      </trkpt>
      <trkpt lat="47.0632" lon="2.38427">
        <ele>149.6</ele>
      </trkpt>
      <trkpt lat="47.06255" lon="2.38572">
        <ele>145.3</ele>
      </trkpt>
      <trkpt lat="47.06245" lon="2.38594">
        <ele>144.6</ele>
      </trkpt>
      <trkpt lat="47.0624" lon="2.38596">
        <ele>144.4</ele>
      </trkpt>
      <trkpt lat="47.0624" lon="2.38601">
        <ele>144.3</ele>
      </trkpt>
      <trkpt lat="47.06239" lon="2.38605">
        <ele>144.1</ele>
      </trkpt>
      <trkpt lat="47.06238" lon="2.38615">
        <ele>143.8</ele>
      </trkpt>
      <trkpt lat="47.06194" lon="2.38605">
        <ele>143.7</ele>
      </trkpt>
      <trkpt lat="47.0619" lon="2.38606">
        <ele>143.7</ele>
      </trkpt>
      <trkpt lat="47.06188" lon="2.3861">
        <ele>143.5</ele>
      </trkpt>
      <trkpt lat="47.06189" lon="2.38621">
        <ele>143.2</ele>
      </trkpt>
      <trkpt lat="47.06216" lon="2.38793">
        <ele>138.7</ele>
      </trkpt>
      <trkpt lat="47.06255" lon="2.39042">
        <ele>131.7</ele>
      </trkpt>
      <trkpt lat="47.06261" lon="2.39049">
        <ele>131.9</ele>
      </trkpt>
      <trkpt lat="47.06261" lon="2.39055">
        <ele>131.8</ele>
      </trkpt>
      <trkpt lat="47.06261" lon="2.39062">
        <ele>131.8</ele>
      </trkpt>
      <trkpt lat="47.0607" lon="2.39067">
        <ele>140.9</ele>
      </trkpt>
      <trkpt lat="47.06067" lon="2.39068">
        <ele>140.9</ele>
      </trkpt>
      <trkpt lat="47.06064" lon="2.39078">
        <ele>140.6</ele>
      </trkpt>
      <trkpt lat="47.06059" lon="2.39077">
        <ele>140.8</ele>
      </trkpt>
      <trkpt lat="47.06053" lon="2.39077">
        <ele>140.9</ele>
      </trkpt>
      <trkpt lat="47.0608" lon="2.39186">
        <ele>136.6</ele>
      </trkpt>
      <trkpt lat="47.06079" lon="2.39192">
        <ele>136.2</ele>
      </trkpt>
      <trkpt lat="47.06074" lon="2.39202">
        <ele>135.6</ele>
      </trkpt>
      <trkpt lat="47.06042" lon="2.39218">
        <ele>134.9</ele>
      </trkpt>
      <trkpt lat="47.06038" lon="2.39223">
        <ele>134.7</ele>
      </trkpt>
      <trkpt lat="47.06034" lon="2.39236">
        <ele>134</ele>
      </trkpt>
      <trkpt lat="47.06034" lon="2.39238">
        <ele>133.9</ele>
      </trkpt>
      <trkpt lat="47.06033" lon="2.39244">
        <ele>133.6</ele>
      </trkpt>
      <trkpt lat="47.06036" lon="2.39266">
        <ele>132.8</ele>
      </trkpt>
      <trkpt lat="47.06034" lon="2.39271">
        <ele>132.7</ele>
      </trkpt>
      <trkpt lat="47.05966" lon="2.39299">
        <ele>133.1</ele>
      </trkpt>
      <trkpt lat="47.05963" lon="2.39304">
        <ele>132.9</ele>
      </trkpt>
      <trkpt lat="47.05959" lon="2.39309">
        <ele>132.9</ele>
      </trkpt>
      <trkpt lat="47.05956" lon="2.39312">
        <ele>132.8</ele>
      </trkpt>
      <trkpt lat="47.05897" lon="2.39341">
        <ele>132.4</ele>
      </trkpt>
      <trkpt lat="47.05895" lon="2.39344">
        <ele>132.3</ele>
      </trkpt>
      <trkpt lat="47.05894" lon="2.39348">
        <ele>132.1</ele>
      </trkpt>
      <trkpt lat="47.0591" lon="2.39413">
        <ele>129.2</ele>
      </trkpt>
      <trkpt lat="47.05912" lon="2.39423">
        <ele>128.9</ele>
      </trkpt>
      <trkpt lat="47.05915" lon="2.3943">
        <ele>128.7</ele>
      </trkpt>
      <trkpt lat="47.05896" lon="2.39441">
        <ele>128.7</ele>
      </trkpt>
      <trkpt lat="47.05893" lon="2.39445">
        <ele>128.7</ele>
      </trkpt>
      <trkpt lat="47.05892" lon="2.39459">
        <ele>128.4</ele>
      </trkpt>
      <trkpt lat="47.05899" lon="2.3949">
        <ele>127.6</ele>
      </trkpt>
      <trkpt lat="47.05935" lon="2.39616">
        <ele>125.7</ele>
      </trkpt>
      <trkpt lat="47.05941" lon="2.39626">
        <ele>126</ele>
      </trkpt>
      <trkpt lat="47.05949" lon="2.39636">
        <ele>126.2</ele>
      </trkpt>
      <trkpt lat="47.05977" lon="2.39664">
        <ele>125.8</ele>
      </trkpt>
      <trkpt lat="47.05981" lon="2.39673">
        <ele>125.6</ele>
      </trkpt>
      <trkpt lat="47.05977" lon="2.39686">
        <ele>125.6</ele>
      </trkpt>
      <trkpt lat="47.0595" lon="2.39661">
        <ele>126.7</ele>
      </trkpt>
      <trkpt lat="47.05943" lon="2.39663">
        <ele>127</ele>
      </trkpt>
      <trkpt lat="47.0595" lon="2.39661">
        <ele>126.7</ele>
      </trkpt>
      <trkpt lat="47.05946" lon="2.39658">
        <ele>126.7</ele>
      </trkpt>
      <trkpt lat="47.0593" lon="2.39642">
        <ele>126.6</ele>
      </trkpt>
      <trkpt lat="47.05903" lon="2.39594">
        <ele>124.9</ele>
      </trkpt>
      <trkpt lat="47.05893" lon="2.39583">
        <ele>124.9</ele>
      </trkpt>
      <trkpt lat="47.05881" lon="2.39575">
        <ele>125.5</ele>
      </trkpt>
      <trkpt lat="47.05859" lon="2.39562">
        <ele>126.7</ele>
      </trkpt>
      <trkpt lat="47.05845" lon="2.39557">
        <ele>127.3</ele>
      </trkpt>
      <trkpt lat="47.05828" lon="2.39554">
        <ele>127.9</ele>
      </trkpt>
      <trkpt lat="47.05803" lon="2.39554">
        <ele>128.6</ele>
      </trkpt>
      <trkpt lat="47.05788" lon="2.39556">
        <ele>129.1</ele>
      </trkpt>
      <trkpt lat="47.05768" lon="2.3956">
        <ele>129.8</ele>
      </trkpt>
      <trkpt lat="47.05733" lon="2.39568">
        <ele>131.1</ele>
      </trkpt>
      <trkpt lat="47.05715" lon="2.39576">
        <ele>131.7</ele>
      </trkpt>
      <trkpt lat="47.05689" lon="2.39587">
        <ele>132.3</ele>
      </trkpt>
      <trkpt lat="47.05673" lon="2.39595">
        <ele>132.3</ele>
      </trkpt>
      <trkpt lat="47.05661" lon="2.39607">
        <ele>132</ele>
      </trkpt>
      <trkpt lat="47.05655" lon="2.39612">
        <ele>131.9</ele>
      </trkpt>
      <trkpt lat="47.05646" lon="2.39617">
        <ele>131.9</ele>
      </trkpt>
      <trkpt lat="47.05626" lon="2.39624">
        <ele>132.3</ele>
      </trkpt>
      <trkpt lat="47.05586" lon="2.39629">
        <ele>133.4</ele>
      </trkpt>
      <trkpt lat="47.05551" lon="2.39633">
        <ele>131.1</ele>
      </trkpt>
      <trkpt lat="47.05547" lon="2.39633">
        <ele>130.8</ele>
      </trkpt>
      <trkpt lat="47.05529" lon="2.39635">
        <ele>129.4</ele>
      </trkpt>
      <trkpt lat="47.0552" lon="2.39641">
        <ele>128.4</ele>
      </trkpt>
      <trkpt lat="47.05492" lon="2.39662">
        <ele>125.7</ele>
      </trkpt>
      <trkpt lat="47.05454" lon="2.39672">
        <ele>127.1</ele>
      </trkpt>
      <trkpt lat="47.05446" lon="2.39675">
        <ele>127.3</ele>
      </trkpt>
      <trkpt lat="47.0544" lon="2.3968">
        <ele>127.4</ele>
      </trkpt>
      <trkpt lat="47.05411" lon="2.39718">
        <ele>126.6</ele>
      </trkpt>
      <trkpt lat="47.05402" lon="2.39738">
        <ele>125.7</ele>
      </trkpt>
      <trkpt lat="47.0539" lon="2.39782">
        <ele>125</ele>
      </trkpt>
      <trkpt lat="47.05382" lon="2.39803">
        <ele>125</ele>
      </trkpt>
      <trkpt lat="47.05365" lon="2.3982">
        <ele>125</ele>
      </trkpt>
      <trkpt lat="47.05168" lon="2.39876">
        <ele>126.9</ele>
      </trkpt>
      <trkpt lat="47.05159" lon="2.3988">
        <ele>127.1</ele>
      </trkpt>
      <trkpt lat="47.05139" lon="2.39898">
        <ele>127.3</ele>
      </trkpt>
      <trkpt lat="47.05136" lon="2.399">
        <ele>127.3</ele>
      </trkpt>
      <trkpt lat="47.05134" lon="2.39901">
        <ele>127.4</ele>
      </trkpt>
      <trkpt lat="47.05054" lon="2.39926">
        <ele>129.6</ele>
      </trkpt>
      <trkpt lat="47.05048" lon="2.39928">
        <ele>129.5</ele>
      </trkpt>
      <trkpt lat="47.04969" lon="2.39999">
        <ele>127.6</ele>
      </trkpt>
      <trkpt lat="47.04906" lon="2.39999">
        <ele>127.1</ele>
      </trkpt>
      <trkpt lat="47.04888" lon="2.39983">
        <ele>127.3</ele>
      </trkpt>
      <trkpt lat="47.04877" lon="2.39987">
        <ele>127.5</ele>
      </trkpt>
      <trkpt lat="47.04785" lon="2.40111">
        <ele>131.2</ele>
      </trkpt>
      <trkpt lat="47.04766" lon="2.40132">
        <ele>130.5</ele>
      </trkpt>
      <trkpt lat="47.04673" lon="2.40266">
        <ele>127.9</ele>
      </trkpt>
      <trkpt lat="47.04655" lon="2.40284">
        <ele>127.4</ele>
      </trkpt>
      <trkpt lat="47.04624" lon="2.40281">
        <ele>127.5</ele>
      </trkpt>
      <trkpt lat="47.0458" lon="2.40294">
        <ele>126.9</ele>
      </trkpt>
      <trkpt lat="47.04518" lon="2.40281">
        <ele>128</ele>
      </trkpt>
      <trkpt lat="47.04455" lon="2.40235">
        <ele>128.3</ele>
      </trkpt>
      <trkpt lat="47.04442" lon="2.40227">
        <ele>128.3</ele>
      </trkpt>
      <trkpt lat="47.0443" lon="2.40225">
        <ele>128.1</ele>
      </trkpt>
      <trkpt lat="47.04417" lon="2.40227">
        <ele>127.5</ele>
      </trkpt>
      <trkpt lat="47.04401" lon="2.40237">
        <ele>126.6</ele>
      </trkpt>
      <trkpt lat="47.04257" lon="2.40374">
        <ele>129.1</ele>
      </trkpt>
      <trkpt lat="47.04252" lon="2.40375">
        <ele>129.4</ele>
      </trkpt>
      <trkpt lat="47.04243" lon="2.40378">
        <ele>129.5</ele>
      </trkpt>
      <trkpt lat="47.04232" lon="2.40382">
        <ele>129.4</ele>
      </trkpt>
      <trkpt lat="47.0423" lon="2.40384">
        <ele>129.4</ele>
      </trkpt>
      <trkpt lat="47.04229" lon="2.40391">
        <ele>129.3</ele>
      </trkpt>
      <trkpt lat="47.04227" lon="2.40405">
        <ele>129.1</ele>
      </trkpt>
      <trkpt lat="47.04213" lon="2.40473">
        <ele>127.5</ele>
      </trkpt>
      <trkpt lat="47.0421" lon="2.40507">
        <ele>126.9</ele>
      </trkpt>
      <trkpt lat="47.04202" lon="2.40617">
        <ele>127</ele>
      </trkpt>
      <trkpt lat="47.04204" lon="2.40633">
        <ele>127</ele>
      </trkpt>
      <trkpt lat="47.04208" lon="2.40646">
        <ele>126.9</ele>
      </trkpt>
      <trkpt lat="47.04218" lon="2.4066">
        <ele>126.5</ele>
      </trkpt>
      <trkpt lat="47.0427" lon="2.40703">
        <ele>126.8</ele>
      </trkpt>
      <trkpt lat="47.04306" lon="2.40738">
        <ele>129</ele>
      </trkpt>
      <trkpt lat="47.04313" lon="2.40742">
        <ele>129.3</ele>
      </trkpt>
      <trkpt lat="47.04327" lon="2.40744">
        <ele>129.6</ele>
      </trkpt>
      <trkpt lat="47.04362" lon="2.4074">
        <ele>129.4</ele>
      </trkpt>
      <trkpt lat="47.04375" lon="2.40739">
        <ele>129.3</ele>
      </trkpt>
      <trkpt lat="47.04391" lon="2.40729">
        <ele>128.7</ele>
      </trkpt>
      <trkpt lat="47.04417" lon="2.40702">
        <ele>127.1</ele>
      </trkpt>
      <trkpt lat="47.04429" lon="2.4069">
        <ele>127.4</ele>
      </trkpt>
      <trkpt lat="47.0445" lon="2.40674">
        <ele>128.5</ele>
      </trkpt>
      <trkpt lat="47.04458" lon="2.4067">
        <ele>129.1</ele>
      </trkpt>
      <trkpt lat="47.04469" lon="2.40673">
        <ele>130.2</ele>
      </trkpt>
      <trkpt lat="47.04474" lon="2.4068">
        <ele>130.8</ele>
      </trkpt>
      <trkpt lat="47.04512" lon="2.40765">
        <ele>131.8</ele>
      </trkpt>
      <trkpt lat="47.04534" lon="2.40798">
        <ele>129.7</ele>
      </trkpt>
      <trkpt lat="47.04549" lon="2.40828">
        <ele>128.3</ele>
      </trkpt>
      <trkpt lat="47.04554" lon="2.40857">
        <ele>128.5</ele>
      </trkpt>
      <trkpt lat="47.04555" lon="2.40869">
        <ele>128.7</ele>
      </trkpt>
      <trkpt lat="47.04555" lon="2.40878">
        <ele>129</ele>
      </trkpt>
      <trkpt lat="47.04556" lon="2.40888">
        <ele>129.2</ele>
      </trkpt>
      <trkpt lat="47.04559" lon="2.40903">
        <ele>129.5</ele>
      </trkpt>
      <trkpt lat="47.04562" lon="2.40913">
        <ele>129.6</ele>
      </trkpt>
      <trkpt lat="47.04568" lon="2.40925">
        <ele>129.5</ele>
      </trkpt>
      <trkpt lat="47.04577" lon="2.40934">
        <ele>129.2</ele>
      </trkpt>
      <trkpt lat="47.0458" lon="2.40933">
        <ele>129.1</ele>
      </trkpt>
      <trkpt lat="47.04597" lon="2.40929">
        <ele>128.4</ele>
      </trkpt>
      <trkpt lat="47.04673" lon="2.4091">
        <ele>125.1</ele>
      </trkpt>
      <trkpt lat="47.04726" lon="2.409">
        <ele>126.1</ele>
      </trkpt>
      <trkpt lat="47.04782" lon="2.40905">
        <ele>127.7</ele>
      </trkpt>
      <trkpt lat="47.04806" lon="2.40905">
        <ele>128.5</ele>
      </trkpt>
      <trkpt lat="47.0483" lon="2.40903">
        <ele>129.1</ele>
      </trkpt>
      <trkpt lat="47.0485" lon="2.40896">
        <ele>128.5</ele>
      </trkpt>
      <trkpt lat="47.04879" lon="2.40874">
        <ele>127.2</ele>
      </trkpt>
      <trkpt lat="47.04885" lon="2.40869">
        <ele>127</ele>
      </trkpt>
      <trkpt lat="47.04911" lon="2.40848">
        <ele>126.3</ele>
      </trkpt>
      <trkpt lat="47.04948" lon="2.40816">
        <ele>127</ele>
      </trkpt>
      <trkpt lat="47.04962" lon="2.408">
        <ele>126.9</ele>
      </trkpt>
      <trkpt lat="47.04983" lon="2.40773">
        <ele>126.2</ele>
      </trkpt>
      <trkpt lat="47.05001" lon="2.40746">
        <ele>125.1</ele>
      </trkpt>
      <trkpt lat="47.05024" lon="2.4071">
        <ele>126.6</ele>
      </trkpt>
      <trkpt lat="47.05027" lon="2.40701">
        <ele>126.8</ele>
      </trkpt>
      <trkpt lat="47.0503" lon="2.40685">
        <ele>127</ele>
      </trkpt>
      <trkpt lat="47.05021" lon="2.40643">
        <ele>126.7</ele>
      </trkpt>
      <trkpt lat="47.05019" lon="2.40626">
        <ele>126.6</ele>
      </trkpt>
      <trkpt lat="47.05018" lon="2.40595">
        <ele>126.5</ele>
      </trkpt>
      <trkpt lat="47.0502" lon="2.40578">
        <ele>126.4</ele>
      </trkpt>
      <trkpt lat="47.05028" lon="2.40547">
        <ele>126.5</ele>
      </trkpt>
      <trkpt lat="47.05044" lon="2.40508">
        <ele>127.1</ele>
      </trkpt>
      <trkpt lat="47.0505" lon="2.405">
        <ele>127.4</ele>
      </trkpt>
      <trkpt lat="47.05058" lon="2.40491">
        <ele>127.5</ele>
      </trkpt>
      <trkpt lat="47.05079" lon="2.40475">
        <ele>127.7</ele>
      </trkpt>
      <trkpt lat="47.05083" lon="2.40473">
        <ele>127.7</ele>
      </trkpt>
      <trkpt lat="47.05131" lon="2.40446">
        <ele>127.5</ele>
      </trkpt>
      <trkpt lat="47.05174" lon="2.40424">
        <ele>128.3</ele>
      </trkpt>
      <trkpt lat="47.05186" lon="2.40418">
        <ele>128.5</ele>
      </trkpt>
      <trkpt lat="47.05239" lon="2.40399">
        <ele>128.2</ele>
      </trkpt>
      <trkpt lat="47.05329" lon="2.40376">
        <ele>127.4</ele>
      </trkpt>
      <trkpt lat="47.05335" lon="2.40377">
        <ele>127.5</ele>
      </trkpt>
      <trkpt lat="47.05342" lon="2.4038">
        <ele>127.3</ele>
      </trkpt>
      <trkpt lat="47.05352" lon="2.40387">
        <ele>127.1</ele>
      </trkpt>
      <trkpt lat="47.05384" lon="2.40426">
        <ele>126.3</ele>
      </trkpt>
      <trkpt lat="47.054" lon="2.40431">
        <ele>125.8</ele>
      </trkpt>
      <trkpt lat="47.05404" lon="2.40429">
        <ele>125.6</ele>
      </trkpt>
      <trkpt lat="47.05414" lon="2.40425">
        <ele>125.2</ele>
      </trkpt>
      <trkpt lat="47.05444" lon="2.40407">
        <ele>126.2</ele>
      </trkpt>
      <trkpt lat="47.05507" lon="2.40371">
        <ele>126.8</ele>
      </trkpt>
      <trkpt lat="47.0554" lon="2.40356">
        <ele>125.7</ele>
      </trkpt>
      <trkpt lat="47.0558" lon="2.4034">
        <ele>124.4</ele>
      </trkpt>
      <trkpt lat="47.05582" lon="2.4034">
        <ele>124.4</ele>
      </trkpt>
      <trkpt lat="47.05592" lon="2.40337">
        <ele>124.8</ele>
      </trkpt>
      <trkpt lat="47.05602" lon="2.40337">
        <ele>125.5</ele>
      </trkpt>
      <trkpt lat="47.05609" lon="2.40336">
        <ele>125.9</ele>
      </trkpt>
      <trkpt lat="47.05621" lon="2.40329">
        <ele>126.8</ele>
      </trkpt>
      <trkpt lat="47.05631" lon="2.40326">
        <ele>127.7</ele>
      </trkpt>
      <trkpt lat="47.0566" lon="2.40313">
        <ele>130.4</ele>
      </trkpt>
      <trkpt lat="47.05661" lon="2.40312">
        <ele>130.6</ele>
      </trkpt>
      <trkpt lat="47.05641" lon="2.4021">
        <ele>128.2</ele>
      </trkpt>
      <trkpt lat="47.0573" lon="2.40168">
        <ele>130.3</ele>
      </trkpt>
      <trkpt lat="47.0579" lon="2.4014">
        <ele>129.4</ele>
      </trkpt>
      <trkpt lat="47.05796" lon="2.40139">
        <ele>129.3</ele>
      </trkpt>
      <trkpt lat="47.05817" lon="2.40142">
        <ele>129.4</ele>
      </trkpt>
      <trkpt lat="47.05828" lon="2.40151">
        <ele>129.9</ele>
      </trkpt>
      <trkpt lat="47.05837" lon="2.40163">
        <ele>130.7</ele>
      </trkpt>
      <trkpt lat="47.05838" lon="2.40168">
        <ele>130.9</ele>
      </trkpt>
      <trkpt lat="47.05845" lon="2.40165">
        <ele>130.6</ele>
      </trkpt>
      <trkpt lat="47.05885" lon="2.40147">
        <ele>129.1</ele>
      </trkpt>
      <trkpt lat="47.05948" lon="2.40119">
        <ele>129</ele>
      </trkpt>
      <trkpt lat="47.05946" lon="2.40114">
        <ele>128.8</ele>
      </trkpt>
      <trkpt lat="47.05945" lon="2.40108">
        <ele>128.7</ele>
      </trkpt>
      <trkpt lat="47.0595" lon="2.40096">
        <ele>128.6</ele>
      </trkpt>
      <trkpt lat="47.05956" lon="2.40078">
        <ele>128.3</ele>
      </trkpt>
      <trkpt lat="47.05959" lon="2.40063">
        <ele>127.9</ele>
      </trkpt>
      <trkpt lat="47.05959" lon="2.4006">
        <ele>127.8</ele>
      </trkpt>
      <trkpt lat="47.0596" lon="2.40056">
        <ele>127.7</ele>
      </trkpt>
      <trkpt lat="47.05956" lon="2.40026">
        <ele>126.7</ele>
      </trkpt>
      <trkpt lat="47.05956" lon="2.40017">
        <ele>126.5</ele>
      </trkpt>
      <trkpt lat="47.05959" lon="2.40002">
        <ele>126.1</ele>
      </trkpt>
      <trkpt lat="47.05963" lon="2.39995">
        <ele>126</ele>
      </trkpt>
      <trkpt lat="47.05969" lon="2.3999">
        <ele>126.1</ele>
      </trkpt>
      <trkpt lat="47.05986" lon="2.39982">
        <ele>126.3</ele>
      </trkpt>
      <trkpt lat="47.05992" lon="2.3998">
        <ele>126.4</ele>
      </trkpt>
      <trkpt lat="47.06021" lon="2.39967">
        <ele>126.5</ele>
      </trkpt>
      <trkpt lat="47.06042" lon="2.39958">
        <ele>126.5</ele>
      </trkpt>
      <trkpt lat="47.06068" lon="2.39947">
        <ele>126.3</ele>
      </trkpt>
      <trkpt lat="47.06111" lon="2.39928">
        <ele>126.5</ele>
      </trkpt>
      <trkpt lat="47.06114" lon="2.39919">
        <ele>126.2</ele>
      </trkpt>
      <trkpt lat="47.06134" lon="2.39911">
        <ele>126.7</ele>
      </trkpt>
      <trkpt lat="47.06146" lon="2.39906">
        <ele>127</ele>
      </trkpt>
      <trkpt lat="47.06161" lon="2.399">
        <ele>127.2</ele>
      </trkpt>
      <trkpt lat="47.0618" lon="2.39892">
        <ele>127.3</ele>
      </trkpt>
      <trkpt lat="47.06204" lon="2.39891">
        <ele>127.8</ele>
      </trkpt>
      <trkpt lat="47.06213" lon="2.39891">
        <ele>127.9</ele>
      </trkpt>
      <trkpt lat="47.06219" lon="2.39893">
        <ele>128</ele>
      </trkpt>
      <trkpt lat="47.06231" lon="2.39894">
        <ele>128.2</ele>
      </trkpt>
      <trkpt lat="47.06237" lon="2.3989">
        <ele>128.4</ele>
      </trkpt>
      <trkpt lat="47.06247" lon="2.39877">
        <ele>128.9</ele>
      </trkpt>
      <trkpt lat="47.06251" lon="2.39867">
        <ele>129.2</ele>
      </trkpt>
      <trkpt lat="47.06253" lon="2.39858">
        <ele>129.4</ele>
      </trkpt>
      <trkpt lat="47.06253" lon="2.39853">
        <ele>129.5</ele>
      </trkpt>
      <trkpt lat="47.06254" lon="2.39848">
        <ele>129.6</ele>
      </trkpt>
      <trkpt lat="47.06285" lon="2.3985">
        <ele>129.3</ele>
      </trkpt>
      <trkpt lat="47.06285" lon="2.39851">
        <ele>129.2</ele>
      </trkpt>
      <trkpt lat="47.06289" lon="2.39872">
        <ele>128.8</ele>
      </trkpt>
      <trkpt lat="47.0629" lon="2.39872">
        <ele>128.8</ele>
      </trkpt>
      <trkpt lat="47.06292" lon="2.39884">
        <ele>128.6</ele>
      </trkpt>
      <trkpt lat="47.06299" lon="2.3992">
        <ele>128.1</ele>
      </trkpt>
      <trkpt lat="47.06302" lon="2.39933">
        <ele>128.5</ele>
      </trkpt>
      <trkpt lat="47.06306" lon="2.39949">
        <ele>128.9</ele>
      </trkpt>
      <trkpt lat="47.06317" lon="2.40006">
        <ele>130.3</ele>
      </trkpt>
      <trkpt lat="47.06319" lon="2.40018">
        <ele>130.6</ele>
      </trkpt>
      <trkpt lat="47.0632" lon="2.40019">
        <ele>130.6</ele>
      </trkpt>
      <trkpt lat="47.06319" lon="2.40018">
        <ele>130.6</ele>
      </trkpt>
      <trkpt lat="47.06328" lon="2.40014">
        <ele>130.3</ele>
      </trkpt>
      <trkpt lat="47.06447" lon="2.39958">
        <ele>131.4</ele>
      </trkpt>
      <trkpt lat="47.06463" lon="2.39952">
        <ele>131.9</ele>
      </trkpt>
      <trkpt lat="47.06596" lon="2.39934">
        <ele>131.7</ele>
      </trkpt>
      <trkpt lat="47.06618" lon="2.39928">
        <ele>131.2</ele>
      </trkpt>
      <trkpt lat="47.06624" lon="2.39936">
        <ele>131.6</ele>
      </trkpt>
      <trkpt lat="47.06626" lon="2.3994">
        <ele>131.8</ele>
      </trkpt>
      <trkpt lat="47.06634" lon="2.39948">
        <ele>132.1</ele>
      </trkpt>
      <trkpt lat="47.06638" lon="2.39961">
        <ele>132.8</ele>
      </trkpt>
      <trkpt lat="47.06638" lon="2.39974">
        <ele>133.5</ele>
      </trkpt>
      <trkpt lat="47.06641" lon="2.39974">
        <ele>133.5</ele>
      </trkpt>
      <trkpt lat="47.0666" lon="2.39979">
        <ele>133.8</ele>
      </trkpt>
      <trkpt lat="47.06662" lon="2.39979">
        <ele>133.8</ele>
      </trkpt>
      <trkpt lat="47.06695" lon="2.40002">
        <ele>134.4</ele>
      </trkpt>
      <trkpt lat="47.06744" lon="2.3999">
        <ele>132.8</ele>
      </trkpt>
      <trkpt lat="47.06748" lon="2.39991">
        <ele>132.7</ele>
      </trkpt>
      <trkpt lat="47.06753" lon="2.39997">
        <ele>132.9</ele>
      </trkpt>
      <trkpt lat="47.06767" lon="2.40037">
        <ele>134.2</ele>
      </trkpt>
      <trkpt lat="47.06806" lon="2.40223">
        <ele>136.4</ele>
      </trkpt>
      <trkpt lat="47.06814" lon="2.40246">
        <ele>136.4</ele>
      </trkpt>
      <trkpt lat="47.06817" lon="2.40254">
        <ele>136.6</ele>
      </trkpt>
      <trkpt lat="47.0682" lon="2.40261">
        <ele>136.8</ele>
      </trkpt>
      <trkpt lat="47.06819" lon="2.40266">
        <ele>137.1</ele>
      </trkpt>
      <trkpt lat="47.06828" lon="2.40327">
        <ele>139.8</ele>
      </trkpt>
      <trkpt lat="47.06836" lon="2.40379">
        <ele>140</ele>
      </trkpt>
      <trkpt lat="47.06858" lon="2.40514">
        <ele>143.1</ele>
      </trkpt>
      <trkpt lat="47.06864" lon="2.40576">
        <ele>144.8</ele>
      </trkpt>
      <trkpt lat="47.06869" lon="2.40609">
        <ele>145.3</ele>
      </trkpt>
      <trkpt lat="47.06734" lon="2.40683">
        <ele>148.8</ele>
      </trkpt>
      <trkpt lat="47.06732" lon="2.40677">
        <ele>148.9</ele>
      </trkpt>
    </trkseg>
  </trk>
</gpx>